<?xml version='1.0' encoding='UTF-8'?><gpx version="1.1" creator="JPX - https://github.com/jenetics/jpx" xmlns="http://www.topografix.com/GPX/1/1"><trk><trkseg><trkpt lat="43.56879425953119" lon="11.481267718896808"><ele>153.20000000000002</ele><time>2026-04-26T08:35:00.999Z</time></trkpt><trkpt lat="43.56870611515312" lon="11.48116770766407"><ele>153.4</ele><time>2026-04-26T08:35:02.999Z</time></trkpt><trkpt lat="43.56865457583009" lon="11.481047721992756"><ele>153.60000000000002</ele><time>2026-04-26T08:35:05.999Z</time></trkpt><trkpt lat="43.56860455489078" lon="11.48094874622382"><ele>153.8</ele><time>2026-04-26T08:35:08.999Z</time></trkpt><trkpt lat="43.56864464239904" lon="11.48083234771846"><ele>154.0</ele><time>2026-04-26T08:35:10.999Z</time></trkpt><trkpt lat="43.56871863595621" lon="11.480755118949798"><ele>154.0</ele><time>2026-04-26T08:35:12.999Z</time></trkpt><trkpt lat="43.56875188613843" lon="11.48065065859883"><ele>154.0</ele><time>2026-04-26T08:35:16.999Z</time></trkpt><trkpt lat="43.56874987015052" lon="11.480545441043137"><ele>154.0</ele><time>2026-04-26T08:35:17.999Z</time></trkpt><trkpt lat="43.568662863804185" lon="11.480439173239926"><ele>154.0</ele><time>2026-04-26T08:35:19.999Z</time></trkpt><trkpt lat="43.568600916649174" lon="11.48036995261685"><ele>154.0</ele><time>2026-04-26T08:35:20.999Z</time></trkpt><trkpt lat="43.56853504142816" lon="11.48029111625513"><ele>154.0</ele><time>2026-04-26T08:35:21.999Z</time></trkpt><trkpt lat="43.56846119816225" lon="11.480202463284803"><ele>154.0</ele><time>2026-04-26T08:35:23.999Z</time></trkpt><trkpt lat="43.56835377885288" lon="11.480062888302434"><ele>154.0</ele><time>2026-04-26T08:35:25.999Z</time></trkpt><trkpt lat="43.56828724154444" lon="11.47997316593054"><ele>154.0</ele><time>2026-04-26T08:35:26.999Z</time></trkpt><trkpt lat="43.568218430004755" lon="11.47989055360851"><ele>154.0</ele><time>2026-04-26T08:35:27.999Z</time></trkpt><trkpt lat="43.56815663513702" lon="11.479813755598821"><ele>154.0</ele><time>2026-04-26T08:35:28.999Z</time></trkpt><trkpt lat="43.56809624641646" lon="11.479738752067165"><ele>154.0</ele><time>2026-04-26T08:35:29.999Z</time></trkpt><trkpt lat="43.56803860770792" lon="11.479668307867202"><ele>154.0</ele><time>2026-04-26T08:35:30.999Z</time></trkpt><trkpt lat="43.56798458165279" lon="11.479603643114986"><ele>154.0</ele><time>2026-04-26T08:35:31.999Z</time></trkpt><trkpt lat="43.567899419673125" lon="11.479491363174382"><ele>154.0</ele><time>2026-04-26T08:35:33.999Z</time></trkpt><trkpt lat="43.56781597514223" lon="11.479420130769787"><ele>154.0</ele><time>2026-04-26T08:35:35.999Z</time></trkpt><trkpt lat="43.56773514135116" lon="11.47948772409233"><ele>155.0</ele><time>2026-04-26T08:35:36.999Z</time></trkpt><trkpt lat="43.56771048368778" lon="11.47962681647112"><ele>156.0</ele><time>2026-04-26T08:35:37.999Z</time></trkpt><trkpt lat="43.56769395332864" lon="11.479737316833292"><ele>157.0</ele><time>2026-04-26T08:35:38.999Z</time></trkpt><trkpt lat="43.567669789879524" lon="11.47984104652244"><ele>158.0</ele><time>2026-04-26T08:35:39.999Z</time></trkpt><trkpt lat="43.56765464845886" lon="11.479935360429389"><ele>159.0</ele><time>2026-04-26T08:35:40.999Z</time></trkpt><trkpt lat="43.56765344805997" lon="11.480032275773526"><ele>160.0</ele><time>2026-04-26T08:35:41.999Z</time></trkpt><trkpt lat="43.567667351489604" lon="11.480122137974798"><ele>160.0</ele><time>2026-04-26T08:35:42.999Z</time></trkpt><trkpt lat="43.56767827382615" lon="11.480208668737207"><ele>160.0</ele><time>2026-04-26T08:35:43.999Z</time></trkpt><trkpt lat="43.567682977063164" lon="11.480303504526065"><ele>160.0</ele><time>2026-04-26T08:35:44.999Z</time></trkpt><trkpt lat="43.56767384579836" lon="11.48039746338223"><ele>160.0</ele><time>2026-04-26T08:35:45.999Z</time></trkpt><trkpt lat="43.56764347513337" lon="11.480488330407356"><ele>160.0</ele><time>2026-04-26T08:35:46.999Z</time></trkpt><trkpt lat="43.56760736153418" lon="11.480595909897252"><ele>160.0</ele><time>2026-04-26T08:35:47.999Z</time></trkpt><trkpt lat="43.56756822650401" lon="11.480705509771438"><ele>160.0</ele><time>2026-04-26T08:35:48.999Z</time></trkpt><trkpt lat="43.56753199761745" lon="11.480796320571478"><ele>160.16666666666669</ele><time>2026-04-26T08:35:50Z</time></trkpt><trkpt lat="43.56750821865742" lon="11.480894962047847"><ele>160.33333333333334</ele><time>2026-04-26T08:35:51Z</time></trkpt><trkpt lat="43.56750819707584" lon="11.481005020037484"><ele>160.5</ele><time>2026-04-26T08:35:52Z</time></trkpt><trkpt lat="43.56753253656399" lon="11.481111534034481"><ele>160.66666666666666</ele><time>2026-04-26T08:35:53Z</time></trkpt><trkpt lat="43.56756409841353" lon="11.481208684971913"><ele>160.83333333333331</ele><time>2026-04-26T08:35:54Z</time></trkpt><trkpt lat="43.56759146837504" lon="11.481300040740651"><ele>161.0</ele><time>2026-04-26T08:35:55Z</time></trkpt><trkpt lat="43.56760908324424" lon="11.481397982094734"><ele>160.20000000000002</ele><time>2026-04-26T08:35:56Z</time></trkpt><trkpt lat="43.567617321872156" lon="11.481487214578"><ele>159.4</ele><time>2026-04-26T08:35:57Z</time></trkpt><trkpt lat="43.567580681717246" lon="11.481627248677444"><ele>158.6</ele><time>2026-04-26T08:35:59Z</time></trkpt><trkpt lat="43.5675481472838" lon="11.481747905354743"><ele>157.8</ele><time>2026-04-26T08:36:01Z</time></trkpt><trkpt lat="43.56749558998716" lon="11.48185723181512"><ele>157.0</ele><time>2026-04-26T08:36:05Z</time></trkpt><trkpt lat="43.56739849922821" lon="11.481960567971372"><ele>157.0</ele><time>2026-04-26T08:36:07Z</time></trkpt><trkpt lat="43.567339690809625" lon="11.482024322809973"><ele>157.0</ele><time>2026-04-26T08:36:08Z</time></trkpt><trkpt lat="43.567264850135224" lon="11.482090811889188"><ele>157.0</ele><time>2026-04-26T08:36:09Z</time></trkpt><trkpt lat="43.567192779999196" lon="11.482161839607597"><ele>157.0</ele><time>2026-04-26T08:36:10Z</time></trkpt><trkpt lat="43.56711677529141" lon="11.482240172931505"><ele>157.0</ele><time>2026-04-26T08:36:11Z</time></trkpt><trkpt lat="43.567049703776135" lon="11.482312098295118"><ele>157.0</ele><time>2026-04-26T08:36:12Z</time></trkpt><trkpt lat="43.56698224065186" lon="11.482380600473837"><ele>155.16666666666669</ele><time>2026-04-26T08:36:13Z</time></trkpt><trkpt lat="43.56692237709557" lon="11.482453998862137"><ele>153.33333333333334</ele><time>2026-04-26T08:36:14Z</time></trkpt><trkpt lat="43.56686709205225" lon="11.482521841276586"><ele>151.5</ele><time>2026-04-26T08:36:15Z</time></trkpt><trkpt lat="43.5668101962754" lon="11.482595439161194"><ele>149.66666666666666</ele><time>2026-04-26T08:36:16Z</time></trkpt><trkpt lat="43.566750227786784" lon="11.482657811891547"><ele>147.83333333333331</ele><time>2026-04-26T08:36:17Z</time></trkpt><trkpt lat="43.56669414920723" lon="11.482726197747157"><ele>146.0</ele><time>2026-04-26T08:36:18Z</time></trkpt><trkpt lat="43.56663639631147" lon="11.48279762003153"><ele>146.0</ele><time>2026-04-26T08:36:19Z</time></trkpt><trkpt lat="43.56657908725571" lon="11.482862476486536"><ele>146.0</ele><time>2026-04-26T08:36:20Z</time></trkpt><trkpt lat="43.56652639183301" lon="11.482932609013137"><ele>146.0</ele><time>2026-04-26T08:36:21Z</time></trkpt><trkpt lat="43.56647524261869" lon="11.482984329828437"><ele>146.0</ele><time>2026-04-26T08:36:22Z</time></trkpt><trkpt lat="43.56639022347848" lon="11.483084852713985"><ele>146.0</ele><time>2026-04-26T08:36:24Z</time></trkpt><trkpt lat="43.56631523423734" lon="11.48317816666658"><ele>146.0</ele><time>2026-04-26T08:36:26Z</time></trkpt><trkpt lat="43.566262851511006" lon="11.483228552603313"><ele>145.4</ele><time>2026-04-26T08:36:28Z</time></trkpt><trkpt lat="43.56616376014512" lon="11.483284640434054"><ele>144.8</ele><time>2026-04-26T08:36:31Z</time></trkpt><trkpt lat="43.56609253000751" lon="11.483345269254654"><ele>144.20000000000002</ele><time>2026-04-26T08:36:34Z</time></trkpt><trkpt lat="43.56599485800984" lon="11.483247381464428"><ele>143.6</ele><time>2026-04-26T08:36:38Z</time></trkpt><trkpt lat="43.56594914611344" lon="11.483179071970552"><ele>143.0</ele><time>2026-04-26T08:36:39Z</time></trkpt><trkpt lat="43.56590971212679" lon="11.483052914538552"><ele>143.25</ele><time>2026-04-26T08:36:40Z</time></trkpt><trkpt lat="43.56583851023721" lon="11.482818903735549"><ele>143.5</ele><time>2026-04-26T08:36:42Z</time></trkpt><trkpt lat="43.56573850479195" lon="11.482687585549309"><ele>143.75</ele><time>2026-04-26T08:36:43Z</time></trkpt><trkpt lat="43.565639663691776" lon="11.48258503934914"><ele>144.0</ele><time>2026-04-26T08:36:44Z</time></trkpt><trkpt lat="43.56554962199528" lon="11.482514431174076"><ele>144.0</ele><time>2026-04-26T08:36:45Z</time></trkpt><trkpt lat="43.56544921094278" lon="11.48245512895032"><ele>144.0</ele><time>2026-04-26T08:36:46Z</time></trkpt><trkpt lat="43.565339788946865" lon="11.482381924244592"><ele>144.0</ele><time>2026-04-26T08:36:47Z</time></trkpt><trkpt lat="43.56523083551893" lon="11.482305076334946"><ele>144.0</ele><time>2026-04-26T08:36:48Z</time></trkpt><trkpt lat="43.56510718414643" lon="11.482228880936193"><ele>144.25</ele><time>2026-04-26T08:36:49Z</time></trkpt><trkpt lat="43.564986992608304" lon="11.482148498231012"><ele>144.5</ele><time>2026-04-26T08:36:50Z</time></trkpt><trkpt lat="43.56485541607513" lon="11.482058191476655"><ele>144.75</ele><time>2026-04-26T08:36:51Z</time></trkpt><trkpt lat="43.56473134572793" lon="11.481941597418526"><ele>145.0</ele><time>2026-04-26T08:36:52Z</time></trkpt><trkpt lat="43.56463598678315" lon="11.481845114440395"><ele>145.0</ele><time>2026-04-26T08:36:53Z</time></trkpt><trkpt lat="43.5645501401623" lon="11.481762172593847"><ele>145.0</ele><time>2026-04-26T08:36:54Z</time></trkpt><trkpt lat="43.564478304562925" lon="11.481687588623497"><ele>145.0</ele><time>2026-04-26T08:36:55Z</time></trkpt><trkpt lat="43.564408169757904" lon="11.481592463949188"><ele>145.0</ele><time>2026-04-26T08:36:56Z</time></trkpt><trkpt lat="43.5643490205217" lon="11.481479583050517"><ele>145.0</ele><time>2026-04-26T08:36:57Z</time></trkpt><trkpt lat="43.56430053527136" lon="11.481401298642254"><ele>145.16666666666669</ele><time>2026-04-26T08:36:58Z</time></trkpt><trkpt lat="43.564240800883354" lon="11.48135942457253"><ele>145.33333333333334</ele><time>2026-04-26T08:36:59Z</time></trkpt><trkpt lat="43.56417346555503" lon="11.481353932115773"><ele>145.5</ele><time>2026-04-26T08:37:00Z</time></trkpt><trkpt lat="43.56410051729184" lon="11.481359434807331"><ele>145.66666666666666</ele><time>2026-04-26T08:37:01Z</time></trkpt><trkpt lat="43.56404298666826" lon="11.481453315844092"><ele>145.83333333333331</ele><time>2026-04-26T08:37:02Z</time></trkpt><trkpt lat="43.56401183406361" lon="11.481554186026196"><ele>146.0</ele><time>2026-04-26T08:37:03Z</time></trkpt><trkpt lat="43.56401924776527" lon="11.481670548072177"><ele>146.0</ele><time>2026-04-26T08:37:04Z</time></trkpt><trkpt lat="43.56406094516655" lon="11.481790242017276"><ele>146.0</ele><time>2026-04-26T08:37:05Z</time></trkpt><trkpt lat="43.56411552499657" lon="11.481907675128127"><ele>146.0</ele><time>2026-04-26T08:37:06Z</time></trkpt><trkpt lat="43.56414843570833" lon="11.482002540133228"><ele>146.0</ele><time>2026-04-26T08:37:07Z</time></trkpt><trkpt lat="43.56415496998244" lon="11.482239188724716"><ele>146.0</ele><time>2026-04-26T08:37:08Z</time></trkpt><trkpt lat="43.56415127510021" lon="11.4824227006147"><ele>146.75</ele><time>2026-04-26T08:37:09Z</time></trkpt><trkpt lat="43.564146107406046" lon="11.482605852050552"><ele>147.5</ele><time>2026-04-26T08:37:10Z</time></trkpt><trkpt lat="43.56413912196546" lon="11.482800438823206"><ele>148.25</ele><time>2026-04-26T08:37:11Z</time></trkpt><trkpt lat="43.56413050581181" lon="11.483015604338885"><ele>149.0</ele><time>2026-04-26T08:37:12Z</time></trkpt><trkpt lat="43.56412242772045" lon="11.483226671003493"><ele>150.2</ele><time>2026-04-26T08:37:13Z</time></trkpt><trkpt lat="43.56412931181754" lon="11.483404593004197"><ele>151.4</ele><time>2026-04-26T08:37:14Z</time></trkpt><trkpt lat="43.56412927081281" lon="11.48353889633561"><ele>152.6</ele><time>2026-04-26T08:37:15Z</time></trkpt><trkpt lat="43.56413658186646" lon="11.48365982163782"><ele>153.8</ele><time>2026-04-26T08:37:16Z</time></trkpt><trkpt lat="43.56414711201514" lon="11.483758357425678"><ele>155.0</ele><time>2026-04-26T08:37:17Z</time></trkpt><trkpt lat="43.56415070522023" lon="11.483878881955212"><ele>155.4</ele><time>2026-04-26T08:37:19Z</time></trkpt><trkpt lat="43.56410106233075" lon="11.483982132880426"><ele>155.8</ele><time>2026-04-26T08:37:22Z</time></trkpt><trkpt lat="43.564053482644894" lon="11.484081627566288"><ele>156.2</ele><time>2026-04-26T08:37:24Z</time></trkpt><trkpt lat="43.56403680761099" lon="11.484185419049755"><ele>156.6</ele><time>2026-04-26T08:37:26Z</time></trkpt><trkpt lat="43.56400110826231" lon="11.484314740885697"><ele>157.0</ele><time>2026-04-26T08:37:28Z</time></trkpt><trkpt lat="43.564000118376676" lon="11.48445558963651"><ele>157.75</ele><time>2026-04-26T08:37:30Z</time></trkpt><trkpt lat="43.56403123816339" lon="11.484617321299618"><ele>158.5</ele><time>2026-04-26T08:37:32Z</time></trkpt><trkpt lat="43.56405711760425" lon="11.484706098413271"><ele>159.25</ele><time>2026-04-26T08:37:32.999Z</time></trkpt><trkpt lat="43.56424085139642" lon="11.484694658305544"><ele>160.0</ele><time>2026-04-26T08:37:33.999Z</time></trkpt><trkpt lat="43.564280886086856" lon="11.484814647866797"><ele>160.0</ele><time>2026-04-26T08:37:35.999Z</time></trkpt><trkpt lat="43.56431240214535" lon="11.48489496561661"><ele>160.0</ele><time>2026-04-26T08:37:36.999Z</time></trkpt><trkpt lat="43.564346272860845" lon="11.484968993638596"><ele>160.0</ele><time>2026-04-26T08:37:37.999Z</time></trkpt><trkpt lat="43.56431986101816" lon="11.485213736066708"><ele>160.0</ele><time>2026-04-26T08:37:38.999Z</time></trkpt><trkpt lat="43.564336380445674" lon="11.485303244013485"><ele>160.0</ele><time>2026-04-26T08:37:39.999Z</time></trkpt><trkpt lat="43.56436127958664" lon="11.485383163598172"><ele>160.0</ele><time>2026-04-26T08:37:41Z</time></trkpt><trkpt lat="43.56441329653489" lon="11.48551613556026"><ele>161.75</ele><time>2026-04-26T08:37:43Z</time></trkpt><trkpt lat="43.564475057409595" lon="11.48559889172499"><ele>163.5</ele><time>2026-04-26T08:37:45Z</time></trkpt><trkpt lat="43.56449939910654" lon="11.485698612184294"><ele>165.25</ele><time>2026-04-26T08:37:47Z</time></trkpt><trkpt lat="43.56442698259657" lon="11.485508404057233"><ele>167.0</ele><time>2026-04-26T08:37:51Z</time></trkpt><trkpt lat="43.564587718491396" lon="11.485927113888604"><ele>167.0</ele><time>2026-04-26T08:38:00Z</time></trkpt><trkpt lat="43.564681448124205" lon="11.48588316643783"><ele>167.0</ele><time>2026-04-26T08:38:02Z</time></trkpt><trkpt lat="43.5646902046584" lon="11.485388645186262"><ele>167.0</ele><time>2026-04-26T08:38:03Z</time></trkpt><trkpt lat="43.56490795071272" lon="11.486113211658367"><ele>170.0</ele><time>2026-04-26T08:38:08Z</time></trkpt><trkpt lat="43.56488101408808" lon="11.486269219926035"><ele>173.0</ele><time>2026-04-26T08:38:10Z</time></trkpt><trkpt lat="43.56485673067537" lon="11.486350659101365"><ele>176.0</ele><time>2026-04-26T08:38:11Z</time></trkpt><trkpt lat="43.56481768279306" lon="11.486467940990945"><ele>179.0</ele><time>2026-04-26T08:38:13Z</time></trkpt><trkpt lat="43.56479460527273" lon="11.486618488520023"><ele>182.0</ele><time>2026-04-26T08:38:15Z</time></trkpt><trkpt lat="43.564822170829444" lon="11.48675640506092"><ele>182.0</ele><time>2026-04-26T08:38:17Z</time></trkpt><trkpt lat="43.564861814013625" lon="11.486878451266223"><ele>182.0</ele><time>2026-04-26T08:38:19Z</time></trkpt><trkpt lat="43.56490211393437" lon="11.487017224470051"><ele>182.0</ele><time>2026-04-26T08:38:21Z</time></trkpt><trkpt lat="43.56491123724015" lon="11.487164282862048"><ele>182.0</ele><time>2026-04-26T08:38:23Z</time></trkpt><trkpt lat="43.56490160425908" lon="11.48731586387977"><ele>182.0</ele><time>2026-04-26T08:38:25Z</time></trkpt><trkpt lat="43.56486487777323" lon="11.487460543446959"><ele>183.8</ele><time>2026-04-26T08:38:27Z</time></trkpt><trkpt lat="43.56479509588489" lon="11.487576431716167"><ele>185.6</ele><time>2026-04-26T08:38:29Z</time></trkpt><trkpt lat="43.56470055666228" lon="11.487683973493864"><ele>187.4</ele><time>2026-04-26T08:38:31Z</time></trkpt><trkpt lat="43.56464254680632" lon="11.48773793931132"><ele>189.20000000000002</ele><time>2026-04-26T08:38:32Z</time></trkpt><trkpt lat="43.564578547646995" lon="11.4877836417575"><ele>191.0</ele><time>2026-04-26T08:38:33Z</time></trkpt><trkpt lat="43.56449983953317" lon="11.487866295988482"><ele>192.60000000000002</ele><time>2026-04-26T08:38:35Z</time></trkpt><trkpt lat="43.564456539510005" lon="11.488021422426227"><ele>194.2</ele><time>2026-04-26T08:38:37Z</time></trkpt><trkpt lat="43.564465014957676" lon="11.488120201658274"><ele>195.8</ele><time>2026-04-26T08:38:38Z</time></trkpt><trkpt lat="43.56450728632655" lon="11.488242515674479"><ele>197.39999999999998</ele><time>2026-04-26T08:38:39Z</time></trkpt><trkpt lat="43.56454313500024" lon="11.488370413200022"><ele>199.0</ele><time>2026-04-26T08:38:40Z</time></trkpt><trkpt lat="43.56457793071766" lon="11.488475757454587"><ele>198.99999999999997</ele><time>2026-04-26T08:38:41Z</time></trkpt><trkpt lat="43.564597956276366" lon="11.488589912753493"><ele>199.0</ele><time>2026-04-26T08:38:42Z</time></trkpt><trkpt lat="43.56460604761708" lon="11.488703551625647"><ele>199.0</ele><time>2026-04-26T08:38:43Z</time></trkpt><trkpt lat="43.56463091382214" lon="11.48881935088925"><ele>199.0</ele><time>2026-04-26T08:38:44Z</time></trkpt><trkpt lat="43.56465840772984" lon="11.488920211115953"><ele>198.99999999999997</ele><time>2026-04-26T08:38:45Z</time></trkpt><trkpt lat="43.56467838754139" lon="11.48900671373026"><ele>199.0</ele><time>2026-04-26T08:38:46Z</time></trkpt><trkpt lat="43.56468179623262" lon="11.489170284106946"><ele>201.66666666666666</ele><time>2026-04-26T08:38:48Z</time></trkpt><trkpt lat="43.56465340278215" lon="11.489272369555819"><ele>204.33333333333331</ele><time>2026-04-26T08:38:49Z</time></trkpt><trkpt lat="43.564639940436166" lon="11.489372374551518"><ele>207.0</ele><time>2026-04-26T08:38:50Z</time></trkpt><trkpt lat="43.564623825907574" lon="11.489459921303492"><ele>209.66666666666669</ele><time>2026-04-26T08:38:51Z</time></trkpt><trkpt lat="43.56462038849269" lon="11.48962635019625"><ele>212.33333333333334</ele><time>2026-04-26T08:38:53Z</time></trkpt><trkpt lat="43.56464442566305" lon="11.48970806756953"><ele>215.0</ele><time>2026-04-26T08:38:54Z</time></trkpt><trkpt lat="43.564667976611624" lon="11.489801055764117"><ele>215.0</ele><time>2026-04-26T08:38:55Z</time></trkpt><trkpt lat="43.56470522245862" lon="11.489887780173117"><ele>215.0</ele><time>2026-04-26T08:38:56Z</time></trkpt><trkpt lat="43.56474299464499" lon="11.489973120771287"><ele>215.0</ele><time>2026-04-26T08:38:57Z</time></trkpt><trkpt lat="43.56481544783757" lon="11.490103558727679"><ele>215.0</ele><time>2026-04-26T08:38:59Z</time></trkpt><trkpt lat="43.56486691259782" lon="11.49022927225198"><ele>215.0</ele><time>2026-04-26T08:39:01Z</time></trkpt><trkpt lat="43.564896043864195" lon="11.490346571225242"><ele>215.00000000000003</ele><time>2026-04-26T08:39:03Z</time></trkpt><trkpt lat="43.56485936407703" lon="11.49043111405517"><ele>215.0</ele><time>2026-04-26T08:39:06Z</time></trkpt><trkpt lat="43.564796506511456" lon="11.490448646769591"><ele>215.0</ele><time>2026-04-26T08:39:08Z</time></trkpt><trkpt lat="43.56470828675221" lon="11.490416250304738"><ele>215.0</ele><time>2026-04-26T08:39:10Z</time></trkpt><trkpt lat="43.56463068820842" lon="11.490398676101796"><ele>215.00000000000003</ele><time>2026-04-26T08:39:12Z</time></trkpt><trkpt lat="43.56454814630666" lon="11.490422689830028"><ele>215.0</ele><time>2026-04-26T08:39:14Z</time></trkpt><trkpt lat="43.56445737107778" lon="11.490503305234839"><ele>208.6</ele><time>2026-04-26T08:39:16Z</time></trkpt><trkpt lat="43.56440292484207" lon="11.49061334552474"><ele>202.2</ele><time>2026-04-26T08:39:18Z</time></trkpt><trkpt lat="43.56437416204954" lon="11.490729499905083"><ele>195.8</ele><time>2026-04-26T08:39:20Z</time></trkpt><trkpt lat="43.56436005233166" lon="11.490891310854499"><ele>189.4</ele><time>2026-04-26T08:39:22Z</time></trkpt><trkpt lat="43.56436757673094" lon="11.491041164956977"><ele>183.0</ele><time>2026-04-26T08:39:24Z</time></trkpt><trkpt lat="43.5643761809028" lon="11.491187060811061"><ele>182.0</ele><time>2026-04-26T08:39:26Z</time></trkpt><trkpt lat="43.56439118337482" lon="11.491360953551117"><ele>181.0</ele><time>2026-04-26T08:39:28Z</time></trkpt><trkpt lat="43.56441267577999" lon="11.491517825312172"><ele>180.0</ele><time>2026-04-26T08:39:30Z</time></trkpt><trkpt lat="43.56442857435426" lon="11.491700029389671"><ele>179.0</ele><time>2026-04-26T08:39:32Z</time></trkpt><trkpt lat="43.56442192214596" lon="11.491801652397234"><ele>178.0</ele><time>2026-04-26T08:39:33Z</time></trkpt><trkpt lat="43.56442355893324" lon="11.491896858906301"><ele>177.99999999999997</ele><time>2026-04-26T08:39:34Z</time></trkpt><trkpt lat="43.56442782489586" lon="11.491997270723015"><ele>178.0</ele><time>2026-04-26T08:39:35Z</time></trkpt><trkpt lat="43.56442597442844" lon="11.492099573360823"><ele>178.0</ele><time>2026-04-26T08:39:36Z</time></trkpt><trkpt lat="43.5644260316737" lon="11.492202387352624"><ele>178.0</ele><time>2026-04-26T08:39:37Z</time></trkpt><trkpt lat="43.564426514920555" lon="11.492310099161356"><ele>178.0</ele><time>2026-04-26T08:39:38Z</time></trkpt><trkpt lat="43.56442828887453" lon="11.492406581927606"><ele>177.99999999999997</ele><time>2026-04-26T08:39:39Z</time></trkpt><trkpt lat="43.56442812338346" lon="11.49250500028821"><ele>178.0</ele><time>2026-04-26T08:39:40Z</time></trkpt><trkpt lat="43.56442996490645" lon="11.492599867990577"><ele>177.28571428571428</ele><time>2026-04-26T08:39:41Z</time></trkpt><trkpt lat="43.56443857366485" lon="11.492695961222118"><ele>176.57142857142856</ele><time>2026-04-26T08:39:42Z</time></trkpt><trkpt lat="43.56445192494393" lon="11.492789931490849"><ele>175.85714285714283</ele><time>2026-04-26T08:39:43Z</time></trkpt><trkpt lat="43.564478821833575" lon="11.492878837405147"><ele>175.14285714285714</ele><time>2026-04-26T08:39:44Z</time></trkpt><trkpt lat="43.56451422779344" lon="11.492956226915156"><ele>174.42857142857144</ele><time>2026-04-26T08:39:45Z</time></trkpt><trkpt lat="43.56458350005491" lon="11.493019931645364"><ele>173.7142857142857</ele><time>2026-04-26T08:39:48Z</time></trkpt><trkpt lat="43.56466391989446" lon="11.493055114374249"><ele>173.0</ele><time>2026-04-26T08:39:53Z</time></trkpt><trkpt lat="43.56472689001089" lon="11.493148120682479"><ele>171.8</ele><time>2026-04-26T08:39:55Z</time></trkpt><trkpt lat="43.56481805338813" lon="11.493230675562737"><ele>170.60000000000002</ele><time>2026-04-26T08:39:57Z</time></trkpt><trkpt lat="43.56489288339517" lon="11.493359715552316"><ele>169.39999999999998</ele><time>2026-04-26T08:39:59Z</time></trkpt><trkpt lat="43.56492061837746" lon="11.49344431791022"><ele>168.2</ele><time>2026-04-26T08:40:00Z</time></trkpt><trkpt lat="43.56492633966376" lon="11.493629202166513"><ele>167.0</ele><time>2026-04-26T08:40:02Z</time></trkpt><trkpt lat="43.56492584491567" lon="11.493742819846835"><ele>167.2</ele><time>2026-04-26T08:40:03Z</time></trkpt><trkpt lat="43.56492031209167" lon="11.493877572614487"><ele>167.39999999999998</ele><time>2026-04-26T08:40:04Z</time></trkpt><trkpt lat="43.56490310813301" lon="11.494016920318572"><ele>167.60000000000002</ele><time>2026-04-26T08:40:05Z</time></trkpt><trkpt lat="43.56490127285843" lon="11.494148084689906"><ele>167.8</ele><time>2026-04-26T08:40:06Z</time></trkpt><trkpt lat="43.56490514927191" lon="11.494286427496974"><ele>168.0</ele><time>2026-04-26T08:40:07Z</time></trkpt><trkpt lat="43.56491502378855" lon="11.494420017485618"><ele>168.0</ele><time>2026-04-26T08:40:08Z</time></trkpt><trkpt lat="43.564923539133865" lon="11.494540825049818"><ele>168.0</ele><time>2026-04-26T08:40:09Z</time></trkpt><trkpt lat="43.5649284460761" lon="11.494653057909543"><ele>168.0</ele><time>2026-04-26T08:40:10Z</time></trkpt><trkpt lat="43.56493748226249" lon="11.494757031545886"><ele>168.0</ele><time>2026-04-26T08:40:11Z</time></trkpt><trkpt lat="43.56495737286737" lon="11.494851710457386"><ele>168.0</ele><time>2026-04-26T08:40:12Z</time></trkpt><trkpt lat="43.56495334245673" lon="11.494939848311"><ele>168.0</ele><time>2026-04-26T08:40:13Z</time></trkpt><trkpt lat="43.56495235368408" lon="11.49503658098284"><ele>167.83333333333334</ele><time>2026-04-26T08:40:14Z</time></trkpt><trkpt lat="43.56496218291737" lon="11.495143164953767"><ele>167.66666666666666</ele><time>2026-04-26T08:40:15Z</time></trkpt><trkpt lat="43.56494296646763" lon="11.495262698872262"><ele>167.5</ele><time>2026-04-26T08:40:16Z</time></trkpt><trkpt lat="43.5649270267227" lon="11.495388434050946"><ele>167.33333333333331</ele><time>2026-04-26T08:40:17Z</time></trkpt><trkpt lat="43.56490293193481" lon="11.495509472200464"><ele>167.16666666666666</ele><time>2026-04-26T08:40:18Z</time></trkpt><trkpt lat="43.56486058043831" lon="11.49563069325729"><ele>167.0</ele><time>2026-04-26T08:40:19Z</time></trkpt><trkpt lat="43.56481627569234" lon="11.49575876943132"><ele>167.0</ele><time>2026-04-26T08:40:20Z</time></trkpt><trkpt lat="43.56476464035204" lon="11.495895779043265"><ele>167.0</ele><time>2026-04-26T08:40:21Z</time></trkpt><trkpt lat="43.5647127545134" lon="11.496035609288732"><ele>167.0</ele><time>2026-04-26T08:40:22Z</time></trkpt><trkpt lat="43.564664287648824" lon="11.496170740771998"><ele>167.0</ele><time>2026-04-26T08:40:23Z</time></trkpt><trkpt lat="43.56461836628305" lon="11.496305769726321"><ele>167.0</ele><time>2026-04-26T08:40:24Z</time></trkpt><trkpt lat="43.56457037298985" lon="11.496438591779839"><ele>165.0</ele><time>2026-04-26T08:40:25Z</time></trkpt><trkpt lat="43.564521193641454" lon="11.496569286398808"><ele>163.0</ele><time>2026-04-26T08:40:26Z</time></trkpt><trkpt lat="43.56447264514788" lon="11.496697366831558"><ele>161.0</ele><time>2026-04-26T08:40:27Z</time></trkpt><trkpt lat="43.56442650723629" lon="11.496815106020415"><ele>159.0</ele><time>2026-04-26T08:40:28Z</time></trkpt><trkpt lat="43.56438573141207" lon="11.496928433022777"><ele>157.0</ele><time>2026-04-26T08:40:29Z</time></trkpt><trkpt lat="43.564340700467405" lon="11.497049320107728"><ele>157.8</ele><time>2026-04-26T08:40:30Z</time></trkpt><trkpt lat="43.564288819340284" lon="11.497170771032334"><ele>158.6</ele><time>2026-04-26T08:40:31Z</time></trkpt><trkpt lat="43.564225907999464" lon="11.497290415927447"><ele>159.4</ele><time>2026-04-26T08:40:32Z</time></trkpt><trkpt lat="43.56415922383205" lon="11.497409415517708"><ele>160.20000000000002</ele><time>2026-04-26T08:40:33Z</time></trkpt><trkpt lat="43.56409206427649" lon="11.497531169191124"><ele>161.0</ele><time>2026-04-26T08:40:34Z</time></trkpt><trkpt lat="43.56402613792233" lon="11.497657256334255"><ele>161.0</ele><time>2026-04-26T08:40:35Z</time></trkpt><trkpt lat="43.5639661954361" lon="11.497782288231123"><ele>161.0</ele><time>2026-04-26T08:40:36Z</time></trkpt><trkpt lat="43.56391925380556" lon="11.4978965324662"><ele>161.0</ele><time>2026-04-26T08:40:37Z</time></trkpt><trkpt lat="43.563859847616236" lon="11.497992813446297"><ele>161.0</ele><time>2026-04-26T08:40:38Z</time></trkpt><trkpt lat="43.56383421654462" lon="11.498106059089613"><ele>161.0</ele><time>2026-04-26T08:40:39Z</time></trkpt><trkpt lat="43.563806986461735" lon="11.498197655792094"><ele>161.66666666666666</ele><time>2026-04-26T08:40:40Z</time></trkpt><trkpt lat="43.5637826212739" lon="11.498282248334785"><ele>162.33333333333331</ele><time>2026-04-26T08:40:41Z</time></trkpt><trkpt lat="43.56375191364738" lon="11.498410240212054"><ele>163.0</ele><time>2026-04-26T08:40:43Z</time></trkpt><trkpt lat="43.56373227079621" lon="11.49849611351994"><ele>163.66666666666666</ele><time>2026-04-26T08:40:45Z</time></trkpt><trkpt lat="43.563693895476376" lon="11.498602900984498"><ele>164.33333333333334</ele><time>2026-04-26T08:40:51Z</time></trkpt><trkpt lat="43.56366805645843" lon="11.498751355927524"><ele>165.0</ele><time>2026-04-26T08:40:53Z</time></trkpt><trkpt lat="43.563620810425824" lon="11.498900605986961"><ele>162.33333333333334</ele><time>2026-04-26T08:40:55Z</time></trkpt><trkpt lat="43.563590819378895" lon="11.498979972008463"><ele>159.66666666666666</ele><time>2026-04-26T08:40:56Z</time></trkpt><trkpt lat="43.563558147344025" lon="11.49906975594652"><ele>157.0</ele><time>2026-04-26T08:40:57Z</time></trkpt><trkpt lat="43.56351797971109" lon="11.499171926215066"><ele>154.33333333333331</ele><time>2026-04-26T08:40:58Z</time></trkpt><trkpt lat="43.56347139359416" lon="11.49928132041553"><ele>151.66666666666666</ele><time>2026-04-26T08:40:59Z</time></trkpt><trkpt lat="43.56342645581742" lon="11.499394639582889"><ele>149.0</ele><time>2026-04-26T08:41:00Z</time></trkpt><trkpt lat="43.56338344039066" lon="11.499506532368773"><ele>148.6</ele><time>2026-04-26T08:41:01Z</time></trkpt><trkpt lat="43.563344928393484" lon="11.499623310493577"><ele>148.2</ele><time>2026-04-26T08:41:02Z</time></trkpt><trkpt lat="43.5633079081257" lon="11.499740668216406"><ele>147.79999999999998</ele><time>2026-04-26T08:41:03Z</time></trkpt><trkpt lat="43.56327255328363" lon="11.499857184500547"><ele>147.4</ele><time>2026-04-26T08:41:04Z</time></trkpt><trkpt lat="43.56323695809995" lon="11.49997290417845"><ele>147.0</ele><time>2026-04-26T08:41:05Z</time></trkpt><trkpt lat="43.56320487464701" lon="11.500079232955061"><ele>147.0</ele><time>2026-04-26T08:41:06Z</time></trkpt><trkpt lat="43.563175702107" lon="11.500178347303784"><ele>147.0</ele><time>2026-04-26T08:41:07Z</time></trkpt><trkpt lat="43.563144746368586" lon="11.500275934637253"><ele>147.0</ele><time>2026-04-26T08:41:08Z</time></trkpt><trkpt lat="43.56311038242218" lon="11.500375963835012"><ele>147.0</ele><time>2026-04-26T08:41:09Z</time></trkpt><trkpt lat="43.56306928514596" lon="11.500473052823434"><ele>147.0</ele><time>2026-04-26T08:41:10Z</time></trkpt><trkpt lat="43.56302782571563" lon="11.50055670215615"><ele>147.0</ele><time>2026-04-26T08:41:11Z</time></trkpt><trkpt lat="43.56298776091517" lon="11.500626516935109"><ele>146.0</ele><time>2026-04-26T08:41:12Z</time></trkpt><trkpt lat="43.562906670116845" lon="11.500745701214257"><ele>145.0</ele><time>2026-04-26T08:41:14Z</time></trkpt><trkpt lat="43.56281413987747" lon="11.500829123183074"><ele>144.0</ele><time>2026-04-26T08:41:16Z</time></trkpt><trkpt lat="43.562726527355366" lon="11.500907563868033"><ele>143.0</ele><time>2026-04-26T08:41:18Z</time></trkpt><trkpt lat="43.562566221311954" lon="11.500898862036998"><ele>143.0</ele><time>2026-04-26T08:41:20Z</time></trkpt><trkpt lat="43.562459227624025" lon="11.500899154387952"><ele>143.0</ele><time>2026-04-26T08:41:21Z</time></trkpt><trkpt lat="43.56233803371977" lon="11.500903980865532"><ele>143.0</ele><time>2026-04-26T08:41:22Z</time></trkpt><trkpt lat="43.56220627232579" lon="11.500912926705588"><ele>143.0</ele><time>2026-04-26T08:41:23Z</time></trkpt><trkpt lat="43.56208056980852" lon="11.500921251153473"><ele>143.25</ele><time>2026-04-26T08:41:24Z</time></trkpt><trkpt lat="43.56194783951849" lon="11.500929006265242"><ele>143.5</ele><time>2026-04-26T08:41:25Z</time></trkpt><trkpt lat="43.5618088562222" lon="11.500938666057772"><ele>143.75</ele><time>2026-04-26T08:41:26Z</time></trkpt><trkpt lat="43.561668727318676" lon="11.500952127382265"><ele>144.0</ele><time>2026-04-26T08:41:27Z</time></trkpt><trkpt lat="43.561528545378884" lon="11.500963791966603"><ele>144.0</ele><time>2026-04-26T08:41:28Z</time></trkpt><trkpt lat="43.561385730630995" lon="11.500969657565928"><ele>144.0</ele><time>2026-04-26T08:41:29Z</time></trkpt><trkpt lat="43.56123964935656" lon="11.50097627640261"><ele>144.0</ele><time>2026-04-26T08:41:30Z</time></trkpt><trkpt lat="43.5610917304501" lon="11.50098636829042"><ele>144.0</ele><time>2026-04-26T08:41:31Z</time></trkpt><trkpt lat="43.56094265042257" lon="11.500995243299633"><ele>144.0</ele><time>2026-04-26T08:41:32Z</time></trkpt><trkpt lat="43.56079199278557" lon="11.501011055147583"><ele>144.0</ele><time>2026-04-26T08:41:33Z</time></trkpt><trkpt lat="43.560642465971505" lon="11.501032522805048"><ele>144.0</ele><time>2026-04-26T08:41:34Z</time></trkpt><trkpt lat="43.56049627448149" lon="11.501053132284632"><ele>144.0</ele><time>2026-04-26T08:41:35Z</time></trkpt><trkpt lat="43.560354978441374" lon="11.501072340738508"><ele>144.75</ele><time>2026-04-26T08:41:36Z</time></trkpt><trkpt lat="43.5602165678473" lon="11.501096997997474"><ele>145.5</ele><time>2026-04-26T08:41:37Z</time></trkpt><trkpt lat="43.560080280212446" lon="11.501123747785206"><ele>146.25</ele><time>2026-04-26T08:41:38Z</time></trkpt><trkpt lat="43.55993747164015" lon="11.501156360172896"><ele>147.0</ele><time>2026-04-26T08:41:39Z</time></trkpt><trkpt lat="43.55979335588111" lon="11.501204481794991"><ele>146.75</ele><time>2026-04-26T08:41:40Z</time></trkpt><trkpt lat="43.55964966859262" lon="11.501270916425236"><ele>146.5</ele><time>2026-04-26T08:41:41Z</time></trkpt><trkpt lat="43.559506747161656" lon="11.50133883805601"><ele>146.25</ele><time>2026-04-26T08:41:42Z</time></trkpt><trkpt lat="43.55937028382096" lon="11.501400967485983"><ele>146.0</ele><time>2026-04-26T08:41:43Z</time></trkpt><trkpt lat="43.55923918037852" lon="11.501465046752163"><ele>146.5</ele><time>2026-04-26T08:41:44Z</time></trkpt><trkpt lat="43.55911875506269" lon="11.501517307796174"><ele>147.0</ele><time>2026-04-26T08:41:45Z</time></trkpt><trkpt lat="43.55899219934854" lon="11.501559982448125"><ele>147.5</ele><time>2026-04-26T08:41:46Z</time></trkpt><trkpt lat="43.558864505274585" lon="11.501595088114177"><ele>148.0</ele><time>2026-04-26T08:41:47Z</time></trkpt><trkpt lat="43.55873202845296" lon="11.501607079252185"><ele>148.25</ele><time>2026-04-26T08:41:48Z</time></trkpt><trkpt lat="43.558596581131646" lon="11.501605757519453"><ele>148.5</ele><time>2026-04-26T08:41:49Z</time></trkpt><trkpt lat="43.558464212697736" lon="11.501585787544448"><ele>148.75</ele><time>2026-04-26T08:41:50Z</time></trkpt><trkpt lat="43.558332649692865" lon="11.501539279274922"><ele>149.0</ele><time>2026-04-26T08:41:51Z</time></trkpt><trkpt lat="43.55820071307238" lon="11.501470679729563"><ele>149.0</ele><time>2026-04-26T08:41:52Z</time></trkpt><trkpt lat="43.55806868550273" lon="11.50138299641837"><ele>149.0</ele><time>2026-04-26T08:41:53Z</time></trkpt><trkpt lat="43.55793587106149" lon="11.501285413932909"><ele>149.0</ele><time>2026-04-26T08:41:54Z</time></trkpt><trkpt lat="43.557814004867865" lon="11.501190495164641"><ele>149.0</ele><time>2026-04-26T08:41:55Z</time></trkpt><trkpt lat="43.5577046242881" lon="11.501105833912828"><ele>149.0</ele><time>2026-04-26T08:41:56Z</time></trkpt><trkpt lat="43.557593284516244" lon="11.501021427920648"><ele>149.0</ele><time>2026-04-26T08:41:57Z</time></trkpt><trkpt lat="43.55747758638021" lon="11.500935646898157"><ele>149.0</ele><time>2026-04-26T08:41:58Z</time></trkpt><trkpt lat="43.55736317997604" lon="11.50084656186218"><ele>149.0</ele><time>2026-04-26T08:41:59Z</time></trkpt><trkpt lat="43.55724835836911" lon="11.500752780686625"><ele>149.0</ele><time>2026-04-26T08:42:00Z</time></trkpt><trkpt lat="43.557130066727105" lon="11.500657401412013"><ele>149.0</ele><time>2026-04-26T08:42:01Z</time></trkpt><trkpt lat="43.55700944074815" lon="11.500558403126828"><ele>149.0</ele><time>2026-04-26T08:42:02Z</time></trkpt><trkpt lat="43.55688808368516" lon="11.500457796987108"><ele>149.0</ele><time>2026-04-26T08:42:03Z</time></trkpt><trkpt lat="43.55676427473688" lon="11.500353155413238"><ele>149.66666666666666</ele><time>2026-04-26T08:42:04Z</time></trkpt><trkpt lat="43.55663985221657" lon="11.500248265755681"><ele>150.33333333333334</ele><time>2026-04-26T08:42:05Z</time></trkpt><trkpt lat="43.556512384995585" lon="11.500146672339138"><ele>151.0</ele><time>2026-04-26T08:42:06Z</time></trkpt><trkpt lat="43.55636888794132" lon="11.500058185922319"><ele>151.0</ele><time>2026-04-26T08:42:07Z</time></trkpt><trkpt lat="43.55623501403854" lon="11.499936183416981"><ele>151.0</ele><time>2026-04-26T08:42:08Z</time></trkpt><trkpt lat="43.55608915081199" lon="11.499829259143535"><ele>151.0</ele><time>2026-04-26T08:42:09Z</time></trkpt><trkpt lat="43.555905335022366" lon="11.499818136018115"><ele>151.0</ele><time>2026-04-26T08:42:10Z</time></trkpt><trkpt lat="43.555746543456955" lon="11.499736706019501"><ele>151.0</ele><time>2026-04-26T08:42:11Z</time></trkpt><trkpt lat="43.55558429829754" lon="11.499650591521053"><ele>151.0</ele><time>2026-04-26T08:42:12Z</time></trkpt><trkpt lat="43.55541883030355" lon="11.49957172237557"><ele>151.33333333333334</ele><time>2026-04-26T08:42:13Z</time></trkpt><trkpt lat="43.5552486455243" lon="11.499510263076292"><ele>151.66666666666666</ele><time>2026-04-26T08:42:14Z</time></trkpt><trkpt lat="43.55507197490908" lon="11.499475626123095"><ele>152.0</ele><time>2026-04-26T08:42:15Z</time></trkpt><trkpt lat="43.554895894915084" lon="11.49946534249948"><ele>152.0</ele><time>2026-04-26T08:42:16Z</time></trkpt><trkpt lat="43.55471640017479" lon="11.499479342166175"><ele>152.0</ele><time>2026-04-26T08:42:17Z</time></trkpt><trkpt lat="43.5545408483085" lon="11.499493748320033"><ele>152.0</ele><time>2026-04-26T08:42:18Z</time></trkpt><trkpt lat="43.554364489088144" lon="11.499486716260128"><ele>152.0</ele><time>2026-04-26T08:42:19Z</time></trkpt><trkpt lat="43.554192573613484" lon="11.499455231384136"><ele>152.0</ele><time>2026-04-26T08:42:20Z</time></trkpt><trkpt lat="43.554033365565786" lon="11.499394888906645"><ele>152.0</ele><time>2026-04-26T08:42:21Z</time></trkpt><trkpt lat="43.55387904594565" lon="11.499305196726304"><ele>152.0</ele><time>2026-04-26T08:42:22Z</time></trkpt><trkpt lat="43.553733409539966" lon="11.499181118891816"><ele>152.0</ele><time>2026-04-26T08:42:23Z</time></trkpt><trkpt lat="43.553591428143854" lon="11.49904050195291"><ele>152.0</ele><time>2026-04-26T08:42:24Z</time></trkpt><trkpt lat="43.553456012973236" lon="11.498882237323889"><ele>153.0</ele><time>2026-04-26T08:42:25Z</time></trkpt><trkpt lat="43.55331609813173" lon="11.498712160228342"><ele>154.0</ele><time>2026-04-26T08:42:26Z</time></trkpt><trkpt lat="43.55317499849608" lon="11.498539835663587"><ele>155.0</ele><time>2026-04-26T08:42:27Z</time></trkpt><trkpt lat="43.55303129954351" lon="11.498363764840796"><ele>155.0</ele><time>2026-04-26T08:42:28Z</time></trkpt><trkpt lat="43.55287899271786" lon="11.498187432886564"><ele>155.0</ele><time>2026-04-26T08:42:29Z</time></trkpt><trkpt lat="43.55272740918206" lon="11.498004261580672"><ele>155.0</ele><time>2026-04-26T08:42:30Z</time></trkpt><trkpt lat="43.552574764120365" lon="11.497817797013552"><ele>157.0</ele><time>2026-04-26T08:42:31Z</time></trkpt><trkpt lat="43.55242180471216" lon="11.4976305821139"><ele>159.0</ele><time>2026-04-26T08:42:32Z</time></trkpt><trkpt lat="43.552270377168924" lon="11.497444497656263"><ele>161.0</ele><time>2026-04-26T08:42:33Z</time></trkpt><trkpt lat="43.55212130841125" lon="11.497262434788544"><ele>164.0</ele><time>2026-04-26T08:42:34Z</time></trkpt><trkpt lat="43.55197330253641" lon="11.497084328277726"><ele>167.0</ele><time>2026-04-26T08:42:35Z</time></trkpt><trkpt lat="43.55183144242686" lon="11.496905571837354"><ele>170.0</ele><time>2026-04-26T08:42:36Z</time></trkpt><trkpt lat="43.55169011549665" lon="11.496728170473423"><ele>170.0</ele><time>2026-04-26T08:42:37Z</time></trkpt><trkpt lat="43.55155615391826" lon="11.496565772229998"><ele>170.0</ele><time>2026-04-26T08:42:38Z</time></trkpt><trkpt lat="43.551425450935625" lon="11.496411689512689"><ele>170.0</ele><time>2026-04-26T08:42:39Z</time></trkpt><trkpt lat="43.55130539292088" lon="11.496244125897569"><ele>172.0</ele><time>2026-04-26T08:42:40Z</time></trkpt><trkpt lat="43.551192036969525" lon="11.496066781339092"><ele>174.0</ele><time>2026-04-26T08:42:41Z</time></trkpt><trkpt lat="43.55108049424088" lon="11.495911370199227"><ele>176.0</ele><time>2026-04-26T08:42:42Z</time></trkpt><trkpt lat="43.550956057985054" lon="11.495793467040498"><ele>176.0</ele><time>2026-04-26T08:42:43Z</time></trkpt><trkpt lat="43.550831289230274" lon="11.4957073263802"><ele>176.0</ele><time>2026-04-26T08:42:44Z</time></trkpt><trkpt lat="43.55071467297313" lon="11.495654302004487"><ele>176.0</ele><time>2026-04-26T08:42:45Z</time></trkpt><trkpt lat="43.55061625650193" lon="11.495571070756874"><ele>176.0</ele><time>2026-04-26T08:42:46Z</time></trkpt><trkpt lat="43.55053071905231" lon="11.4954381222717"><ele>177.66666666666666</ele><time>2026-04-26T08:42:47Z</time></trkpt><trkpt lat="43.55043342313115" lon="11.495289751562453"><ele>179.33333333333334</ele><time>2026-04-26T08:42:48Z</time></trkpt><trkpt lat="43.55031381111617" lon="11.495152652911544"><ele>181.0</ele><time>2026-04-26T08:42:49Z</time></trkpt><trkpt lat="43.55018056865371" lon="11.49503145575528"><ele>181.0</ele><time>2026-04-26T08:42:50Z</time></trkpt><trkpt lat="43.55005932819076" lon="11.494923374668367"><ele>181.0</ele><time>2026-04-26T08:42:51Z</time></trkpt><trkpt lat="43.5499501218527" lon="11.494836104203268"><ele>181.0</ele><time>2026-04-26T08:42:52Z</time></trkpt><trkpt lat="43.54985109103956" lon="11.494751741875506"><ele>181.0</ele><time>2026-04-26T08:42:53Z</time></trkpt><trkpt lat="43.54977001466421" lon="11.494639045913624"><ele>183.75</ele><time>2026-04-26T08:42:54Z</time></trkpt><trkpt lat="43.549702953227495" lon="11.494499891428543"><ele>186.5</ele><time>2026-04-26T08:42:55Z</time></trkpt><trkpt lat="43.54965063194631" lon="11.494356365331477"><ele>189.25</ele><time>2026-04-26T08:42:56Z</time></trkpt><trkpt lat="43.54962960703069" lon="11.494192898352198"><ele>192.0</ele><time>2026-04-26T08:42:57Z</time></trkpt><trkpt lat="43.54963033303142" lon="11.494002056726272"><ele>192.0</ele><time>2026-04-26T08:42:58Z</time></trkpt><trkpt lat="43.54963956960766" lon="11.49379007298605"><ele>192.0</ele><time>2026-04-26T08:42:59Z</time></trkpt><trkpt lat="43.54963859275054" lon="11.493568269081697"><ele>192.0</ele><time>2026-04-26T08:43:00Z</time></trkpt><trkpt lat="43.54962613212487" lon="11.493370692696294"><ele>191.5</ele><time>2026-04-26T08:43:01Z</time></trkpt><trkpt lat="43.5496243638513" lon="11.493187667230726"><ele>191.0</ele><time>2026-04-26T08:43:02Z</time></trkpt><trkpt lat="43.54965871748919" lon="11.493018328578785"><ele>190.5</ele><time>2026-04-26T08:43:03Z</time></trkpt><trkpt lat="43.549725009080525" lon="11.492863110846919"><ele>190.0</ele><time>2026-04-26T08:43:04Z</time></trkpt><trkpt lat="43.549772399658195" lon="11.492712626798024"><ele>188.75</ele><time>2026-04-26T08:43:05Z</time></trkpt><trkpt lat="43.54977076857766" lon="11.492545094805127"><ele>187.5</ele><time>2026-04-26T08:43:06Z</time></trkpt><trkpt lat="43.5497128633819" lon="11.492373366970536"><ele>186.25</ele><time>2026-04-26T08:43:07Z</time></trkpt><trkpt lat="43.54961602927714" lon="11.492218127290549"><ele>185.0</ele><time>2026-04-26T08:43:08Z</time></trkpt><trkpt lat="43.549495153964344" lon="11.492079849547642"><ele>181.66666666666666</ele><time>2026-04-26T08:43:09Z</time></trkpt><trkpt lat="43.549360663844666" lon="11.491948671138836"><ele>178.33333333333334</ele><time>2026-04-26T08:43:10Z</time></trkpt><trkpt lat="43.549221638351405" lon="11.491819561335257"><ele>175.0</ele><time>2026-04-26T08:43:11Z</time></trkpt><trkpt lat="43.54909432304486" lon="11.491713129714888"><ele>175.0</ele><time>2026-04-26T08:43:12Z</time></trkpt><trkpt lat="43.54898229554576" lon="11.491608811090886"><ele>175.0</ele><time>2026-04-26T08:43:13Z</time></trkpt><trkpt lat="43.54889365245925" lon="11.491498953551929"><ele>175.0</ele><time>2026-04-26T08:43:14Z</time></trkpt><trkpt lat="43.54882548090543" lon="11.491371619076846"><ele>175.0</ele><time>2026-04-26T08:43:15Z</time></trkpt><trkpt lat="43.548787823029635" lon="11.491217467080018"><ele>175.0</ele><time>2026-04-26T08:43:16Z</time></trkpt><trkpt lat="43.54877200856328" lon="11.491047875861831"><ele>175.0</ele><time>2026-04-26T08:43:17Z</time></trkpt><trkpt lat="43.54871204254138" lon="11.490905458200482"><ele>175.0</ele><time>2026-04-26T08:43:18Z</time></trkpt><trkpt lat="43.54861011369115" lon="11.490782166025111"><ele>175.0</ele><time>2026-04-26T08:43:19Z</time></trkpt><trkpt lat="43.54849642071198" lon="11.49065061872889"><ele>176.66666666666669</ele><time>2026-04-26T08:43:20Z</time></trkpt><trkpt lat="43.54838006402238" lon="11.49050670716347"><ele>178.33333333333334</ele><time>2026-04-26T08:43:21Z</time></trkpt><trkpt lat="43.54825352004004" lon="11.490356756392952"><ele>180.0</ele><time>2026-04-26T08:43:22Z</time></trkpt><trkpt lat="43.54812628981335" lon="11.490203782450973"><ele>180.0</ele><time>2026-04-26T08:43:23Z</time></trkpt><trkpt lat="43.54800095741265" lon="11.490071185225446"><ele>180.0</ele><time>2026-04-26T08:43:24Z</time></trkpt><trkpt lat="43.547894338829686" lon="11.489962521203106"><ele>180.0</ele><time>2026-04-26T08:43:25Z</time></trkpt><trkpt lat="43.547823596310586" lon="11.48983478681823"><ele>180.0</ele><time>2026-04-26T08:43:26Z</time></trkpt><trkpt lat="43.54779352677356" lon="11.489674679402125"><ele>183.4</ele><time>2026-04-26T08:43:27Z</time></trkpt><trkpt lat="43.547779233715225" lon="11.489503939572606"><ele>186.8</ele><time>2026-04-26T08:43:28Z</time></trkpt><trkpt lat="43.54776305051042" lon="11.489370255784369"><ele>190.2</ele><time>2026-04-26T08:43:29Z</time></trkpt><trkpt lat="43.54771176719317" lon="11.489291302856762"><ele>193.6</ele><time>2026-04-26T08:43:30Z</time></trkpt><trkpt lat="43.54764148719713" lon="11.489287934630399"><ele>197.0</ele><time>2026-04-26T08:43:31Z</time></trkpt><trkpt lat="43.54757828962788" lon="11.489359071556741"><ele>197.0</ele><time>2026-04-26T08:43:32Z</time></trkpt><trkpt lat="43.54755348170623" lon="11.489496187407449"><ele>197.0</ele><time>2026-04-26T08:43:33Z</time></trkpt><trkpt lat="43.54756674863663" lon="11.489643398977776"><ele>197.0</ele><time>2026-04-26T08:43:34Z</time></trkpt><trkpt lat="43.54757558665351" lon="11.489811432567087"><ele>197.0</ele><time>2026-04-26T08:43:35Z</time></trkpt><trkpt lat="43.54754120455287" lon="11.489963189466799"><ele>197.0</ele><time>2026-04-26T08:43:36Z</time></trkpt><trkpt lat="43.54748959986009" lon="11.490085562554945"><ele>197.83333333333334</ele><time>2026-04-26T08:43:37Z</time></trkpt><trkpt lat="43.54742583673068" lon="11.490160971604634"><ele>198.66666666666669</ele><time>2026-04-26T08:43:38Z</time></trkpt><trkpt lat="43.547340564403655" lon="11.490171747179163"><ele>199.5</ele><time>2026-04-26T08:43:39Z</time></trkpt><trkpt lat="43.54727835845496" lon="11.490099926277617"><ele>200.33333333333331</ele><time>2026-04-26T08:43:40Z</time></trkpt><trkpt lat="43.5472550901423" lon="11.489980717631665"><ele>201.16666666666666</ele><time>2026-04-26T08:43:41Z</time></trkpt><trkpt lat="43.54725951094662" lon="11.489836206858737"><ele>202.0</ele><time>2026-04-26T08:43:42Z</time></trkpt><trkpt lat="43.54725190860164" lon="11.489676929481176"><ele>200.75</ele><time>2026-04-26T08:43:43Z</time></trkpt><trkpt lat="43.5472165306825" lon="11.489510248868429"><ele>199.5</ele><time>2026-04-26T08:43:44Z</time></trkpt><trkpt lat="43.54713003397702" lon="11.48938078805265"><ele>198.25</ele><time>2026-04-26T08:43:45Z</time></trkpt><trkpt lat="43.54701032996254" lon="11.489300490505117"><ele>197.0</ele><time>2026-04-26T08:43:46Z</time></trkpt><trkpt lat="43.54688403703952" lon="11.489231193740256"><ele>204.0</ele><time>2026-04-26T08:43:47Z</time></trkpt><trkpt lat="43.54676087051066" lon="11.489117537733058"><ele>211.0</ele><time>2026-04-26T08:43:48Z</time></trkpt><trkpt lat="43.54667789213527" lon="11.48892683275522"><ele>218.0</ele><time>2026-04-26T08:43:49Z</time></trkpt><trkpt lat="43.546618696670926" lon="11.488721326463285"><ele>218.0</ele><time>2026-04-26T08:43:50Z</time></trkpt><trkpt lat="43.5465384751272" lon="11.488577030256655"><ele>218.0</ele><time>2026-04-26T08:43:51Z</time></trkpt><trkpt lat="43.54645321614099" lon="11.488457199113322"><ele>218.0</ele><time>2026-04-26T08:43:52Z</time></trkpt><trkpt lat="43.546343761294146" lon="11.488414144072818"><ele>218.0</ele><time>2026-04-26T08:43:53Z</time></trkpt><trkpt lat="43.54622281290442" lon="11.488432279373443"><ele>221.25</ele><time>2026-04-26T08:43:54Z</time></trkpt><trkpt lat="43.546091052321536" lon="11.488514748478892"><ele>224.5</ele><time>2026-04-26T08:43:55Z</time></trkpt><trkpt lat="43.54597183212559" lon="11.488625924623276"><ele>227.75</ele><time>2026-04-26T08:43:56Z</time></trkpt><trkpt lat="43.545865249135794" lon="11.4886716379032"><ele>231.0</ele><time>2026-04-26T08:43:57Z</time></trkpt><trkpt lat="43.54580158375637" lon="11.488559723367015"><ele>231.0</ele><time>2026-04-26T08:43:58Z</time></trkpt><trkpt lat="43.5456820281405" lon="11.488516943950888"><ele>231.0</ele><time>2026-04-26T08:43:59Z</time></trkpt><trkpt lat="43.545587148805" lon="11.48849610596521"><ele>231.0</ele><time>2026-04-26T08:44:00Z</time></trkpt><trkpt lat="43.54547970729725" lon="11.4885947710622"><ele>231.0</ele><time>2026-04-26T08:44:01Z</time></trkpt><trkpt lat="43.545398780402905" lon="11.488745346103306"><ele>236.66666666666669</ele><time>2026-04-26T08:44:02Z</time></trkpt><trkpt lat="43.545316304556096" lon="11.48891817680596"><ele>242.33333333333334</ele><time>2026-04-26T08:44:03Z</time></trkpt><trkpt lat="43.54521029553568" lon="11.489067860358189"><ele>248.0</ele><time>2026-04-26T08:44:04Z</time></trkpt><trkpt lat="43.545103322774196" lon="11.489217745035678"><ele>248.0</ele><time>2026-04-26T08:44:05Z</time></trkpt><trkpt lat="43.54501980482742" lon="11.48935730539278"><ele>248.0</ele><time>2026-04-26T08:44:06Z</time></trkpt><trkpt lat="43.54496849016828" lon="11.489521247330455"><ele>248.0</ele><time>2026-04-26T08:44:07Z</time></trkpt><trkpt lat="43.54495986458952" lon="11.48970817021588"><ele>248.0</ele><time>2026-04-26T08:44:08Z</time></trkpt><trkpt lat="43.54497094102564" lon="11.489908737919814"><ele>248.25</ele><time>2026-04-26T08:44:09Z</time></trkpt><trkpt lat="43.54494391552313" lon="11.49008167810292"><ele>248.5</ele><time>2026-04-26T08:44:10Z</time></trkpt><trkpt lat="43.54486363664076" lon="11.490233104089876"><ele>248.75</ele><time>2026-04-26T08:44:11Z</time></trkpt><trkpt lat="43.544741521093236" lon="11.4903510540124"><ele>249.0</ele><time>2026-04-26T08:44:12Z</time></trkpt><trkpt lat="43.54460741385257" lon="11.490459911925521"><ele>251.33333333333331</ele><time>2026-04-26T08:44:13Z</time></trkpt><trkpt lat="43.544467919926106" lon="11.490576943346156"><ele>253.66666666666666</ele><time>2026-04-26T08:44:14Z</time></trkpt><trkpt lat="43.54432823151487" lon="11.490706397723583"><ele>256.0</ele><time>2026-04-26T08:44:15Z</time></trkpt><trkpt lat="43.54418832057244" lon="11.49084532130828"><ele>256.0</ele><time>2026-04-26T08:44:16Z</time></trkpt><trkpt lat="43.544041723612004" lon="11.490971867531055"><ele>256.0</ele><time>2026-04-26T08:44:17Z</time></trkpt><trkpt lat="43.54391526169726" lon="11.491094159818074"><ele>256.0</ele><time>2026-04-26T08:44:18Z</time></trkpt><trkpt lat="43.543799057037106" lon="11.49120070012163"><ele>256.66666666666663</ele><time>2026-04-26T08:44:19Z</time></trkpt><trkpt lat="43.5436716704834" lon="11.49131206972719"><ele>257.3333333333333</ele><time>2026-04-26T08:44:20Z</time></trkpt><trkpt lat="43.54353234247483" lon="11.491434391293849"><ele>258.0</ele><time>2026-04-26T08:44:21Z</time></trkpt><trkpt lat="43.54337868387886" lon="11.491546783253678"><ele>258.0</ele><time>2026-04-26T08:44:22Z</time></trkpt><trkpt lat="43.54322946011393" lon="11.491666855546159"><ele>258.0</ele><time>2026-04-26T08:44:23Z</time></trkpt><trkpt lat="43.54309979127636" lon="11.491814584816204"><ele>258.0</ele><time>2026-04-26T08:44:24Z</time></trkpt><trkpt lat="43.54300333616651" lon="11.492002521658776"><ele>256.6666666666667</ele><time>2026-04-26T08:44:25Z</time></trkpt><trkpt lat="43.54293530811935" lon="11.49221735712652"><ele>255.33333333333334</ele><time>2026-04-26T08:44:26Z</time></trkpt><trkpt lat="43.54288078979507" lon="11.492445625144866"><ele>254.0</ele><time>2026-04-26T08:44:27Z</time></trkpt><trkpt lat="43.542825983721386" lon="11.492684153751746"><ele>256.6666666666667</ele><time>2026-04-26T08:44:28Z</time></trkpt><trkpt lat="43.54277030098401" lon="11.49290904618605"><ele>259.3333333333333</ele><time>2026-04-26T08:44:29Z</time></trkpt><trkpt lat="43.54271486821346" lon="11.493115890772629"><ele>262.0</ele><time>2026-04-26T08:44:30Z</time></trkpt><trkpt lat="43.54264999686834" lon="11.493284983043328"><ele>262.0</ele><time>2026-04-26T08:44:31Z</time></trkpt><trkpt lat="43.542560976477674" lon="11.493417479320607"><ele>262.0</ele><time>2026-04-26T08:44:32Z</time></trkpt><trkpt lat="43.542448107033884" lon="11.493499012666337"><ele>262.0</ele><time>2026-04-26T08:44:33Z</time></trkpt><trkpt lat="43.542321585352056" lon="11.493517575707742"><ele>262.0</ele><time>2026-04-26T08:44:34Z</time></trkpt><trkpt lat="43.54221216824144" lon="11.493437864862166"><ele>262.0</ele><time>2026-04-26T08:44:35Z</time></trkpt><trkpt lat="43.542104246904344" lon="11.493324085123556"><ele>262.0</ele><time>2026-04-26T08:44:36Z</time></trkpt><trkpt lat="43.54200354486705" lon="11.493157495506685"><ele>262.0</ele><time>2026-04-26T08:44:37Z</time></trkpt><trkpt lat="43.54187501455973" lon="11.493035228773019"><ele>262.0</ele><time>2026-04-26T08:44:38Z</time></trkpt><trkpt lat="43.54172207946188" lon="11.492948054464259"><ele>262.0</ele><time>2026-04-26T08:44:39Z</time></trkpt><trkpt lat="43.54155661271241" lon="11.492929132942765"><ele>262.0</ele><time>2026-04-26T08:44:40Z</time></trkpt><trkpt lat="43.54138287307133" lon="11.492963546827445"><ele>262.0</ele><time>2026-04-26T08:44:41Z</time></trkpt><trkpt lat="43.54119656292019" lon="11.493016128950286"><ele>262.3333333333333</ele><time>2026-04-26T08:44:42Z</time></trkpt><trkpt lat="43.54101811366485" lon="11.493049379613968"><ele>262.6666666666667</ele><time>2026-04-26T08:44:43Z</time></trkpt><trkpt lat="43.540828291254954" lon="11.493082071180421"><ele>263.0</ele><time>2026-04-26T08:44:44Z</time></trkpt><trkpt lat="43.54064073673346" lon="11.49311759391751"><ele>263.0</ele><time>2026-04-26T08:44:45Z</time></trkpt><trkpt lat="43.54045416760273" lon="11.493149639228516"><ele>263.0</ele><time>2026-04-26T08:44:46Z</time></trkpt><trkpt lat="43.54026426483394" lon="11.493182469861363"><ele>263.0</ele><time>2026-04-26T08:44:47Z</time></trkpt><trkpt lat="43.54007569635267" lon="11.493220614083425"><ele>264.0</ele><time>2026-04-26T08:44:48Z</time></trkpt><trkpt lat="43.53988535224802" lon="11.493257586746767"><ele>265.0</ele><time>2026-04-26T08:44:49Z</time></trkpt><trkpt lat="43.53969399040388" lon="11.493299943345098"><ele>266.0</ele><time>2026-04-26T08:44:50Z</time></trkpt><trkpt lat="43.539503829264774" lon="11.493364146736885"><ele>266.0</ele><time>2026-04-26T08:44:51Z</time></trkpt><trkpt lat="43.53931966156601" lon="11.493446673812883"><ele>266.0</ele><time>2026-04-26T08:44:52Z</time></trkpt><trkpt lat="43.539139136577724" lon="11.493532995354556"><ele>266.0</ele><time>2026-04-26T08:44:53Z</time></trkpt><trkpt lat="43.53895475737944" lon="11.493587622900291"><ele>266.0</ele><time>2026-04-26T08:44:54Z</time></trkpt><trkpt lat="43.53877325532019" lon="11.493604569462"><ele>266.0</ele><time>2026-04-26T08:44:55Z</time></trkpt><trkpt lat="43.538596399583305" lon="11.493584792429642"><ele>266.0</ele><time>2026-04-26T08:44:56Z</time></trkpt><trkpt lat="43.538422182363895" lon="11.493533396562112"><ele>266.6666666666667</ele><time>2026-04-26T08:44:57Z</time></trkpt><trkpt lat="43.53825545033499" lon="11.493438950716577"><ele>267.3333333333333</ele><time>2026-04-26T08:44:58Z</time></trkpt><trkpt lat="43.53810140240721" lon="11.49334952735205"><ele>268.0</ele><time>2026-04-26T08:44:59Z</time></trkpt><trkpt lat="43.53795759061344" lon="11.493317829579487"><ele>268.66666666666663</ele><time>2026-04-26T08:45:00Z</time></trkpt><trkpt lat="43.537808536886295" lon="11.493334567892134"><ele>269.3333333333333</ele><time>2026-04-26T08:45:01Z</time></trkpt><trkpt lat="43.537650328949326" lon="11.493341844187972"><ele>270.0</ele><time>2026-04-26T08:45:02Z</time></trkpt><trkpt lat="43.53748380441309" lon="11.493303976685615"><ele>270.0</ele><time>2026-04-26T08:45:03Z</time></trkpt><trkpt lat="43.53732311656991" lon="11.493221073288327"><ele>270.0</ele><time>2026-04-26T08:45:04Z</time></trkpt><trkpt lat="43.53717196834078" lon="11.493100568767353"><ele>270.0</ele><time>2026-04-26T08:45:05Z</time></trkpt><trkpt lat="43.53703361050344" lon="11.49294371621427"><ele>271.3333333333333</ele><time>2026-04-26T08:45:06Z</time></trkpt><trkpt lat="43.53690339203376" lon="11.492770710601285"><ele>272.66666666666663</ele><time>2026-04-26T08:45:07Z</time></trkpt><trkpt lat="43.536770578674776" lon="11.492598440789926"><ele>274.0</ele><time>2026-04-26T08:45:08Z</time></trkpt><trkpt lat="43.53664050224063" lon="11.49242709068861"><ele>274.0</ele><time>2026-04-26T08:45:09Z</time></trkpt><trkpt lat="43.53649979552668" lon="11.492280888558135"><ele>274.0</ele><time>2026-04-26T08:45:10Z</time></trkpt><trkpt lat="43.53633666497286" lon="11.492174100385629"><ele>274.0</ele><time>2026-04-26T08:45:11Z</time></trkpt><trkpt lat="43.53616100204907" lon="11.49209505326988"><ele>274.0</ele><time>2026-04-26T08:45:12Z</time></trkpt><trkpt lat="43.53597920783972" lon="11.492021828506523"><ele>274.0</ele><time>2026-04-26T08:45:13Z</time></trkpt><trkpt lat="43.535795937130466" lon="11.491942697423765"><ele>274.0</ele><time>2026-04-26T08:45:14Z</time></trkpt><trkpt lat="43.53561282424577" lon="11.491850395078963"><ele>274.0</ele><time>2026-04-26T08:45:15Z</time></trkpt><trkpt lat="43.53543177011455" lon="11.491754080786851"><ele>274.0</ele><time>2026-04-26T08:45:16Z</time></trkpt><trkpt lat="43.53525249961051" lon="11.491662906313453"><ele>274.0</ele><time>2026-04-26T08:45:17Z</time></trkpt><trkpt lat="43.535068676072775" lon="11.491589190669483"><ele>274.3333333333333</ele><time>2026-04-26T08:45:18Z</time></trkpt><trkpt lat="43.53488290766241" lon="11.491533527717642"><ele>274.6666666666667</ele><time>2026-04-26T08:45:19Z</time></trkpt><trkpt lat="43.53469992520743" lon="11.491477904785842"><ele>275.0</ele><time>2026-04-26T08:45:20Z</time></trkpt><trkpt lat="43.53452090884795" lon="11.491405189878988"><ele>275.0</ele><time>2026-04-26T08:45:21Z</time></trkpt><trkpt lat="43.53434756129375" lon="11.491306561475637"><ele>275.0</ele><time>2026-04-26T08:45:22Z</time></trkpt><trkpt lat="43.53418071513493" lon="11.491203707592051"><ele>275.0</ele><time>2026-04-26T08:45:23Z</time></trkpt><trkpt lat="43.53401069318917" lon="11.491104175812335"><ele>275.0</ele><time>2026-04-26T08:45:24Z</time></trkpt><trkpt lat="43.53384268237217" lon="11.491004226168371"><ele>275.0</ele><time>2026-04-26T08:45:25Z</time></trkpt><trkpt lat="43.533675640113856" lon="11.49090184598597"><ele>275.0</ele><time>2026-04-26T08:45:26Z</time></trkpt><trkpt lat="43.53350823659102" lon="11.490794588958682"><ele>274.0</ele><time>2026-04-26T08:45:27Z</time></trkpt><trkpt lat="43.5333414783003" lon="11.490690449264635"><ele>273.0</ele><time>2026-04-26T08:45:28Z</time></trkpt><trkpt lat="43.53317223952323" lon="11.490593745528615"><ele>272.0</ele><time>2026-04-26T08:45:29Z</time></trkpt><trkpt lat="43.53300519784378" lon="11.49049756879846"><ele>273.0</ele><time>2026-04-26T08:45:30Z</time></trkpt><trkpt lat="43.53284164079141" lon="11.490388259215207"><ele>274.0</ele><time>2026-04-26T08:45:31Z</time></trkpt><trkpt lat="43.53267833660886" lon="11.490274342356555"><ele>275.0</ele><time>2026-04-26T08:45:32Z</time></trkpt><trkpt lat="43.53251224248409" lon="11.490167978171566"><ele>275.0</ele><time>2026-04-26T08:45:33Z</time></trkpt><trkpt lat="43.53233727622739" lon="11.490089388054756"><ele>275.0</ele><time>2026-04-26T08:45:34Z</time></trkpt><trkpt lat="43.532171121190814" lon="11.490040857550579"><ele>275.0</ele><time>2026-04-26T08:45:35Z</time></trkpt><trkpt lat="43.532012597661655" lon="11.490012137511124"><ele>275.33333333333337</ele><time>2026-04-26T08:45:36Z</time></trkpt><trkpt lat="43.53185371626785" lon="11.489977462927602"><ele>275.6666666666667</ele><time>2026-04-26T08:45:37Z</time></trkpt><trkpt lat="43.531691086188616" lon="11.489924584790595"><ele>276.0</ele><time>2026-04-26T08:45:38Z</time></trkpt><trkpt lat="43.531526074681985" lon="11.489875068617403"><ele>276.0</ele><time>2026-04-26T08:45:39Z</time></trkpt><trkpt lat="43.53135695395537" lon="11.48982565607457"><ele>276.0</ele><time>2026-04-26T08:45:40Z</time></trkpt><trkpt lat="43.53118717638462" lon="11.489779515941358"><ele>276.0</ele><time>2026-04-26T08:45:41Z</time></trkpt><trkpt lat="43.53101623305291" lon="11.489733843430546"><ele>276.0</ele><time>2026-04-26T08:45:42Z</time></trkpt><trkpt lat="43.5308421295825" lon="11.489695673063116"><ele>276.0</ele><time>2026-04-26T08:45:43Z</time></trkpt><trkpt lat="43.53066329386032" lon="11.489668408062263"><ele>276.0</ele><time>2026-04-26T08:45:44Z</time></trkpt><trkpt lat="43.53047790916404" lon="11.489654527114704"><ele>276.3333333333333</ele><time>2026-04-26T08:45:45Z</time></trkpt><trkpt lat="43.530290300530034" lon="11.489647210143636"><ele>276.66666666666663</ele><time>2026-04-26T08:45:46Z</time></trkpt><trkpt lat="43.530100880377" lon="11.489650952554722"><ele>277.0</ele><time>2026-04-26T08:45:47Z</time></trkpt><trkpt lat="43.529915447426696" lon="11.489659888460755"><ele>277.0</ele><time>2026-04-26T08:45:48Z</time></trkpt><trkpt lat="43.529731866512016" lon="11.48966976278736"><ele>277.0</ele><time>2026-04-26T08:45:49Z</time></trkpt><trkpt lat="43.529550874212305" lon="11.48968295649459"><ele>277.0</ele><time>2026-04-26T08:45:50Z</time></trkpt><trkpt lat="43.529368819770056" lon="11.489684550258158"><ele>278.0</ele><time>2026-04-26T08:45:51Z</time></trkpt><trkpt lat="43.52918834987518" lon="11.489666407388807"><ele>279.0</ele><time>2026-04-26T08:45:52Z</time></trkpt><trkpt lat="43.52900683195168" lon="11.489626204122294"><ele>280.0</ele><time>2026-04-26T08:45:53Z</time></trkpt><trkpt lat="43.52882413130594" lon="11.489578976166204"><ele>281.0</ele><time>2026-04-26T08:45:54Z</time></trkpt><trkpt lat="43.52863850795382" lon="11.489530167559524"><ele>282.0</ele><time>2026-04-26T08:45:55Z</time></trkpt><trkpt lat="43.52844892843931" lon="11.489481301697465"><ele>283.0</ele><time>2026-04-26T08:45:56Z</time></trkpt><trkpt lat="43.528256176023284" lon="11.489432741534223"><ele>283.0</ele><time>2026-04-26T08:45:57Z</time></trkpt><trkpt lat="43.52806125210625" lon="11.489380096634822"><ele>283.0</ele><time>2026-04-26T08:45:58Z</time></trkpt><trkpt lat="43.52786001253744" lon="11.489322788476752"><ele>283.0</ele><time>2026-04-26T08:45:59Z</time></trkpt><trkpt lat="43.52765668003872" lon="11.489268047053008"><ele>283.3333333333333</ele><time>2026-04-26T08:46:00Z</time></trkpt><trkpt lat="43.52747231420478" lon="11.489216673558806"><ele>283.6666666666667</ele><time>2026-04-26T08:46:01Z</time></trkpt><trkpt lat="43.527300670635974" lon="11.489173527674135"><ele>284.0</ele><time>2026-04-26T08:46:02Z</time></trkpt><trkpt lat="43.52713748571905" lon="11.489147504018092"><ele>284.0</ele><time>2026-04-26T08:46:03Z</time></trkpt><trkpt lat="43.526987513571584" lon="11.489146074398663"><ele>284.0</ele><time>2026-04-26T08:46:04Z</time></trkpt><trkpt lat="43.526848868212625" lon="11.48916120055094"><ele>284.0</ele><time>2026-04-26T08:46:05Z</time></trkpt><trkpt lat="43.52673125152158" lon="11.489177934688284"><ele>284.0</ele><time>2026-04-26T08:46:06Z</time></trkpt><trkpt lat="43.526633776906564" lon="11.489172503740146"><ele>284.0</ele><time>2026-04-26T08:46:07Z</time></trkpt><trkpt lat="43.52655182606975" lon="11.489143196419056"><ele>284.0</ele><time>2026-04-26T08:46:08Z</time></trkpt><trkpt lat="43.52648011327917" lon="11.48908806240322"><ele>284.0</ele><time>2026-04-26T08:46:09Z</time></trkpt><trkpt lat="43.52642189634526" lon="11.489004540675694"><ele>284.0</ele><time>2026-04-26T08:46:10Z</time></trkpt><trkpt lat="43.526362112136866" lon="11.488905447597523"><ele>284.0</ele><time>2026-04-26T08:46:11Z</time></trkpt><trkpt lat="43.526296732363114" lon="11.488793113683624"><ele>284.0</ele><time>2026-04-26T08:46:12Z</time></trkpt><trkpt lat="43.52622537134994" lon="11.488670635389754"><ele>285.5</ele><time>2026-04-26T08:46:13Z</time></trkpt><trkpt lat="43.52614878142383" lon="11.488539473676061"><ele>287.0</ele><time>2026-04-26T08:46:14Z</time></trkpt><trkpt lat="43.52606701055029" lon="11.488404095548963"><ele>288.5</ele><time>2026-04-26T08:46:15Z</time></trkpt><trkpt lat="43.52598210175796" lon="11.48826753369189"><ele>290.0</ele><time>2026-04-26T08:46:16Z</time></trkpt><trkpt lat="43.525896378041416" lon="11.48812678217538"><ele>290.0</ele><time>2026-04-26T08:46:17Z</time></trkpt><trkpt lat="43.525817829370006" lon="11.488001366770467"><ele>290.0</ele><time>2026-04-26T08:46:18Z</time></trkpt><trkpt lat="43.525745876465265" lon="11.487889538768238"><ele>290.0</ele><time>2026-04-26T08:46:19Z</time></trkpt><trkpt lat="43.52568074684525" lon="11.487787078938963"><ele>290.0</ele><time>2026-04-26T08:46:20Z</time></trkpt><trkpt lat="43.52562724524898" lon="11.487706441304075"><ele>290.0</ele><time>2026-04-26T08:46:21Z</time></trkpt><trkpt lat="43.52559080436261" lon="11.487622327771513"><ele>289.83333333333337</ele><time>2026-04-26T08:46:22Z</time></trkpt><trkpt lat="43.52552012009466" lon="11.487511883253058"><ele>289.6666666666667</ele><time>2026-04-26T08:46:24Z</time></trkpt><trkpt lat="43.525413204745426" lon="11.487592842441199"><ele>289.5</ele><time>2026-04-26T08:46:25Z</time></trkpt><trkpt lat="43.52534791594491" lon="11.487562536834155"><ele>289.3333333333333</ele><time>2026-04-26T08:46:28Z</time></trkpt><trkpt lat="43.5253207310241" lon="11.487473841530091"><ele>289.16666666666663</ele><time>2026-04-26T08:48:47Z</time></trkpt><trkpt lat="43.52527593608236" lon="11.487410683596027"><ele>289.0</ele><time>2026-04-26T08:48:49Z</time></trkpt><trkpt lat="43.525236074937304" lon="11.487332056580742"><ele>289.0</ele><time>2026-04-26T08:48:52Z</time></trkpt><trkpt lat="43.525257541587145" lon="11.487236250236961"><ele>289.0</ele><time>2026-04-26T08:49:04Z</time></trkpt><trkpt lat="43.52533321660408" lon="11.487294785008883"><ele>289.0</ele><time>2026-04-26T08:49:06Z</time></trkpt><trkpt lat="43.52537871053661" lon="11.487364033496121"><ele>289.0</ele><time>2026-04-26T08:49:07Z</time></trkpt><trkpt lat="43.525430713000695" lon="11.487443013364569"><ele>289.0</ele><time>2026-04-26T08:49:08Z</time></trkpt><trkpt lat="43.52549095875526" lon="11.487537124001927"><ele>289.0</ele><time>2026-04-26T08:49:09Z</time></trkpt><trkpt lat="43.525555494171" lon="11.487646004380812"><ele>289.0</ele><time>2026-04-26T08:49:10Z</time></trkpt><trkpt lat="43.52563125209067" lon="11.487769425089402"><ele>289.0</ele><time>2026-04-26T08:49:11Z</time></trkpt><trkpt lat="43.52571523546786" lon="11.487898077199164"><ele>289.0</ele><time>2026-04-26T08:49:12Z</time></trkpt><trkpt lat="43.525796972267074" lon="11.488025839025848"><ele>289.0</ele><time>2026-04-26T08:49:13Z</time></trkpt><trkpt lat="43.52587888017528" lon="11.488151761758672"><ele>289.2</ele><time>2026-04-26T08:49:14Z</time></trkpt><trkpt lat="43.52595575767774" lon="11.488271002495834"><ele>289.4</ele><time>2026-04-26T08:49:15Z</time></trkpt><trkpt lat="43.52601980051499" lon="11.488385489754073"><ele>289.6</ele><time>2026-04-26T08:49:16Z</time></trkpt><trkpt lat="43.526072565483446" lon="11.488507244747353"><ele>289.8</ele><time>2026-04-26T08:49:17Z</time></trkpt><trkpt lat="43.526127888306696" lon="11.488643214085076"><ele>290.0</ele><time>2026-04-26T08:49:18Z</time></trkpt><trkpt lat="43.526124168752915" lon="11.48880125650525"><ele>288.75</ele><time>2026-04-26T08:49:19Z</time></trkpt><trkpt lat="43.52610249209308" lon="11.488959999354483"><ele>287.5</ele><time>2026-04-26T08:49:20Z</time></trkpt><trkpt lat="43.5260359192855" lon="11.489101093011971"><ele>286.25</ele><time>2026-04-26T08:49:21Z</time></trkpt><trkpt lat="43.526042420260026" lon="11.489254663205898"><ele>285.0</ele><time>2026-04-26T08:49:22Z</time></trkpt><trkpt lat="43.52609277871979" lon="11.489397712806504"><ele>285.0</ele><time>2026-04-26T08:49:23Z</time></trkpt><trkpt lat="43.52617922685187" lon="11.489501368888787"><ele>285.0</ele><time>2026-04-26T08:49:24Z</time></trkpt><trkpt lat="43.52626110798233" lon="11.48955797366584"><ele>285.0</ele><time>2026-04-26T08:49:25Z</time></trkpt><trkpt lat="43.52621558753693" lon="11.489790720394462"><ele>285.0</ele><time>2026-04-26T08:49:26Z</time></trkpt><trkpt lat="43.52618300788751" lon="11.489964687168868"><ele>283.5</ele><time>2026-04-26T08:49:27Z</time></trkpt><trkpt lat="43.52613080626822" lon="11.490142134463252"><ele>282.0</ele><time>2026-04-26T08:49:28Z</time></trkpt><trkpt lat="43.526058764116264" lon="11.490318778488902"><ele>280.5</ele><time>2026-04-26T08:49:29Z</time></trkpt><trkpt lat="43.525956948882786" lon="11.49047867402267"><ele>279.0</ele><time>2026-04-26T08:49:30Z</time></trkpt><trkpt lat="43.525826358953985" lon="11.490615968295305"><ele>277.3333333333333</ele><time>2026-04-26T08:49:31Z</time></trkpt><trkpt lat="43.5256775745376" lon="11.490745105588836"><ele>275.66666666666663</ele><time>2026-04-26T08:49:32Z</time></trkpt><trkpt lat="43.52552221724175" lon="11.490888410654268"><ele>274.0</ele><time>2026-04-26T08:49:33Z</time></trkpt><trkpt lat="43.52536642715572" lon="11.491037038843485"><ele>274.0</ele><time>2026-04-26T08:49:34Z</time></trkpt><trkpt lat="43.52520899893653" lon="11.491188981441644"><ele>274.0</ele><time>2026-04-26T08:49:35Z</time></trkpt><trkpt lat="43.52504976356494" lon="11.491339014669673"><ele>274.0</ele><time>2026-04-26T08:49:36Z</time></trkpt><trkpt lat="43.52489923160623" lon="11.491480035548747"><ele>275.0</ele><time>2026-04-26T08:49:37Z</time></trkpt><trkpt lat="43.52476016859826" lon="11.491612117987131"><ele>276.0</ele><time>2026-04-26T08:49:38Z</time></trkpt><trkpt lat="43.52463749767567" lon="11.4917404947095"><ele>277.0</ele><time>2026-04-26T08:49:39Z</time></trkpt><trkpt lat="43.52453245441197" lon="11.491876500579826"><ele>277.0</ele><time>2026-04-26T08:49:40Z</time></trkpt><trkpt lat="43.52446467057923" lon="11.492037422543977"><ele>277.0</ele><time>2026-04-26T08:49:41Z</time></trkpt><trkpt lat="43.52444083546013" lon="11.492221655561794"><ele>277.0</ele><time>2026-04-26T08:49:42Z</time></trkpt><trkpt lat="43.52445670581521" lon="11.492410861744704"><ele>277.0</ele><time>2026-04-26T08:49:43Z</time></trkpt><trkpt lat="43.52451505355842" lon="11.49258696947429"><ele>277.3333333333333</ele><time>2026-04-26T08:49:44Z</time></trkpt><trkpt lat="43.52460632586754" lon="11.492744875300168"><ele>277.6666666666667</ele><time>2026-04-26T08:49:45Z</time></trkpt><trkpt lat="43.52471324986323" lon="11.492892919165863"><ele>278.0</ele><time>2026-04-26T08:49:46Z</time></trkpt><trkpt lat="43.524827505155116" lon="11.493037254897759"><ele>278.0</ele><time>2026-04-26T08:49:47Z</time></trkpt><trkpt lat="43.52494426262791" lon="11.493184883574878"><ele>278.0</ele><time>2026-04-26T08:49:48Z</time></trkpt><trkpt lat="43.52504999715375" lon="11.493332489124699"><ele>278.0</ele><time>2026-04-26T08:49:49Z</time></trkpt><trkpt lat="43.525143303042086" lon="11.493481209517755"><ele>278.0</ele><time>2026-04-26T08:49:50Z</time></trkpt><trkpt lat="43.52522203464088" lon="11.493640257788908"><ele>278.0</ele><time>2026-04-26T08:49:51Z</time></trkpt><trkpt lat="43.5252751299878" lon="11.493785677452905"><ele>278.0</ele><time>2026-04-26T08:49:52Z</time></trkpt><trkpt lat="43.525300773978785" lon="11.49391344465758"><ele>278.0</ele><time>2026-04-26T08:49:53Z</time></trkpt><trkpt lat="43.525286464438906" lon="11.494052914731169"><ele>279.2</ele><time>2026-04-26T08:49:54Z</time></trkpt><trkpt lat="43.52522637238599" lon="11.494165842296102"><ele>280.4</ele><time>2026-04-26T08:49:55Z</time></trkpt><trkpt lat="43.52516622436057" lon="11.494271280158976"><ele>281.59999999999997</ele><time>2026-04-26T08:49:56Z</time></trkpt><trkpt lat="43.52514118682807" lon="11.494409025417145"><ele>282.8</ele><time>2026-04-26T08:49:57Z</time></trkpt><trkpt lat="43.52515396616963" lon="11.494573160243476"><ele>284.0</ele><time>2026-04-26T08:49:58Z</time></trkpt><trkpt lat="43.52522304395032" lon="11.494723000263788"><ele>284.0</ele><time>2026-04-26T08:49:59Z</time></trkpt><trkpt lat="43.52524316890686" lon="11.49492018903443"><ele>284.0</ele><time>2026-04-26T08:50:00Z</time></trkpt><trkpt lat="43.52524100813002" lon="11.495113329243637"><ele>284.0</ele><time>2026-04-26T08:50:01Z</time></trkpt><trkpt lat="43.525218032571736" lon="11.495318035661203"><ele>284.0</ele><time>2026-04-26T08:50:02Z</time></trkpt><trkpt lat="43.52519072215303" lon="11.495541146385337"><ele>284.0</ele><time>2026-04-26T08:50:03Z</time></trkpt><trkpt lat="43.52516785120726" lon="11.495769718648642"><ele>284.0</ele><time>2026-04-26T08:50:04Z</time></trkpt><trkpt lat="43.525136993443745" lon="11.496011852294744"><ele>284.0</ele><time>2026-04-26T08:50:05Z</time></trkpt><trkpt lat="43.52510525982414" lon="11.49626605533373"><ele>282.33333333333337</ele><time>2026-04-26T08:50:06Z</time></trkpt><trkpt lat="43.52506913433909" lon="11.49653037066505"><ele>280.6666666666667</ele><time>2026-04-26T08:50:07Z</time></trkpt><trkpt lat="43.52503115951439" lon="11.496800862776587"><ele>279.0</ele><time>2026-04-26T08:50:08Z</time></trkpt><trkpt lat="43.52499541801424" lon="11.497075150705639"><ele>278.3333333333333</ele><time>2026-04-26T08:50:09Z</time></trkpt><trkpt lat="43.52495938036314" lon="11.497354247615116"><ele>277.66666666666663</ele><time>2026-04-26T08:50:10Z</time></trkpt><trkpt lat="43.52492252845477" lon="11.49763808034616"><ele>277.0</ele><time>2026-04-26T08:50:11Z</time></trkpt><trkpt lat="43.524884608530755" lon="11.497915956553035"><ele>276.66666666666663</ele><time>2026-04-26T08:50:12Z</time></trkpt><trkpt lat="43.524847795220374" lon="11.498197474378617"><ele>276.3333333333333</ele><time>2026-04-26T08:50:13Z</time></trkpt><trkpt lat="43.524811269462255" lon="11.49848196049396"><ele>276.0</ele><time>2026-04-26T08:50:14Z</time></trkpt><trkpt lat="43.52477629801847" lon="11.498762847260638"><ele>275.6666666666667</ele><time>2026-04-26T08:50:15Z</time></trkpt><trkpt lat="43.52474053387005" lon="11.499027112679435"><ele>275.33333333333337</ele><time>2026-04-26T08:50:16Z</time></trkpt><trkpt lat="43.52470286012943" lon="11.499282969958282"><ele>275.0</ele><time>2026-04-26T08:50:17Z</time></trkpt><trkpt lat="43.52464463541635" lon="11.499532287582586"><ele>275.0</ele><time>2026-04-26T08:50:18Z</time></trkpt><trkpt lat="43.52455585370942" lon="11.499761025011736"><ele>275.0</ele><time>2026-04-26T08:50:19Z</time></trkpt><trkpt lat="43.52443431379264" lon="11.499951864845492"><ele>275.0</ele><time>2026-04-26T08:50:20Z</time></trkpt><trkpt lat="43.5242909958171" lon="11.500113867434704"><ele>275.0</ele><time>2026-04-26T08:50:21Z</time></trkpt><trkpt lat="43.52413711329945" lon="11.500259722177793"><ele>275.0</ele><time>2026-04-26T08:50:22Z</time></trkpt><trkpt lat="43.52398604004614" lon="11.50041155813948"><ele>275.0</ele><time>2026-04-26T08:50:23Z</time></trkpt><trkpt lat="43.52383231674556" lon="11.500555641191243"><ele>274.0</ele><time>2026-04-26T08:50:24Z</time></trkpt><trkpt lat="43.52366734080724" lon="11.500677819723398"><ele>273.0</ele><time>2026-04-26T08:50:25Z</time></trkpt><trkpt lat="43.523487796457125" lon="11.500774112811573"><ele>272.0</ele><time>2026-04-26T08:50:26Z</time></trkpt><trkpt lat="43.523298293863775" lon="11.500858883157505"><ele>272.0</ele><time>2026-04-26T08:50:27Z</time></trkpt><trkpt lat="43.523103377046844" lon="11.500942908199773"><ele>272.0</ele><time>2026-04-26T08:50:28Z</time></trkpt><trkpt lat="43.52290656989305" lon="11.501028259308617"><ele>272.0</ele><time>2026-04-26T08:50:29Z</time></trkpt><trkpt lat="43.522714613992086" lon="11.501112111145364"><ele>271.6666666666667</ele><time>2026-04-26T08:50:30Z</time></trkpt><trkpt lat="43.522538733863364" lon="11.501190874338624"><ele>271.3333333333333</ele><time>2026-04-26T08:50:31Z</time></trkpt><trkpt lat="43.522364870757805" lon="11.501262354866464"><ele>271.0</ele><time>2026-04-26T08:50:32Z</time></trkpt><trkpt lat="43.5221965036797" lon="11.501335951662552"><ele>272.0</ele><time>2026-04-26T08:50:33Z</time></trkpt><trkpt lat="43.52203173902742" lon="11.501413590043645"><ele>273.0</ele><time>2026-04-26T08:50:34Z</time></trkpt><trkpt lat="43.521870490271056" lon="11.50148473750144"><ele>274.0</ele><time>2026-04-26T08:50:35Z</time></trkpt><trkpt lat="43.52171071294809" lon="11.501548679107247"><ele>274.0</ele><time>2026-04-26T08:50:36Z</time></trkpt><trkpt lat="43.52155208212937" lon="11.501591018142271"><ele>274.0</ele><time>2026-04-26T08:50:37Z</time></trkpt><trkpt lat="43.52140036911015" lon="11.50159695801497"><ele>274.0</ele><time>2026-04-26T08:50:38Z</time></trkpt><trkpt lat="43.521247993132675" lon="11.50157199794834"><ele>275.75</ele><time>2026-04-26T08:50:39Z</time></trkpt><trkpt lat="43.521106598546154" lon="11.50150722912629"><ele>277.5</ele><time>2026-04-26T08:50:40Z</time></trkpt><trkpt lat="43.52098541160121" lon="11.501421196095535"><ele>279.25</ele><time>2026-04-26T08:50:41Z</time></trkpt><trkpt lat="43.52087132315596" lon="11.501314605120218"><ele>281.0</ele><time>2026-04-26T08:50:42Z</time></trkpt><trkpt lat="43.520750263707875" lon="11.501213406925658"><ele>281.0</ele><time>2026-04-26T08:50:43Z</time></trkpt><trkpt lat="43.520618578157965" lon="11.501142826017317"><ele>281.0</ele><time>2026-04-26T08:50:44Z</time></trkpt><trkpt lat="43.520482130616095" lon="11.501114733314099"><ele>281.0</ele><time>2026-04-26T08:50:45Z</time></trkpt><trkpt lat="43.52034820272169" lon="11.501117607854964"><ele>281.0</ele><time>2026-04-26T08:50:46Z</time></trkpt><trkpt lat="43.52021407782959" lon="11.501153048034254"><ele>283.0</ele><time>2026-04-26T08:50:47Z</time></trkpt><trkpt lat="43.52008010663215" lon="11.501214074151747"><ele>285.0</ele><time>2026-04-26T08:50:48Z</time></trkpt><trkpt lat="43.51994458946205" lon="11.501282375913213"><ele>287.0</ele><time>2026-04-26T08:50:49Z</time></trkpt><trkpt lat="43.51980856021106" lon="11.501342902131505"><ele>289.0</ele><time>2026-04-26T08:50:50Z</time></trkpt><trkpt lat="43.519684528866335" lon="11.501398064992747"><ele>291.0</ele><time>2026-04-26T08:50:51Z</time></trkpt><trkpt lat="43.5195661112196" lon="11.501455185370322"><ele>293.0</ele><time>2026-04-26T08:50:52Z</time></trkpt><trkpt lat="43.519451543800685" lon="11.501516359184361"><ele>295.0</ele><time>2026-04-26T08:50:53Z</time></trkpt><trkpt lat="43.51934171421913" lon="11.501588107118204"><ele>297.0</ele><time>2026-04-26T08:50:54Z</time></trkpt><trkpt lat="43.51924058150163" lon="11.501673276460082"><ele>297.0</ele><time>2026-04-26T08:50:55Z</time></trkpt><trkpt lat="43.519150385333916" lon="11.50176420431794"><ele>297.0</ele><time>2026-04-26T08:50:56Z</time></trkpt><trkpt lat="43.51907156419529" lon="11.50185489535466"><ele>297.0</ele><time>2026-04-26T08:50:57Z</time></trkpt><trkpt lat="43.51900728310909" lon="11.501932690887848"><ele>297.0</ele><time>2026-04-26T08:50:58Z</time></trkpt><trkpt lat="43.51894484512378" lon="11.50199064806217"><ele>297.0</ele><time>2026-04-26T08:50:59Z</time></trkpt><trkpt lat="43.51889035376652" lon="11.502054221794905"><ele>297.0</ele><time>2026-04-26T08:51:00Z</time></trkpt><trkpt lat="43.518823235540665" lon="11.50207391402488"><ele>297.0</ele><time>2026-04-26T08:51:01Z</time></trkpt><trkpt lat="43.51871348454503" lon="11.502025050334643"><ele>297.0</ele><time>2026-04-26T08:51:03Z</time></trkpt><trkpt lat="43.51864667229127" lon="11.50198482838092"><ele>297.0</ele><time>2026-04-26T08:51:04Z</time></trkpt><trkpt lat="43.51856637076802" lon="11.5019403717231"><ele>297.0</ele><time>2026-04-26T08:51:05Z</time></trkpt><trkpt lat="43.51849379216849" lon="11.501880337036887"><ele>297.0</ele><time>2026-04-26T08:51:06Z</time></trkpt><trkpt lat="43.51853400271328" lon="11.50164390966572"><ele>297.0</ele><time>2026-04-26T08:51:07Z</time></trkpt><trkpt lat="43.51852059721155" lon="11.501468195049428"><ele>297.0</ele><time>2026-04-26T08:51:08Z</time></trkpt><trkpt lat="43.518487342414765" lon="11.501281060246955"><ele>297.0</ele><time>2026-04-26T08:51:09Z</time></trkpt><trkpt lat="43.51842711809849" lon="11.501078238977486"><ele>297.0</ele><time>2026-04-26T08:51:10Z</time></trkpt><trkpt lat="43.51837970400827" lon="11.50086348588832"><ele>297.6666666666667</ele><time>2026-04-26T08:51:11Z</time></trkpt><trkpt lat="43.5183135916815" lon="11.500641178870174"><ele>298.33333333333337</ele><time>2026-04-26T08:51:12Z</time></trkpt><trkpt lat="43.51822918406398" lon="11.500415064533739"><ele>299.0</ele><time>2026-04-26T08:51:13Z</time></trkpt><trkpt lat="43.51813470160517" lon="11.500189267741199"><ele>299.0</ele><time>2026-04-26T08:51:14Z</time></trkpt><trkpt lat="43.51804865399703" lon="11.499964926442248"><ele>299.0</ele><time>2026-04-26T08:51:15Z</time></trkpt><trkpt lat="43.51796058499122" lon="11.499739395840013"><ele>299.0</ele><time>2026-04-26T08:51:16Z</time></trkpt><trkpt lat="43.51787606332003" lon="11.499524439740403"><ele>300.75</ele><time>2026-04-26T08:51:17Z</time></trkpt><trkpt lat="43.51780510101363" lon="11.499335602982912"><ele>302.5</ele><time>2026-04-26T08:51:18Z</time></trkpt><trkpt lat="43.517766547446904" lon="11.499143659272084"><ele>304.25</ele><time>2026-04-26T08:51:19Z</time></trkpt><trkpt lat="43.51773919947415" lon="11.498947812854208"><ele>306.0</ele><time>2026-04-26T08:51:20Z</time></trkpt><trkpt lat="43.51773425042093" lon="11.498743868995971"><ele>306.3333333333333</ele><time>2026-04-26T08:51:21Z</time></trkpt><trkpt lat="43.51774747544544" lon="11.498526796725548"><ele>306.66666666666663</ele><time>2026-04-26T08:51:22Z</time></trkpt><trkpt lat="43.517760176918536" lon="11.498295849408493"><ele>307.0</ele><time>2026-04-26T08:51:23Z</time></trkpt><trkpt lat="43.51776151810143" lon="11.498054557510097"><ele>307.66666666666663</ele><time>2026-04-26T08:51:24Z</time></trkpt><trkpt lat="43.51777606850361" lon="11.497809042749727"><ele>308.3333333333333</ele><time>2026-04-26T08:51:25Z</time></trkpt><trkpt lat="43.517786491496935" lon="11.497571239333773"><ele>309.0</ele><time>2026-04-26T08:51:26Z</time></trkpt><trkpt lat="43.51778837430485" lon="11.497346629157041"><ele>309.0</ele><time>2026-04-26T08:51:27Z</time></trkpt><trkpt lat="43.517761191698206" lon="11.49712970127822"><ele>309.0</ele><time>2026-04-26T08:51:28Z</time></trkpt><trkpt lat="43.51769533123846" lon="11.49691968761645"><ele>309.0</ele><time>2026-04-26T08:51:29Z</time></trkpt><trkpt lat="43.51760613738914" lon="11.496717617608699"><ele>311.0</ele><time>2026-04-26T08:51:30Z</time></trkpt><trkpt lat="43.5175046698897" lon="11.496517474786149"><ele>313.0</ele><time>2026-04-26T08:51:31Z</time></trkpt><trkpt lat="43.51742406386464" lon="11.496301564547958"><ele>315.0</ele><time>2026-04-26T08:51:32Z</time></trkpt><trkpt lat="43.517350924280755" lon="11.49610268655086"><ele>317.0</ele><time>2026-04-26T08:51:33Z</time></trkpt><trkpt lat="43.517312964146505" lon="11.495900252392834"><ele>319.0</ele><time>2026-04-26T08:51:34Z</time></trkpt><trkpt lat="43.51732643614643" lon="11.495686101705507"><ele>321.0</ele><time>2026-04-26T08:51:35Z</time></trkpt><trkpt lat="43.51735525261395" lon="11.495446216050798"><ele>322.6666666666667</ele><time>2026-04-26T08:51:36Z</time></trkpt><trkpt lat="43.517355924042725" lon="11.495209973181417"><ele>324.33333333333337</ele><time>2026-04-26T08:51:37Z</time></trkpt><trkpt lat="43.51733718779991" lon="11.494989083910847"><ele>326.0</ele><time>2026-04-26T08:51:38Z</time></trkpt><trkpt lat="43.517274650097086" lon="11.494773582513469"><ele>326.33333333333337</ele><time>2026-04-26T08:51:39Z</time></trkpt><trkpt lat="43.51717874825459" lon="11.494569696653384"><ele>326.6666666666667</ele><time>2026-04-26T08:51:40Z</time></trkpt><trkpt lat="43.51706171417742" lon="11.494393016426711"><ele>327.0</ele><time>2026-04-26T08:51:41Z</time></trkpt><trkpt lat="43.51693289301925" lon="11.49426011967303"><ele>327.0</ele><time>2026-04-26T08:51:42Z</time></trkpt><trkpt lat="43.516803433418794" lon="11.494180286736217"><ele>327.0</ele><time>2026-04-26T08:51:43Z</time></trkpt><trkpt lat="43.516671668763095" lon="11.494146205008999"><ele>327.0</ele><time>2026-04-26T08:51:44Z</time></trkpt><trkpt lat="43.51653159556798" lon="11.494131850723992"><ele>327.0</ele><time>2026-04-26T08:51:45Z</time></trkpt><trkpt lat="43.51638973774813" lon="11.494115055059458"><ele>327.0</ele><time>2026-04-26T08:51:46Z</time></trkpt><trkpt lat="43.51626034281333" lon="11.494091071540865"><ele>327.0</ele><time>2026-04-26T08:51:47Z</time></trkpt><trkpt lat="43.51615641019329" lon="11.494063901729858"><ele>327.0</ele><time>2026-04-26T08:51:48Z</time></trkpt><trkpt lat="43.516074764340516" lon="11.494043813451258"><ele>327.0</ele><time>2026-04-26T08:51:49Z</time></trkpt><trkpt lat="43.51600698897231" lon="11.494032189201096"><ele>327.0</ele><time>2026-04-26T08:51:50Z</time></trkpt><trkpt lat="43.51588646794482" lon="11.494102654074156"><ele>327.0</ele><time>2026-04-26T08:51:52Z</time></trkpt><trkpt lat="43.51582277687734" lon="11.494170666203026"><ele>327.0</ele><time>2026-04-26T08:51:53Z</time></trkpt><trkpt lat="43.515732391116" lon="11.494228514639863"><ele>327.0</ele><time>2026-04-26T08:51:54Z</time></trkpt><trkpt lat="43.5156470524213" lon="11.494263447211575"><ele>327.0</ele><time>2026-04-26T08:51:55Z</time></trkpt><trkpt lat="43.51554809701584" lon="11.494297594448566"><ele>327.0</ele><time>2026-04-26T08:51:56Z</time></trkpt><trkpt lat="43.515452169343455" lon="11.49432109536053"><ele>325.20000000000005</ele><time>2026-04-26T08:51:57Z</time></trkpt><trkpt lat="43.5153548018298" lon="11.494332075640337"><ele>323.40000000000003</ele><time>2026-04-26T08:51:58Z</time></trkpt><trkpt lat="43.51526135891399" lon="11.494313221537526"><ele>321.6</ele><time>2026-04-26T08:51:59Z</time></trkpt><trkpt lat="43.51518092615317" lon="11.494263425723016"><ele>319.8</ele><time>2026-04-26T08:52:00Z</time></trkpt><trkpt lat="43.51511879354247" lon="11.494167813308922"><ele>318.0</ele><time>2026-04-26T08:52:01Z</time></trkpt><trkpt lat="43.51504160211598" lon="11.494088115329673"><ele>318.0</ele><time>2026-04-26T08:52:02Z</time></trkpt><trkpt lat="43.514955850476696" lon="11.494025066270474"><ele>318.0</ele><time>2026-04-26T08:52:03Z</time></trkpt><trkpt lat="43.51487200314405" lon="11.493949840143836"><ele>318.0</ele><time>2026-04-26T08:52:04Z</time></trkpt><trkpt lat="43.514792560524405" lon="11.49388428556732"><ele>318.0</ele><time>2026-04-26T08:52:05Z</time></trkpt><trkpt lat="43.514702378680894" lon="11.493840377728507"><ele>318.0</ele><time>2026-04-26T08:52:06Z</time></trkpt><trkpt lat="43.514595411885296" lon="11.49383499332826"><ele>316.8</ele><time>2026-04-26T08:52:07Z</time></trkpt><trkpt lat="43.51449874152207" lon="11.49377594179562"><ele>315.6</ele><time>2026-04-26T08:52:08Z</time></trkpt><trkpt lat="43.5144111222457" lon="11.493754733715601"><ele>314.4</ele><time>2026-04-26T08:52:09Z</time></trkpt><trkpt lat="43.51433131600839" lon="11.493715242138029"><ele>313.2</ele><time>2026-04-26T08:52:10Z</time></trkpt><trkpt lat="43.51423900520136" lon="11.493724549319637"><ele>312.0</ele><time>2026-04-26T08:52:11Z</time></trkpt><trkpt lat="43.514136082416954" lon="11.493770321134322"><ele>311.4</ele><time>2026-04-26T08:52:12Z</time></trkpt><trkpt lat="43.5140400243904" lon="11.493802096711867"><ele>310.79999999999995</ele><time>2026-04-26T08:52:13Z</time></trkpt><trkpt lat="43.51394479085044" lon="11.4938173216089"><ele>310.2</ele><time>2026-04-26T08:52:14Z</time></trkpt><trkpt lat="43.51384531345615" lon="11.493817116122507"><ele>309.59999999999997</ele><time>2026-04-26T08:52:15Z</time></trkpt><trkpt lat="43.51374382626048" lon="11.493805754180832"><ele>309.0</ele><time>2026-04-26T08:52:16Z</time></trkpt><trkpt lat="43.51364693795285" lon="11.493800389245484"><ele>307.5</ele><time>2026-04-26T08:52:17Z</time></trkpt><trkpt lat="43.51356626807938" lon="11.493819278956977"><ele>306.0</ele><time>2026-04-26T08:52:18Z</time></trkpt><trkpt lat="43.51351075389337" lon="11.493881147311184"><ele>304.5</ele><time>2026-04-26T08:52:19Z</time></trkpt><trkpt lat="43.51348396247797" lon="11.493978638930404"><ele>303.0</ele><time>2026-04-26T08:52:20Z</time></trkpt><trkpt lat="43.513495230703036" lon="11.494090776097533"><ele>301.5</ele><time>2026-04-26T08:52:21Z</time></trkpt><trkpt lat="43.51353533271117" lon="11.494198366155963"><ele>300.0</ele><time>2026-04-26T08:52:22Z</time></trkpt><trkpt lat="43.513570662063955" lon="11.494300978421762"><ele>300.0</ele><time>2026-04-26T08:52:23Z</time></trkpt><trkpt lat="43.51359408925836" lon="11.494418613011426"><ele>300.0</ele><time>2026-04-26T08:52:24Z</time></trkpt><trkpt lat="43.51361256053917" lon="11.494548961589544"><ele>300.0</ele><time>2026-04-26T08:52:25Z</time></trkpt><trkpt lat="43.51362573897684" lon="11.494670883012331"><ele>300.0</ele><time>2026-04-26T08:52:26Z</time></trkpt><trkpt lat="43.51364354628268" lon="11.49478822076466"><ele>300.0</ele><time>2026-04-26T08:52:27Z</time></trkpt><trkpt lat="43.51365289248656" lon="11.494919990734195"><ele>299.2</ele><time>2026-04-26T08:52:28Z</time></trkpt><trkpt lat="43.51365770232043" lon="11.495056606242702"><ele>298.4</ele><time>2026-04-26T08:52:29Z</time></trkpt><trkpt lat="43.513646522921285" lon="11.495205103493223"><ele>297.6</ele><time>2026-04-26T08:52:30Z</time></trkpt><trkpt lat="43.513614915223975" lon="11.495351734793001"><ele>296.8</ele><time>2026-04-26T08:52:31Z</time></trkpt><trkpt lat="43.513570113843656" lon="11.495494422909687"><ele>296.0</ele><time>2026-04-26T08:52:32Z</time></trkpt><trkpt lat="43.5135248278002" lon="11.49562364928449"><ele>295.40000000000003</ele><time>2026-04-26T08:52:33Z</time></trkpt><trkpt lat="43.513493154499194" lon="11.495751354400912"><ele>294.8</ele><time>2026-04-26T08:52:34Z</time></trkpt><trkpt lat="43.51348244771352" lon="11.495882241011936"><ele>294.20000000000005</ele><time>2026-04-26T08:52:35Z</time></trkpt><trkpt lat="43.51349748528567" lon="11.49601779105736"><ele>293.6</ele><time>2026-04-26T08:52:36Z</time></trkpt><trkpt lat="43.51352707926501" lon="11.49614636391187"><ele>293.0</ele><time>2026-04-26T08:52:37Z</time></trkpt><trkpt lat="43.513558323927754" lon="11.496266134166344"><ele>292.6666666666667</ele><time>2026-04-26T08:52:38Z</time></trkpt><trkpt lat="43.51358218131783" lon="11.496368524578292"><ele>292.33333333333337</ele><time>2026-04-26T08:52:39Z</time></trkpt><trkpt lat="43.51358878777373" lon="11.496504263268681"><ele>292.0</ele><time>2026-04-26T08:52:41Z</time></trkpt><trkpt lat="43.5135121128221" lon="11.496583429942335"><ele>291.6666666666667</ele><time>2026-04-26T08:52:43Z</time></trkpt><trkpt lat="43.51344094143879" lon="11.496582225924968"><ele>291.3333333333333</ele><time>2026-04-26T08:52:44Z</time></trkpt><trkpt lat="43.51337110687691" lon="11.496550620187401"><ele>291.0</ele><time>2026-04-26T08:52:45Z</time></trkpt><trkpt lat="43.51330013093107" lon="11.496522131469549"><ele>291.0</ele><time>2026-04-26T08:52:46Z</time></trkpt><trkpt lat="43.51320818484079" lon="11.496511329166252"><ele>291.0</ele><time>2026-04-26T08:52:47Z</time></trkpt><trkpt lat="43.5130960807789" lon="11.496530539666779"><ele>291.0</ele><time>2026-04-26T08:52:48Z</time></trkpt><trkpt lat="43.512983838084544" lon="11.496556608177476"><ele>291.0</ele><time>2026-04-26T08:52:49Z</time></trkpt><trkpt lat="43.512879828268446" lon="11.496563281988655"><ele>291.0</ele><time>2026-04-26T08:52:50Z</time></trkpt><trkpt lat="43.51278237577588" lon="11.496537846847048"><ele>288.75</ele><time>2026-04-26T08:52:51Z</time></trkpt><trkpt lat="43.512695397097666" lon="11.496477274937096"><ele>286.5</ele><time>2026-04-26T08:52:52Z</time></trkpt><trkpt lat="43.51263545985578" lon="11.496351758576141"><ele>284.25</ele><time>2026-04-26T08:52:53Z</time></trkpt><trkpt lat="43.512558515355245" lon="11.496239563324275"><ele>282.0</ele><time>2026-04-26T08:52:54Z</time></trkpt><trkpt lat="43.51247219213134" lon="11.496094594900008"><ele>282.0</ele><time>2026-04-26T08:52:55Z</time></trkpt><trkpt lat="43.51236938820957" lon="11.49598073287794"><ele>282.0</ele><time>2026-04-26T08:52:56Z</time></trkpt><trkpt lat="43.512250801366896" lon="11.495906680175237"><ele>282.0</ele><time>2026-04-26T08:52:57Z</time></trkpt><trkpt lat="43.51212768857651" lon="11.49585311232913"><ele>282.0</ele><time>2026-04-26T08:52:58Z</time></trkpt><trkpt lat="43.51201362710159" lon="11.495813036538236"><ele>283.0</ele><time>2026-04-26T08:52:59Z</time></trkpt><trkpt lat="43.511914248984226" lon="11.495793405937787"><ele>284.0</ele><time>2026-04-26T08:53:00Z</time></trkpt><trkpt lat="43.511826000556795" lon="11.495787972404132"><ele>285.0</ele><time>2026-04-26T08:53:01Z</time></trkpt><trkpt lat="43.51174740989256" lon="11.495820493786184"><ele>286.0</ele><time>2026-04-26T08:53:02Z</time></trkpt><trkpt lat="43.51167461477312" lon="11.49589866334888"><ele>287.0</ele><time>2026-04-26T08:53:03Z</time></trkpt><trkpt lat="43.51162669003566" lon="11.496026722475792"><ele>287.0</ele><time>2026-04-26T08:53:04Z</time></trkpt><trkpt lat="43.511594798197756" lon="11.496181710836419"><ele>287.0</ele><time>2026-04-26T08:53:05Z</time></trkpt><trkpt lat="43.511544586419404" lon="11.496350082794352"><ele>287.0</ele><time>2026-04-26T08:53:06Z</time></trkpt><trkpt lat="43.51150112443219" lon="11.496516072542596"><ele>287.0</ele><time>2026-04-26T08:53:07Z</time></trkpt><trkpt lat="43.511436233318555" lon="11.496692657318016"><ele>286.6666666666667</ele><time>2026-04-26T08:53:08Z</time></trkpt><trkpt lat="43.51136026118405" lon="11.496871067700994"><ele>286.3333333333333</ele><time>2026-04-26T08:53:09Z</time></trkpt><trkpt lat="43.51127101762251" lon="11.49704917830595"><ele>286.0</ele><time>2026-04-26T08:53:10Z</time></trkpt><trkpt lat="43.51117705798799" lon="11.497223277165322"><ele>287.8</ele><time>2026-04-26T08:53:11Z</time></trkpt><trkpt lat="43.51109910725279" lon="11.497381872620636"><ele>289.6</ele><time>2026-04-26T08:53:12Z</time></trkpt><trkpt lat="43.51103809358485" lon="11.497516448020646"><ele>291.4</ele><time>2026-04-26T08:53:13Z</time></trkpt><trkpt lat="43.51098371061095" lon="11.497633365830895"><ele>293.2</ele><time>2026-04-26T08:53:14Z</time></trkpt><trkpt lat="43.51092288907261" lon="11.497717852947645"><ele>295.0</ele><time>2026-04-26T08:53:15Z</time></trkpt><trkpt lat="43.51083855559841" lon="11.497775769562658"><ele>295.0</ele><time>2026-04-26T08:53:16Z</time></trkpt><trkpt lat="43.5107318954581" lon="11.497779462767719"><ele>295.0</ele><time>2026-04-26T08:53:17Z</time></trkpt><trkpt lat="43.510624144908434" lon="11.497732165052751"><ele>295.0</ele><time>2026-04-26T08:53:18Z</time></trkpt><trkpt lat="43.51053169463887" lon="11.497650186279651"><ele>295.0</ele><time>2026-04-26T08:53:19Z</time></trkpt><trkpt lat="43.51050484147439" lon="11.497503773618401"><ele>295.0</ele><time>2026-04-26T08:53:20Z</time></trkpt><trkpt lat="43.51046783627769" lon="11.49735014541759"><ele>295.0</ele><time>2026-04-26T08:53:21Z</time></trkpt><trkpt lat="43.51041184417321" lon="11.497181936375693"><ele>295.0</ele><time>2026-04-26T08:53:22Z</time></trkpt><trkpt lat="43.51036790941425" lon="11.496997819602804"><ele>295.0</ele><time>2026-04-26T08:53:23Z</time></trkpt><trkpt lat="43.510293854100645" lon="11.49682209086507"><ele>295.0</ele><time>2026-04-26T08:53:24Z</time></trkpt><trkpt lat="43.51019670306184" lon="11.496680255664206"><ele>297.75</ele><time>2026-04-26T08:53:25Z</time></trkpt><trkpt lat="43.5100736093434" lon="11.496575771513319"><ele>300.5</ele><time>2026-04-26T08:53:26Z</time></trkpt><trkpt lat="43.50993463945347" lon="11.49651100529557"><ele>303.25</ele><time>2026-04-26T08:53:27Z</time></trkpt><trkpt lat="43.50978624219155" lon="11.496481184522901"><ele>306.0</ele><time>2026-04-26T08:53:28Z</time></trkpt><trkpt lat="43.509656691137174" lon="11.496399113183994"><ele>304.0</ele><time>2026-04-26T08:53:29Z</time></trkpt><trkpt lat="43.50952241153942" lon="11.496292397211603"><ele>302.0</ele><time>2026-04-26T08:53:30Z</time></trkpt><trkpt lat="43.509392234823686" lon="11.496218337150358"><ele>300.0</ele><time>2026-04-26T08:53:31Z</time></trkpt><trkpt lat="43.50928760271807" lon="11.496137470181829"><ele>298.0</ele><time>2026-04-26T08:53:32Z</time></trkpt><trkpt lat="43.5091824749819" lon="11.496044283411937"><ele>302.25</ele><time>2026-04-26T08:53:33Z</time></trkpt><trkpt lat="43.50913382719787" lon="11.495894043523235"><ele>306.5</ele><time>2026-04-26T08:53:34Z</time></trkpt><trkpt lat="43.50908275073212" lon="11.495738403270103"><ele>310.75</ele><time>2026-04-26T08:53:35Z</time></trkpt><trkpt lat="43.50902404097233" lon="11.495603660402148"><ele>315.0</ele><time>2026-04-26T08:53:36Z</time></trkpt><trkpt lat="43.508982777671775" lon="11.495488467433798"><ele>317.4</ele><time>2026-04-26T08:53:37Z</time></trkpt><trkpt lat="43.50891147344529" lon="11.495409668658107"><ele>319.8</ele><time>2026-04-26T08:53:38Z</time></trkpt><trkpt lat="43.50881540331263" lon="11.49535586611948"><ele>322.20000000000005</ele><time>2026-04-26T08:53:39Z</time></trkpt><trkpt lat="43.508707303535154" lon="11.495322459542093"><ele>324.6</ele><time>2026-04-26T08:53:40Z</time></trkpt><trkpt lat="43.5085893926422" lon="11.49530247423051"><ele>327.0</ele><time>2026-04-26T08:53:41Z</time></trkpt><trkpt lat="43.50846585872846" lon="11.49528276840094"><ele>327.0</ele><time>2026-04-26T08:53:42Z</time></trkpt><trkpt lat="43.508340333588094" lon="11.49526125886088"><ele>327.0</ele><time>2026-04-26T08:53:43Z</time></trkpt><trkpt lat="43.50821346173787" lon="11.495240737236191"><ele>327.0</ele><time>2026-04-26T08:53:44Z</time></trkpt><trkpt lat="43.508091210632" lon="11.495225451336983"><ele>327.0</ele><time>2026-04-26T08:53:45Z</time></trkpt><trkpt lat="43.507983364397916" lon="11.495203921585235"><ele>326.0</ele><time>2026-04-26T08:53:46Z</time></trkpt><trkpt lat="43.50788427087575" lon="11.495154964295347"><ele>325.0</ele><time>2026-04-26T08:53:47Z</time></trkpt><trkpt lat="43.50779383189488" lon="11.495072895555182"><ele>324.0</ele><time>2026-04-26T08:53:48Z</time></trkpt><trkpt lat="43.50771480182024" lon="11.494982830317456"><ele>323.0</ele><time>2026-04-26T08:53:49Z</time></trkpt><trkpt lat="43.50765068368648" lon="11.494879245048553"><ele>322.0</ele><time>2026-04-26T08:53:50Z</time></trkpt><trkpt lat="43.507607750367036" lon="11.494756885594109"><ele>322.0</ele><time>2026-04-26T08:53:51Z</time></trkpt><trkpt lat="43.50761574553645" lon="11.494621999866132"><ele>322.0</ele><time>2026-04-26T08:53:52Z</time></trkpt><trkpt lat="43.50765131458016" lon="11.494500304413833"><ele>322.0</ele><time>2026-04-26T08:53:53Z</time></trkpt><trkpt lat="43.5077228435296" lon="11.494379437835734"><ele>322.0</ele><time>2026-04-26T08:53:54Z</time></trkpt><trkpt lat="43.507784956916964" lon="11.494229423242343"><ele>322.0</ele><time>2026-04-26T08:53:55Z</time></trkpt><trkpt lat="43.50780929788466" lon="11.49409308533457"><ele>324.0</ele><time>2026-04-26T08:53:56Z</time></trkpt><trkpt lat="43.507788212546636" lon="11.493939814260216"><ele>326.0</ele><time>2026-04-26T08:53:57Z</time></trkpt><trkpt lat="43.50773416521904" lon="11.493794421815007"><ele>328.0</ele><time>2026-04-26T08:53:58Z</time></trkpt><trkpt lat="43.507665992984876" lon="11.493675592055427"><ele>330.0</ele><time>2026-04-26T08:53:59Z</time></trkpt><trkpt lat="43.507595847129075" lon="11.493592261382634"><ele>332.0</ele><time>2026-04-26T08:54:00Z</time></trkpt><trkpt lat="43.50752010033554" lon="11.493557400563388"><ele>332.0</ele><time>2026-04-26T08:54:01Z</time></trkpt><trkpt lat="43.50742552068069" lon="11.493593141691731"><ele>332.0</ele><time>2026-04-26T08:54:02Z</time></trkpt><trkpt lat="43.50732801369376" lon="11.493679531470324"><ele>332.0</ele><time>2026-04-26T08:54:03Z</time></trkpt><trkpt lat="43.50721840443426" lon="11.493769567070782"><ele>332.0</ele><time>2026-04-26T08:54:04Z</time></trkpt><trkpt lat="43.50709784692656" lon="11.493839325173928"><ele>334.0</ele><time>2026-04-26T08:54:05Z</time></trkpt><trkpt lat="43.506997516238194" lon="11.49394090643901"><ele>336.0</ele><time>2026-04-26T08:54:06Z</time></trkpt><trkpt lat="43.50691002055839" lon="11.494058217895942"><ele>338.0</ele><time>2026-04-26T08:54:07Z</time></trkpt><trkpt lat="43.50680199663971" lon="11.494113283177107"><ele>340.0</ele><time>2026-04-26T08:54:08Z</time></trkpt><trkpt lat="43.50669421648236" lon="11.494132431796286"><ele>340.0</ele><time>2026-04-26T08:54:09Z</time></trkpt><trkpt lat="43.50660378766753" lon="11.494125137390466"><ele>340.0</ele><time>2026-04-26T08:54:10Z</time></trkpt><trkpt lat="43.50655251761834" lon="11.494065495176631"><ele>340.0</ele><time>2026-04-26T08:54:11Z</time></trkpt><trkpt lat="43.50648529106644" lon="11.493958110623813"><ele>340.0</ele><time>2026-04-26T08:54:12Z</time></trkpt><trkpt lat="43.50645756455941" lon="11.493829462872146"><ele>340.0</ele><time>2026-04-26T08:54:13Z</time></trkpt><trkpt lat="43.50645112951129" lon="11.493682551265193"><ele>344.0</ele><time>2026-04-26T08:54:14Z</time></trkpt><trkpt lat="43.50637798597997" lon="11.493575935505476"><ele>348.0</ele><time>2026-04-26T08:54:15Z</time></trkpt><trkpt lat="43.50627277729988" lon="11.493530692336133"><ele>352.0</ele><time>2026-04-26T08:54:16Z</time></trkpt><trkpt lat="43.506134622943314" lon="11.493554569301798"><ele>356.0</ele><time>2026-04-26T08:54:17Z</time></trkpt><trkpt lat="43.50601065657801" lon="11.493545796090743"><ele>357.75</ele><time>2026-04-26T08:54:18Z</time></trkpt><trkpt lat="43.505876930318145" lon="11.493513170391754"><ele>359.5</ele><time>2026-04-26T08:54:19Z</time></trkpt><trkpt lat="43.50573722565173" lon="11.493505373330267"><ele>361.25</ele><time>2026-04-26T08:54:20Z</time></trkpt><trkpt lat="43.50560870563829" lon="11.493565845565634"><ele>363.0</ele><time>2026-04-26T08:54:21Z</time></trkpt><trkpt lat="43.505493798071164" lon="11.493609006454319"><ele>363.0</ele><time>2026-04-26T08:54:22Z</time></trkpt><trkpt lat="43.50541327206924" lon="11.49365893219211"><ele>363.0</ele><time>2026-04-26T08:54:23Z</time></trkpt><trkpt lat="43.5053750797569" lon="11.493758502429612"><ele>363.0</ele><time>2026-04-26T08:54:24Z</time></trkpt><trkpt lat="43.505393227538526" lon="11.493911289544338"><ele>363.0</ele><time>2026-04-26T08:54:25Z</time></trkpt><trkpt lat="43.50546038031316" lon="11.49404557450508"><ele>363.0</ele><time>2026-04-26T08:54:26Z</time></trkpt><trkpt lat="43.50554454117794" lon="11.494159622006102"><ele>364.79999999999995</ele><time>2026-04-26T08:54:27Z</time></trkpt><trkpt lat="43.505578418127264" lon="11.49426720596081"><ele>366.6</ele><time>2026-04-26T08:54:28Z</time></trkpt><trkpt lat="43.5055377693208" lon="11.494362322401066"><ele>368.4</ele><time>2026-04-26T08:54:29Z</time></trkpt><trkpt lat="43.505453336009936" lon="11.494417230694369"><ele>370.20000000000005</ele><time>2026-04-26T08:54:30Z</time></trkpt><trkpt lat="43.505347421626745" lon="11.494416598273807"><ele>372.0</ele><time>2026-04-26T08:54:31Z</time></trkpt><trkpt lat="43.505235319759294" lon="11.494403041494568"><ele>372.0</ele><time>2026-04-26T08:54:32Z</time></trkpt><trkpt lat="43.50513290276317" lon="11.494374315301515"><ele>372.0</ele><time>2026-04-26T08:54:33Z</time></trkpt><trkpt lat="43.50504131546165" lon="11.494378379052606"><ele>372.0</ele><time>2026-04-26T08:54:34Z</time></trkpt><trkpt lat="43.5049571951031" lon="11.49446820942361"><ele>372.0</ele><time>2026-04-26T08:54:35Z</time></trkpt><trkpt lat="43.50491342516021" lon="11.494632566062199"><ele>372.0</ele><time>2026-04-26T08:54:36Z</time></trkpt><trkpt lat="43.504886078487864" lon="11.49480163668752"><ele>372.40000000000003</ele><time>2026-04-26T08:54:37Z</time></trkpt><trkpt lat="43.504827713209146" lon="11.494931116798956"><ele>372.8</ele><time>2026-04-26T08:54:38Z</time></trkpt><trkpt lat="43.50474004989477" lon="11.495000850443759"><ele>373.2</ele><time>2026-04-26T08:54:39Z</time></trkpt><trkpt lat="43.50462817976134" lon="11.495031514659026"><ele>373.6</ele><time>2026-04-26T08:54:40Z</time></trkpt><trkpt lat="43.50450487346788" lon="11.495044101349775"><ele>374.0</ele><time>2026-04-26T08:54:41Z</time></trkpt><trkpt lat="43.504374455966946" lon="11.495062015065427"><ele>374.0</ele><time>2026-04-26T08:54:42Z</time></trkpt><trkpt lat="43.50424025242031" lon="11.495084081814078"><ele>374.0</ele><time>2026-04-26T08:54:43Z</time></trkpt><trkpt lat="43.504102488406104" lon="11.495109694878598"><ele>374.0</ele><time>2026-04-26T08:54:44Z</time></trkpt><trkpt lat="43.50396216061332" lon="11.49514346968924"><ele>374.0</ele><time>2026-04-26T08:54:45Z</time></trkpt><trkpt lat="43.50384893882176" lon="11.49521765840116"><ele>376.2</ele><time>2026-04-26T08:54:46Z</time></trkpt><trkpt lat="43.50373496993397" lon="11.49531344053744"><ele>378.4</ele><time>2026-04-26T08:54:47Z</time></trkpt><trkpt lat="43.503648889861346" lon="11.495351906442785"><ele>380.6</ele><time>2026-04-26T08:54:48Z</time></trkpt><trkpt lat="43.503566505479505" lon="11.495294978581365"><ele>382.8</ele><time>2026-04-26T08:54:49Z</time></trkpt><trkpt lat="43.50349513114681" lon="11.495207792407037"><ele>385.0</ele><time>2026-04-26T08:54:50Z</time></trkpt><trkpt lat="43.50339910682627" lon="11.49513974672521"><ele>385.0</ele><time>2026-04-26T08:54:51Z</time></trkpt><trkpt lat="43.50329145180522" lon="11.495128933092548"><ele>385.0</ele><time>2026-04-26T08:54:52Z</time></trkpt><trkpt lat="43.5031749418679" lon="11.495177397613295"><ele>385.0</ele><time>2026-04-26T08:54:53Z</time></trkpt><trkpt lat="43.50306614370687" lon="11.49525373121076"><ele>385.0</ele><time>2026-04-26T08:54:54Z</time></trkpt><trkpt lat="43.50295850652044" lon="11.495323728578816"><ele>388.8</ele><time>2026-04-26T08:54:55Z</time></trkpt><trkpt lat="43.50286630943658" lon="11.495357210393237"><ele>392.6</ele><time>2026-04-26T08:54:56Z</time></trkpt><trkpt lat="43.50277551524761" lon="11.495357457517068"><ele>396.4</ele><time>2026-04-26T08:54:57Z</time></trkpt><trkpt lat="43.50268584791684" lon="11.49530063205114"><ele>400.2</ele><time>2026-04-26T08:54:58Z</time></trkpt><trkpt lat="43.502582784613985" lon="11.495317094002655"><ele>404.0</ele><time>2026-04-26T08:54:59Z</time></trkpt><trkpt lat="43.50248246204508" lon="11.495370959855132"><ele>403.4</ele><time>2026-04-26T08:55:00Z</time></trkpt><trkpt lat="43.502401738529436" lon="11.495465109201911"><ele>402.79999999999995</ele><time>2026-04-26T08:55:01Z</time></trkpt><trkpt lat="43.50232808012203" lon="11.495565720890943"><ele>402.20000000000005</ele><time>2026-04-26T08:55:02Z</time></trkpt><trkpt lat="43.502225566254126" lon="11.49564517099292"><ele>401.6</ele><time>2026-04-26T08:55:03Z</time></trkpt><trkpt lat="43.502112561834444" lon="11.495701471417782"><ele>401.0</ele><time>2026-04-26T08:55:04Z</time></trkpt><trkpt lat="43.50200248305215" lon="11.495725204448405"><ele>401.0</ele><time>2026-04-26T08:55:05Z</time></trkpt><trkpt lat="43.50190312275165" lon="11.495748072226773"><ele>401.0</ele><time>2026-04-26T08:55:06Z</time></trkpt><trkpt lat="43.50182343236068" lon="11.495817469466568"><ele>401.0</ele><time>2026-04-26T08:55:07Z</time></trkpt><trkpt lat="43.50177572756574" lon="11.49595157461789"><ele>401.0</ele><time>2026-04-26T08:55:08Z</time></trkpt><trkpt lat="43.50175376168731" lon="11.496115161516242"><ele>401.0</ele><time>2026-04-26T08:55:09Z</time></trkpt><trkpt lat="43.50174026885089" lon="11.496275757363303"><ele>398.4</ele><time>2026-04-26T08:55:10Z</time></trkpt><trkpt lat="43.50173139784567" lon="11.49644176836794"><ele>395.8</ele><time>2026-04-26T08:55:11Z</time></trkpt><trkpt lat="43.50170933668881" lon="11.496564056128939"><ele>393.2</ele><time>2026-04-26T08:55:12Z</time></trkpt><trkpt lat="43.50168606372911" lon="11.496672682445077"><ele>390.59999999999997</ele><time>2026-04-26T08:55:13Z</time></trkpt><trkpt lat="43.501647689214934" lon="11.496769646668831"><ele>388.0</ele><time>2026-04-26T08:55:14Z</time></trkpt><trkpt lat="43.50159044541719" lon="11.496860408418014"><ele>388.0</ele><time>2026-04-26T08:55:15Z</time></trkpt><trkpt lat="43.50152388723384" lon="11.496950948598611"><ele>388.0</ele><time>2026-04-26T08:55:16Z</time></trkpt><trkpt lat="43.50144994557137" lon="11.497045666683864"><ele>388.0</ele><time>2026-04-26T08:55:17Z</time></trkpt><trkpt lat="43.5013605663617" lon="11.497116018737161"><ele>388.0</ele><time>2026-04-26T08:55:18Z</time></trkpt><trkpt lat="43.50125544799944" lon="11.497156720286245"><ele>388.0</ele><time>2026-04-26T08:55:19Z</time></trkpt><trkpt lat="43.50114189625481" lon="11.497170579861246"><ele>386.25</ele><time>2026-04-26T08:55:20Z</time></trkpt><trkpt lat="43.50102824979074" lon="11.497163847834859"><ele>384.5</ele><time>2026-04-26T08:55:21Z</time></trkpt><trkpt lat="43.50091496626419" lon="11.497145776738915"><ele>382.75</ele><time>2026-04-26T08:55:22Z</time></trkpt><trkpt lat="43.50080201967498" lon="11.497125913785979"><ele>381.0</ele><time>2026-04-26T08:55:23Z</time></trkpt><trkpt lat="43.50068961199773" lon="11.497104211047246"><ele>385.4</ele><time>2026-04-26T08:55:24Z</time></trkpt><trkpt lat="43.50057081414415" lon="11.497076718681196"><ele>389.8</ele><time>2026-04-26T08:55:25Z</time></trkpt><trkpt lat="43.50046622456303" lon="11.497049972189119"><ele>394.2</ele><time>2026-04-26T08:55:26Z</time></trkpt><trkpt lat="43.50037926706441" lon="11.497028310033494"><ele>398.59999999999997</ele><time>2026-04-26T08:55:27Z</time></trkpt><trkpt lat="43.50029727282474" lon="11.496989245738055"><ele>403.0</ele><time>2026-04-26T08:55:28Z</time></trkpt><trkpt lat="43.50022370769452" lon="11.496926086799164"><ele>403.0</ele><time>2026-04-26T08:55:29Z</time></trkpt><trkpt lat="43.5001547674833" lon="11.496835799550897"><ele>403.0</ele><time>2026-04-26T08:55:30Z</time></trkpt><trkpt lat="43.50011111642664" lon="11.496710523812299"><ele>403.0</ele><time>2026-04-26T08:55:31Z</time></trkpt><trkpt lat="43.500037983066285" lon="11.496595484866313"><ele>403.0</ele><time>2026-04-26T08:55:32Z</time></trkpt><trkpt lat="43.49997119785734" lon="11.496474181465917"><ele>403.0</ele><time>2026-04-26T08:55:33Z</time></trkpt><trkpt lat="43.49989264722431" lon="11.496385102223607"><ele>403.0</ele><time>2026-04-26T08:55:34Z</time></trkpt><trkpt lat="43.49981110794505" lon="11.49633070964361"><ele>403.0</ele><time>2026-04-26T08:55:35Z</time></trkpt><trkpt lat="43.49973340990427" lon="11.496177342527046"><ele>403.0</ele><time>2026-04-26T08:55:37Z</time></trkpt><trkpt lat="43.49974147449739" lon="11.496071243683145"><ele>403.0</ele><time>2026-04-26T08:55:38Z</time></trkpt><trkpt lat="43.499775215164426" lon="11.495974424323933"><ele>403.0</ele><time>2026-04-26T08:55:39Z</time></trkpt><trkpt lat="43.49981706603726" lon="11.495849513185272"><ele>406.4</ele><time>2026-04-26T08:55:40Z</time></trkpt><trkpt lat="43.49986006739279" lon="11.495720907151128"><ele>409.79999999999995</ele><time>2026-04-26T08:55:41Z</time></trkpt><trkpt lat="43.49989336267724" lon="11.495574302892"><ele>413.2</ele><time>2026-04-26T08:55:42Z</time></trkpt><trkpt lat="43.49992125195471" lon="11.495418635798766"><ele>416.6</ele><time>2026-04-26T08:55:43Z</time></trkpt><trkpt lat="43.499945443840694" lon="11.495280456669793"><ele>420.0</ele><time>2026-04-26T08:55:44Z</time></trkpt><trkpt lat="43.49996744800666" lon="11.49516623639104"><ele>421.4</ele><time>2026-04-26T08:55:45Z</time></trkpt><trkpt lat="43.49998980192806" lon="11.495060556478379"><ele>422.8</ele><time>2026-04-26T08:55:46Z</time></trkpt><trkpt lat="43.49998478670425" lon="11.494961334911737"><ele>424.20000000000005</ele><time>2026-04-26T08:55:47Z</time></trkpt><trkpt lat="43.4999151935688" lon="11.49483268378159"><ele>425.6</ele><time>2026-04-26T08:55:49Z</time></trkpt><trkpt lat="43.49981477628471" lon="11.494856174913783"><ele>427.0</ele><time>2026-04-26T08:55:50Z</time></trkpt><trkpt lat="43.499732162559624" lon="11.494935051629366"><ele>427.00000000000006</ele><time>2026-04-26T08:55:51Z</time></trkpt><trkpt lat="43.499642317553" lon="11.494976866483073"><ele>427.0</ele><time>2026-04-26T08:55:52Z</time></trkpt><trkpt lat="43.49955245935129" lon="11.494961961238788"><ele>427.0</ele><time>2026-04-26T08:55:53Z</time></trkpt><trkpt lat="43.49946882248834" lon="11.494948534882111"><ele>427.0</ele><time>2026-04-26T08:55:54Z</time></trkpt><trkpt lat="43.499390972427456" lon="11.494907444377597"><ele>427.00000000000006</ele><time>2026-04-26T08:55:55Z</time></trkpt><trkpt lat="43.49932276252496" lon="11.494852142787797"><ele>427.0</ele><time>2026-04-26T08:55:56Z</time></trkpt><trkpt lat="43.49922961128496" lon="11.49476520210173"><ele>427.00000000000006</ele><time>2026-04-26T08:55:58Z</time></trkpt><trkpt lat="43.49926734511282" lon="11.494644811228794"><ele>427.0</ele><time>2026-04-26T08:56:00Z</time></trkpt><trkpt lat="43.499335285069094" lon="11.494616982631795"><ele>427.0</ele><time>2026-04-26T08:56:01Z</time></trkpt><trkpt lat="43.49941753555591" lon="11.49460778032157"><ele>427.0</ele><time>2026-04-26T08:56:02Z</time></trkpt><trkpt lat="43.499504798923525" lon="11.494605436154666"><ele>427.00000000000006</ele><time>2026-04-26T08:56:03Z</time></trkpt><trkpt lat="43.49959659591732" lon="11.494596326560849"><ele>427.0</ele><time>2026-04-26T08:56:04Z</time></trkpt><trkpt lat="43.49969050640474" lon="11.494592103454881"><ele>428.00000000000006</ele><time>2026-04-26T08:56:05Z</time></trkpt><trkpt lat="43.49977971081011" lon="11.494579862170678"><ele>429.0</ele><time>2026-04-26T08:56:06Z</time></trkpt><trkpt lat="43.49986448022005" lon="11.494546835952733"><ele>430.0</ele><time>2026-04-26T08:56:07Z</time></trkpt><trkpt lat="43.49993424187781" lon="11.494472075483761"><ele>431.0</ele><time>2026-04-26T08:56:08Z</time></trkpt><trkpt lat="43.499984974401706" lon="11.494383103053554"><ele>432.00000000000006</ele><time>2026-04-26T08:56:09Z</time></trkpt><trkpt lat="43.50002970882329" lon="11.49428459347541"><ele>433.0</ele><time>2026-04-26T08:56:10Z</time></trkpt><trkpt lat="43.500044138389526" lon="11.49419975087605"><ele>433.00000000000006</ele><time>2026-04-26T08:56:11Z</time></trkpt><trkpt lat="43.50002018124692" lon="11.494020985871463"><ele>433.0</ele><time>2026-04-26T08:56:13Z</time></trkpt><trkpt lat="43.50000312912838" lon="11.49391921392862"><ele>433.0</ele><time>2026-04-26T08:56:14Z</time></trkpt><trkpt lat="43.49998620386449" lon="11.493818898982822"><ele>433.0</ele><time>2026-04-26T08:56:15Z</time></trkpt><trkpt lat="43.499972498459215" lon="11.493719558135906"><ele>433.00000000000006</ele><time>2026-04-26T08:56:16Z</time></trkpt><trkpt lat="43.49996292369617" lon="11.49361750660644"><ele>433.0</ele><time>2026-04-26T08:56:17Z</time></trkpt><trkpt lat="43.499957894756655" lon="11.493519784102086"><ele>434.33333333333337</ele><time>2026-04-26T08:56:18Z</time></trkpt><trkpt lat="43.499963210077404" lon="11.493423090321247"><ele>435.6666666666667</ele><time>2026-04-26T08:56:19Z</time></trkpt><trkpt lat="43.49997451883233" lon="11.493323852843561"><ele>437.0</ele><time>2026-04-26T08:56:20Z</time></trkpt><trkpt lat="43.499991584696744" lon="11.493207117623129"><ele>438.33333333333337</ele><time>2026-04-26T08:56:21Z</time></trkpt><trkpt lat="43.50000976624595" lon="11.493081528472114"><ele>439.6666666666667</ele><time>2026-04-26T08:56:22Z</time></trkpt><trkpt lat="43.50000737556897" lon="11.492951881292777"><ele>441.0</ele><time>2026-04-26T08:56:23Z</time></trkpt><trkpt lat="43.50001457044424" lon="11.492818939099296"><ele>442.6</ele><time>2026-04-26T08:56:24Z</time></trkpt><trkpt lat="43.500017646348674" lon="11.492681497723714"><ele>444.20000000000005</ele><time>2026-04-26T08:56:25Z</time></trkpt><trkpt lat="43.50001846942704" lon="11.492546967216388"><ele>445.79999999999995</ele><time>2026-04-26T08:56:26Z</time></trkpt><trkpt lat="43.50000825657096" lon="11.492401274575284"><ele>447.4</ele><time>2026-04-26T08:56:27Z</time></trkpt><trkpt lat="43.49997961410425" lon="11.49224164904174"><ele>449.0</ele><time>2026-04-26T08:56:28Z</time></trkpt><trkpt lat="43.49993496101564" lon="11.492068135019947"><ele>451.25</ele><time>2026-04-26T08:56:29Z</time></trkpt><trkpt lat="43.49989702122916" lon="11.491913303824326"><ele>453.5</ele><time>2026-04-26T08:56:30Z</time></trkpt><trkpt lat="43.49986926398106" lon="11.491743557515804"><ele>455.75</ele><time>2026-04-26T08:56:31Z</time></trkpt><trkpt lat="43.499854739374726" lon="11.491565636334974"><ele>458.0</ele><time>2026-04-26T08:56:32Z</time></trkpt><trkpt lat="43.4998282822802" lon="11.491389009137892"><ele>460.5</ele><time>2026-04-26T08:56:33Z</time></trkpt><trkpt lat="43.49978792980531" lon="11.491218397245758"><ele>463.0</ele><time>2026-04-26T08:56:34Z</time></trkpt><trkpt lat="43.49975315714649" lon="11.491037311647549"><ele>465.5</ele><time>2026-04-26T08:56:35Z</time></trkpt><trkpt lat="43.49968388296086" lon="11.49087075019947"><ele>468.0</ele><time>2026-04-26T08:56:36Z</time></trkpt><trkpt lat="43.4996299868918" lon="11.49070307200415"><ele>469.4</ele><time>2026-04-26T08:56:37Z</time></trkpt><trkpt lat="43.49957998789602" lon="11.49052958777871"><ele>470.79999999999995</ele><time>2026-04-26T08:56:38Z</time></trkpt><trkpt lat="43.49953405639666" lon="11.490391766693921"><ele>472.2</ele><time>2026-04-26T08:56:39Z</time></trkpt><trkpt lat="43.499482085465935" lon="11.490279074615417"><ele>473.6</ele><time>2026-04-26T08:56:40Z</time></trkpt><trkpt lat="43.49942632379577" lon="11.490163320973942"><ele>475.0</ele><time>2026-04-26T08:56:41Z</time></trkpt><trkpt lat="43.4993216963531" lon="11.490110412810745"><ele>475.8</ele><time>2026-04-26T08:56:42Z</time></trkpt><trkpt lat="43.499212720003534" lon="11.490075096328294"><ele>476.6</ele><time>2026-04-26T08:56:43Z</time></trkpt><trkpt lat="43.49909856999807" lon="11.490069351277345"><ele>477.4</ele><time>2026-04-26T08:56:44Z</time></trkpt><trkpt lat="43.49898350349261" lon="11.490068573345056"><ele>478.2</ele><time>2026-04-26T08:56:45Z</time></trkpt><trkpt lat="43.498887737713396" lon="11.490039566073879"><ele>479.0</ele><time>2026-04-26T08:56:46Z</time></trkpt><trkpt lat="43.498801976544634" lon="11.489978220767027"><ele>481.0</ele><time>2026-04-26T08:56:47Z</time></trkpt><trkpt lat="43.49872680947837" lon="11.489883749251428"><ele>483.0</ele><time>2026-04-26T08:56:48Z</time></trkpt><trkpt lat="43.49865764532211" lon="11.489764556666142"><ele>485.0</ele><time>2026-04-26T08:56:49Z</time></trkpt><trkpt lat="43.49858658232352" lon="11.48966051584503"><ele>487.0</ele><time>2026-04-26T08:56:50Z</time></trkpt><trkpt lat="43.4985082273768" lon="11.48956911799708"><ele>489.0</ele><time>2026-04-26T08:56:51Z</time></trkpt><trkpt lat="43.49842625299209" lon="11.489485553465842"><ele>489.0</ele><time>2026-04-26T08:56:52Z</time></trkpt><trkpt lat="43.49834149691071" lon="11.489407425383"><ele>489.0</ele><time>2026-04-26T08:56:53Z</time></trkpt><trkpt lat="43.49825524272011" lon="11.489336408752795"><ele>489.0</ele><time>2026-04-26T08:56:54Z</time></trkpt><trkpt lat="43.49816940187751" lon="11.489264072898608"><ele>489.0</ele><time>2026-04-26T08:56:55Z</time></trkpt><trkpt lat="43.49808149305974" lon="11.489205057874933"><ele>489.0</ele><time>2026-04-26T08:56:56Z</time></trkpt><trkpt lat="43.497988233826725" lon="11.4891609146871"><ele>491.2</ele><time>2026-04-26T08:56:57Z</time></trkpt><trkpt lat="43.497892112793316" lon="11.489121639301159"><ele>493.4</ele><time>2026-04-26T08:56:58Z</time></trkpt><trkpt lat="43.49779839915831" lon="11.489084228981067"><ele>495.6</ele><time>2026-04-26T08:56:59Z</time></trkpt><trkpt lat="43.49770745561284" lon="11.489058712071396"><ele>497.8</ele><time>2026-04-26T08:57:00Z</time></trkpt><trkpt lat="43.49761679971456" lon="11.489040154395733"><ele>500.0</ele><time>2026-04-26T08:57:01Z</time></trkpt><trkpt lat="43.49751884604455" lon="11.489034955658367"><ele>500.0</ele><time>2026-04-26T08:57:02Z</time></trkpt><trkpt lat="43.49742052482792" lon="11.489046646740517"><ele>500.0</ele><time>2026-04-26T08:57:03Z</time></trkpt><trkpt lat="43.497324017779434" lon="11.489061910255808"><ele>500.0</ele><time>2026-04-26T08:57:04Z</time></trkpt><trkpt lat="43.497225625633995" lon="11.489069520673457"><ele>500.0</ele><time>2026-04-26T08:57:05Z</time></trkpt><trkpt lat="43.49714057486538" lon="11.489062461021676"><ele>500.0</ele><time>2026-04-26T08:57:06Z</time></trkpt><trkpt lat="43.497066049455945" lon="11.489034786368794"><ele>501.6</ele><time>2026-04-26T08:57:07Z</time></trkpt><trkpt lat="43.49699759082284" lon="11.488955022774592"><ele>503.2</ele><time>2026-04-26T08:57:08Z</time></trkpt><trkpt lat="43.49692435727601" lon="11.488844186594946"><ele>504.79999999999995</ele><time>2026-04-26T08:57:09Z</time></trkpt><trkpt lat="43.496852878248326" lon="11.488749811446267"><ele>506.4</ele><time>2026-04-26T08:57:10Z</time></trkpt><trkpt lat="43.49677150780247" lon="11.488653055693785"><ele>508.0</ele><time>2026-04-26T08:57:11Z</time></trkpt><trkpt lat="43.496694363553665" lon="11.48856688415855"><ele>509.2</ele><time>2026-04-26T08:57:12Z</time></trkpt><trkpt lat="43.49661955436027" lon="11.48848726617901"><ele>510.4</ele><time>2026-04-26T08:57:13Z</time></trkpt><trkpt lat="43.496547719764806" lon="11.488399414299721"><ele>511.59999999999997</ele><time>2026-04-26T08:57:14Z</time></trkpt><trkpt lat="43.4964806084919" lon="11.488310139679173"><ele>512.8</ele><time>2026-04-26T08:57:15Z</time></trkpt><trkpt lat="43.4964122845298" lon="11.48820997115345"><ele>514.0</ele><time>2026-04-26T08:57:16Z</time></trkpt><trkpt lat="43.49634673763491" lon="11.488099508836779"><ele>514.0</ele><time>2026-04-26T08:57:17Z</time></trkpt><trkpt lat="43.496277146309865" lon="11.487987318055245"><ele>514.0</ele><time>2026-04-26T08:57:18Z</time></trkpt><trkpt lat="43.49621099826245" lon="11.487878069532192"><ele>514.0</ele><time>2026-04-26T08:57:19Z</time></trkpt><trkpt lat="43.496155650383976" lon="11.487768571906834"><ele>514.0</ele><time>2026-04-26T08:57:20Z</time></trkpt><trkpt lat="43.49609858551483" lon="11.4876529273985"><ele>514.0</ele><time>2026-04-26T08:57:21Z</time></trkpt><trkpt lat="43.49603623544331" lon="11.487536014712736"><ele>518.4</ele><time>2026-04-26T08:57:22Z</time></trkpt><trkpt lat="43.4959763054262" lon="11.487417410137102"><ele>522.8</ele><time>2026-04-26T08:57:23Z</time></trkpt><trkpt lat="43.49591306598519" lon="11.48730131334056"><ele>527.2</ele><time>2026-04-26T08:57:24Z</time></trkpt><trkpt lat="43.495853593212125" lon="11.487184515848865"><ele>531.6</ele><time>2026-04-26T08:57:25Z</time></trkpt><trkpt lat="43.495799897077376" lon="11.48706216741277"><ele>536.0</ele><time>2026-04-26T08:57:26Z</time></trkpt><trkpt lat="43.49574092101697" lon="11.486969116115674"><ele>536.0</ele><time>2026-04-26T08:57:27Z</time></trkpt><trkpt lat="43.49566407067053" lon="11.486893609602877"><ele>536.0</ele><time>2026-04-26T08:57:28Z</time></trkpt><trkpt lat="43.49557644793987" lon="11.486831885443912"><ele>536.0</ele><time>2026-04-26T08:57:29Z</time></trkpt><trkpt lat="43.49548475205698" lon="11.486764585957074"><ele>536.0</ele><time>2026-04-26T08:57:30Z</time></trkpt><trkpt lat="43.495392591440755" lon="11.486691169011037"><ele>536.0</ele><time>2026-04-26T08:57:31Z</time></trkpt><trkpt lat="43.49529656460167" lon="11.486613264669918"><ele>538.8</ele><time>2026-04-26T08:57:32Z</time></trkpt><trkpt lat="43.49519473810134" lon="11.48652942586086"><ele>541.6</ele><time>2026-04-26T08:57:33Z</time></trkpt><trkpt lat="43.4950941415165" lon="11.486449065668797"><ele>544.4</ele><time>2026-04-26T08:57:34Z</time></trkpt><trkpt lat="43.495011477382484" lon="11.486375549712017"><ele>547.2</ele><time>2026-04-26T08:57:35Z</time></trkpt><trkpt lat="43.49496067534564" lon="11.486281472590612"><ele>550.0</ele><time>2026-04-26T08:57:36Z</time></trkpt><trkpt lat="43.49493005956755" lon="11.486149731076061"><ele>550.0</ele><time>2026-04-26T08:57:37Z</time></trkpt><trkpt lat="43.49490203788966" lon="11.486020880781549"><ele>550.0</ele><time>2026-04-26T08:57:38Z</time></trkpt><trkpt lat="43.49485668842027" lon="11.485939561322732"><ele>550.0</ele><time>2026-04-26T08:57:39Z</time></trkpt><trkpt lat="43.49478806735491" lon="11.485876036147111"><ele>550.0</ele><time>2026-04-26T08:57:40Z</time></trkpt><trkpt lat="43.49470272375395" lon="11.485829906493775"><ele>550.0</ele><time>2026-04-26T08:57:41Z</time></trkpt><trkpt lat="43.49461693472453" lon="11.485786922362477"><ele>550.0</ele><time>2026-04-26T08:57:42Z</time></trkpt><trkpt lat="43.49455148463776" lon="11.48573893276545"><ele>552.6666666666667</ele><time>2026-04-26T08:57:43Z</time></trkpt><trkpt lat="43.49451007809164" lon="11.485671426526002"><ele>555.3333333333334</ele><time>2026-04-26T08:57:44Z</time></trkpt><trkpt lat="43.49448188823529" lon="11.485573249758696"><ele>558.0</ele><time>2026-04-26T08:57:45Z</time></trkpt><trkpt lat="43.49450185000356" lon="11.485443941066517"><ele>560.6666666666666</ele><time>2026-04-26T08:57:46Z</time></trkpt><trkpt lat="43.49448647361589" lon="11.485311867690333"><ele>563.3333333333333</ele><time>2026-04-26T08:57:47Z</time></trkpt><trkpt lat="43.49447099909178" lon="11.485192812064128"><ele>566.0</ele><time>2026-04-26T08:57:48Z</time></trkpt><trkpt lat="43.49442296731011" lon="11.485067174945268"><ele>566.0</ele><time>2026-04-26T08:57:49Z</time></trkpt><trkpt lat="43.49434743694564" lon="11.484958749413439"><ele>566.0</ele><time>2026-04-26T08:57:50Z</time></trkpt><trkpt lat="43.49426994652529" lon="11.484848191520806"><ele>566.0</ele><time>2026-04-26T08:57:51Z</time></trkpt><trkpt lat="43.494209831679534" lon="11.484723273839569"><ele>566.0</ele><time>2026-04-26T08:57:52Z</time></trkpt><trkpt lat="43.49415857870243" lon="11.484591617311978"><ele>566.0</ele><time>2026-04-26T08:57:53Z</time></trkpt><trkpt lat="43.4941032416487" lon="11.484459565503627"><ele>564.25</ele><time>2026-04-26T08:57:54Z</time></trkpt><trkpt lat="43.494046166413796" lon="11.484323924795081"><ele>562.5</ele><time>2026-04-26T08:57:55Z</time></trkpt><trkpt lat="43.493980814141636" lon="11.484186319931478"><ele>560.75</ele><time>2026-04-26T08:57:56Z</time></trkpt><trkpt lat="43.493899996107814" lon="11.484060386562643"><ele>559.0</ele><time>2026-04-26T08:57:57Z</time></trkpt><trkpt lat="43.493816558468524" lon="11.483938915454054"><ele>559.75</ele><time>2026-04-26T08:57:58Z</time></trkpt><trkpt lat="43.49373446711631" lon="11.483819178119528"><ele>560.5</ele><time>2026-04-26T08:57:59Z</time></trkpt><trkpt lat="43.49364955363512" lon="11.483695017068037"><ele>561.25</ele><time>2026-04-26T08:58:00Z</time></trkpt><trkpt lat="43.49356307307249" lon="11.483562385594237"><ele>562.0</ele><time>2026-04-26T08:58:01Z</time></trkpt><trkpt lat="43.49347894463244" lon="11.483423688237933"><ele>563.25</ele><time>2026-04-26T08:58:02Z</time></trkpt><trkpt lat="43.493396878835355" lon="11.483271158220496"><ele>564.5</ele><time>2026-04-26T08:58:03Z</time></trkpt><trkpt lat="43.4933124061072" lon="11.483111567211596"><ele>565.75</ele><time>2026-04-26T08:58:04Z</time></trkpt><trkpt lat="43.49323278450638" lon="11.482947669051097"><ele>567.0</ele><time>2026-04-26T08:58:05Z</time></trkpt><trkpt lat="43.493152355922604" lon="11.482778668716785"><ele>567.25</ele><time>2026-04-26T08:58:06Z</time></trkpt><trkpt lat="43.493088390455675" lon="11.482591913466045"><ele>567.5</ele><time>2026-04-26T08:58:07Z</time></trkpt><trkpt lat="43.49302246021616" lon="11.482414369086197"><ele>567.75</ele><time>2026-04-26T08:58:08Z</time></trkpt><trkpt lat="43.492959751995585" lon="11.482231798256526"><ele>568.0</ele><time>2026-04-26T08:58:09Z</time></trkpt><trkpt lat="43.4928926691213" lon="11.482063579002785"><ele>573.1999999999999</ele><time>2026-04-26T08:58:10Z</time></trkpt><trkpt lat="43.49287826262485" lon="11.481885557644182"><ele>578.4</ele><time>2026-04-26T08:58:11Z</time></trkpt><trkpt lat="43.492864474098965" lon="11.481729771626458"><ele>583.5999999999999</ele><time>2026-04-26T08:58:12Z</time></trkpt><trkpt lat="43.49283138197949" lon="11.48161729191704"><ele>588.8</ele><time>2026-04-26T08:58:13Z</time></trkpt><trkpt lat="43.49279025940337" lon="11.481520459883026"><ele>594.0</ele><time>2026-04-26T08:58:14Z</time></trkpt><trkpt lat="43.492703134092636" lon="11.481449984113377"><ele>594.0</ele><time>2026-04-26T08:58:15Z</time></trkpt><trkpt lat="43.49260333436382" lon="11.481390949961234"><ele>594.0</ele><time>2026-04-26T08:58:16Z</time></trkpt><trkpt lat="43.49251764221736" lon="11.48131075024721"><ele>594.0</ele><time>2026-04-26T08:58:17Z</time></trkpt><trkpt lat="43.49245926771727" lon="11.48117902826569"><ele>594.0</ele><time>2026-04-26T08:58:18Z</time></trkpt><trkpt lat="43.49236803072281" lon="11.48106125913192"><ele>594.0</ele><time>2026-04-26T08:58:19Z</time></trkpt><trkpt lat="43.49228642489152" lon="11.480927375840682"><ele>594.4</ele><time>2026-04-26T08:58:20Z</time></trkpt><trkpt lat="43.492218287839684" lon="11.48081280912424"><ele>594.8</ele><time>2026-04-26T08:58:21Z</time></trkpt><trkpt lat="43.49216148792088" lon="11.480723239637591"><ele>595.2</ele><time>2026-04-26T08:58:22Z</time></trkpt><trkpt lat="43.49209124142568" lon="11.48066274494357"><ele>595.6</ele><time>2026-04-26T08:58:23Z</time></trkpt><trkpt lat="43.492000067690846" lon="11.480613135924756"><ele>596.0</ele><time>2026-04-26T08:58:24Z</time></trkpt><trkpt lat="43.491896227020625" lon="11.480558984286025"><ele>596.0</ele><time>2026-04-26T08:58:25Z</time></trkpt><trkpt lat="43.49178094379532" lon="11.480509184788817"><ele>596.0</ele><time>2026-04-26T08:58:26Z</time></trkpt><trkpt lat="43.49167136675103" lon="11.480454276992461"><ele>596.0</ele><time>2026-04-26T08:58:27Z</time></trkpt><trkpt lat="43.49158071904312" lon="11.480358990293361"><ele>596.0</ele><time>2026-04-26T08:58:28Z</time></trkpt><trkpt lat="43.49147374159467" lon="11.480279104871908"><ele>595.5</ele><time>2026-04-26T08:58:29Z</time></trkpt><trkpt lat="43.491367599794046" lon="11.480186535636564"><ele>595.0</ele><time>2026-04-26T08:58:30Z</time></trkpt><trkpt lat="43.49125575671426" lon="11.480095526223508"><ele>594.5</ele><time>2026-04-26T08:58:31Z</time></trkpt><trkpt lat="43.49114425407573" lon="11.480002479922849"><ele>594.0</ele><time>2026-04-26T08:58:32Z</time></trkpt><trkpt lat="43.4910347987923" lon="11.479907996989281"><ele>593.75</ele><time>2026-04-26T08:58:33Z</time></trkpt><trkpt lat="43.49093246633905" lon="11.479810389435244"><ele>593.5</ele><time>2026-04-26T08:58:34Z</time></trkpt><trkpt lat="43.49084526303351" lon="11.47968888249802"><ele>593.25</ele><time>2026-04-26T08:58:35Z</time></trkpt><trkpt lat="43.490749727883795" lon="11.479587849430409"><ele>593.0</ele><time>2026-04-26T08:58:36Z</time></trkpt><trkpt lat="43.490672785846684" lon="11.479467653497027"><ele>594.5</ele><time>2026-04-26T08:58:37Z</time></trkpt><trkpt lat="43.49059785974757" lon="11.47936267009295"><ele>596.0</ele><time>2026-04-26T08:58:38Z</time></trkpt><trkpt lat="43.490505581456716" lon="11.4792591084304"><ele>597.5</ele><time>2026-04-26T08:58:39Z</time></trkpt><trkpt lat="43.49039533955921" lon="11.479195066458201"><ele>599.0</ele><time>2026-04-26T08:58:40Z</time></trkpt><trkpt lat="43.49027918255556" lon="11.479124611797644"><ele>599.8</ele><time>2026-04-26T08:58:41Z</time></trkpt><trkpt lat="43.49016845706521" lon="11.479061561390123"><ele>600.5999999999999</ele><time>2026-04-26T08:58:42Z</time></trkpt><trkpt lat="43.49006841706035" lon="11.479004615092771"><ele>601.4</ele><time>2026-04-26T08:58:43Z</time></trkpt><trkpt lat="43.48999345238342" lon="11.478936129484408"><ele>602.1999999999999</ele><time>2026-04-26T08:58:44Z</time></trkpt><trkpt lat="43.489926029772754" lon="11.47884568071425"><ele>603.0</ele><time>2026-04-26T08:58:45Z</time></trkpt><trkpt lat="43.48985896098204" lon="11.478749773050604"><ele>605.0</ele><time>2026-04-26T08:58:46Z</time></trkpt><trkpt lat="43.48977654082486" lon="11.47864079365356"><ele>607.0</ele><time>2026-04-26T08:58:47Z</time></trkpt><trkpt lat="43.489681053200464" lon="11.478557415911615"><ele>609.0</ele><time>2026-04-26T08:58:48Z</time></trkpt><trkpt lat="43.48958720625673" lon="11.478476951127645"><ele>611.0</ele><time>2026-04-26T08:58:49Z</time></trkpt><trkpt lat="43.48950539511243" lon="11.478402496159562"><ele>613.0</ele><time>2026-04-26T08:58:50Z</time></trkpt><trkpt lat="43.48943023147076" lon="11.478333201421862"><ele>613.0</ele><time>2026-04-26T08:58:51Z</time></trkpt><trkpt lat="43.48935981665982" lon="11.478270424832331"><ele>613.0</ele><time>2026-04-26T08:58:52Z</time></trkpt><trkpt lat="43.48928225515864" lon="11.478210527571424"><ele>613.0</ele><time>2026-04-26T08:58:53Z</time></trkpt><trkpt lat="43.48919904043628" lon="11.478151866284371"><ele>613.0</ele><time>2026-04-26T08:58:54Z</time></trkpt><trkpt lat="43.48911661614317" lon="11.478090848829769"><ele>613.0</ele><time>2026-04-26T08:58:55Z</time></trkpt><trkpt lat="43.4890328203967" lon="11.478026611247207"><ele>613.0</ele><time>2026-04-26T08:58:56Z</time></trkpt><trkpt lat="43.4889493189376" lon="11.477955906141085"><ele>613.0</ele><time>2026-04-26T08:58:57Z</time></trkpt><trkpt lat="43.48886273350614" lon="11.477898102471912"><ele>613.0</ele><time>2026-04-26T08:58:58Z</time></trkpt><trkpt lat="43.48876973231639" lon="11.47784323904058"><ele>613.0</ele><time>2026-04-26T08:58:59Z</time></trkpt><trkpt lat="43.48868004097031" lon="11.477792871529552"><ele>613.0</ele><time>2026-04-26T08:59:00Z</time></trkpt><trkpt lat="43.48858178073773" lon="11.477759264482186"><ele>610.5</ele><time>2026-04-26T08:59:01Z</time></trkpt><trkpt lat="43.48847169368165" lon="11.477744960184237"><ele>608.0</ele><time>2026-04-26T08:59:02Z</time></trkpt><trkpt lat="43.48835424103508" lon="11.477751221639714"><ele>605.5</ele><time>2026-04-26T08:59:03Z</time></trkpt><trkpt lat="43.488232893409126" lon="11.477760076126236"><ele>603.0</ele><time>2026-04-26T08:59:04Z</time></trkpt><trkpt lat="43.48810676593981" lon="11.47775630681249"><ele>603.0</ele><time>2026-04-26T08:59:05Z</time></trkpt><trkpt lat="43.487977613641576" lon="11.4777517188971"><ele>603.0</ele><time>2026-04-26T08:59:06Z</time></trkpt><trkpt lat="43.48784507396535" lon="11.477745233277174"><ele>603.0</ele><time>2026-04-26T08:59:07Z</time></trkpt><trkpt lat="43.48771037246224" lon="11.477742140382992"><ele>603.0</ele><time>2026-04-26T08:59:08Z</time></trkpt><trkpt lat="43.48757285130894" lon="11.477735374053257"><ele>602.75</ele><time>2026-04-26T08:59:09Z</time></trkpt><trkpt lat="43.487436093318536" lon="11.47772800546776"><ele>602.5</ele><time>2026-04-26T08:59:10Z</time></trkpt><trkpt lat="43.48729713570496" lon="11.477722389052186"><ele>602.25</ele><time>2026-04-26T08:59:11Z</time></trkpt><trkpt lat="43.48715932042254" lon="11.477716645179866"><ele>602.0</ele><time>2026-04-26T08:59:12Z</time></trkpt><trkpt lat="43.48702547099486" lon="11.47770933261277"><ele>602.0</ele><time>2026-04-26T08:59:13Z</time></trkpt><trkpt lat="43.48689428690868" lon="11.477702019915412"><ele>602.0</ele><time>2026-04-26T08:59:14Z</time></trkpt><trkpt lat="43.486764265810635" lon="11.477693641280641"><ele>602.0</ele><time>2026-04-26T08:59:15Z</time></trkpt><trkpt lat="43.4866339491735" lon="11.47767786498325"><ele>602.0</ele><time>2026-04-26T08:59:16Z</time></trkpt><trkpt lat="43.48649969833446" lon="11.477656299158882"><ele>602.0</ele><time>2026-04-26T08:59:17Z</time></trkpt><trkpt lat="43.48636329166029" lon="11.477628707144188"><ele>602.0</ele><time>2026-04-26T08:59:18Z</time></trkpt><trkpt lat="43.486229780887314" lon="11.477592400954565"><ele>602.0</ele><time>2026-04-26T08:59:19Z</time></trkpt><trkpt lat="43.48611169412687" lon="11.477554225923786"><ele>602.0</ele><time>2026-04-26T08:59:20Z</time></trkpt><trkpt lat="43.48599949760152" lon="11.477507970531146"><ele>603.4</ele><time>2026-04-26T08:59:21Z</time></trkpt><trkpt lat="43.48589045504434" lon="11.477466816196232"><ele>604.8000000000001</ele><time>2026-04-26T08:59:22Z</time></trkpt><trkpt lat="43.48578239422273" lon="11.477439350763682"><ele>606.2</ele><time>2026-04-26T08:59:23Z</time></trkpt><trkpt lat="43.485678949566335" lon="11.477467208068404"><ele>607.6</ele><time>2026-04-26T08:59:24Z</time></trkpt><trkpt lat="43.48556998309641" lon="11.477480395127282"><ele>609.0</ele><time>2026-04-26T08:59:25Z</time></trkpt><trkpt lat="43.48545935423289" lon="11.477528230759793"><ele>609.0</ele><time>2026-04-26T08:59:26Z</time></trkpt><trkpt lat="43.485353433017345" lon="11.477565833442512"><ele>609.0</ele><time>2026-04-26T08:59:27Z</time></trkpt><trkpt lat="43.485242949683716" lon="11.47757064660588"><ele>609.0</ele><time>2026-04-26T08:59:28Z</time></trkpt><trkpt lat="43.48512701342332" lon="11.477553341157522"><ele>609.0</ele><time>2026-04-26T08:59:29Z</time></trkpt><trkpt lat="43.485017722890404" lon="11.477532017256156"><ele>609.0</ele><time>2026-04-26T08:59:30Z</time></trkpt><trkpt lat="43.48491688174306" lon="11.477517500531027"><ele>609.0</ele><time>2026-04-26T08:59:31Z</time></trkpt><trkpt lat="43.48482072031528" lon="11.477500965755068"><ele>609.0</ele><time>2026-04-26T08:59:32Z</time></trkpt><trkpt lat="43.48472420184489" lon="11.477483997628473"><ele>609.0</ele><time>2026-04-26T08:59:33Z</time></trkpt><trkpt lat="43.48462210334146" lon="11.477470768140888"><ele>609.0</ele><time>2026-04-26T08:59:34Z</time></trkpt><trkpt lat="43.48452227196082" lon="11.477458820580113"><ele>609.0</ele><time>2026-04-26T08:59:35Z</time></trkpt><trkpt lat="43.48442996239021" lon="11.477435836257312"><ele>608.4</ele><time>2026-04-26T08:59:36Z</time></trkpt><trkpt lat="43.48434069848134" lon="11.477410349427249"><ele>607.8</ele><time>2026-04-26T08:59:37Z</time></trkpt><trkpt lat="43.48424763043131" lon="11.477362423292126"><ele>607.2</ele><time>2026-04-26T08:59:38Z</time></trkpt><trkpt lat="43.48415366251899" lon="11.477307815678664"><ele>606.6</ele><time>2026-04-26T08:59:39Z</time></trkpt><trkpt lat="43.48405434730787" lon="11.477259279033301"><ele>606.0</ele><time>2026-04-26T08:59:40Z</time></trkpt><trkpt lat="43.48394789666461" lon="11.477219831717246"><ele>606.0</ele><time>2026-04-26T08:59:41Z</time></trkpt><trkpt lat="43.483838293401796" lon="11.477171631971414"><ele>606.0</ele><time>2026-04-26T08:59:42Z</time></trkpt><trkpt lat="43.48373100514232" lon="11.477133331676567"><ele>606.0</ele><time>2026-04-26T08:59:43Z</time></trkpt><trkpt lat="43.483628976118126" lon="11.477098492248555"><ele>606.0</ele><time>2026-04-26T08:59:44Z</time></trkpt><trkpt lat="43.48353067033132" lon="11.477063553354629"><ele>606.0</ele><time>2026-04-26T08:59:45Z</time></trkpt><trkpt lat="43.48343673155067" lon="11.477032543141844"><ele>605.8</ele><time>2026-04-26T08:59:46Z</time></trkpt><trkpt lat="43.483345322191646" lon="11.476998666071847"><ele>605.6</ele><time>2026-04-26T08:59:47Z</time></trkpt><trkpt lat="43.48325510648333" lon="11.476957604327533"><ele>605.4</ele><time>2026-04-26T08:59:48Z</time></trkpt><trkpt lat="43.4831621976732" lon="11.47691108210435"><ele>605.2</ele><time>2026-04-26T08:59:49Z</time></trkpt><trkpt lat="43.48307322699137" lon="11.47686671646415"><ele>605.0</ele><time>2026-04-26T08:59:50Z</time></trkpt><trkpt lat="43.48298520420908" lon="11.476811967090482"><ele>605.8333333333333</ele><time>2026-04-26T08:59:51Z</time></trkpt><trkpt lat="43.482899489979545" lon="11.476765403480128"><ele>606.6666666666666</ele><time>2026-04-26T08:59:52Z</time></trkpt><trkpt lat="43.482822402477694" lon="11.476720304877759"><ele>607.5</ele><time>2026-04-26T08:59:53Z</time></trkpt><trkpt lat="43.482750469592176" lon="11.47667386727354"><ele>608.3333333333334</ele><time>2026-04-26T08:59:54Z</time></trkpt><trkpt lat="43.48266994929196" lon="11.476625892768174"><ele>609.1666666666667</ele><time>2026-04-26T08:59:55Z</time></trkpt><trkpt lat="43.48259565731922" lon="11.476575458765462"><ele>610.0</ele><time>2026-04-26T08:59:56Z</time></trkpt><trkpt lat="43.482512917712" lon="11.476531636709753"><ele>610.0</ele><time>2026-04-26T08:59:57Z</time></trkpt><trkpt lat="43.48242529849354" lon="11.476488988863764"><ele>610.0</ele><time>2026-04-26T08:59:58Z</time></trkpt><trkpt lat="43.482331180270215" lon="11.476441666258268"><ele>610.0</ele><time>2026-04-26T08:59:59Z</time></trkpt><trkpt lat="43.482240757433225" lon="11.476392968990426"><ele>610.0</ele><time>2026-04-26T09:00:00Z</time></trkpt><trkpt lat="43.48215127841405" lon="11.476356899693013"><ele>610.0</ele><time>2026-04-26T09:00:01Z</time></trkpt><trkpt lat="43.48206703366859" lon="11.476306216669409"><ele>611.1666666666667</ele><time>2026-04-26T09:00:02Z</time></trkpt><trkpt lat="43.481988485889815" lon="11.476254908881032"><ele>612.3333333333334</ele><time>2026-04-26T09:00:03Z</time></trkpt><trkpt lat="43.4819173312813" lon="11.476167598581414"><ele>613.5</ele><time>2026-04-26T09:00:04Z</time></trkpt><trkpt lat="43.48185541217831" lon="11.476110267372212"><ele>614.6666666666666</ele><time>2026-04-26T09:00:05Z</time></trkpt><trkpt lat="43.48179563691327" lon="11.476056066893474"><ele>615.8333333333333</ele><time>2026-04-26T09:00:06Z</time></trkpt><trkpt lat="43.48174603625803" lon="11.475985461267136"><ele>617.0</ele><time>2026-04-26T09:00:08Z</time></trkpt><trkpt lat="43.481676223528076" lon="11.47599444886336"><ele>617.0</ele><time>2026-04-26T09:00:11Z</time></trkpt><trkpt lat="43.48162952847003" lon="11.475906955181147"><ele>617.0</ele><time>2026-04-26T09:00:14Z</time></trkpt><trkpt lat="43.48164567758453" lon="11.475767848749172"><ele>617.0</ele><time>2026-04-26T09:00:16Z</time></trkpt><trkpt lat="43.481618577140914" lon="11.475687737682124"><ele>617.0</ele><time>2026-04-26T09:00:17Z</time></trkpt><trkpt lat="43.481590807085524" lon="11.475605647227102"><ele>617.0</ele><time>2026-04-26T09:00:18Z</time></trkpt><trkpt lat="43.48156339879129" lon="11.475524626189468"><ele>617.0</ele><time>2026-04-26T09:00:19Z</time></trkpt><trkpt lat="43.48153363930385" lon="11.475435932980426"><ele>617.0</ele><time>2026-04-26T09:00:20Z</time></trkpt><trkpt lat="43.48150251949514" lon="11.475332345529576"><ele>618.1428571428572</ele><time>2026-04-26T09:00:21Z</time></trkpt><trkpt lat="43.48148121260725" lon="11.47523372473925"><ele>619.2857142857142</ele><time>2026-04-26T09:00:22Z</time></trkpt><trkpt lat="43.481466480767025" lon="11.475137996071338"><ele>620.4285714285714</ele><time>2026-04-26T09:00:23Z</time></trkpt><trkpt lat="43.48146401906179" lon="11.47504546189414"><ele>621.5714285714287</ele><time>2026-04-26T09:00:24Z</time></trkpt><trkpt lat="43.481480212726574" lon="11.474951867603314"><ele>622.7142857142858</ele><time>2026-04-26T09:00:25Z</time></trkpt><trkpt lat="43.48151004678635" lon="11.474856694823208"><ele>623.8571428571429</ele><time>2026-04-26T09:00:26Z</time></trkpt><trkpt lat="43.48154857413743" lon="11.474775560798724"><ele>625.0</ele><time>2026-04-26T09:00:27Z</time></trkpt><trkpt lat="43.481645835990435" lon="11.474668091128981"><ele>625.0</ele><time>2026-04-26T09:00:29Z</time></trkpt><trkpt lat="43.48171072850613" lon="11.474618585165775"><ele>625.0</ele><time>2026-04-26T09:00:30Z</time></trkpt><trkpt lat="43.48179303569381" lon="11.47456774401669"><ele>625.0</ele><time>2026-04-26T09:00:31Z</time></trkpt><trkpt lat="43.48187619792397" lon="11.474519415169887"><ele>625.0</ele><time>2026-04-26T09:00:32Z</time></trkpt><trkpt lat="43.48193884384369" lon="11.474470642393136"><ele>625.0</ele><time>2026-04-26T09:00:33Z</time></trkpt><trkpt lat="43.48200579139141" lon="11.474421583021487"><ele>625.0</ele><time>2026-04-26T09:00:34Z</time></trkpt><trkpt lat="43.48207215611413" lon="11.474358153780795"><ele>624.6666666666667</ele><time>2026-04-26T09:00:35Z</time></trkpt><trkpt lat="43.482142331492604" lon="11.474296585892299"><ele>624.3333333333334</ele><time>2026-04-26T09:00:36Z</time></trkpt><trkpt lat="43.48218620125965" lon="11.474192486187754"><ele>624.0</ele><time>2026-04-26T09:00:37Z</time></trkpt><trkpt lat="43.482210869638934" lon="11.474092219240148"><ele>623.6666666666666</ele><time>2026-04-26T09:00:38Z</time></trkpt><trkpt lat="43.482199262021474" lon="11.47400188952941"><ele>623.3333333333333</ele><time>2026-04-26T09:00:39Z</time></trkpt><trkpt lat="43.482159676019585" lon="11.473824881119224"><ele>623.0</ele><time>2026-04-26T09:00:41Z</time></trkpt><trkpt lat="43.48209406056405" lon="11.473735773221156"><ele>627.2</ele><time>2026-04-26T09:00:42Z</time></trkpt><trkpt lat="43.48206260145634" lon="11.473611969806297"><ele>631.4</ele><time>2026-04-26T09:00:43Z</time></trkpt><trkpt lat="43.48201750372429" lon="11.473486950848072"><ele>635.6</ele><time>2026-04-26T09:00:44Z</time></trkpt><trkpt lat="43.481966141467886" lon="11.47337854079491"><ele>639.8000000000001</ele><time>2026-04-26T09:00:45Z</time></trkpt><trkpt lat="43.48193583339869" lon="11.473238860986672"><ele>644.0</ele><time>2026-04-26T09:00:46.001Z</time></trkpt><trkpt lat="43.4818983142984" lon="11.473096644772468"><ele>644.0</ele><time>2026-04-26T09:00:47.001Z</time></trkpt><trkpt lat="43.481858337726656" lon="11.472953529253658"><ele>644.0</ele><time>2026-04-26T09:00:48.001Z</time></trkpt><trkpt lat="43.48178969147788" lon="11.47283341710319"><ele>644.0</ele><time>2026-04-26T09:00:49.001Z</time></trkpt><trkpt lat="43.48170761055105" lon="11.472739000517693"><ele>644.0</ele><time>2026-04-26T09:00:50.001Z</time></trkpt><trkpt lat="43.481622954473934" lon="11.472679387369803"><ele>644.0</ele><time>2026-04-26T09:00:51.001Z</time></trkpt><trkpt lat="43.48156409161683" lon="11.472591789834707"><ele>643.0</ele><time>2026-04-26T09:00:52.001Z</time></trkpt><trkpt lat="43.48151402381944" lon="11.472503983144376"><ele>642.0</ele><time>2026-04-26T09:00:53.001Z</time></trkpt><trkpt lat="43.481516688120266" lon="11.472385180656087"><ele>641.0</ele><time>2026-04-26T09:00:54.001Z</time></trkpt><trkpt lat="43.48153154030338" lon="11.472281018980771"><ele>640.0</ele><time>2026-04-26T09:00:55.001Z</time></trkpt><trkpt lat="43.48155315081523" lon="11.472172738523877"><ele>639.0</ele><time>2026-04-26T09:00:56.001Z</time></trkpt><trkpt lat="43.48159716078397" lon="11.472078286238965"><ele>638.0</ele><time>2026-04-26T09:00:57Z</time></trkpt><trkpt lat="43.481644638957576" lon="11.47198252918755"><ele>637.8</ele><time>2026-04-26T09:00:58Z</time></trkpt><trkpt lat="43.48169120471368" lon="11.471855170265808"><ele>637.5999999999999</ele><time>2026-04-26T09:00:59.001Z</time></trkpt><trkpt lat="43.48175085599378" lon="11.471746061777669"><ele>637.4000000000001</ele><time>2026-04-26T09:01:00Z</time></trkpt><trkpt lat="43.48182176804377" lon="11.471640629631535"><ele>637.2</ele><time>2026-04-26T09:01:01Z</time></trkpt><trkpt lat="43.48186385394429" lon="11.471490105181992"><ele>637.0</ele><time>2026-04-26T09:01:02Z</time></trkpt><trkpt lat="43.48187490672329" lon="11.47136902784634"><ele>636.5</ele><time>2026-04-26T09:01:03Z</time></trkpt><trkpt lat="43.481899678659765" lon="11.471248057969111"><ele>636.0</ele><time>2026-04-26T09:01:04Z</time></trkpt><trkpt lat="43.48192724227038" lon="11.47112998936233"><ele>635.5</ele><time>2026-04-26T09:01:05Z</time></trkpt><trkpt lat="43.48196354887844" lon="11.471017728039987"><ele>635.0</ele><time>2026-04-26T09:01:06Z</time></trkpt><trkpt lat="43.48201552470222" lon="11.470915836449253"><ele>634.5</ele><time>2026-04-26T09:01:07Z</time></trkpt><trkpt lat="43.48208031665577" lon="11.470834364837772"><ele>634.0</ele><time>2026-04-26T09:01:08Z</time></trkpt><trkpt lat="43.48215424615358" lon="11.47074675392724"><ele>634.0</ele><time>2026-04-26T09:01:09Z</time></trkpt><trkpt lat="43.48222842264939" lon="11.470663264719331"><ele>634.0</ele><time>2026-04-26T09:01:10Z</time></trkpt><trkpt lat="43.48229843038089" lon="11.47059079168655"><ele>634.0</ele><time>2026-04-26T09:01:11Z</time></trkpt><trkpt lat="43.48236837509981" lon="11.47052637552976"><ele>634.0</ele><time>2026-04-26T09:01:12Z</time></trkpt><trkpt lat="43.482447716808736" lon="11.4704654023739"><ele>634.0</ele><time>2026-04-26T09:01:13Z</time></trkpt><trkpt lat="43.48254244770084" lon="11.470410178228942"><ele>633.4</ele><time>2026-04-26T09:01:14Z</time></trkpt><trkpt lat="43.48263928496098" lon="11.470359783801102"><ele>632.8</ele><time>2026-04-26T09:01:15Z</time></trkpt><trkpt lat="43.48273886532076" lon="11.470309737876343"><ele>632.2</ele><time>2026-04-26T09:01:16Z</time></trkpt><trkpt lat="43.48284000901589" lon="11.470259092505032"><ele>631.6</ele><time>2026-04-26T09:01:17Z</time></trkpt><trkpt lat="43.48293499610782" lon="11.470217145062243"><ele>631.0</ele><time>2026-04-26T09:01:18Z</time></trkpt><trkpt lat="43.483030226361805" lon="11.470183361469008"><ele>632.4</ele><time>2026-04-26T09:01:19Z</time></trkpt><trkpt lat="43.483117468395626" lon="11.470168053263"><ele>633.8</ele><time>2026-04-26T09:01:20Z</time></trkpt><trkpt lat="43.48320585143638" lon="11.470150343076783"><ele>635.1999999999999</ele><time>2026-04-26T09:01:21Z</time></trkpt><trkpt lat="43.483306099276014" lon="11.470167480778658"><ele>636.6</ele><time>2026-04-26T09:01:22Z</time></trkpt><trkpt lat="43.48341336405643" lon="11.470171873840629"><ele>638.0</ele><time>2026-04-26T09:01:23Z</time></trkpt><trkpt lat="43.48352286635631" lon="11.47019171642919"><ele>638.0</ele><time>2026-04-26T09:01:24Z</time></trkpt><trkpt lat="43.48363529531566" lon="11.470188159038573"><ele>638.0</ele><time>2026-04-26T09:01:25Z</time></trkpt><trkpt lat="43.48374016397109" lon="11.470173564923183"><ele>638.0</ele><time>2026-04-26T09:01:26Z</time></trkpt><trkpt lat="43.483829521840235" lon="11.47013218037911"><ele>638.0</ele><time>2026-04-26T09:01:27Z</time></trkpt><trkpt lat="43.48391632922683" lon="11.47010321760283"><ele>638.0</ele><time>2026-04-26T09:01:28Z</time></trkpt><trkpt lat="43.483990976676246" lon="11.470024820837777"><ele>637.6666666666666</ele><time>2026-04-26T09:01:29Z</time></trkpt><trkpt lat="43.48404487213745" lon="11.469932569790808"><ele>637.3333333333333</ele><time>2026-04-26T09:01:30Z</time></trkpt><trkpt lat="43.48410639126021" lon="11.469858354500555"><ele>637.0</ele><time>2026-04-26T09:01:31Z</time></trkpt><trkpt lat="43.48415816392051" lon="11.469783294952267"><ele>636.6666666666666</ele><time>2026-04-26T09:01:32Z</time></trkpt><trkpt lat="43.484222381621066" lon="11.46971550160841"><ele>636.3333333333334</ele><time>2026-04-26T09:01:33Z</time></trkpt><trkpt lat="43.48426881865367" lon="11.469609021255975"><ele>636.0</ele><time>2026-04-26T09:01:34Z</time></trkpt><trkpt lat="43.484294382432296" lon="11.469473999987606"><ele>636.0</ele><time>2026-04-26T09:01:35Z</time></trkpt><trkpt lat="43.48428818067255" lon="11.469333711364875"><ele>636.0</ele><time>2026-04-26T09:01:36Z</time></trkpt><trkpt lat="43.48426307803314" lon="11.469199282710303"><ele>636.0</ele><time>2026-04-26T09:01:37Z</time></trkpt><trkpt lat="43.48422277827584" lon="11.469056557923999"><ele>636.0</ele><time>2026-04-26T09:01:38Z</time></trkpt><trkpt lat="43.48418031304352" lon="11.468916393428676"><ele>636.0</ele><time>2026-04-26T09:01:39Z</time></trkpt><trkpt lat="43.48413572297804" lon="11.468786396940075"><ele>635.8</ele><time>2026-04-26T09:01:40Z</time></trkpt><trkpt lat="43.48408992782683" lon="11.468663232712531"><ele>635.6</ele><time>2026-04-26T09:01:41Z</time></trkpt><trkpt lat="43.48403691680494" lon="11.468551023233662"><ele>635.4</ele><time>2026-04-26T09:01:42Z</time></trkpt><trkpt lat="43.48398202860213" lon="11.468438446768275"><ele>635.2</ele><time>2026-04-26T09:01:43Z</time></trkpt><trkpt lat="43.48393186420891" lon="11.468336330011557"><ele>635.0</ele><time>2026-04-26T09:01:44Z</time></trkpt><trkpt lat="43.483881509124345" lon="11.468239294150528"><ele>635.0</ele><time>2026-04-26T09:01:45Z</time></trkpt><trkpt lat="43.483829473000206" lon="11.46814120132538"><ele>635.0</ele><time>2026-04-26T09:01:46Z</time></trkpt><trkpt lat="43.48378424417981" lon="11.468041918762513"><ele>635.0</ele><time>2026-04-26T09:01:47Z</time></trkpt><trkpt lat="43.48374303470293" lon="11.467923417890649"><ele>635.0</ele><time>2026-04-26T09:01:48Z</time></trkpt><trkpt lat="43.48371802943805" lon="11.467799378931284"><ele>635.0</ele><time>2026-04-26T09:01:49Z</time></trkpt><trkpt lat="43.48371080095886" lon="11.46767025069836"><ele>634.8333333333333</ele><time>2026-04-26T09:01:50Z</time></trkpt><trkpt lat="43.48371738795483" lon="11.467542437347358"><ele>634.6666666666666</ele><time>2026-04-26T09:01:51Z</time></trkpt><trkpt lat="43.48372904925176" lon="11.467409005396306"><ele>634.5</ele><time>2026-04-26T09:01:52Z</time></trkpt><trkpt lat="43.48375136074223" lon="11.467284331313413"><ele>634.3333333333334</ele><time>2026-04-26T09:01:53Z</time></trkpt><trkpt lat="43.48378875518572" lon="11.46718224937703"><ele>634.1666666666667</ele><time>2026-04-26T09:01:54Z</time></trkpt><trkpt lat="43.48383234990521" lon="11.467090167982608"><ele>634.0</ele><time>2026-04-26T09:01:55Z</time></trkpt><trkpt lat="43.483884997226" lon="11.46700756004432"><ele>635.6666666666667</ele><time>2026-04-26T09:01:56Z</time></trkpt><trkpt lat="43.48394675892072" lon="11.466937097199642"><ele>637.3333333333334</ele><time>2026-04-26T09:01:57Z</time></trkpt><trkpt lat="43.484015854905635" lon="11.466874842239669"><ele>639.0</ele><time>2026-04-26T09:01:58Z</time></trkpt><trkpt lat="43.484091733769134" lon="11.466826512860491"><ele>640.6666666666666</ele><time>2026-04-26T09:01:59Z</time></trkpt><trkpt lat="43.48417553343698" lon="11.466776150671047"><ele>642.3333333333333</ele><time>2026-04-26T09:02:00Z</time></trkpt><trkpt lat="43.484250592949294" lon="11.466721042579861"><ele>644.0</ele><time>2026-04-26T09:02:01Z</time></trkpt><trkpt lat="43.4843246771019" lon="11.466656639523508"><ele>644.0</ele><time>2026-04-26T09:02:02Z</time></trkpt><trkpt lat="43.48439454071313" lon="11.466581892705229"><ele>644.0</ele><time>2026-04-26T09:02:03Z</time></trkpt><trkpt lat="43.48446006200459" lon="11.466492796005218"><ele>644.0</ele><time>2026-04-26T09:02:04Z</time></trkpt><trkpt lat="43.48450953496556" lon="11.466383761752324"><ele>644.0</ele><time>2026-04-26T09:02:05Z</time></trkpt><trkpt lat="43.48453145836628" lon="11.46624569394837"><ele>644.0</ele><time>2026-04-26T09:02:06Z</time></trkpt><trkpt lat="43.484517419027206" lon="11.466113662345116"><ele>643.8000000000001</ele><time>2026-04-26T09:02:07Z</time></trkpt><trkpt lat="43.484451628302125" lon="11.46601046912609"><ele>643.6</ele><time>2026-04-26T09:02:08Z</time></trkpt><trkpt lat="43.48438440493531" lon="11.465923038199929"><ele>643.4</ele><time>2026-04-26T09:02:09Z</time></trkpt><trkpt lat="43.48431262481671" lon="11.465829860767307"><ele>643.2</ele><time>2026-04-26T09:02:10Z</time></trkpt><trkpt lat="43.484252383517855" lon="11.46571335680537"><ele>643.0</ele><time>2026-04-26T09:02:11Z</time></trkpt><trkpt lat="43.48418407992846" lon="11.465602135898191"><ele>643.0</ele><time>2026-04-26T09:02:12Z</time></trkpt><trkpt lat="43.48412477750484" lon="11.46549452917326"><ele>643.0</ele><time>2026-04-26T09:02:13Z</time></trkpt><trkpt lat="43.4840764791192" lon="11.465397288941226"><ele>643.0</ele><time>2026-04-26T09:02:14Z</time></trkpt><trkpt lat="43.484037435989194" lon="11.465304126298012"><ele>643.0</ele><time>2026-04-26T09:02:15Z</time></trkpt><trkpt lat="43.4840085291406" lon="11.465217619112327"><ele>643.0</ele><time>2026-04-26T09:02:16Z</time></trkpt><trkpt lat="43.483991727338314" lon="11.465120587919277"><ele>643.0</ele><time>2026-04-26T09:02:17Z</time></trkpt><trkpt lat="43.48399349589139" lon="11.465029480258302"><ele>642.0</ele><time>2026-04-26T09:02:18Z</time></trkpt><trkpt lat="43.484026982789686" lon="11.464951859743683"><ele>641.0</ele><time>2026-04-26T09:02:19Z</time></trkpt><trkpt lat="43.484090533254424" lon="11.464918448020443"><ele>640.0</ele><time>2026-04-26T09:02:20Z</time></trkpt><trkpt lat="43.48415252251473" lon="11.464877515890171"><ele>639.0</ele><time>2026-04-26T09:02:21Z</time></trkpt><trkpt lat="43.4842310341009" lon="11.464815747105538"><ele>638.0</ele><time>2026-04-26T09:02:22Z</time></trkpt><trkpt lat="43.4843175653087" lon="11.464753338783813"><ele>637.0</ele><time>2026-04-26T09:02:23Z</time></trkpt><trkpt lat="43.484404828628165" lon="11.464695228825223"><ele>637.0</ele><time>2026-04-26T09:02:24Z</time></trkpt><trkpt lat="43.484494099889325" lon="11.464640055416861"><ele>637.0</ele><time>2026-04-26T09:02:25Z</time></trkpt><trkpt lat="43.484574275837446" lon="11.46459837840202"><ele>637.0</ele><time>2026-04-26T09:02:26Z</time></trkpt><trkpt lat="43.48466257175808" lon="11.46454860417076"><ele>637.0</ele><time>2026-04-26T09:02:27Z</time></trkpt><trkpt lat="43.484735722553296" lon="11.46444649181334"><ele>637.0</ele><time>2026-04-26T09:02:28Z</time></trkpt><trkpt lat="43.484783811964" lon="11.464301725773037"><ele>636.6</ele><time>2026-04-26T09:02:29Z</time></trkpt><trkpt lat="43.484827984893954" lon="11.464168785516224"><ele>636.2</ele><time>2026-04-26T09:02:30Z</time></trkpt><trkpt lat="43.48486154029117" lon="11.464046849655062"><ele>635.8</ele><time>2026-04-26T09:02:31Z</time></trkpt><trkpt lat="43.4848813939601" lon="11.46392692883777"><ele>635.4</ele><time>2026-04-26T09:02:32Z</time></trkpt><trkpt lat="43.484896996171926" lon="11.463814519807556"><ele>635.0</ele><time>2026-04-26T09:02:33Z</time></trkpt><trkpt lat="43.48490902849383" lon="11.463700745202157"><ele>636.6666666666666</ele><time>2026-04-26T09:02:34Z</time></trkpt><trkpt lat="43.48491350759213" lon="11.46357648341663"><ele>638.3333333333333</ele><time>2026-04-26T09:02:35Z</time></trkpt><trkpt lat="43.48491914121631" lon="11.463465197151509"><ele>640.0</ele><time>2026-04-26T09:02:36Z</time></trkpt><trkpt lat="43.48493971812895" lon="11.463356849129275"><ele>641.6666666666666</ele><time>2026-04-26T09:02:37Z</time></trkpt><trkpt lat="43.48498297098933" lon="11.463269552569871"><ele>643.3333333333334</ele><time>2026-04-26T09:02:38Z</time></trkpt><trkpt lat="43.48503609480109" lon="11.463181814071987"><ele>645.0</ele><time>2026-04-26T09:02:39Z</time></trkpt><trkpt lat="43.485090571989986" lon="11.463071896990696"><ele>645.0</ele><time>2026-04-26T09:02:40Z</time></trkpt><trkpt lat="43.48514483873846" lon="11.462962404375931"><ele>645.0</ele><time>2026-04-26T09:02:41Z</time></trkpt><trkpt lat="43.4852022220431" lon="11.462846623596429"><ele>645.0</ele><time>2026-04-26T09:02:42Z</time></trkpt><trkpt lat="43.485255700742414" lon="11.462738720523655"><ele>645.0</ele><time>2026-04-26T09:02:43Z</time></trkpt><trkpt lat="43.48529903714511" lon="11.462642447315169"><ele>645.0</ele><time>2026-04-26T09:02:44Z</time></trkpt><trkpt lat="43.48533330737345" lon="11.462533325721946"><ele>644.5</ele><time>2026-04-26T09:02:45Z</time></trkpt><trkpt lat="43.48534803079972" lon="11.462423383434789"><ele>644.0</ele><time>2026-04-26T09:02:46Z</time></trkpt><trkpt lat="43.48534899174825" lon="11.462309996132854"><ele>643.5</ele><time>2026-04-26T09:02:47Z</time></trkpt><trkpt lat="43.48532947016522" lon="11.462200084142147"><ele>643.0</ele><time>2026-04-26T09:02:48Z</time></trkpt><trkpt lat="43.48529069405215" lon="11.46209552115775"><ele>642.5</ele><time>2026-04-26T09:02:49Z</time></trkpt><trkpt lat="43.485253597519545" lon="11.461995481242235"><ele>642.0</ele><time>2026-04-26T09:02:50Z</time></trkpt><trkpt lat="43.48521446662941" lon="11.46189045193662"><ele>642.0</ele><time>2026-04-26T09:02:51Z</time></trkpt><trkpt lat="43.48516813984229" lon="11.461781285784141"><ele>642.0</ele><time>2026-04-26T09:02:52.001Z</time></trkpt><trkpt lat="43.485108141395195" lon="11.461682409931896"><ele>642.0</ele><time>2026-04-26T09:02:53.001Z</time></trkpt><trkpt lat="43.48504871069057" lon="11.461576071003089"><ele>642.0</ele><time>2026-04-26T09:02:54.001Z</time></trkpt><trkpt lat="43.48497907889513" lon="11.461464582024341"><ele>642.0</ele><time>2026-04-26T09:02:55.001Z</time></trkpt><trkpt lat="43.48491204860374" lon="11.461353080183045"><ele>641.6</ele><time>2026-04-26T09:02:56.001Z</time></trkpt><trkpt lat="43.484844274002135" lon="11.461258446160143"><ele>641.2</ele><time>2026-04-26T09:02:57.001Z</time></trkpt><trkpt lat="43.48476711411554" lon="11.46115906344787"><ele>640.8</ele><time>2026-04-26T09:02:58.001Z</time></trkpt><trkpt lat="43.48469064935257" lon="11.46107243571134"><ele>640.4</ele><time>2026-04-26T09:02:59.001Z</time></trkpt><trkpt lat="43.484611667718" lon="11.461007966657165"><ele>640.0</ele><time>2026-04-26T09:03:00.001Z</time></trkpt><trkpt lat="43.48453528018783" lon="11.460950692379688"><ele>640.0</ele><time>2026-04-26T09:03:01.001Z</time></trkpt><trkpt lat="43.484448469970516" lon="11.460899899561609"><ele>640.0</ele><time>2026-04-26T09:03:02.001Z</time></trkpt><trkpt lat="43.484356301716225" lon="11.4608539194615"><ele>640.0</ele><time>2026-04-26T09:03:03.001Z</time></trkpt><trkpt lat="43.48426577963489" lon="11.460784671315487"><ele>640.0</ele><time>2026-04-26T09:03:04.001Z</time></trkpt><trkpt lat="43.48416731651844" lon="11.460735392197602"><ele>640.0</ele><time>2026-04-26T09:03:05.001Z</time></trkpt><trkpt lat="43.48405817326643" lon="11.460688625926158"><ele>640.0</ele><time>2026-04-26T09:03:06.001Z</time></trkpt><trkpt lat="43.48395961678841" lon="11.460642687721503"><ele>640.0</ele><time>2026-04-26T09:03:07.001Z</time></trkpt><trkpt lat="43.48386291300357" lon="11.46059839882126"><ele>640.0</ele><time>2026-04-26T09:03:08.001Z</time></trkpt><trkpt lat="43.48376154428998" lon="11.46054524809874"><ele>640.0</ele><time>2026-04-26T09:03:09.001Z</time></trkpt><trkpt lat="43.48365740804943" lon="11.460491400045514"><ele>640.0</ele><time>2026-04-26T09:03:10.001Z</time></trkpt><trkpt lat="43.48354631419204" lon="11.460432406581791"><ele>638.75</ele><time>2026-04-26T09:03:11Z</time></trkpt><trkpt lat="43.483439795575876" lon="11.46036974074811"><ele>637.5</ele><time>2026-04-26T09:03:12Z</time></trkpt><trkpt lat="43.48333360728668" lon="11.460315450258099"><ele>636.25</ele><time>2026-04-26T09:03:13Z</time></trkpt><trkpt lat="43.48322617784141" lon="11.460258521704102"><ele>635.0</ele><time>2026-04-26T09:03:14Z</time></trkpt><trkpt lat="43.48312052314508" lon="11.460198080282561"><ele>635.0</ele><time>2026-04-26T09:03:15Z</time></trkpt><trkpt lat="43.48302115218533" lon="11.460142633538451"><ele>635.0</ele><time>2026-04-26T09:03:16Z</time></trkpt><trkpt lat="43.48292716417723" lon="11.460086543989295"><ele>635.0</ele><time>2026-04-26T09:03:17Z</time></trkpt><trkpt lat="43.48283341878376" lon="11.460025227868185"><ele>635.0</ele><time>2026-04-26T09:03:18Z</time></trkpt><trkpt lat="43.482742538260496" lon="11.459960127624461"><ele>635.0</ele><time>2026-04-26T09:03:19Z</time></trkpt><trkpt lat="43.48265800123411" lon="11.459894083838119"><ele>635.1666666666666</ele><time>2026-04-26T09:03:19.999Z</time></trkpt><trkpt lat="43.48258321449005" lon="11.459831811177299"><ele>635.3333333333333</ele><time>2026-04-26T09:03:20.999Z</time></trkpt><trkpt lat="43.48251623281553" lon="11.459762655745537"><ele>635.5</ele><time>2026-04-26T09:03:21.999Z</time></trkpt><trkpt lat="43.482452598901176" lon="11.459688644527304"><ele>635.6666666666666</ele><time>2026-04-26T09:03:22.999Z</time></trkpt><trkpt lat="43.48239345050399" lon="11.459590614347468"><ele>635.8333333333334</ele><time>2026-04-26T09:03:23.999Z</time></trkpt><trkpt lat="43.482350939345416" lon="11.459480473916889"><ele>636.0</ele><time>2026-04-26T09:03:24.999Z</time></trkpt><trkpt lat="43.482347625862715" lon="11.459355766980526"><ele>636.0</ele><time>2026-04-26T09:03:25.999Z</time></trkpt><trkpt lat="43.48235495724029" lon="11.459236212035403"><ele>636.0</ele><time>2026-04-26T09:03:26.999Z</time></trkpt><trkpt lat="43.48238009449505" lon="11.459113639987576"><ele>636.0</ele><time>2026-04-26T09:03:27.999Z</time></trkpt><trkpt lat="43.48240117329247" lon="11.458983009199649"><ele>636.0</ele><time>2026-04-26T09:03:28.999Z</time></trkpt><trkpt lat="43.482416112871405" lon="11.45886438029299"><ele>636.0</ele><time>2026-04-26T09:03:29.999Z</time></trkpt><trkpt lat="43.4824072884994" lon="11.458737965843826"><ele>634.8333333333334</ele><time>2026-04-26T09:03:30.999Z</time></trkpt><trkpt lat="43.4823825655185" lon="11.458641616778321"><ele>633.6666666666666</ele><time>2026-04-26T09:03:31.999Z</time></trkpt><trkpt lat="43.482294082435466" lon="11.458532594362968"><ele>632.5</ele><time>2026-04-26T09:03:33.999Z</time></trkpt><trkpt lat="43.48224288182907" lon="11.458478172374951"><ele>631.3333333333333</ele><time>2026-04-26T09:03:34.999Z</time></trkpt><trkpt lat="43.482201010648545" lon="11.458394199170762"><ele>630.1666666666666</ele><time>2026-04-26T09:03:35.999Z</time></trkpt><trkpt lat="43.482158857707915" lon="11.458325230190129"><ele>629.0</ele><time>2026-04-26T09:03:36.999Z</time></trkpt><trkpt lat="43.48211173760874" lon="11.4581920273804"><ele>628.3333333333333</ele><time>2026-04-26T09:03:38.999Z</time></trkpt><trkpt lat="43.48209781870586" lon="11.458030415407837"><ele>627.6666666666666</ele><time>2026-04-26T09:03:40.999Z</time></trkpt><trkpt lat="43.482097591716396" lon="11.45793318746551"><ele>627.0</ele><time>2026-04-26T09:03:41.999Z</time></trkpt><trkpt lat="43.48210489464756" lon="11.457830933481455"><ele>626.3333333333334</ele><time>2026-04-26T09:03:42.999Z</time></trkpt><trkpt lat="43.48211298226275" lon="11.457718977715764"><ele>625.6666666666667</ele><time>2026-04-26T09:03:43.999Z</time></trkpt><trkpt lat="43.48211808339725" lon="11.457596203968812"><ele>625.0</ele><time>2026-04-26T09:03:44.999Z</time></trkpt><trkpt lat="43.48208904624539" lon="11.457495872884918"><ele>625.8333333333334</ele><time>2026-04-26T09:03:45.999Z</time></trkpt><trkpt lat="43.4820730118264" lon="11.457386374190476"><ele>626.6666666666667</ele><time>2026-04-26T09:03:46.999Z</time></trkpt><trkpt lat="43.482048059958814" lon="11.45728543997325"><ele>627.5</ele><time>2026-04-26T09:03:47.999Z</time></trkpt><trkpt lat="43.48204198156361" lon="11.457181620980409"><ele>628.3333333333334</ele><time>2026-04-26T09:03:48.999Z</time></trkpt><trkpt lat="43.4820182290794" lon="11.457080049611404"><ele>629.1666666666666</ele><time>2026-04-26T09:03:49.999Z</time></trkpt><trkpt lat="43.4819921066307" lon="11.456980603556355"><ele>630.0</ele><time>2026-04-26T09:03:50.999Z</time></trkpt><trkpt lat="43.48196290841807" lon="11.456884293970434"><ele>630.0</ele><time>2026-04-26T09:03:51.999Z</time></trkpt><trkpt lat="43.48193308071711" lon="11.456789016352152"><ele>630.0</ele><time>2026-04-26T09:03:52.999Z</time></trkpt><trkpt lat="43.48190475390006" lon="11.456699423225446"><ele>630.0</ele><time>2026-04-26T09:03:53.999Z</time></trkpt><trkpt lat="43.481874808246744" lon="11.456612593988533"><ele>630.0</ele><time>2026-04-26T09:03:54.999Z</time></trkpt><trkpt lat="43.481846889688896" lon="11.45652256140134"><ele>630.0</ele><time>2026-04-26T09:03:55.999Z</time></trkpt><trkpt lat="43.48182699210297" lon="11.456427952113103"><ele>630.0</ele><time>2026-04-26T09:03:56.999Z</time></trkpt><trkpt lat="43.48182263209799" lon="11.456325434680872"><ele>630.0</ele><time>2026-04-26T09:03:57.999Z</time></trkpt><trkpt lat="43.4818255496837" lon="11.456223800764382"><ele>630.1428571428571</ele><time>2026-04-26T09:03:58.999Z</time></trkpt><trkpt lat="43.48183152498283" lon="11.4561258672738"><ele>630.2857142857142</ele><time>2026-04-26T09:03:59.999Z</time></trkpt><trkpt lat="43.481842309724414" lon="11.456034615769735"><ele>630.4285714285714</ele><time>2026-04-26T09:04:00.999Z</time></trkpt><trkpt lat="43.48186164774759" lon="11.455944548462748"><ele>630.5714285714286</ele><time>2026-04-26T09:04:01.999Z</time></trkpt><trkpt lat="43.481898118767134" lon="11.455865038957317"><ele>630.7142857142857</ele><time>2026-04-26T09:04:02.999Z</time></trkpt><trkpt lat="43.481941922859185" lon="11.455779065493317"><ele>630.8571428571429</ele><time>2026-04-26T09:04:03.999Z</time></trkpt><trkpt lat="43.4819801654501" lon="11.455689487260678"><ele>631.0</ele><time>2026-04-26T09:04:04.999Z</time></trkpt><trkpt lat="43.48200684064642" lon="11.455607021784374"><ele>631.0</ele><time>2026-04-26T09:04:05.999Z</time></trkpt><trkpt lat="43.48201346072508" lon="11.45551553575386"><ele>631.0</ele><time>2026-04-26T09:04:06.999Z</time></trkpt><trkpt lat="43.48200659195619" lon="11.455350059949078"><ele>631.0</ele><time>2026-04-26T09:04:08.999Z</time></trkpt><trkpt lat="43.48198915876129" lon="11.455258035347866"><ele>631.0</ele><time>2026-04-26T09:04:09.999Z</time></trkpt><trkpt lat="43.48194276652589" lon="11.455128006996553"><ele>631.0</ele><time>2026-04-26T09:04:10.999Z</time></trkpt><trkpt lat="43.48189995321033" lon="11.455022683628782"><ele>631.0</ele><time>2026-04-26T09:04:11.999Z</time></trkpt><trkpt lat="43.48185509985573" lon="11.454914615166034"><ele>631.1666666666667</ele><time>2026-04-26T09:04:12.999Z</time></trkpt><trkpt lat="43.481815440491495" lon="11.45480953340945"><ele>631.3333333333334</ele><time>2026-04-26T09:04:13.999Z</time></trkpt><trkpt lat="43.481779562620574" lon="11.454694497720299"><ele>631.5</ele><time>2026-04-26T09:04:14.999Z</time></trkpt><trkpt lat="43.48175108536152" lon="11.454583739580299"><ele>631.6666666666666</ele><time>2026-04-26T09:04:15.999Z</time></trkpt><trkpt lat="43.48172406190234" lon="11.45446101035952"><ele>631.8333333333333</ele><time>2026-04-26T09:04:16.999Z</time></trkpt><trkpt lat="43.481702569904655" lon="11.454334480026574"><ele>632.0</ele><time>2026-04-26T09:04:17.999Z</time></trkpt><trkpt lat="43.48168303286196" lon="11.45420674383681"><ele>632.0</ele><time>2026-04-26T09:04:18.999Z</time></trkpt><trkpt lat="43.48168807867108" lon="11.454089876631272"><ele>632.0</ele><time>2026-04-26T09:04:19.999Z</time></trkpt><trkpt lat="43.48168917424974" lon="11.453968498022011"><ele>632.0</ele><time>2026-04-26T09:04:20.999Z</time></trkpt><trkpt lat="43.481692834287266" lon="11.453852543499696"><ele>632.0</ele><time>2026-04-26T09:04:21.999Z</time></trkpt><trkpt lat="43.48169414967081" lon="11.45375001216438"><ele>632.0</ele><time>2026-04-26T09:04:22.999Z</time></trkpt><trkpt lat="43.48168694839621" lon="11.45365693974809"><ele>632.0</ele><time>2026-04-26T09:04:23.999Z</time></trkpt><trkpt lat="43.481662597342925" lon="11.45357580377699"><ele>633.4</ele><time>2026-04-26T09:04:24.999Z</time></trkpt><trkpt lat="43.48156528161881" lon="11.453469463245202"><ele>634.8000000000001</ele><time>2026-04-26T09:04:26.999Z</time></trkpt><trkpt lat="43.48149412660069" lon="11.453416357966983"><ele>636.2</ele><time>2026-04-26T09:04:27.999Z</time></trkpt><trkpt lat="43.48140423077275" lon="11.453366719330417"><ele>637.6</ele><time>2026-04-26T09:04:28.999Z</time></trkpt><trkpt lat="43.48131752981045" lon="11.4533450549527"><ele>639.0</ele><time>2026-04-26T09:04:29.999Z</time></trkpt><trkpt lat="43.481211724049125" lon="11.45332335948061"><ele>639.0</ele><time>2026-04-26T09:04:30.999Z</time></trkpt><trkpt lat="43.48111771028796" lon="11.45329577879217"><ele>639.0</ele><time>2026-04-26T09:04:31.999Z</time></trkpt><trkpt lat="43.48102063579425" lon="11.45326252341498"><ele>639.0</ele><time>2026-04-26T09:04:32.999Z</time></trkpt><trkpt lat="43.480917037680435" lon="11.453229681945091"><ele>639.0</ele><time>2026-04-26T09:04:33.999Z</time></trkpt><trkpt lat="43.480820494131464" lon="11.453173574130336"><ele>639.0</ele><time>2026-04-26T09:04:34.999Z</time></trkpt><trkpt lat="43.48072504277367" lon="11.453106597327531"><ele>639.0</ele><time>2026-04-26T09:04:35.999Z</time></trkpt><trkpt lat="43.48065807412722" lon="11.453024519746705"><ele>639.0</ele><time>2026-04-26T09:04:36.999Z</time></trkpt><trkpt lat="43.48062783516856" lon="11.452920173194519"><ele>639.0</ele><time>2026-04-26T09:04:37.999Z</time></trkpt><trkpt lat="43.48064397131045" lon="11.452811754340017"><ele>639.0</ele><time>2026-04-26T09:04:38.999Z</time></trkpt><trkpt lat="43.480646857873275" lon="11.452682305190162"><ele>639.0</ele><time>2026-04-26T09:04:39.999Z</time></trkpt><trkpt lat="43.48064606138148" lon="11.452521339356457"><ele>637.3333333333334</ele><time>2026-04-26T09:04:40.999Z</time></trkpt><trkpt lat="43.48064933664264" lon="11.452376883366489"><ele>635.6666666666666</ele><time>2026-04-26T09:04:41.999Z</time></trkpt><trkpt lat="43.48066050821655" lon="11.45225539337332"><ele>634.0</ele><time>2026-04-26T09:04:42.999Z</time></trkpt><trkpt lat="43.48067988304359" lon="11.452150043164044"><ele>632.3333333333333</ele><time>2026-04-26T09:04:43.999Z</time></trkpt><trkpt lat="43.48076209440983" lon="11.45204937372355"><ele>630.6666666666666</ele><time>2026-04-26T09:04:45.999Z</time></trkpt><trkpt lat="43.48081886472509" lon="11.45201128513558"><ele>629.0</ele><time>2026-04-26T09:04:46.999Z</time></trkpt><trkpt lat="43.480977342346556" lon="11.451963999948912"><ele>629.0</ele><time>2026-04-26T09:04:47.999Z</time></trkpt><trkpt lat="43.481087202525565" lon="11.45194300831465"><ele>629.0</ele><time>2026-04-26T09:04:48.999Z</time></trkpt><trkpt lat="43.48120615777627" lon="11.451917067236991"><ele>629.0</ele><time>2026-04-26T09:04:49.999Z</time></trkpt><trkpt lat="43.48132720114667" lon="11.451880651968175"><ele>629.0</ele><time>2026-04-26T09:04:50.999Z</time></trkpt><trkpt lat="43.48146019785045" lon="11.451835492468287"><ele>633.6666666666666</ele><time>2026-04-26T09:04:51.999Z</time></trkpt><trkpt lat="43.48160806044432" lon="11.451773575962656"><ele>638.3333333333334</ele><time>2026-04-26T09:04:52.999Z</time></trkpt><trkpt lat="43.481757465288474" lon="11.451696294595905"><ele>643.0</ele><time>2026-04-26T09:04:53.999Z</time></trkpt><trkpt lat="43.481902160183324" lon="11.451609855227982"><ele>643.0</ele><time>2026-04-26T09:04:54.999Z</time></trkpt><trkpt lat="43.48204355458846" lon="11.451515524113322"><ele>643.0</ele><time>2026-04-26T09:04:55.999Z</time></trkpt><trkpt lat="43.48218501982218" lon="11.451413257432694"><ele>643.0</ele><time>2026-04-26T09:04:56.999Z</time></trkpt><trkpt lat="43.48232591007896" lon="11.451304396606977"><ele>642.6666666666667</ele><time>2026-04-26T09:04:58Z</time></trkpt><trkpt lat="43.48246386418922" lon="11.45119364556568"><ele>642.3333333333334</ele><time>2026-04-26T09:04:59Z</time></trkpt><trkpt lat="43.48260585476747" lon="11.451085505666851"><ele>642.0</ele><time>2026-04-26T09:05:00Z</time></trkpt><trkpt lat="43.482742661524405" lon="11.450982747022811"><ele>642.0</ele><time>2026-04-26T09:05:01Z</time></trkpt><trkpt lat="43.48287036408549" lon="11.450888194371906"><ele>642.0</ele><time>2026-04-26T09:05:02Z</time></trkpt><trkpt lat="43.482989410145514" lon="11.450805997262284"><ele>642.0</ele><time>2026-04-26T09:05:03Z</time></trkpt><trkpt lat="43.483104068182726" lon="11.450737971265044"><ele>642.0</ele><time>2026-04-26T09:05:04Z</time></trkpt><trkpt lat="43.48321509306854" lon="11.450699753828665"><ele>644.75</ele><time>2026-04-26T09:05:05Z</time></trkpt><trkpt lat="43.483333258611026" lon="11.450673022364441"><ele>647.5</ele><time>2026-04-26T09:05:06Z</time></trkpt><trkpt lat="43.483462630789134" lon="11.450654910910835"><ele>650.25</ele><time>2026-04-26T09:05:07Z</time></trkpt><trkpt lat="43.48358856153104" lon="11.450646158746334"><ele>653.0</ele><time>2026-04-26T09:05:08Z</time></trkpt><trkpt lat="43.48370989923682" lon="11.450620517680479"><ele>651.5</ele><time>2026-04-26T09:05:09Z</time></trkpt><trkpt lat="43.48382825658324" lon="11.450625733451115"><ele>650.0</ele><time>2026-04-26T09:05:10Z</time></trkpt><trkpt lat="43.48394506366786" lon="11.450634963628564"><ele>648.5</ele><time>2026-04-26T09:05:11Z</time></trkpt><trkpt lat="43.48406004580398" lon="11.45065742832153"><ele>647.0</ele><time>2026-04-26T09:05:12Z</time></trkpt><trkpt lat="43.48417146818303" lon="11.450711767507824"><ele>647.0</ele><time>2026-04-26T09:05:13Z</time></trkpt><trkpt lat="43.48428475366303" lon="11.45074858171774"><ele>647.0</ele><time>2026-04-26T09:05:14Z</time></trkpt><trkpt lat="43.48440457477442" lon="11.450772411820932"><ele>647.0</ele><time>2026-04-26T09:05:15Z</time></trkpt><trkpt lat="43.484520388954465" lon="11.45082455944091"><ele>647.0</ele><time>2026-04-26T09:05:16Z</time></trkpt><trkpt lat="43.484643688779336" lon="11.450868550603873"><ele>644.0</ele><time>2026-04-26T09:05:17Z</time></trkpt><trkpt lat="43.48476620142627" lon="11.450909179041325"><ele>641.0</ele><time>2026-04-26T09:05:18Z</time></trkpt><trkpt lat="43.48488889269764" lon="11.450953946070115"><ele>638.0</ele><time>2026-04-26T09:05:19Z</time></trkpt><trkpt lat="43.48501246058789" lon="11.450997228128418"><ele>635.0</ele><time>2026-04-26T09:05:20Z</time></trkpt><trkpt lat="43.48514199636448" lon="11.451027640389"><ele>635.0</ele><time>2026-04-26T09:05:21Z</time></trkpt><trkpt lat="43.48527184974664" lon="11.451051047237279"><ele>635.0</ele><time>2026-04-26T09:05:22Z</time></trkpt><trkpt lat="43.48539888319304" lon="11.451073599609726"><ele>635.0</ele><time>2026-04-26T09:05:23Z</time></trkpt><trkpt lat="43.48552529827742" lon="11.451096160374885"><ele>635.0</ele><time>2026-04-26T09:05:24Z</time></trkpt><trkpt lat="43.48565150832118" lon="11.45111520579548"><ele>632.25</ele><time>2026-04-26T09:05:25Z</time></trkpt><trkpt lat="43.48578505285923" lon="11.451136608370302"><ele>629.5</ele><time>2026-04-26T09:05:26Z</time></trkpt><trkpt lat="43.485904999708744" lon="11.451158728794722"><ele>626.75</ele><time>2026-04-26T09:05:27Z</time></trkpt><trkpt lat="43.48603178783513" lon="11.451195554882318"><ele>624.0</ele><time>2026-04-26T09:05:28Z</time></trkpt><trkpt lat="43.486157979574365" lon="11.451226108396654"><ele>621.5</ele><time>2026-04-26T09:05:29Z</time></trkpt><trkpt lat="43.48628263152436" lon="11.451254389139955"><ele>619.0</ele><time>2026-04-26T09:05:30Z</time></trkpt><trkpt lat="43.48641169956605" lon="11.451278001706036"><ele>616.5</ele><time>2026-04-26T09:05:31Z</time></trkpt><trkpt lat="43.486536241211724" lon="11.451294656412525"><ele>614.0</ele><time>2026-04-26T09:05:32Z</time></trkpt><trkpt lat="43.48666517824107" lon="11.451315707845291"><ele>614.0</ele><time>2026-04-26T09:05:33Z</time></trkpt><trkpt lat="43.486786237571906" lon="11.45134179687018"><ele>614.0</ele><time>2026-04-26T09:05:34Z</time></trkpt><trkpt lat="43.486910129615374" lon="11.451382399065515"><ele>614.0</ele><time>2026-04-26T09:05:35Z</time></trkpt><trkpt lat="43.48703695531171" lon="11.451438321096186"><ele>614.0</ele><time>2026-04-26T09:05:36Z</time></trkpt><trkpt lat="43.48716181031668" lon="11.451503464706185"><ele>613.75</ele><time>2026-04-26T09:05:37Z</time></trkpt><trkpt lat="43.48729230141188" lon="11.451566176127129"><ele>613.5</ele><time>2026-04-26T09:05:38Z</time></trkpt><trkpt lat="43.487421060821774" lon="11.451622449039581"><ele>613.25</ele><time>2026-04-26T09:05:39Z</time></trkpt><trkpt lat="43.48754339094688" lon="11.45167595649753"><ele>613.0</ele><time>2026-04-26T09:05:40Z</time></trkpt><trkpt lat="43.48766080094485" lon="11.4517278925394"><ele>613.0</ele><time>2026-04-26T09:05:41Z</time></trkpt><trkpt lat="43.48777500194282" lon="11.451770595700548"><ele>613.0</ele><time>2026-04-26T09:05:42Z</time></trkpt><trkpt lat="43.48788785038539" lon="11.451793703084185"><ele>613.0</ele><time>2026-04-26T09:05:43Z</time></trkpt><trkpt lat="43.487995438793895" lon="11.45180124831345"><ele>613.0</ele><time>2026-04-26T09:05:44Z</time></trkpt><trkpt lat="43.488094216952064" lon="11.451799552234586"><ele>613.0</ele><time>2026-04-26T09:05:45Z</time></trkpt><trkpt lat="43.48818525911701" lon="11.451775971774195"><ele>612.0</ele><time>2026-04-26T09:05:46Z</time></trkpt><trkpt lat="43.48828265538821" lon="11.451740809857064"><ele>611.0</ele><time>2026-04-26T09:05:46.999Z</time></trkpt><trkpt lat="43.488357365559146" lon="11.451630215766421"><ele>610.0</ele><time>2026-04-26T09:05:47.999Z</time></trkpt><trkpt lat="43.48843005816154" lon="11.451536061009072"><ele>609.0</ele><time>2026-04-26T09:05:48.999Z</time></trkpt><trkpt lat="43.48850292764654" lon="11.451440876196942"><ele>608.0</ele><time>2026-04-26T09:05:49.999Z</time></trkpt><trkpt lat="43.488583841374705" lon="11.45135326639183"><ele>607.8</ele><time>2026-04-26T09:05:50.999Z</time></trkpt><trkpt lat="43.48866644703629" lon="11.451268780694322"><ele>607.5999999999999</ele><time>2026-04-26T09:05:51.999Z</time></trkpt><trkpt lat="43.48875810385598" lon="11.451183936117097"><ele>607.4000000000001</ele><time>2026-04-26T09:05:52.999Z</time></trkpt><trkpt lat="43.48885907851975" lon="11.451125609877447"><ele>607.2</ele><time>2026-04-26T09:05:53.999Z</time></trkpt><trkpt lat="43.48895934883339" lon="11.45107546176615"><ele>607.0</ele><time>2026-04-26T09:05:54.999Z</time></trkpt><trkpt lat="43.48905512898459" lon="11.451030207091495"><ele>604.6666666666667</ele><time>2026-04-26T09:05:55.999Z</time></trkpt><trkpt lat="43.489141114019546" lon="11.450989580466663"><ele>602.3333333333334</ele><time>2026-04-26T09:05:56.999Z</time></trkpt><trkpt lat="43.489205816275664" lon="11.450930784020093"><ele>600.0</ele><time>2026-04-26T09:05:57.999Z</time></trkpt><trkpt lat="43.48927273032283" lon="11.450913398447339"><ele>597.6666666666666</ele><time>2026-04-26T09:05:58.999Z</time></trkpt><trkpt lat="43.48936020463394" lon="11.450881046743422"><ele>595.3333333333333</ele><time>2026-04-26T09:06:00.999Z</time></trkpt><trkpt lat="43.48940593155193" lon="11.450791796061987"><ele>593.0</ele><time>2026-04-26T09:06:06.999Z</time></trkpt><trkpt lat="43.48944804742331" lon="11.45063045840622"><ele>593.0</ele><time>2026-04-26T09:06:08.999Z</time></trkpt><trkpt lat="43.48948402641345" lon="11.450547939681707"><ele>593.0</ele><time>2026-04-26T09:06:09.999Z</time></trkpt><trkpt lat="43.48956707141715" lon="11.450494830534522"><ele>593.0</ele><time>2026-04-26T09:06:10.999Z</time></trkpt><trkpt lat="43.48965493176358" lon="11.450456939190813"><ele>593.0</ele><time>2026-04-26T09:06:11.999Z</time></trkpt><trkpt lat="43.48975900953468" lon="11.450423747888646"><ele>593.0</ele><time>2026-04-26T09:06:12.999Z</time></trkpt><trkpt lat="43.48987899963098" lon="11.45042868207094"><ele>593.0</ele><time>2026-04-26T09:06:13.999Z</time></trkpt><trkpt lat="43.490010783226275" lon="11.45045869179373"><ele>593.0</ele><time>2026-04-26T09:06:14.999Z</time></trkpt><trkpt lat="43.490152101872866" lon="11.450475140006686"><ele>593.0</ele><time>2026-04-26T09:06:15.999Z</time></trkpt><trkpt lat="43.49028204085824" lon="11.450512287364692"><ele>593.0</ele><time>2026-04-26T09:06:16.999Z</time></trkpt><trkpt lat="43.49042263631334" lon="11.45051421952525"><ele>594.75</ele><time>2026-04-26T09:06:17.999Z</time></trkpt><trkpt lat="43.49056097503196" lon="11.450494330983862"><ele>596.5</ele><time>2026-04-26T09:06:18.999Z</time></trkpt><trkpt lat="43.49067037506602" lon="11.450462184676141"><ele>598.25</ele><time>2026-04-26T09:06:19.999Z</time></trkpt><trkpt lat="43.490768633741006" lon="11.45043759807473"><ele>600.0</ele><time>2026-04-26T09:06:20.999Z</time></trkpt><trkpt lat="43.49083909335012" lon="11.450331880091097"><ele>603.6</ele><time>2026-04-26T09:06:21.999Z</time></trkpt><trkpt lat="43.49087172806812" lon="11.45018749361615"><ele>607.2</ele><time>2026-04-26T09:06:22.999Z</time></trkpt><trkpt lat="43.49081517199482" lon="11.450034054909288"><ele>610.8</ele><time>2026-04-26T09:06:23.999Z</time></trkpt><trkpt lat="43.49073774372389" lon="11.44993846665439"><ele>614.4</ele><time>2026-04-26T09:06:24.999Z</time></trkpt><trkpt lat="43.49062901361841" lon="11.449911253468548"><ele>618.0</ele><time>2026-04-26T09:06:25.999Z</time></trkpt><trkpt lat="43.490517147443605" lon="11.44995478573829"><ele>615.25</ele><time>2026-04-26T09:06:26.999Z</time></trkpt><trkpt lat="43.49040190539786" lon="11.450015891272654"><ele>612.5</ele><time>2026-04-26T09:06:27.999Z</time></trkpt><trkpt lat="43.49028568390037" lon="11.450008868303051"><ele>609.75</ele><time>2026-04-26T09:06:28.999Z</time></trkpt><trkpt lat="43.49019831501583" lon="11.449896895841258"><ele>607.0</ele><time>2026-04-26T09:06:29.999Z</time></trkpt><trkpt lat="43.49008521413816" lon="11.44980093856455"><ele>607.0</ele><time>2026-04-26T09:06:30.999Z</time></trkpt><trkpt lat="43.489982633627264" lon="11.449683946372748"><ele>607.0</ele><time>2026-04-26T09:06:31.999Z</time></trkpt><trkpt lat="43.48989524161119" lon="11.449584143757088"><ele>607.0</ele><time>2026-04-26T09:06:32.999Z</time></trkpt><trkpt lat="43.48985429554765" lon="11.449455766664167"><ele>607.0</ele><time>2026-04-26T09:06:33.999Z</time></trkpt><trkpt lat="43.48982739367119" lon="11.449338334604805"><ele>607.0</ele><time>2026-04-26T09:06:34.999Z</time></trkpt><trkpt lat="43.48982480902171" lon="11.44920396872955"><ele>610.0</ele><time>2026-04-26T09:06:35.999Z</time></trkpt><trkpt lat="43.489836844665234" lon="11.44904370125462"><ele>613.0</ele><time>2026-04-26T09:06:36.999Z</time></trkpt><trkpt lat="43.48983393470531" lon="11.44888387290412"><ele>616.0</ele><time>2026-04-26T09:06:37.999Z</time></trkpt><trkpt lat="43.489856067636445" lon="11.448734588553387"><ele>619.0</ele><time>2026-04-26T09:06:38.999Z</time></trkpt><trkpt lat="43.489863397777484" lon="11.448585705923495"><ele>622.0</ele><time>2026-04-26T09:06:39.999Z</time></trkpt><trkpt lat="43.48984935204787" lon="11.448440111466835"><ele>625.0</ele><time>2026-04-26T09:06:40.999Z</time></trkpt><trkpt lat="43.48980498513749" lon="11.448288544866488"><ele>628.0</ele><time>2026-04-26T09:06:41.999Z</time></trkpt><trkpt lat="43.489713373115876" lon="11.44819253007912"><ele>631.0</ele><time>2026-04-26T09:06:42.999Z</time></trkpt><trkpt lat="43.489626552916725" lon="11.448074873278113"><ele>632.75</ele><time>2026-04-26T09:06:43.999Z</time></trkpt><trkpt lat="43.489546292353985" lon="11.447954759883771"><ele>634.5</ele><time>2026-04-26T09:06:44.999Z</time></trkpt><trkpt lat="43.48945889404368" lon="11.447835876591297"><ele>636.25</ele><time>2026-04-26T09:06:45.999Z</time></trkpt><trkpt lat="43.489358810088774" lon="11.447734000765475"><ele>638.0</ele><time>2026-04-26T09:06:46.999Z</time></trkpt><trkpt lat="43.48923780834138" lon="11.447751864291055"><ele>638.0</ele><time>2026-04-26T09:06:47.999Z</time></trkpt><trkpt lat="43.48909414682215" lon="11.447717894711893"><ele>638.0</ele><time>2026-04-26T09:06:48.999Z</time></trkpt><trkpt lat="43.48894897450171" lon="11.447672713228776"><ele>638.0</ele><time>2026-04-26T09:06:49.999Z</time></trkpt><trkpt lat="43.48885032426799" lon="11.447569481553327"><ele>638.0</ele><time>2026-04-26T09:06:50.999Z</time></trkpt><trkpt lat="43.488779376189925" lon="11.44748230034362"><ele>637.0</ele><time>2026-04-26T09:06:51.999Z</time></trkpt><trkpt lat="43.48870837974647" lon="11.44738077835844"><ele>636.0</ele><time>2026-04-26T09:06:52.999Z</time></trkpt><trkpt lat="43.48863128191588" lon="11.447260134373819"><ele>635.0</ele><time>2026-04-26T09:06:53.999Z</time></trkpt><trkpt lat="43.48854571409493" lon="11.447114101813195"><ele>634.0</ele><time>2026-04-26T09:06:54.999Z</time></trkpt><trkpt lat="43.488462968635034" lon="11.44696647476634"><ele>634.0</ele><time>2026-04-26T09:06:55.999Z</time></trkpt><trkpt lat="43.48838153763359" lon="11.446812720642813"><ele>634.0</ele><time>2026-04-26T09:06:56.999Z</time></trkpt><trkpt lat="43.48832112512113" lon="11.446649362043058"><ele>634.0</ele><time>2026-04-26T09:06:57.999Z</time></trkpt><trkpt lat="43.4882674998079" lon="11.446477086596602"><ele>634.0</ele><time>2026-04-26T09:06:58.999Z</time></trkpt><trkpt lat="43.488211907473534" lon="11.446300683926722"><ele>637.5</ele><time>2026-04-26T09:06:59.999Z</time></trkpt><trkpt lat="43.48813748435487" lon="11.44612499788827"><ele>641.0</ele><time>2026-04-26T09:07:00.999Z</time></trkpt><trkpt lat="43.488032268458674" lon="11.445974097390819"><ele>644.5</ele><time>2026-04-26T09:07:01.999Z</time></trkpt><trkpt lat="43.4879747433926" lon="11.445810511534365"><ele>648.0</ele><time>2026-04-26T09:07:02.999Z</time></trkpt><trkpt lat="43.48794664753563" lon="11.44565963203294"><ele>642.5</ele><time>2026-04-26T09:07:04Z</time></trkpt><trkpt lat="43.487924362547744" lon="11.445494894319669"><ele>637.0</ele><time>2026-04-26T09:07:05Z</time></trkpt><trkpt lat="43.487901815418624" lon="11.445321736255275"><ele>631.5</ele><time>2026-04-26T09:07:06Z</time></trkpt><trkpt lat="43.48788331680148" lon="11.445152950551615"><ele>626.0</ele><time>2026-04-26T09:07:07Z</time></trkpt><trkpt lat="43.48788205033461" lon="11.444979023925896"><ele>626.0</ele><time>2026-04-26T09:07:08Z</time></trkpt><trkpt lat="43.48790665189089" lon="11.444819055115873"><ele>626.0</ele><time>2026-04-26T09:07:09Z</time></trkpt><trkpt lat="43.487945618984234" lon="11.444662533408136"><ele>626.0</ele><time>2026-04-26T09:07:10Z</time></trkpt><trkpt lat="43.487992254178984" lon="11.444507135627568"><ele>626.0</ele><time>2026-04-26T09:07:11Z</time></trkpt><trkpt lat="43.488024777521154" lon="11.444426790336895"><ele>626.0</ele><time>2026-04-26T09:07:12Z</time></trkpt><trkpt lat="43.48808262456464" lon="11.444336188573432"><ele>629.6</ele><time>2026-04-26T09:07:13Z</time></trkpt><trkpt lat="43.48815942346978" lon="11.444279273623215"><ele>633.2</ele><time>2026-04-26T09:07:14Z</time></trkpt><trkpt lat="43.48825508434872" lon="11.444237205015718"><ele>636.8000000000001</ele><time>2026-04-26T09:07:15Z</time></trkpt><trkpt lat="43.488369145494346" lon="11.444220857994573"><ele>640.4000000000001</ele><time>2026-04-26T09:07:16Z</time></trkpt><trkpt lat="43.48848358166095" lon="11.444237101932186"><ele>644.0</ele><time>2026-04-26T09:07:17Z</time></trkpt><trkpt lat="43.488590577678536" lon="11.444261315784749"><ele>644.0</ele><time>2026-04-26T09:07:18Z</time></trkpt><trkpt lat="43.488687456984856" lon="11.44429403172362"><ele>644.0</ele><time>2026-04-26T09:07:19Z</time></trkpt><trkpt lat="43.48880508197015" lon="11.444311765362539"><ele>644.0</ele><time>2026-04-26T09:07:20Z</time></trkpt><trkpt lat="43.488909356067595" lon="11.444276168282041"><ele>644.0</ele><time>2026-04-26T09:07:21Z</time></trkpt><trkpt lat="43.48900545530863" lon="11.444151411419796"><ele>643.25</ele><time>2026-04-26T09:07:22Z</time></trkpt><trkpt lat="43.48906180137217" lon="11.444006439169797"><ele>642.5</ele><time>2026-04-26T09:07:23Z</time></trkpt><trkpt lat="43.489128964576885" lon="11.443782697716923"><ele>641.75</ele><time>2026-04-26T09:07:24Z</time></trkpt><trkpt lat="43.4892251220642" lon="11.443663920665559"><ele>641.0</ele><time>2026-04-26T09:07:25Z</time></trkpt><trkpt lat="43.48933617955192" lon="11.44355717626785"><ele>641.0</ele><time>2026-04-26T09:07:26Z</time></trkpt><trkpt lat="43.489442595516614" lon="11.443460123654116"><ele>641.0</ele><time>2026-04-26T09:07:27Z</time></trkpt><trkpt lat="43.4895658942072" lon="11.443357490228117"><ele>641.0</ele><time>2026-04-26T09:07:28Z</time></trkpt><trkpt lat="43.489685667048825" lon="11.443294408960766"><ele>641.0</ele><time>2026-04-26T09:07:29Z</time></trkpt><trkpt lat="43.48981179607462" lon="11.443263491828018"><ele>646.25</ele><time>2026-04-26T09:07:30Z</time></trkpt><trkpt lat="43.48993014517409" lon="11.443261837934308"><ele>651.5</ele><time>2026-04-26T09:07:31Z</time></trkpt><trkpt lat="43.490068792739955" lon="11.443266763582228"><ele>656.75</ele><time>2026-04-26T09:07:32Z</time></trkpt><trkpt lat="43.49020622653773" lon="11.443245175579126"><ele>662.0</ele><time>2026-04-26T09:07:33Z</time></trkpt><trkpt lat="43.49036630696465" lon="11.443163116038466"><ele>665.0</ele><time>2026-04-26T09:07:34Z</time></trkpt><trkpt lat="43.49050939530963" lon="11.443072585023092"><ele>668.0</ele><time>2026-04-26T09:07:35Z</time></trkpt><trkpt lat="43.4906426193831" lon="11.443008625694953"><ele>671.0</ele><time>2026-04-26T09:07:36Z</time></trkpt><trkpt lat="43.49078478734347" lon="11.443004568350728"><ele>674.0</ele><time>2026-04-26T09:07:37Z</time></trkpt><trkpt lat="43.490945909073766" lon="11.44302659749671"><ele>674.0</ele><time>2026-04-26T09:07:38Z</time></trkpt><trkpt lat="43.491095723647724" lon="11.443046033548782"><ele>674.0</ele><time>2026-04-26T09:07:39Z</time></trkpt><trkpt lat="43.49122784569528" lon="11.443051455219557"><ele>674.0</ele><time>2026-04-26T09:07:40Z</time></trkpt><trkpt lat="43.49133186990829" lon="11.443122504002186"><ele>674.0</ele><time>2026-04-26T09:07:41Z</time></trkpt><trkpt lat="43.491434079351826" lon="11.443229771736847"><ele>674.25</ele><time>2026-04-26T09:07:42Z</time></trkpt><trkpt lat="43.491530569035355" lon="11.443355453690751"><ele>674.5</ele><time>2026-04-26T09:07:43Z</time></trkpt><trkpt lat="43.49161975567757" lon="11.443484926061743"><ele>674.75</ele><time>2026-04-26T09:07:44Z</time></trkpt><trkpt lat="43.49172027651801" lon="11.443614948544951"><ele>675.0</ele><time>2026-04-26T09:07:45Z</time></trkpt><trkpt lat="43.491819075959896" lon="11.443757382926037"><ele>680.25</ele><time>2026-04-26T09:07:46Z</time></trkpt><trkpt lat="43.491909437104354" lon="11.443867828393989"><ele>685.5</ele><time>2026-04-26T09:07:47Z</time></trkpt><trkpt lat="43.49199346946329" lon="11.44394919534972"><ele>690.75</ele><time>2026-04-26T09:07:48Z</time></trkpt><trkpt lat="43.49206942795909" lon="11.444001400024927"><ele>696.0</ele><time>2026-04-26T09:07:49Z</time></trkpt><trkpt lat="43.49221914304893" lon="11.444002936332193"><ele>696.0</ele><time>2026-04-26T09:07:51Z</time></trkpt><trkpt lat="43.492320342202625" lon="11.44389838899228"><ele>696.0</ele><time>2026-04-26T09:07:52Z</time></trkpt><trkpt lat="43.49237382993678" lon="11.443797298691194"><ele>696.0</ele><time>2026-04-26T09:07:53Z</time></trkpt><trkpt lat="43.49243213074659" lon="11.443635079678785"><ele>696.0</ele><time>2026-04-26T09:07:54Z</time></trkpt><trkpt lat="43.492478665824905" lon="11.443441809266057"><ele>693.75</ele><time>2026-04-26T09:07:55Z</time></trkpt><trkpt lat="43.492518630264705" lon="11.443262602730046"><ele>691.5</ele><time>2026-04-26T09:07:56Z</time></trkpt><trkpt lat="43.4925599681913" lon="11.443077237259116"><ele>689.25</ele><time>2026-04-26T09:07:57Z</time></trkpt><trkpt lat="43.49260180184974" lon="11.44291108618589"><ele>687.0</ele><time>2026-04-26T09:07:58Z</time></trkpt><trkpt lat="43.492654951494714" lon="11.442749135051272"><ele>684.5</ele><time>2026-04-26T09:07:59Z</time></trkpt><trkpt lat="43.49272073317094" lon="11.442607193212483"><ele>682.0</ele><time>2026-04-26T09:08:00Z</time></trkpt><trkpt lat="43.49278925095687" lon="11.442478496125164"><ele>679.5</ele><time>2026-04-26T09:08:01Z</time></trkpt><trkpt lat="43.49288718691627" lon="11.442363275851124"><ele>677.0</ele><time>2026-04-26T09:08:02Z</time></trkpt><trkpt lat="43.492991392384965" lon="11.442273484024993"><ele>677.2</ele><time>2026-04-26T09:08:03Z</time></trkpt><trkpt lat="43.49308973979129" lon="11.442196370858372"><ele>677.4000000000001</ele><time>2026-04-26T09:08:04Z</time></trkpt><trkpt lat="43.493186607653044" lon="11.44215182488933"><ele>677.5999999999999</ele><time>2026-04-26T09:08:05Z</time></trkpt><trkpt lat="43.493282125163034" lon="11.442115238537559"><ele>677.8</ele><time>2026-04-26T09:08:06Z</time></trkpt><trkpt lat="43.49338602604908" lon="11.442132162875218"><ele>678.0</ele><time>2026-04-26T09:08:06.999Z</time></trkpt><trkpt lat="43.493477931844566" lon="11.442105855209546"><ele>682.1666666666666</ele><time>2026-04-26T09:08:07.999Z</time></trkpt><trkpt lat="43.493541994143335" lon="11.442134364067266"><ele>686.3333333333334</ele><time>2026-04-26T09:08:08.999Z</time></trkpt><trkpt lat="43.493499920858156" lon="11.4422139947513"><ele>690.5</ele><time>2026-04-26T09:08:13.999Z</time></trkpt><trkpt lat="43.493419839215115" lon="11.442215507060068"><ele>694.6666666666667</ele><time>2026-04-26T09:08:16.999Z</time></trkpt><trkpt lat="43.49332300299691" lon="11.442179944706805"><ele>698.8333333333334</ele><time>2026-04-26T09:09:21Z</time></trkpt><trkpt lat="43.49321653407349" lon="11.442204469020135"><ele>703.0</ele><time>2026-04-26T09:09:23Z</time></trkpt><trkpt lat="43.49312462665188" lon="11.442282064540931"><ele>703.0</ele><time>2026-04-26T09:09:25Z</time></trkpt><trkpt lat="43.49300888400722" lon="11.442210355796545"><ele>703.0</ele><time>2026-04-26T09:09:26Z</time></trkpt><trkpt lat="43.49295213688126" lon="11.442256365352598"><ele>703.0</ele><time>2026-04-26T09:09:27Z</time></trkpt><trkpt lat="43.492898577243174" lon="11.442307341786542"><ele>703.0</ele><time>2026-04-26T09:09:28Z</time></trkpt><trkpt lat="43.4928234336214" lon="11.442394232985766"><ele>703.0</ele><time>2026-04-26T09:09:29Z</time></trkpt><trkpt lat="43.49276235867631" lon="11.442475336132546"><ele>703.0</ele><time>2026-04-26T09:09:30Z</time></trkpt><trkpt lat="43.49269690552592" lon="11.442578649116752"><ele>700.3333333333334</ele><time>2026-04-26T09:09:31Z</time></trkpt><trkpt lat="43.492640398523065" lon="11.442690330430748"><ele>697.6666666666667</ele><time>2026-04-26T09:09:32Z</time></trkpt><trkpt lat="43.492607168294434" lon="11.44278029426126"><ele>695.0</ele><time>2026-04-26T09:09:33Z</time></trkpt><trkpt lat="43.492569851807005" lon="11.44289761481578"><ele>692.3333333333334</ele><time>2026-04-26T09:09:34Z</time></trkpt><trkpt lat="43.49254079676125" lon="11.443007039323158"><ele>689.6666666666666</ele><time>2026-04-26T09:09:35Z</time></trkpt><trkpt lat="43.49251858771175" lon="11.443106628056261"><ele>687.0</ele><time>2026-04-26T09:09:36Z</time></trkpt><trkpt lat="43.49249583526876" lon="11.443208653437928"><ele>687.0</ele><time>2026-04-26T09:09:37Z</time></trkpt><trkpt lat="43.49247209923584" lon="11.443315089356364"><ele>687.0</ele><time>2026-04-26T09:09:38Z</time></trkpt><trkpt lat="43.492452117267526" lon="11.443404691503304"><ele>687.0</ele><time>2026-04-26T09:09:39Z</time></trkpt><trkpt lat="43.492426727283686" lon="11.443518544037895"><ele>687.0</ele><time>2026-04-26T09:09:40Z</time></trkpt><trkpt lat="43.49240362866725" lon="11.443608097669577"><ele>687.0</ele><time>2026-04-26T09:09:41Z</time></trkpt><trkpt lat="43.49237881405893" lon="11.443708670417658"><ele>687.0</ele><time>2026-04-26T09:09:42Z</time></trkpt><trkpt lat="43.49232495309663" lon="11.443825572160527"><ele>689.25</ele><time>2026-04-26T09:09:44Z</time></trkpt><trkpt lat="43.492274376623186" lon="11.443914525472572"><ele>691.5</ele><time>2026-04-26T09:09:46Z</time></trkpt><trkpt lat="43.4922422142958" lon="11.44400663145314"><ele>693.75</ele><time>2026-04-26T09:09:47Z</time></trkpt><trkpt lat="43.49220904948427" lon="11.444104439589807"><ele>696.0</ele><time>2026-04-26T09:09:49Z</time></trkpt><trkpt lat="43.4926287202395" lon="11.444670274995927"><ele>698.0</ele><time>2026-04-26T09:09:50Z</time></trkpt><trkpt lat="43.49261667855113" lon="11.444764641968359"><ele>700.0</ele><time>2026-04-26T09:09:51Z</time></trkpt><trkpt lat="43.49260728815972" lon="11.444877674524056"><ele>702.0</ele><time>2026-04-26T09:09:52Z</time></trkpt><trkpt lat="43.49259724838452" lon="11.44498861156812"><ele>704.0</ele><time>2026-04-26T09:09:53Z</time></trkpt><trkpt lat="43.49259729171284" lon="11.445089724942637"><ele>706.0</ele><time>2026-04-26T09:09:54Z</time></trkpt><trkpt lat="43.49260947779593" lon="11.445196669194177"><ele>708.0</ele><time>2026-04-26T09:09:55Z</time></trkpt><trkpt lat="43.492624688051684" lon="11.44528660769692"><ele>708.0</ele><time>2026-04-26T09:09:56Z</time></trkpt><trkpt lat="43.49263520816928" lon="11.445447603301556"><ele>708.0</ele><time>2026-04-26T09:09:58Z</time></trkpt><trkpt lat="43.492673423816306" lon="11.445588976026785"><ele>708.0</ele><time>2026-04-26T09:10:00Z</time></trkpt><trkpt lat="43.49275988754786" lon="11.44566147202096"><ele>708.0</ele><time>2026-04-26T09:10:02Z</time></trkpt><trkpt lat="43.4928850992942" lon="11.445684800462223"><ele>710.0</ele><time>2026-04-26T09:10:04Z</time></trkpt><trkpt lat="43.492962005847396" lon="11.445716922823184"><ele>712.0</ele><time>2026-04-26T09:10:05Z</time></trkpt><trkpt lat="43.493035108099065" lon="11.44574698314962"><ele>714.0</ele><time>2026-04-26T09:10:06Z</time></trkpt><trkpt lat="43.49309926900202" lon="11.445760274065229"><ele>716.0</ele><time>2026-04-26T09:10:07Z</time></trkpt><trkpt lat="43.493163272019885" lon="11.445782813837114"><ele>718.0</ele><time>2026-04-26T09:10:08Z</time></trkpt><trkpt lat="43.49322623532296" lon="11.445802875952204"><ele>720.0</ele><time>2026-04-26T09:10:09Z</time></trkpt><trkpt lat="43.49334309232867" lon="11.445856910409585"><ele>720.0</ele><time>2026-04-26T09:10:11Z</time></trkpt><trkpt lat="43.49345327573135" lon="11.445889664840108"><ele>720.0</ele><time>2026-04-26T09:10:13Z</time></trkpt><trkpt lat="43.49356805672868" lon="11.445974293416569"><ele>720.0</ele><time>2026-04-26T09:10:15Z</time></trkpt><trkpt lat="43.49363412199932" lon="11.446012237751173"><ele>720.0</ele><time>2026-04-26T09:10:16Z</time></trkpt><trkpt lat="43.49369781369489" lon="11.44603894258969"><ele>720.0</ele><time>2026-04-26T09:10:17Z</time></trkpt><trkpt lat="43.49375819451601" lon="11.446072626637331"><ele>720.0</ele><time>2026-04-26T09:10:18Z</time></trkpt><trkpt lat="43.49382278171364" lon="11.446091193083847"><ele>722.3333333333334</ele><time>2026-04-26T09:10:19Z</time></trkpt><trkpt lat="43.49389180369015" lon="11.446097824861317"><ele>724.6666666666666</ele><time>2026-04-26T09:10:20Z</time></trkpt><trkpt lat="43.4939595750208" lon="11.44610298592525"><ele>727.0</ele><time>2026-04-26T09:10:21Z</time></trkpt><trkpt lat="43.49407866252786" lon="11.446081223700089"><ele>729.3333333333333</ele><time>2026-04-26T09:10:23Z</time></trkpt><trkpt lat="43.49412223437102" lon="11.44601707415728"><ele>731.6666666666666</ele><time>2026-04-26T09:10:23.999Z</time></trkpt><trkpt lat="43.49415861782057" lon="11.445944972381358"><ele>734.0</ele><time>2026-04-26T09:10:24.999Z</time></trkpt><trkpt lat="43.49418716192886" lon="11.44578792930703"><ele>734.0</ele><time>2026-04-26T09:10:26.999Z</time></trkpt><trkpt lat="43.49421271674512" lon="11.445698280598547"><ele>734.0</ele><time>2026-04-26T09:10:27.999Z</time></trkpt><trkpt lat="43.49427124365146" lon="11.445541694439418"><ele>734.0</ele><time>2026-04-26T09:10:29.999Z</time></trkpt><trkpt lat="43.49429073918317" lon="11.445457999626656"><ele>734.0</ele><time>2026-04-26T09:10:30.999Z</time></trkpt><trkpt lat="43.49432520005235" lon="11.445314468745881"><ele>734.0</ele><time>2026-04-26T09:10:32.999Z</time></trkpt><trkpt lat="43.49435080064214" lon="11.445172714426192"><ele>736.2</ele><time>2026-04-26T09:10:34.999Z</time></trkpt><trkpt lat="43.49437572987774" lon="11.445024657456745"><ele>738.4000000000001</ele><time>2026-04-26T09:10:36.999Z</time></trkpt><trkpt lat="43.49438924932622" lon="11.44492972685044"><ele>740.6</ele><time>2026-04-26T09:10:37.999Z</time></trkpt><trkpt lat="43.494409585511775" lon="11.444846630749167"><ele>742.8</ele><time>2026-04-26T09:10:38.999Z</time></trkpt><trkpt lat="43.49443332202717" lon="11.444697661693834"><ele>745.0</ele><time>2026-04-26T09:10:40.999Z</time></trkpt><trkpt lat="43.49447693774774" lon="11.44456387689842"><ele>745.5</ele><time>2026-04-26T09:10:42.999Z</time></trkpt><trkpt lat="43.494555330751105" lon="11.444483232988155"><ele>746.0</ele><time>2026-04-26T09:10:44.999Z</time></trkpt><trkpt lat="43.49465688072422" lon="11.444387925068234"><ele>746.5</ele><time>2026-04-26T09:10:46.999Z</time></trkpt><trkpt lat="43.494710130112374" lon="11.44431676641217"><ele>747.0</ele><time>2026-04-26T09:10:47.999Z</time></trkpt><trkpt lat="43.49475911756122" lon="11.444254935492287"><ele>747.5</ele><time>2026-04-26T09:10:48.999Z</time></trkpt><trkpt lat="43.494815704472686" lon="11.444195258672853"><ele>748.0</ele><time>2026-04-26T09:10:49.999Z</time></trkpt><trkpt lat="43.49487477143677" lon="11.444114754223044"><ele>748.1666666666667</ele><time>2026-04-26T09:10:50.999Z</time></trkpt><trkpt lat="43.49493837790049" lon="11.44404669907656"><ele>748.3333333333334</ele><time>2026-04-26T09:10:51.999Z</time></trkpt><trkpt lat="43.494999134409845" lon="11.44398027930082"><ele>748.5</ele><time>2026-04-26T09:10:52.999Z</time></trkpt><trkpt lat="43.49506337185288" lon="11.443921510273546"><ele>748.6666666666666</ele><time>2026-04-26T09:10:53.999Z</time></trkpt><trkpt lat="43.49512945499228" lon="11.443877371849258"><ele>748.8333333333333</ele><time>2026-04-26T09:10:54.999Z</time></trkpt><trkpt lat="43.49517843368779" lon="11.443810373472585"><ele>749.0</ele><time>2026-04-26T09:10:55.999Z</time></trkpt><trkpt lat="43.495208596268895" lon="11.443713034450642"><ele>749.0</ele><time>2026-04-26T09:10:56.999Z</time></trkpt><trkpt lat="43.495249101655105" lon="11.443606424729545"><ele>749.0</ele><time>2026-04-26T09:10:57.999Z</time></trkpt><trkpt lat="43.49528237710343" lon="11.443512311259955"><ele>749.0</ele><time>2026-04-26T09:10:58.999Z</time></trkpt><trkpt lat="43.495310460561704" lon="11.443431791995806"><ele>749.0</ele><time>2026-04-26T09:10:59.999Z</time></trkpt><trkpt lat="43.4953370658318" lon="11.443352120851685"><ele>749.0</ele><time>2026-04-26T09:11:00.999Z</time></trkpt><trkpt lat="43.49536990574851" lon="11.44326634457364"><ele>749.0</ele><time>2026-04-26T09:11:01.999Z</time></trkpt><trkpt lat="43.49546719822197" lon="11.443136330896579"><ele>751.8333333333333</ele><time>2026-04-26T09:11:03.999Z</time></trkpt><trkpt lat="43.49553355448207" lon="11.443093019695946"><ele>754.6666666666666</ele><time>2026-04-26T09:11:04.999Z</time></trkpt><trkpt lat="43.49561206133526" lon="11.443076735496842"><ele>757.5</ele><time>2026-04-26T09:11:05.999Z</time></trkpt><trkpt lat="43.495729937998256" lon="11.443069048009392"><ele>760.3333333333334</ele><time>2026-04-26T09:11:07.999Z</time></trkpt><trkpt lat="43.49580753882233" lon="11.443054546466488"><ele>763.1666666666667</ele><time>2026-04-26T09:11:08.999Z</time></trkpt><trkpt lat="43.4958798413183" lon="11.44304076483252"><ele>766.0</ele><time>2026-04-26T09:11:09.999Z</time></trkpt><trkpt lat="43.49595095057632" lon="11.443043495479804"><ele>766.0</ele><time>2026-04-26T09:11:10.999Z</time></trkpt><trkpt lat="43.49601886346012" lon="11.443044027761589"><ele>766.0</ele><time>2026-04-26T09:11:11.999Z</time></trkpt><trkpt lat="43.49609439926665" lon="11.443049710250548"><ele>766.0</ele><time>2026-04-26T09:11:12.999Z</time></trkpt><trkpt lat="43.496160644621405" lon="11.443037867408396"><ele>766.0</ele><time>2026-04-26T09:11:13.999Z</time></trkpt><trkpt lat="43.49622959556125" lon="11.443043524236211"><ele>766.0</ele><time>2026-04-26T09:11:14.999Z</time></trkpt><trkpt lat="43.496292651158825" lon="11.44306438747019"><ele>766.0</ele><time>2026-04-26T09:11:16Z</time></trkpt><trkpt lat="43.49638210849181" lon="11.44309999311429"><ele>766.0</ele><time>2026-04-26T09:11:17Z</time></trkpt><trkpt lat="43.49645324865621" lon="11.443113053413501"><ele>767.0</ele><time>2026-04-26T09:11:18Z</time></trkpt><trkpt lat="43.496516351529124" lon="11.443114476799588"><ele>768.0</ele><time>2026-04-26T09:11:19Z</time></trkpt><trkpt lat="43.49658369990031" lon="11.443118041318764"><ele>769.0</ele><time>2026-04-26T09:11:20Z</time></trkpt><trkpt lat="43.49664655011315" lon="11.443128919160037"><ele>770.0</ele><time>2026-04-26T09:11:21Z</time></trkpt><trkpt lat="43.49671081954689" lon="11.443138993336012"><ele>771.0</ele><time>2026-04-26T09:11:22Z</time></trkpt><trkpt lat="43.49677441256904" lon="11.443152596647696"><ele>772.0</ele><time>2026-04-26T09:11:23Z</time></trkpt><trkpt lat="43.49684616332727" lon="11.443163562259963"><ele>773.0</ele><time>2026-04-26T09:11:24Z</time></trkpt><trkpt lat="43.49692788160775" lon="11.443182259388331"><ele>773.0000000000001</ele><time>2026-04-26T09:11:25Z</time></trkpt><trkpt lat="43.49700822092504" lon="11.443199008681313"><ele>773.0</ele><time>2026-04-26T09:11:26Z</time></trkpt><trkpt lat="43.4970748350989" lon="11.44320533242884"><ele>773.0</ele><time>2026-04-26T09:11:27Z</time></trkpt><trkpt lat="43.497168860718055" lon="11.443152831171446"><ele>773.0</ele><time>2026-04-26T09:11:29Z</time></trkpt><trkpt lat="43.49723705916507" lon="11.44308209771534"><ele>773.0000000000001</ele><time>2026-04-26T09:11:59Z</time></trkpt><trkpt lat="43.49733511244479" lon="11.443026194391372"><ele>773.0</ele><time>2026-04-26T09:12:29Z</time></trkpt><trkpt lat="43.497430018123765" lon="11.44295472625656"><ele>774.2</ele><time>2026-04-26T09:12:31Z</time></trkpt><trkpt lat="43.4975367495563" lon="11.442905874871622"><ele>775.4</ele><time>2026-04-26T09:12:33Z</time></trkpt><trkpt lat="43.49763273834288" lon="11.442843994048166"><ele>776.6</ele><time>2026-04-26T09:12:35Z</time></trkpt><trkpt lat="43.497721047936636" lon="11.442793504978173"><ele>777.8000000000001</ele><time>2026-04-26T09:12:37Z</time></trkpt><trkpt lat="43.49783200729529" lon="11.442736869344085"><ele>779.0</ele><time>2026-04-26T09:12:39Z</time></trkpt><trkpt lat="43.49789219988056" lon="11.442702353052212"><ele>779.2</ele><time>2026-04-26T09:12:40Z</time></trkpt><trkpt lat="43.497957455738195" lon="11.442667237175591"><ele>779.4000000000001</ele><time>2026-04-26T09:12:41Z</time></trkpt><trkpt lat="43.498078758167324" lon="11.442597454381652"><ele>779.6</ele><time>2026-04-26T09:12:43Z</time></trkpt><trkpt lat="43.4981446776339" lon="11.442549175187287"><ele>779.8</ele><time>2026-04-26T09:12:44Z</time></trkpt><trkpt lat="43.49826086360061" lon="11.442474653455886"><ele>780.0</ele><time>2026-04-26T09:12:46Z</time></trkpt><trkpt lat="43.49831813101821" lon="11.442435513154154"><ele>780.0</ele><time>2026-04-26T09:12:47Z</time></trkpt><trkpt lat="43.49844133751851" lon="11.442371171528652"><ele>780.0</ele><time>2026-04-26T09:12:49Z</time></trkpt><trkpt lat="43.49851277560456" lon="11.44233664459843"><ele>780.0</ele><time>2026-04-26T09:12:50Z</time></trkpt><trkpt lat="43.49857756786821" lon="11.442294403244397"><ele>780.0</ele><time>2026-04-26T09:12:51Z</time></trkpt><trkpt lat="43.498638394272696" lon="11.442257031111335"><ele>780.0</ele><time>2026-04-26T09:12:52Z</time></trkpt><trkpt lat="43.498705212646634" lon="11.442217006574683"><ele>780.0</ele><time>2026-04-26T09:12:53Z</time></trkpt><trkpt lat="43.49876942822585" lon="11.442174688148842"><ele>780.5</ele><time>2026-04-26T09:12:54Z</time></trkpt><trkpt lat="43.498833978982304" lon="11.442141987195305"><ele>781.0</ele><time>2026-04-26T09:12:55Z</time></trkpt><trkpt lat="43.49889737422049" lon="11.442106944419935"><ele>781.5</ele><time>2026-04-26T09:12:56Z</time></trkpt><trkpt lat="43.49896287273486" lon="11.44207101468315"><ele>782.0</ele><time>2026-04-26T09:12:57Z</time></trkpt><trkpt lat="43.49902851082742" lon="11.442034061191086"><ele>782.5</ele><time>2026-04-26T09:12:58Z</time></trkpt><trkpt lat="43.499092220431336" lon="11.441994306227395"><ele>783.0</ele><time>2026-04-26T09:12:59Z</time></trkpt><trkpt lat="43.49919652423073" lon="11.441921486648758"><ele>783.0</ele><time>2026-04-26T09:13:01Z</time></trkpt><trkpt lat="43.499301610148606" lon="11.441858405871349"><ele>783.0</ele><time>2026-04-26T09:13:02.999Z</time></trkpt><trkpt lat="43.49940364086983" lon="11.441790668812873"><ele>783.0</ele><time>2026-04-26T09:13:04.999Z</time></trkpt><trkpt lat="43.49947751951351" lon="11.441745817975677"><ele>783.0</ele><time>2026-04-26T09:13:06.999Z</time></trkpt><trkpt lat="43.49956048612783" lon="11.441688484007752"><ele>783.0</ele><time>2026-04-26T09:13:08.999Z</time></trkpt><trkpt lat="43.49964120361317" lon="11.441617866909073"><ele>781.4</ele><time>2026-04-26T09:13:10.999Z</time></trkpt><trkpt lat="43.49972039872997" lon="11.441544054955974"><ele>779.8</ele><time>2026-04-26T09:13:12.999Z</time></trkpt><trkpt lat="43.499770502723926" lon="11.44147110017745"><ele>778.2</ele><time>2026-04-26T09:13:14.999Z</time></trkpt><trkpt lat="43.49980658180278" lon="11.441371541280866"><ele>776.6</ele><time>2026-04-26T09:13:16.999Z</time></trkpt><trkpt lat="43.49985495352829" lon="11.441246457910577"><ele>775.0</ele><time>2026-04-26T09:13:18.999Z</time></trkpt><trkpt lat="43.49991048895809" lon="11.441129143766714"><ele>774.8333333333333</ele><time>2026-04-26T09:13:20.999Z</time></trkpt><trkpt lat="43.49997071680859" lon="11.441021631705102"><ele>774.6666666666666</ele><time>2026-04-26T09:13:23Z</time></trkpt><trkpt lat="43.500026573374996" lon="11.440939703903348"><ele>774.5</ele><time>2026-04-26T09:13:24Z</time></trkpt><trkpt lat="43.500076379425465" lon="11.440860954065734"><ele>774.3333333333333</ele><time>2026-04-26T09:13:25Z</time></trkpt><trkpt lat="43.50012055881848" lon="11.440775234866942"><ele>774.1666666666666</ele><time>2026-04-26T09:13:26Z</time></trkpt><trkpt lat="43.50018269052396" lon="11.440660910608457"><ele>774.0</ele><time>2026-04-26T09:13:28Z</time></trkpt><trkpt lat="43.50023245592379" lon="11.440543045995838"><ele>773.2</ele><time>2026-04-26T09:13:30Z</time></trkpt><trkpt lat="43.50029165551079" lon="11.440443453034003"><ele>772.4000000000001</ele><time>2026-04-26T09:13:32Z</time></trkpt><trkpt lat="43.50034746837615" lon="11.44034927796875"><ele>771.6</ele><time>2026-04-26T09:13:34Z</time></trkpt><trkpt lat="43.50042730864881" lon="11.440268773389478"><ele>770.8</ele><time>2026-04-26T09:13:36Z</time></trkpt><trkpt lat="43.500488582527105" lon="11.440183445702008"><ele>770.0</ele><time>2026-04-26T09:13:38Z</time></trkpt><trkpt lat="43.50057501693895" lon="11.440086315730495"><ele>768.0</ele><time>2026-04-26T09:13:40Z</time></trkpt><trkpt lat="43.50066486658713" lon="11.43997225912281"><ele>766.0</ele><time>2026-04-26T09:13:42Z</time></trkpt><trkpt lat="43.500764166082455" lon="11.439865721491502"><ele>764.0</ele><time>2026-04-26T09:13:44Z</time></trkpt><trkpt lat="43.500848949948605" lon="11.439745039439652"><ele>762.0</ele><time>2026-04-26T09:13:46Z</time></trkpt><trkpt lat="43.50093763168782" lon="11.439631440417228"><ele>761.6</ele><time>2026-04-26T09:13:48Z</time></trkpt><trkpt lat="43.500995561945906" lon="11.439571901378097"><ele>761.2</ele><time>2026-04-26T09:13:49Z</time></trkpt><trkpt lat="43.50109716796997" lon="11.43946466434773"><ele>760.8</ele><time>2026-04-26T09:13:51Z</time></trkpt><trkpt lat="43.50118572055768" lon="11.439368830044486"><ele>760.4</ele><time>2026-04-26T09:13:53Z</time></trkpt><trkpt lat="43.50126722231315" lon="11.439274537433342"><ele>760.0</ele><time>2026-04-26T09:13:55Z</time></trkpt><trkpt lat="43.50135258826084" lon="11.439173012080413"><ele>759.8333333333334</ele><time>2026-04-26T09:13:57Z</time></trkpt><trkpt lat="43.50139913188473" lon="11.439109790365904"><ele>759.6666666666667</ele><time>2026-04-26T09:13:58Z</time></trkpt><trkpt lat="43.50149697031979" lon="11.438989013020628"><ele>759.5</ele><time>2026-04-26T09:14:00Z</time></trkpt><trkpt lat="43.50155606948309" lon="11.43892646875241"><ele>759.3333333333334</ele><time>2026-04-26T09:14:01Z</time></trkpt><trkpt lat="43.501610263942766" lon="11.438863676335911"><ele>759.1666666666666</ele><time>2026-04-26T09:14:02Z</time></trkpt><trkpt lat="43.50166569533246" lon="11.438794972197586"><ele>759.0</ele><time>2026-04-26T09:14:03Z</time></trkpt><trkpt lat="43.501722906957454" lon="11.438737023419904"><ele>759.0</ele><time>2026-04-26T09:14:04Z</time></trkpt><trkpt lat="43.50177549283812" lon="11.43868194826244"><ele>759.0</ele><time>2026-04-26T09:14:05Z</time></trkpt><trkpt lat="43.50187127558238" lon="11.438583458613113"><ele>759.0</ele><time>2026-04-26T09:14:07Z</time></trkpt><trkpt lat="43.501968570433945" lon="11.438498887641018"><ele>759.0</ele><time>2026-04-26T09:14:09Z</time></trkpt><trkpt lat="43.50203161637634" lon="11.438457215029317"><ele>759.0</ele><time>2026-04-26T09:14:10Z</time></trkpt><trkpt lat="43.50209864388834" lon="11.438416879983512"><ele>759.0</ele><time>2026-04-26T09:14:11Z</time></trkpt><trkpt lat="43.50215951615291" lon="11.438371990366434"><ele>759.0</ele><time>2026-04-26T09:14:12Z</time></trkpt><trkpt lat="43.50222227984794" lon="11.438327519710995"><ele>759.0</ele><time>2026-04-26T09:14:13Z</time></trkpt><trkpt lat="43.50232862961741" lon="11.438298299636324"><ele>759.0</ele><time>2026-04-26T09:14:15Z</time></trkpt><trkpt lat="43.502431588983555" lon="11.438305657867973"><ele>759.0</ele><time>2026-04-26T09:14:17Z</time></trkpt><trkpt lat="43.5024972492524" lon="11.438313870687304"><ele>759.0</ele><time>2026-04-26T09:14:18Z</time></trkpt><trkpt lat="43.50261984557721" lon="11.438327881507712"><ele>759.0</ele><time>2026-04-26T09:14:20Z</time></trkpt><trkpt lat="43.50269019704662" lon="11.438355835818776"><ele>759.0</ele><time>2026-04-26T09:14:21Z</time></trkpt><trkpt lat="43.502818609208404" lon="11.438371183499923"><ele>759.0</ele><time>2026-04-26T09:14:23Z</time></trkpt><trkpt lat="43.50288175602241" lon="11.438387341548648"><ele>759.0</ele><time>2026-04-26T09:14:24Z</time></trkpt><trkpt lat="43.50294657773212" lon="11.438388963176639"><ele>759.0</ele><time>2026-04-26T09:14:25Z</time></trkpt><trkpt lat="43.50301022890495" lon="11.438396942786477"><ele>759.0</ele><time>2026-04-26T09:14:26Z</time></trkpt><trkpt lat="43.50307791500294" lon="11.43841755566637"><ele>756.1666666666666</ele><time>2026-04-26T09:14:27Z</time></trkpt><trkpt lat="43.50315024028514" lon="11.438425741386563"><ele>753.3333333333334</ele><time>2026-04-26T09:14:28Z</time></trkpt><trkpt lat="43.50321345108032" lon="11.438418423920597"><ele>750.5</ele><time>2026-04-26T09:14:29Z</time></trkpt><trkpt lat="43.50328745314692" lon="11.438416210908603"><ele>747.6666666666667</ele><time>2026-04-26T09:14:30Z</time></trkpt><trkpt lat="43.50339356391833" lon="11.43847791275664"><ele>744.8333333333334</ele><time>2026-04-26T09:14:32Z</time></trkpt><trkpt lat="43.50346949659286" lon="11.43854575072943"><ele>742.0</ele><time>2026-04-26T09:14:34Z</time></trkpt><trkpt lat="43.50355288294457" lon="11.438620071702568"><ele>742.0</ele><time>2026-04-26T09:14:36Z</time></trkpt><trkpt lat="43.503698726587565" lon="11.438772246261204"><ele>742.0</ele><time>2026-04-26T09:14:39Z</time></trkpt><trkpt lat="43.50375082542169" lon="11.438828244619488"><ele>742.0</ele><time>2026-04-26T09:14:40Z</time></trkpt><trkpt lat="43.50383983309488" lon="11.438929755406782"><ele>742.0</ele><time>2026-04-26T09:14:42Z</time></trkpt><trkpt lat="43.503887372492954" lon="11.438990340338501"><ele>742.0</ele><time>2026-04-26T09:14:43Z</time></trkpt><trkpt lat="43.50394010062184" lon="11.439049277782548"><ele>742.1666666666667</ele><time>2026-04-26T09:14:44Z</time></trkpt><trkpt lat="43.50400472495666" lon="11.439071216439906"><ele>742.3333333333334</ele><time>2026-04-26T09:14:45Z</time></trkpt><trkpt lat="43.50406351294015" lon="11.43910304269396"><ele>742.5</ele><time>2026-04-26T09:14:46Z</time></trkpt><trkpt lat="43.50415332640812" lon="11.439164814226373"><ele>742.6666666666666</ele><time>2026-04-26T09:14:48Z</time></trkpt><trkpt lat="43.50422447341734" lon="11.439242259743871"><ele>742.8333333333333</ele><time>2026-04-26T09:14:50Z</time></trkpt><trkpt lat="43.50428801283378" lon="11.439352837328666"><ele>743.0</ele><time>2026-04-26T09:14:52Z</time></trkpt><trkpt lat="43.504324036494886" lon="11.439479557283928"><ele>740.5999999999999</ele><time>2026-04-26T09:14:54Z</time></trkpt><trkpt lat="43.5043295606868" lon="11.439649809090264"><ele>738.1999999999999</ele><time>2026-04-26T09:14:56Z</time></trkpt><trkpt lat="43.504351960533846" lon="11.439817878618223"><ele>735.8</ele><time>2026-04-26T09:14:58Z</time></trkpt><trkpt lat="43.50437565203958" lon="11.439962618009647"><ele>733.4</ele><time>2026-04-26T09:15:00Z</time></trkpt><trkpt lat="43.50440629390665" lon="11.440038536140953"><ele>731.0</ele><time>2026-04-26T09:15:01Z</time></trkpt><trkpt lat="43.50448099718777" lon="11.440152011744816"><ele>731.0</ele><time>2026-04-26T09:15:03Z</time></trkpt><trkpt lat="43.5045670868791" lon="11.440258862000562"><ele>731.0</ele><time>2026-04-26T09:15:05Z</time></trkpt><trkpt lat="43.50460163719001" lon="11.440335351129074"><ele>731.0</ele><time>2026-04-26T09:15:06Z</time></trkpt><trkpt lat="43.504676976014835" lon="11.440423382145957"><ele>731.0</ele><time>2026-04-26T09:15:08Z</time></trkpt><trkpt lat="43.504775389951654" lon="11.440481501782761"><ele>731.0</ele><time>2026-04-26T09:15:10Z</time></trkpt><trkpt lat="43.504891251967884" lon="11.440512318431415"><ele>731.5</ele><time>2026-04-26T09:15:12Z</time></trkpt><trkpt lat="43.505005699190185" lon="11.440504791392861"><ele>732.0</ele><time>2026-04-26T09:15:14Z</time></trkpt><trkpt lat="43.50511310012068" lon="11.440456442325692"><ele>732.5</ele><time>2026-04-26T09:15:16Z</time></trkpt><trkpt lat="43.50522249216025" lon="11.440424351335276"><ele>733.0</ele><time>2026-04-26T09:15:18Z</time></trkpt><trkpt lat="43.505338424592956" lon="11.44041788664634"><ele>736.8333333333334</ele><time>2026-04-26T09:15:20Z</time></trkpt><trkpt lat="43.505404663497046" lon="11.44041117266453"><ele>740.6666666666667</ele><time>2026-04-26T09:15:21Z</time></trkpt><trkpt lat="43.505471071146225" lon="11.440392459302974"><ele>744.5</ele><time>2026-04-26T09:15:22Z</time></trkpt><trkpt lat="43.505541137274214" lon="11.440382661468295"><ele>748.3333333333334</ele><time>2026-04-26T09:15:23Z</time></trkpt><trkpt lat="43.50566021746787" lon="11.4403646492942"><ele>752.1666666666666</ele><time>2026-04-26T09:15:25Z</time></trkpt><trkpt lat="43.50575150774228" lon="11.440319250887821"><ele>756.0</ele><time>2026-04-26T09:15:26.999Z</time></trkpt><trkpt lat="43.50584067062355" lon="11.44023703182529"><ele>756.0</ele><time>2026-04-26T09:15:29Z</time></trkpt><trkpt lat="43.505893967433494" lon="11.440173693349886"><ele>756.0</ele><time>2026-04-26T09:15:30Z</time></trkpt><trkpt lat="43.50594759598587" lon="11.440120536014838"><ele>756.0</ele><time>2026-04-26T09:15:31Z</time></trkpt><trkpt lat="43.506008503013916" lon="11.440071789723033"><ele>756.0</ele><time>2026-04-26T09:15:32Z</time></trkpt><trkpt lat="43.50606702903121" lon="11.440023612460113"><ele>756.0</ele><time>2026-04-26T09:15:33Z</time></trkpt><trkpt lat="43.506122773627474" lon="11.439975988018496"><ele>756.0</ele><time>2026-04-26T09:15:34Z</time></trkpt><trkpt lat="43.50622538519139" lon="11.439884416263345"><ele>755.4285714285714</ele><time>2026-04-26T09:15:36Z</time></trkpt><trkpt lat="43.50629715262561" lon="11.439814330843287"><ele>754.8571428571429</ele><time>2026-04-26T09:15:37Z</time></trkpt><trkpt lat="43.5063469084394" lon="11.439742980990864"><ele>754.2857142857142</ele><time>2026-04-26T09:15:38Z</time></trkpt><trkpt lat="43.5063924260157" lon="11.439680048320568"><ele>753.7142857142858</ele><time>2026-04-26T09:15:39Z</time></trkpt><trkpt lat="43.5064364830376" lon="11.439611210035967"><ele>753.1428571428571</ele><time>2026-04-26T09:15:40Z</time></trkpt><trkpt lat="43.50648354448455" lon="11.439529143802845"><ele>752.5714285714286</ele><time>2026-04-26T09:15:41Z</time></trkpt><trkpt lat="43.50650830969687" lon="11.439430561008894"><ele>752.0</ele><time>2026-04-26T09:15:42Z</time></trkpt><trkpt lat="43.50649871834892" lon="11.439325862721997"><ele>752.0</ele><time>2026-04-26T09:15:43Z</time></trkpt><trkpt lat="43.506490367845736" lon="11.439223199250362"><ele>752.0</ele><time>2026-04-26T09:15:44Z</time></trkpt><trkpt lat="43.50647720118904" lon="11.439119716659283"><ele>752.0</ele><time>2026-04-26T09:15:45Z</time></trkpt><trkpt lat="43.506428357794185" lon="11.438975889601167"><ele>752.0</ele><time>2026-04-26T09:15:47Z</time></trkpt><trkpt lat="43.506444249685416" lon="11.438830468220113"><ele>752.0</ele><time>2026-04-26T09:15:49Z</time></trkpt><trkpt lat="43.506515988834515" lon="11.43874497005972"><ele>752.0</ele><time>2026-04-26T09:15:51Z</time></trkpt><trkpt lat="43.50659955500178" lon="11.438737834388878"><ele>752.0</ele><time>2026-04-26T09:15:53Z</time></trkpt><trkpt lat="43.506682735355675" lon="11.438762627299191"><ele>752.0</ele><time>2026-04-26T09:15:54Z</time></trkpt><trkpt lat="43.506746722324834" lon="11.438796533919009"><ele>752.0</ele><time>2026-04-26T09:15:55Z</time></trkpt><trkpt lat="43.50680610111712" lon="11.438827116925669"><ele>752.0</ele><time>2026-04-26T09:15:56Z</time></trkpt><trkpt lat="43.506926144440484" lon="11.438782673208946"><ele>752.0</ele><time>2026-04-26T09:15:58Z</time></trkpt><trkpt lat="43.50701402033523" lon="11.438668279053319"><ele>755.3333333333333</ele><time>2026-04-26T09:16:00Z</time></trkpt><trkpt lat="43.507067010067395" lon="11.438620533488736"><ele>758.6666666666666</ele><time>2026-04-26T09:16:01Z</time></trkpt><trkpt lat="43.507148203805976" lon="11.438538264126382"><ele>762.0</ele><time>2026-04-26T09:16:03Z</time></trkpt><trkpt lat="43.507230568971835" lon="11.438503304444598"><ele>765.3333333333333</ele><time>2026-04-26T09:16:05Z</time></trkpt><trkpt lat="43.507307602033464" lon="11.43852738339569"><ele>768.6666666666666</ele><time>2026-04-26T09:16:07Z</time></trkpt><trkpt lat="43.507364121788214" lon="11.438569689441781"><ele>772.0</ele><time>2026-04-26T09:16:08Z</time></trkpt><trkpt lat="43.50747503832945" lon="11.438578843743942"><ele>771.9999999999999</ele><time>2026-04-26T09:16:10Z</time></trkpt><trkpt lat="43.50753048220799" lon="11.438517332069233"><ele>772.0</ele><time>2026-04-26T09:16:11Z</time></trkpt><trkpt lat="43.50759310020016" lon="11.438392268936685"><ele>772.0</ele><time>2026-04-26T09:16:13Z</time></trkpt><trkpt lat="43.50765337344225" lon="11.43834136968176"><ele>772.0</ele><time>2026-04-26T09:16:14Z</time></trkpt><trkpt lat="43.50774561798757" lon="11.438280869856477"><ele>771.9999999999999</ele><time>2026-04-26T09:16:16Z</time></trkpt><trkpt lat="43.50780560633472" lon="11.43822966819717"><ele>772.0</ele><time>2026-04-26T09:16:19Z</time></trkpt><trkpt lat="43.50790766568431" lon="11.438164774877333"><ele>770.4000000000001</ele><time>2026-04-26T09:16:21Z</time></trkpt><trkpt lat="43.50801752430863" lon="11.438157576019371"><ele>768.8000000000001</ele><time>2026-04-26T09:16:23Z</time></trkpt><trkpt lat="43.508143441629606" lon="11.438112837031332"><ele>767.2</ele><time>2026-04-26T09:16:25Z</time></trkpt><trkpt lat="43.50820962738464" lon="11.438042194939529"><ele>765.6</ele><time>2026-04-26T09:16:26Z</time></trkpt><trkpt lat="43.50826241900937" lon="11.437962440007546"><ele>764.0</ele><time>2026-04-26T09:16:27Z</time></trkpt><trkpt lat="43.50831384840924" lon="11.437901234854806"><ele>766.1428571428572</ele><time>2026-04-26T09:16:28Z</time></trkpt><trkpt lat="43.508379029156856" lon="11.437876052979869"><ele>768.2857142857142</ele><time>2026-04-26T09:16:29Z</time></trkpt><trkpt lat="43.50843831747798" lon="11.437838621279864"><ele>770.4285714285714</ele><time>2026-04-26T09:16:30Z</time></trkpt><trkpt lat="43.50850022080667" lon="11.437803284716287"><ele>772.5714285714287</ele><time>2026-04-26T09:16:31Z</time></trkpt><trkpt lat="43.50856577594185" lon="11.437776201946484"><ele>774.7142857142858</ele><time>2026-04-26T09:16:32Z</time></trkpt><trkpt lat="43.50863144006424" lon="11.437765583536342"><ele>776.8571428571429</ele><time>2026-04-26T09:16:33Z</time></trkpt><trkpt lat="43.508707745733" lon="11.437729998124167"><ele>779.0</ele><time>2026-04-26T09:16:34Z</time></trkpt><trkpt lat="43.50875784351021" lon="11.437675640616696"><ele>779.0000000000001</ele><time>2026-04-26T09:16:35Z</time></trkpt><trkpt lat="43.5087914462009" lon="11.437594094935093"><ele>779.0</ele><time>2026-04-26T09:16:36Z</time></trkpt><trkpt lat="43.50882737880889" lon="11.437511389571977"><ele>779.0</ele><time>2026-04-26T09:16:37Z</time></trkpt><trkpt lat="43.508867911048846" lon="11.437431372149234"><ele>779.0</ele><time>2026-04-26T09:16:38Z</time></trkpt><trkpt lat="43.50896059187961" lon="11.437331191217366"><ele>779.0000000000001</ele><time>2026-04-26T09:16:40Z</time></trkpt><trkpt lat="43.50906788457152" lon="11.437250851894436"><ele>779.0</ele><time>2026-04-26T09:16:42Z</time></trkpt><trkpt lat="43.50913091194598" lon="11.437216473789409"><ele>779.0000000000001</ele><time>2026-04-26T09:16:43Z</time></trkpt><trkpt lat="43.50919212404815" lon="11.437182934478361"><ele>779.0</ele><time>2026-04-26T09:16:44Z</time></trkpt><trkpt lat="43.50925768576942" lon="11.437156958396368"><ele>779.0</ele><time>2026-04-26T09:16:45Z</time></trkpt><trkpt lat="43.5093242837967" lon="11.43713130284233"><ele>779.0</ele><time>2026-04-26T09:16:46Z</time></trkpt><trkpt lat="43.50938761718853" lon="11.437098897976414"><ele>779.0</ele><time>2026-04-26T09:16:47Z</time></trkpt><trkpt lat="43.50945562952389" lon="11.437062289062089"><ele>779.0000000000001</ele><time>2026-04-26T09:16:48Z</time></trkpt><trkpt lat="43.509518618583385" lon="11.437032595107443"><ele>779.0</ele><time>2026-04-26T09:16:49Z</time></trkpt><trkpt lat="43.50961976594441" lon="11.436976778807667"><ele>781.0</ele><time>2026-04-26T09:16:51Z</time></trkpt><trkpt lat="43.509735300550936" lon="11.436906607116647"><ele>783.0</ele><time>2026-04-26T09:16:53Z</time></trkpt><trkpt lat="43.50985897463235" lon="11.436845461659813"><ele>785.0</ele><time>2026-04-26T09:16:55Z</time></trkpt><trkpt lat="43.50995515077388" lon="11.436734649369292"><ele>787.0</ele><time>2026-04-26T09:16:57Z</time></trkpt><trkpt lat="43.50999906366323" lon="11.436672366704482"><ele>789.0</ele><time>2026-04-26T09:16:58Z</time></trkpt><trkpt lat="43.51009902245846" lon="11.436586261501136"><ele>788.9999999999999</ele><time>2026-04-26T09:17:00Z</time></trkpt><trkpt lat="43.51015718157822" lon="11.436551931109449"><ele>789.0</ele><time>2026-04-26T09:17:01Z</time></trkpt><trkpt lat="43.510218440728735" lon="11.436508174560872"><ele>789.0</ele><time>2026-04-26T09:17:04Z</time></trkpt><trkpt lat="43.51026594791338" lon="11.436451040748487"><ele>789.0</ele><time>2026-04-26T09:17:53Z</time></trkpt><trkpt lat="43.510336865743355" lon="11.436407867836733"><ele>789.0</ele><time>2026-04-26T09:17:55Z</time></trkpt><trkpt lat="43.510404952213804" lon="11.436371061560344"><ele>788.9999999999999</ele><time>2026-04-26T09:17:57Z</time></trkpt><trkpt lat="43.51048348628167" lon="11.436305180755646"><ele>789.0</ele><time>2026-04-26T09:18:00Z</time></trkpt><trkpt lat="43.51052184414667" lon="11.43623012814464"><ele>789.5</ele><time>2026-04-26T09:18:04Z</time></trkpt><trkpt lat="43.510585210672495" lon="11.436220957091473"><ele>790.0</ele><time>2026-04-26T09:18:07Z</time></trkpt><trkpt lat="43.510681941243796" lon="11.436212897895588"><ele>790.5</ele><time>2026-04-26T09:18:10Z</time></trkpt><trkpt lat="43.5107528032313" lon="11.436215647163788"><ele>791.0</ele><time>2026-04-26T09:18:12Z</time></trkpt><trkpt lat="43.51081882473807" lon="11.436202884442945"><ele>791.5</ele><time>2026-04-26T09:18:14Z</time></trkpt><trkpt lat="43.51090893664207" lon="11.436175812010497"><ele>792.0</ele><time>2026-04-26T09:18:16Z</time></trkpt><trkpt lat="43.5109648864006" lon="11.436129460681833"><ele>792.0</ele><time>2026-04-26T09:18:18Z</time></trkpt><trkpt lat="43.51102486015618" lon="11.43609349178029"><ele>792.0</ele><time>2026-04-26T09:18:19Z</time></trkpt><trkpt lat="43.511113206889725" lon="11.436037907890187"><ele>792.0</ele><time>2026-04-26T09:18:22Z</time></trkpt><trkpt lat="43.511181079022876" lon="11.435977189954752"><ele>792.0</ele><time>2026-04-26T09:18:24Z</time></trkpt><trkpt lat="43.511242459611786" lon="11.435918056260332"><ele>792.0</ele><time>2026-04-26T09:18:26Z</time></trkpt><trkpt lat="43.51132070020962" lon="11.435839900644227"><ele>792.0</ele><time>2026-04-26T09:18:28Z</time></trkpt><trkpt lat="43.51138668772819" lon="11.43576809457112"><ele>790.5</ele><time>2026-04-26T09:18:30Z</time></trkpt><trkpt lat="43.51145945472839" lon="11.435721312579458"><ele>789.0</ele><time>2026-04-26T09:18:32Z</time></trkpt><trkpt lat="43.511524606151355" lon="11.435703269969947"><ele>787.5</ele><time>2026-04-26T09:18:34Z</time></trkpt><trkpt lat="43.51160187477715" lon="11.435661249226746"><ele>786.0</ele><time>2026-04-26T09:18:36Z</time></trkpt><trkpt lat="43.51166344341777" lon="11.435629522156743"><ele>784.5</ele><time>2026-04-26T09:18:38Z</time></trkpt><trkpt lat="43.511724878993896" lon="11.43559981404394"><ele>783.0</ele><time>2026-04-26T09:18:40Z</time></trkpt><trkpt lat="43.51183710473017" lon="11.435577679202261"><ele>783.0</ele><time>2026-04-26T09:18:42Z</time></trkpt><trkpt lat="43.51194533523907" lon="11.435533403275437"><ele>783.0</ele><time>2026-04-26T09:18:44Z</time></trkpt><trkpt lat="43.512040428174636" lon="11.435477760080477"><ele>783.0</ele><time>2026-04-26T09:18:46Z</time></trkpt><trkpt lat="43.51214650901357" lon="11.435455042531819"><ele>783.0</ele><time>2026-04-26T09:18:48Z</time></trkpt><trkpt lat="43.51226412472824" lon="11.435454905897927"><ele>783.0</ele><time>2026-04-26T09:18:50Z</time></trkpt><trkpt lat="43.51237245539956" lon="11.43546654403952"><ele>783.5999999999999</ele><time>2026-04-26T09:18:52Z</time></trkpt><trkpt lat="43.512465359124285" lon="11.435541469805202"><ele>784.1999999999999</ele><time>2026-04-26T09:18:54Z</time></trkpt><trkpt lat="43.51255070359909" lon="11.435600103876785"><ele>784.8</ele><time>2026-04-26T09:18:56Z</time></trkpt><trkpt lat="43.51265322106706" lon="11.435665463821293"><ele>785.4</ele><time>2026-04-26T09:18:58Z</time></trkpt><trkpt lat="43.51270361379839" lon="11.435723813406216"><ele>786.0</ele><time>2026-04-26T09:19:00Z</time></trkpt><trkpt lat="43.512735591310445" lon="11.435821699223478"><ele>786.0</ele><time>2026-04-26T09:19:02Z</time></trkpt><trkpt lat="43.51275371836049" lon="11.435914691751591"><ele>786.0</ele><time>2026-04-26T09:19:05Z</time></trkpt><trkpt lat="43.512744460827875" lon="11.436016937418975"><ele>786.0</ele><time>2026-04-26T09:19:09Z</time></trkpt><trkpt lat="43.51272143305366" lon="11.436144063165893"><ele>786.0</ele><time>2026-04-26T09:19:39Z</time></trkpt><trkpt lat="43.51272482883348" lon="11.436270113849297"><ele>786.0</ele><time>2026-04-26T09:19:42Z</time></trkpt><trkpt lat="43.512751422094986" lon="11.436390656117814"><ele>786.0</ele><time>2026-04-26T09:19:45Z</time></trkpt><trkpt lat="43.51278889079412" lon="11.436461802686976"><ele>784.8333333333334</ele><time>2026-04-26T09:19:47Z</time></trkpt><trkpt lat="43.51282581548536" lon="11.43659713519273"><ele>783.6666666666667</ele><time>2026-04-26T09:19:50Z</time></trkpt><trkpt lat="43.51284808321244" lon="11.436712185688132"><ele>782.5</ele><time>2026-04-26T09:19:52Z</time></trkpt><trkpt lat="43.512885571928564" lon="11.436834667710974"><ele>781.3333333333334</ele><time>2026-04-26T09:19:55Z</time></trkpt><trkpt lat="43.51293523711188" lon="11.436926000930773"><ele>780.1666666666667</ele><time>2026-04-26T09:19:57Z</time></trkpt><trkpt lat="43.512977061431776" lon="11.437017452541737"><ele>779.0</ele><time>2026-04-26T09:19:59Z</time></trkpt><trkpt lat="43.51301796703146" lon="11.43711767585139"><ele>777.8333333333334</ele><time>2026-04-26T09:20:01Z</time></trkpt><trkpt lat="43.51304124386461" lon="11.437225515729526"><ele>776.6666666666667</ele><time>2026-04-26T09:20:03Z</time></trkpt><trkpt lat="43.51305510594374" lon="11.437356471340001"><ele>775.5</ele><time>2026-04-26T09:20:05Z</time></trkpt><trkpt lat="43.513075889593" lon="11.437451695140265"><ele>774.3333333333333</ele><time>2026-04-26T09:20:07Z</time></trkpt><trkpt lat="43.51309872769365" lon="11.437533284464728"><ele>773.1666666666666</ele><time>2026-04-26T09:20:10Z</time></trkpt><trkpt lat="43.51310522094943" lon="11.43764552549629"><ele>772.0</ele><time>2026-04-26T09:20:13Z</time></trkpt><trkpt lat="43.51310961837081" lon="11.437752086894449"><ele>771.9999999999999</ele><time>2026-04-26T09:20:17Z</time></trkpt><trkpt lat="43.51316014966834" lon="11.437819989374999"><ele>772.0</ele><time>2026-04-26T09:20:21Z</time></trkpt><trkpt lat="43.51323142794552" lon="11.437877230179987"><ele>772.0</ele><time>2026-04-26T09:20:25Z</time></trkpt><trkpt lat="43.51330391461459" lon="11.437881135677516"><ele>772.0</ele><time>2026-04-26T09:20:30Z</time></trkpt><trkpt lat="43.51338417131298" lon="11.437862693493981"><ele>771.9999999999999</ele><time>2026-04-26T09:20:33Z</time></trkpt><trkpt lat="43.51346981840381" lon="11.437875342938638"><ele>772.0</ele><time>2026-04-26T09:20:36Z</time></trkpt><trkpt lat="43.513539222594744" lon="11.437908320843015"><ele>772.0000000000001</ele><time>2026-04-26T09:20:39Z</time></trkpt><trkpt lat="43.51359517321921" lon="11.43795115980256"><ele>772.0</ele><time>2026-04-26T09:20:41Z</time></trkpt><trkpt lat="43.513641469189096" lon="11.438048362263844"><ele>772.0</ele><time>2026-04-26T09:20:44Z</time></trkpt><trkpt lat="43.51370482895867" lon="11.438085724895048"><ele>772.0</ele><time>2026-04-26T09:20:48Z</time></trkpt><trkpt lat="43.51377277420376" lon="11.438115812920586"><ele>772.0</ele><time>2026-04-26T09:20:51Z</time></trkpt><trkpt lat="43.513839093947226" lon="11.43817352903881"><ele>772.0000000000001</ele><time>2026-04-26T09:20:56Z</time></trkpt><trkpt lat="43.51389470850067" lon="11.43824480684676"><ele>772.0</ele><time>2026-04-26T09:21:00Z</time></trkpt><trkpt lat="43.51393072440422" lon="11.43834494009589"><ele>769.3333333333333</ele><time>2026-04-26T09:21:05Z</time></trkpt><trkpt lat="43.513959148947954" lon="11.438444041244987"><ele>766.6666666666666</ele><time>2026-04-26T09:21:08Z</time></trkpt><trkpt lat="43.513990262525674" lon="11.438521693614275"><ele>764.0</ele><time>2026-04-26T09:21:10Z</time></trkpt><trkpt lat="43.514012335810754" lon="11.43861746681823"><ele>761.3333333333333</ele><time>2026-04-26T09:21:13Z</time></trkpt><trkpt lat="43.51402083702005" lon="11.43871862203865"><ele>758.6666666666666</ele><time>2026-04-26T09:21:20Z</time></trkpt><trkpt lat="43.51404266870013" lon="11.438815842944877"><ele>756.0</ele><time>2026-04-26T09:21:59Z</time></trkpt><trkpt lat="43.51408695253848" lon="11.438920822970182"><ele>755.5714285714286</ele><time>2026-04-26T09:22:04Z</time></trkpt><trkpt lat="43.51413158397378" lon="11.438991995504082"><ele>755.1428571428571</ele><time>2026-04-26T09:22:07Z</time></trkpt><trkpt lat="43.514179980688816" lon="11.439074945951713"><ele>754.7142857142858</ele><time>2026-04-26T09:22:10Z</time></trkpt><trkpt lat="43.51421940992426" lon="11.43914367050024"><ele>754.2857142857142</ele><time>2026-04-26T09:22:13Z</time></trkpt><trkpt lat="43.51429570288263" lon="11.439177244892566"><ele>753.8571428571429</ele><time>2026-04-26T09:22:16Z</time></trkpt><trkpt lat="43.514373614599364" lon="11.439183710929983"><ele>753.4285714285714</ele><time>2026-04-26T09:22:19Z</time></trkpt><trkpt lat="43.5144419220162" lon="11.439209330531247"><ele>753.0</ele><time>2026-04-26T09:22:22Z</time></trkpt><trkpt lat="43.51451624415038" lon="11.43920510891889"><ele>751.7142857142858</ele><time>2026-04-26T09:22:50Z</time></trkpt><trkpt lat="43.51458397926073" lon="11.439286234897853"><ele>750.4285714285714</ele><time>2026-04-26T09:23:11Z</time></trkpt><trkpt lat="43.51464121309452" lon="11.439323177595336"><ele>749.1428571428571</ele><time>2026-04-26T09:23:15Z</time></trkpt><trkpt lat="43.514722395901295" lon="11.439336700409704"><ele>747.8571428571429</ele><time>2026-04-26T09:23:18Z</time></trkpt><trkpt lat="43.51479649207545" lon="11.439358149351346"><ele>746.5714285714286</ele><time>2026-04-26T09:23:22Z</time></trkpt><trkpt lat="43.514860224116624" lon="11.439406177518023"><ele>745.2857142857143</ele><time>2026-04-26T09:23:26Z</time></trkpt><trkpt lat="43.51490418190083" lon="11.43947447149625"><ele>744.0</ele><time>2026-04-26T09:23:30Z</time></trkpt><trkpt lat="43.51496334065907" lon="11.439513543247905"><ele>744.0</ele><time>2026-04-26T09:23:34Z</time></trkpt><trkpt lat="43.51501784349341" lon="11.439579267771443"><ele>744.0</ele><time>2026-04-26T09:23:39Z</time></trkpt><trkpt lat="43.51506602234897" lon="11.439670529781184"><ele>744.0</ele><time>2026-04-26T09:23:43Z</time></trkpt><trkpt lat="43.51509935645828" lon="11.439755115591517"><ele>744.0</ele><time>2026-04-26T09:23:46Z</time></trkpt><trkpt lat="43.51517028871805" lon="11.439834105914853"><ele>744.0</ele><time>2026-04-26T09:23:49Z</time></trkpt><trkpt lat="43.51522433660389" lon="11.439896663850202"><ele>744.0</ele><time>2026-04-26T09:23:53Z</time></trkpt><trkpt lat="43.51526736784962" lon="11.439965876226879"><ele>744.0000000000001</ele><time>2026-04-26T09:23:56Z</time></trkpt><trkpt lat="43.515317761287264" lon="11.440027158219072"><ele>744.0</ele><time>2026-04-26T09:24:00Z</time></trkpt><trkpt lat="43.51537532537021" lon="11.440101709467303"><ele>744.0</ele><time>2026-04-26T09:24:04Z</time></trkpt><trkpt lat="43.5154118888622" lon="11.440180759159599"><ele>744.0</ele><time>2026-04-26T09:24:08Z</time></trkpt><trkpt lat="43.5154494878021" lon="11.440256646362833"><ele>744.0</ele><time>2026-04-26T09:24:12Z</time></trkpt><trkpt lat="43.51550921768638" lon="11.440315865968511"><ele>744.0000000000001</ele><time>2026-04-26T09:24:19Z</time></trkpt><trkpt lat="43.51558521973134" lon="11.440328502922604"><ele>744.0</ele><time>2026-04-26T09:24:24Z</time></trkpt><trkpt lat="43.51565029372571" lon="11.440264299782143"><ele>742.2857142857143</ele><time>2026-04-26T09:24:27Z</time></trkpt><trkpt lat="43.51571739889384" lon="11.440226909468667"><ele>740.5714285714286</ele><time>2026-04-26T09:24:29Z</time></trkpt><trkpt lat="43.5157791876434" lon="11.440189716365518"><ele>738.8571428571429</ele><time>2026-04-26T09:24:31Z</time></trkpt><trkpt lat="43.51585289268493" lon="11.440154854501712"><ele>737.1428571428571</ele><time>2026-04-26T09:24:34Z</time></trkpt><trkpt lat="43.5159105653783" lon="11.440111549039298"><ele>735.4285714285714</ele><time>2026-04-26T09:24:37Z</time></trkpt><trkpt lat="43.515964605403596" lon="11.44006233447593"><ele>733.7142857142858</ele><time>2026-04-26T09:24:42Z</time></trkpt><trkpt lat="43.51599387689042" lon="11.43996635079022"><ele>732.0</ele><time>2026-04-26T09:24:47Z</time></trkpt><trkpt lat="43.51603780943747" lon="11.439882005572038"><ele>732.0</ele><time>2026-04-26T09:24:50Z</time></trkpt><trkpt lat="43.51608285210319" lon="11.43981212172598"><ele>732.0</ele><time>2026-04-26T09:24:52Z</time></trkpt><trkpt lat="43.51611294537322" lon="11.439699291755714"><ele>732.0</ele><time>2026-04-26T09:24:55Z</time></trkpt><trkpt lat="43.51613187953174" lon="11.439586753852408"><ele>732.0</ele><time>2026-04-26T09:24:58Z</time></trkpt><trkpt lat="43.51616766411809" lon="11.439503164532033"><ele>732.0</ele><time>2026-04-26T09:25:02Z</time></trkpt><trkpt lat="43.516207532743735" lon="11.439417807696572"><ele>732.0</ele><time>2026-04-26T09:25:05Z</time></trkpt><trkpt lat="43.516251918345276" lon="11.439352667071336"><ele>732.0</ele><time>2026-04-26T09:25:09Z</time></trkpt><trkpt lat="43.516300683741655" lon="11.43928746048588"><ele>730.4285714285714</ele><time>2026-04-26T09:25:13Z</time></trkpt><trkpt lat="43.5163611568615" lon="11.439222375735126"><ele>728.8571428571429</ele><time>2026-04-26T09:25:17Z</time></trkpt><trkpt lat="43.516404838321044" lon="11.439151607536544"><ele>727.2857142857142</ele><time>2026-04-26T09:25:20Z</time></trkpt><trkpt lat="43.51645769168651" lon="11.439072760055891"><ele>725.7142857142858</ele><time>2026-04-26T09:25:24Z</time></trkpt><trkpt lat="43.51651410512224" lon="11.439026526455"><ele>724.1428571428571</ele><time>2026-04-26T09:25:27Z</time></trkpt><trkpt lat="43.51656606485323" lon="11.43908886615002"><ele>722.5714285714286</ele><time>2026-04-26T09:25:32Z</time></trkpt><trkpt lat="43.51661735724908" lon="11.439154289590315"><ele>721.0</ele><time>2026-04-26T09:25:35Z</time></trkpt><trkpt lat="43.51668004548082" lon="11.43920680708948"><ele>721.0</ele><time>2026-04-26T09:25:38Z</time></trkpt><trkpt lat="43.516731449733804" lon="11.439260002296868"><ele>721.0</ele><time>2026-04-26T09:25:48Z</time></trkpt><trkpt lat="43.5167801229159" lon="11.439336579195276"><ele>721.0</ele><time>2026-04-26T09:26:18Z</time></trkpt><trkpt lat="43.51684290892995" lon="11.439394115574414"><ele>721.0</ele><time>2026-04-26T09:26:20Z</time></trkpt><trkpt lat="43.51687254441253" lon="11.439481547500021"><ele>721.0</ele><time>2026-04-26T09:26:23Z</time></trkpt><trkpt lat="43.51692060585297" lon="11.43957127205173"><ele>721.0</ele><time>2026-04-26T09:26:31Z</time></trkpt><trkpt lat="43.5169761825229" lon="11.439615829190547"><ele>721.0</ele><time>2026-04-26T09:26:35Z</time></trkpt><trkpt lat="43.516929606439014" lon="11.439702128915163"><ele>720.1666666666667</ele><time>2026-04-26T09:27:44Z</time></trkpt><trkpt lat="43.51691611133979" lon="11.43979533695779"><ele>719.3333333333334</ele><time>2026-04-26T09:27:47Z</time></trkpt><trkpt lat="43.516895531105256" lon="11.439903745654656"><ele>718.5</ele><time>2026-04-26T09:27:51Z</time></trkpt><trkpt lat="43.51687172568481" lon="11.440008749519668"><ele>717.6666666666666</ele><time>2026-04-26T09:27:55Z</time></trkpt><trkpt lat="43.516895734870204" lon="11.440118877773454"><ele>716.8333333333333</ele><time>2026-04-26T09:27:59Z</time></trkpt><trkpt lat="43.51693110149406" lon="11.440210685646521"><ele>716.0</ele><time>2026-04-26T09:28:02Z</time></trkpt><trkpt lat="43.51694586933369" lon="11.440314691208185"><ele>716.0000000000001</ele><time>2026-04-26T09:28:06Z</time></trkpt><trkpt lat="43.5169656661552" lon="11.44040211583548"><ele>716.0</ele><time>2026-04-26T09:28:09Z</time></trkpt><trkpt lat="43.51700300589513" lon="11.440488094572448"><ele>716.0</ele><time>2026-04-26T09:28:12Z</time></trkpt><trkpt lat="43.5170416537903" lon="11.440583133960109"><ele>716.0</ele><time>2026-04-26T09:28:15Z</time></trkpt><trkpt lat="43.51708776862677" lon="11.440663742368256"><ele>716.0</ele><time>2026-04-26T09:28:19Z</time></trkpt><trkpt lat="43.517117090402905" lon="11.440763242516724"><ele>716.0000000000001</ele><time>2026-04-26T09:28:24Z</time></trkpt><trkpt lat="43.517136689114686" lon="11.440846644276052"><ele>716.0</ele><time>2026-04-26T09:28:27Z</time></trkpt><trkpt lat="43.51717535588604" lon="11.44091908366204"><ele>713.4285714285714</ele><time>2026-04-26T09:28:30Z</time></trkpt><trkpt lat="43.517242664400484" lon="11.440952864501948"><ele>710.8571428571429</ele><time>2026-04-26T09:28:33Z</time></trkpt><trkpt lat="43.517304877454066" lon="11.4409898465391"><ele>708.2857142857142</ele><time>2026-04-26T09:28:35Z</time></trkpt><trkpt lat="43.51736995657276" lon="11.440989880606846"><ele>705.7142857142858</ele><time>2026-04-26T09:28:38Z</time></trkpt><trkpt lat="43.517438690867635" lon="11.441009490716448"><ele>703.1428571428571</ele><time>2026-04-26T09:28:45Z</time></trkpt><trkpt lat="43.51751040145481" lon="11.441011093002246"><ele>700.5714285714286</ele><time>2026-04-26T09:28:49Z</time></trkpt><trkpt lat="43.51758064744383" lon="11.440990580960356"><ele>698.0</ele><time>2026-04-26T09:28:52Z</time></trkpt><trkpt lat="43.517666021115275" lon="11.440980352912412"><ele>698.0</ele><time>2026-04-26T09:28:55Z</time></trkpt><trkpt lat="43.51774270345522" lon="11.44099759357094"><ele>698.0</ele><time>2026-04-26T09:28:57Z</time></trkpt><trkpt lat="43.51782408606953" lon="11.441009580472887"><ele>698.0</ele><time>2026-04-26T09:29:00Z</time></trkpt><trkpt lat="43.51790629429033" lon="11.441032859916286"><ele>698.0</ele><time>2026-04-26T09:29:03Z</time></trkpt><trkpt lat="43.51800417725055" lon="11.441033624698315"><ele>698.0</ele><time>2026-04-26T09:29:05Z</time></trkpt><trkpt lat="43.51806577229209" lon="11.44108668555795"><ele>698.0</ele><time>2026-04-26T09:29:07Z</time></trkpt><trkpt lat="43.51812513237189" lon="11.441147575991412"><ele>697.6666666666666</ele><time>2026-04-26T09:29:10Z</time></trkpt><trkpt lat="43.51817456458251" lon="11.441247795321434"><ele>697.3333333333333</ele><time>2026-04-26T09:29:13Z</time></trkpt><trkpt lat="43.518253376553865" lon="11.441328235853815"><ele>697.0</ele><time>2026-04-26T09:29:16Z</time></trkpt><trkpt lat="43.51828930008907" lon="11.441407069260963"><ele>696.6666666666666</ele><time>2026-04-26T09:29:20Z</time></trkpt><trkpt lat="43.518316396901525" lon="11.441488908578481"><ele>696.3333333333334</ele><time>2026-04-26T09:29:26Z</time></trkpt><trkpt lat="43.5183817842857" lon="11.441560585671757"><ele>696.0</ele><time>2026-04-26T09:29:32Z</time></trkpt><trkpt lat="43.51845384268571" lon="11.441605455396916"><ele>693.6666666666666</ele><time>2026-04-26T09:29:48Z</time></trkpt><trkpt lat="43.518540202317766" lon="11.441623063456682"><ele>691.3333333333334</ele><time>2026-04-26T09:29:51Z</time></trkpt><trkpt lat="43.518614206329474" lon="11.441697488255754"><ele>689.0</ele><time>2026-04-26T09:29:54Z</time></trkpt><trkpt lat="43.51864291917703" lon="11.441781078360064"><ele>686.6666666666667</ele><time>2026-04-26T09:29:56Z</time></trkpt><trkpt lat="43.51865239534729" lon="11.441873174977664"><ele>684.3333333333334</ele><time>2026-04-26T09:29:58Z</time></trkpt><trkpt lat="43.51864390175643" lon="11.441969180288423"><ele>682.0</ele><time>2026-04-26T09:30:28Z</time></trkpt><trkpt lat="43.51862201097269" lon="11.442075647923824"><ele>679.2857142857142</ele><time>2026-04-26T09:30:32Z</time></trkpt><trkpt lat="43.518613990648866" lon="11.442164252664874"><ele>676.5714285714286</ele><time>2026-04-26T09:30:38Z</time></trkpt><trkpt lat="43.51863402684638" lon="11.442252370009843"><ele>673.8571428571429</ele><time>2026-04-26T09:30:54Z</time></trkpt><trkpt lat="43.5186335679218" lon="11.442340724942882"><ele>671.1428571428571</ele><time>2026-04-26T09:31:01Z</time></trkpt><trkpt lat="43.51862244167545" lon="11.442442003169207"><ele>668.4285714285714</ele><time>2026-04-26T09:31:17Z</time></trkpt><trkpt lat="43.518585542315854" lon="11.442531853410523"><ele>665.7142857142857</ele><time>2026-04-26T09:31:22Z</time></trkpt><trkpt lat="43.51852127609345" lon="11.442559939751504"><ele>663.0</ele><time>2026-04-26T09:31:30Z</time></trkpt><trkpt lat="43.518483889435245" lon="11.442635682262088"><ele>662.9999999999999</ele><time>2026-04-26T09:31:37Z</time></trkpt><trkpt lat="43.51844262302842" lon="11.442710336524646"><ele>663.0</ele><time>2026-04-26T09:31:46Z</time></trkpt><trkpt lat="43.51838241120897" lon="11.442766897144832"><ele>663.0</ele><time>2026-04-26T09:31:52Z</time></trkpt><trkpt lat="43.518309976532166" lon="11.442760785795626"><ele>663.0</ele><time>2026-04-26T09:32:07Z</time></trkpt><trkpt lat="43.51824633808056" lon="11.442776981726153"><ele>663.0</ele><time>2026-04-26T09:32:16Z</time></trkpt><trkpt lat="43.51818325198343" lon="11.442767016207535"><ele>662.9999999999999</ele><time>2026-04-26T09:32:23Z</time></trkpt><trkpt lat="43.518103407267716" lon="11.44277625667104"><ele>663.0</ele><time>2026-04-26T09:33:03Z</time></trkpt><trkpt lat="43.51805319414874" lon="11.442723378593302"><ele>662.9999999999999</ele><time>2026-04-26T09:33:22Z</time></trkpt><trkpt lat="43.518046584495046" lon="11.442820518267501"><ele>663.0</ele><time>2026-04-26T09:33:58Z</time></trkpt><trkpt lat="43.518081145967955" lon="11.442903649106567"><ele>663.0</ele><time>2026-04-26T09:34:02Z</time></trkpt><trkpt lat="43.51810780182017" lon="11.443003678300474"><ele>663.0</ele><time>2026-04-26T09:34:07Z</time></trkpt><trkpt lat="43.518144637213375" lon="11.44308893123862"><ele>663.0</ele><time>2026-04-26T09:34:13Z</time></trkpt><trkpt lat="43.51818439451648" lon="11.443163040594538"><ele>662.9999999999999</ele><time>2026-04-26T09:34:18Z</time></trkpt><trkpt lat="43.51817048494739" lon="11.443269604444751"><ele>663.0</ele><time>2026-04-26T09:34:24Z</time></trkpt><trkpt lat="43.51821375071931" lon="11.443348554411092"><ele>659.1666666666666</ele><time>2026-04-26T09:34:31Z</time></trkpt><trkpt lat="43.518285848505165" lon="11.44337570242571"><ele>655.3333333333334</ele><time>2026-04-26T09:34:36Z</time></trkpt><trkpt lat="43.51834607651804" lon="11.443414894543668"><ele>651.5</ele><time>2026-04-26T09:34:42Z</time></trkpt><trkpt lat="43.51845708927767" lon="11.443426551030374"><ele>647.6666666666667</ele><time>2026-04-26T09:35:18Z</time></trkpt><trkpt lat="43.5185350913458" lon="11.443405834280954"><ele>643.8333333333334</ele><time>2026-04-26T09:35:27Z</time></trkpt><trkpt lat="43.51861144200774" lon="11.443393372755736"><ele>640.0</ele><time>2026-04-26T09:35:30Z</time></trkpt><trkpt lat="43.518667236802415" lon="11.443353108699338"><ele>640.0</ele><time>2026-04-26T09:35:34Z</time></trkpt><trkpt lat="43.518734183319864" lon="11.443325346822185"><ele>640.0</ele><time>2026-04-26T09:35:37Z</time></trkpt><trkpt lat="43.51880268901601" lon="11.443303731309822"><ele>640.0</ele><time>2026-04-26T09:35:43Z</time></trkpt><trkpt lat="43.51887680702018" lon="11.443290016927413"><ele>640.0</ele><time>2026-04-26T09:35:51Z</time></trkpt><trkpt lat="43.518941509276985" lon="11.443331764769527"><ele>640.0</ele><time>2026-04-26T09:35:58Z</time></trkpt><trkpt lat="43.519018387781344" lon="11.443350889121259"><ele>640.0</ele><time>2026-04-26T09:36:08Z</time></trkpt><trkpt lat="43.51901293096738" lon="11.443456545360949"><ele>640.0</ele><time>2026-04-26T09:36:46Z</time></trkpt><trkpt lat="43.51898324620903" lon="11.443544069382245"><ele>638.1666666666667</ele><time>2026-04-26T09:37:03Z</time></trkpt><trkpt lat="43.51896659370868" lon="11.443647906638512"><ele>636.3333333333334</ele><time>2026-04-26T09:38:03Z</time></trkpt><trkpt lat="43.51896559014787" lon="11.443767465589783"><ele>634.5</ele><time>2026-04-26T09:38:27Z</time></trkpt><trkpt lat="43.51896598030837" lon="11.44385461765275"><ele>632.6666666666666</ele><time>2026-04-26T09:38:35Z</time></trkpt><trkpt lat="43.518922385135596" lon="11.44397340419636"><ele>630.8333333333333</ele><time>2026-04-26T09:38:55.999Z</time></trkpt><trkpt lat="43.51889373193084" lon="11.444052816615468"><ele>629.0</ele><time>2026-04-26T09:39:14.999Z</time></trkpt><trkpt lat="43.518870253303646" lon="11.444144810251483"><ele>624.4285714285714</ele><time>2026-04-26T09:39:41.999Z</time></trkpt><trkpt lat="43.51895114947464" lon="11.44416108994712"><ele>619.8571428571429</ele><time>2026-04-26T09:39:59.999Z</time></trkpt><trkpt lat="43.51901781477709" lon="11.444164778803353"><ele>615.2857142857143</ele><time>2026-04-26T09:40:09.999Z</time></trkpt><trkpt lat="43.519084656811266" lon="11.444186728965228"><ele>610.7142857142858</ele><time>2026-04-26T09:40:15.999Z</time></trkpt><trkpt lat="43.519156627215054" lon="11.444214813065555"><ele>606.1428571428571</ele><time>2026-04-26T09:40:20.999Z</time></trkpt><trkpt lat="43.519223817648566" lon="11.444238192591609"><ele>601.5714285714287</ele><time>2026-04-26T09:40:25.999Z</time></trkpt><trkpt lat="43.519293583723005" lon="11.44425145041836"><ele>597.0</ele><time>2026-04-26T09:40:32.999Z</time></trkpt><trkpt lat="43.51937128217029" lon="11.444317142730537"><ele>597.0000000000001</ele><time>2026-04-26T09:41:02Z</time></trkpt><trkpt lat="43.51941290026038" lon="11.44438385001021"><ele>597.0</ele><time>2026-04-26T09:41:23Z</time></trkpt><trkpt lat="43.51946657522808" lon="11.444456355933013"><ele>597.0</ele><time>2026-04-26T09:41:40Z</time></trkpt><trkpt lat="43.519480211280836" lon="11.44454742748145"><ele>597.0</ele><time>2026-04-26T09:41:46.999Z</time></trkpt><trkpt lat="43.51950945396005" lon="11.444638850937734"><ele>597.0</ele><time>2026-04-26T09:41:49.999Z</time></trkpt><trkpt lat="43.51957669460686" lon="11.444636279839454"><ele>597.0000000000001</ele><time>2026-04-26T09:41:53.999Z</time></trkpt><trkpt lat="43.51964179070335" lon="11.444671958411606"><ele>597.0</ele><time>2026-04-26T09:41:59.999Z</time></trkpt><trkpt lat="43.51961412483606" lon="11.444751150527058"><ele>592.5714285714287</ele><time>2026-04-26T09:42:07.999Z</time></trkpt><trkpt lat="43.519597530975204" lon="11.444843599104319"><ele>588.1428571428571</ele><time>2026-04-26T09:42:11.999Z</time></trkpt><trkpt lat="43.51960018985493" lon="11.444939732171843"><ele>583.7142857142858</ele><time>2026-04-26T09:42:15.999Z</time></trkpt><trkpt lat="43.51958656411148" lon="11.445026067573323"><ele>579.2857142857143</ele><time>2026-04-26T09:42:18.999Z</time></trkpt><trkpt lat="43.51963896147811" lon="11.445088611518907"><ele>574.8571428571429</ele><time>2026-04-26T09:42:22.999Z</time></trkpt><trkpt lat="43.51969793938725" lon="11.445135563367096"><ele>570.4285714285714</ele><time>2026-04-26T09:42:27.999Z</time></trkpt><trkpt lat="43.51973354125184" lon="11.445231157885793"><ele>566.0</ele><time>2026-04-26T09:42:31.999Z</time></trkpt><trkpt lat="43.51974286729239" lon="11.445324658646552"><ele>566.0</ele><time>2026-04-26T09:42:36.999Z</time></trkpt><trkpt lat="43.51976135515144" lon="11.445428459991577"><ele>566.0</ele><time>2026-04-26T09:42:41.999Z</time></trkpt><trkpt lat="43.51977386231799" lon="11.445519232087557"><ele>566.0</ele><time>2026-04-26T09:42:44.999Z</time></trkpt><trkpt lat="43.519794938102315" lon="11.445629219812483"><ele>566.0</ele><time>2026-04-26T09:42:48Z</time></trkpt><trkpt lat="43.51985051244211" lon="11.445676398217854"><ele>566.0</ele><time>2026-04-26T09:42:51Z</time></trkpt><trkpt lat="43.51988954734468" lon="11.445757837143427"><ele>566.0</ele><time>2026-04-26T09:42:53Z</time></trkpt><trkpt lat="43.51991834386218" lon="11.445844902450784"><ele>566.0</ele><time>2026-04-26T09:42:58Z</time></trkpt><trkpt lat="43.51995139663916" lon="11.445919504479821"><ele>563.5714285714286</ele><time>2026-04-26T09:43:19Z</time></trkpt><trkpt lat="43.51999953023095" lon="11.44584404290151"><ele>561.1428571428572</ele><time>2026-04-26T09:43:23Z</time></trkpt><trkpt lat="43.52006017231776" lon="11.44578728903007"><ele>558.7142857142858</ele><time>2026-04-26T09:43:26Z</time></trkpt><trkpt lat="43.520137407329095" lon="11.445795430367292"><ele>556.2857142857143</ele><time>2026-04-26T09:43:29Z</time></trkpt><trkpt lat="43.520207929409466" lon="11.445826646007006"><ele>553.8571428571429</ele><time>2026-04-26T09:43:32Z</time></trkpt><trkpt lat="43.520265186174555" lon="11.445881800111685"><ele>551.4285714285714</ele><time>2026-04-26T09:43:34Z</time></trkpt><trkpt lat="43.52032314014139" lon="11.44595286814922"><ele>549.0</ele><time>2026-04-26T09:43:38Z</time></trkpt><trkpt lat="43.52038783674995" lon="11.445994891237032"><ele>549.0</ele><time>2026-04-26T09:43:43Z</time></trkpt><trkpt lat="43.520418471169755" lon="11.446088510286138"><ele>549.0</ele><time>2026-04-26T09:43:47Z</time></trkpt><trkpt lat="43.52039937980678" lon="11.446181660159535"><ele>549.0</ele><time>2026-04-26T09:43:50Z</time></trkpt><trkpt lat="43.52038351650148" lon="11.446279690023951"><ele>549.0</ele><time>2026-04-26T09:43:54Z</time></trkpt><trkpt lat="43.52040114697113" lon="11.446383442457389"><ele>549.0</ele><time>2026-04-26T09:43:57Z</time></trkpt><trkpt lat="43.52044750951809" lon="11.446451537809095"><ele>549.0</ele><time>2026-04-26T09:44:01Z</time></trkpt><trkpt lat="43.52048465725191" lon="11.446535556246296"><ele>549.0</ele><time>2026-04-26T09:44:04Z</time></trkpt><trkpt lat="43.520513810279525" lon="11.446635294522396"><ele>544.3333333333334</ele><time>2026-04-26T09:44:07Z</time></trkpt><trkpt lat="43.52055119515063" lon="11.446712561650534"><ele>539.6666666666666</ele><time>2026-04-26T09:44:09Z</time></trkpt><trkpt lat="43.52061762712314" lon="11.446764690224073"><ele>535.0</ele><time>2026-04-26T09:44:11Z</time></trkpt><trkpt lat="43.52066222644628" lon="11.446827789748179"><ele>530.3333333333333</ele><time>2026-04-26T09:44:15Z</time></trkpt><trkpt lat="43.52061639450587" lon="11.446936269335914"><ele>525.6666666666666</ele><time>2026-04-26T09:44:20Z</time></trkpt><trkpt lat="43.520569902860004" lon="11.447018229952329"><ele>521.0</ele><time>2026-04-26T09:44:21.999Z</time></trkpt><trkpt lat="43.520630894140616" lon="11.447124809888239"><ele>519.5</ele><time>2026-04-26T09:44:24.999Z</time></trkpt><trkpt lat="43.52070613521571" lon="11.447163137661416"><ele>518.0</ele><time>2026-04-26T09:44:26.999Z</time></trkpt><trkpt lat="43.52076464496808" lon="11.447243265722594"><ele>516.5</ele><time>2026-04-26T09:44:28.999Z</time></trkpt><trkpt lat="43.520830813155136" lon="11.447303057448226"><ele>515.0</ele><time>2026-04-26T09:44:30.999Z</time></trkpt><trkpt lat="43.520908460001344" lon="11.447366600825996"><ele>513.5</ele><time>2026-04-26T09:44:33.999Z</time></trkpt><trkpt lat="43.52098613562428" lon="11.44740595822246"><ele>512.0</ele><time>2026-04-26T09:44:36.999Z</time></trkpt><trkpt lat="43.521049890899015" lon="11.447454619020938"><ele>511.99999999999994</ele><time>2026-04-26T09:44:40.999Z</time></trkpt><trkpt lat="43.521122684746096" lon="11.447420403960713"><ele>512.0</ele><time>2026-04-26T09:44:44.999Z</time></trkpt><trkpt lat="43.52114534904539" lon="11.447314367402795"><ele>512.0</ele><time>2026-04-26T09:44:47.999Z</time></trkpt><trkpt lat="43.52121949818614" lon="11.44730240284279"><ele>512.0</ele><time>2026-04-26T09:44:53Z</time></trkpt><trkpt lat="43.5212802012887" lon="11.447393912654304"><ele>511.99999999999994</ele><time>2026-04-26T09:44:55Z</time></trkpt><trkpt lat="43.52133159188423" lon="11.447506066405845"><ele>512.0</ele><time>2026-04-26T09:44:57Z</time></trkpt><trkpt lat="43.52138596751394" lon="11.447605007912843"><ele>510.3333333333333</ele><time>2026-04-26T09:44:59Z</time></trkpt><trkpt lat="43.52144248283885" lon="11.4477091729732"><ele>508.66666666666663</ele><time>2026-04-26T09:45:01Z</time></trkpt><trkpt lat="43.52148964720232" lon="11.447804077710678"><ele>507.0</ele><time>2026-04-26T09:45:03Z</time></trkpt><trkpt lat="43.52152542795556" lon="11.447883479707068"><ele>505.33333333333337</ele><time>2026-04-26T09:45:05Z</time></trkpt><trkpt lat="43.52158262032492" lon="11.448005901471502"><ele>503.6666666666667</ele><time>2026-04-26T09:45:38Z</time></trkpt><trkpt lat="43.52162836741056" lon="11.448085507201503"><ele>502.0</ele><time>2026-04-26T09:45:39Z</time></trkpt><trkpt lat="43.521671103293365" lon="11.448173010247855"><ele>501.99999999999994</ele><time>2026-04-26T09:45:41Z</time></trkpt><trkpt lat="43.521687262990646" lon="11.448270091093226"><ele>502.0</ele><time>2026-04-26T09:45:43Z</time></trkpt><trkpt lat="43.5217033498245" lon="11.448383484268506"><ele>501.99999999999994</ele><time>2026-04-26T09:45:45Z</time></trkpt><trkpt lat="43.52171317946052" lon="11.448469390902845"><ele>501.99999999999994</ele><time>2026-04-26T09:45:47Z</time></trkpt><trkpt lat="43.521705821069624" lon="11.448564068936639"><ele>502.0</ele><time>2026-04-26T09:45:49Z</time></trkpt><trkpt lat="43.52170963372255" lon="11.44866174067803"><ele>501.99999999999994</ele><time>2026-04-26T09:45:51Z</time></trkpt><trkpt lat="43.52170796276047" lon="11.44876451156449"><ele>501.99999999999994</ele><time>2026-04-26T09:45:53Z</time></trkpt><trkpt lat="43.52171927023636" lon="11.448880435140094"><ele>502.00000000000006</ele><time>2026-04-26T09:45:56Z</time></trkpt><trkpt lat="43.521764767074686" lon="11.4489648787221"><ele>502.0</ele><time>2026-04-26T09:45:59Z</time></trkpt><trkpt lat="43.52182124193321" lon="11.448916597038142"><ele>502.0</ele><time>2026-04-26T09:46:57Z</time></trkpt><trkpt lat="43.52183767099502" lon="11.448832119196082"><ele>502.0</ele><time>2026-04-26T09:47:05Z</time></trkpt><trkpt lat="43.521886139037534" lon="11.448742250307447"><ele>502.00000000000006</ele><time>2026-04-26T09:47:20Z</time></trkpt><trkpt lat="43.52191320651396" lon="11.448638751273432"><ele>502.0</ele><time>2026-04-26T09:47:22Z</time></trkpt><trkpt lat="43.52195441115754" lon="11.448503484614443"><ele>502.0</ele><time>2026-04-26T09:47:24Z</time></trkpt><trkpt lat="43.52198995163023" lon="11.448342332606037"><ele>502.00000000000006</ele><time>2026-04-26T09:47:26Z</time></trkpt><trkpt lat="43.52200387897319" lon="11.44820834502695"><ele>502.00000000000006</ele><time>2026-04-26T09:47:28Z</time></trkpt><trkpt lat="43.52202641196087" lon="11.44811463921986"><ele>502.0</ele><time>2026-04-26T09:47:31Z</time></trkpt><trkpt lat="43.522117592841695" lon="11.448152988821342"><ele>502.0</ele><time>2026-04-26T09:47:34Z</time></trkpt><trkpt lat="43.52216741935376" lon="11.448258542630473"><ele>500.50000000000006</ele><time>2026-04-26T09:47:36Z</time></trkpt><trkpt lat="43.52217630982766" lon="11.448378951874389"><ele>499.0</ele><time>2026-04-26T09:47:38Z</time></trkpt><trkpt lat="43.52219797239944" lon="11.448525543324717"><ele>497.5</ele><time>2026-04-26T09:47:40Z</time></trkpt><trkpt lat="43.522232916539465" lon="11.44860342879178"><ele>496.0</ele><time>2026-04-26T09:47:41Z</time></trkpt><trkpt lat="43.52227046652958" lon="11.448685255127332"><ele>494.50000000000006</ele><time>2026-04-26T09:47:42Z</time></trkpt><trkpt lat="43.52232791716899" lon="11.44875827635608"><ele>493.0</ele><time>2026-04-26T09:47:43Z</time></trkpt><trkpt lat="43.52238541568836" lon="11.448823511417096"><ele>493.00000000000006</ele><time>2026-04-26T09:47:44Z</time></trkpt><trkpt lat="43.52243775795223" lon="11.448889169322168"><ele>493.0</ele><time>2026-04-26T09:47:45Z</time></trkpt><trkpt lat="43.52248670679384" lon="11.448969101525213"><ele>493.0</ele><time>2026-04-26T09:47:46Z</time></trkpt><trkpt lat="43.52253400548856" lon="11.44905032100118"><ele>493.0</ele><time>2026-04-26T09:47:47Z</time></trkpt><trkpt lat="43.52258784821466" lon="11.4491234661119"><ele>493.00000000000006</ele><time>2026-04-26T09:47:48Z</time></trkpt><trkpt lat="43.52264386580762" lon="11.449202406874926"><ele>493.0</ele><time>2026-04-26T09:47:49Z</time></trkpt><trkpt lat="43.522707137122204" lon="11.449283052735707"><ele>493.0</ele><time>2026-04-26T09:47:50Z</time></trkpt><trkpt lat="43.52278410211" lon="11.449349319202343"><ele>492.99999999999994</ele><time>2026-04-26T09:47:51Z</time></trkpt><trkpt lat="43.522867388321416" lon="11.44941345679087"><ele>492.99999999999994</ele><time>2026-04-26T09:47:52Z</time></trkpt><trkpt lat="43.52297308150975" lon="11.4494267563363"><ele>493.0</ele><time>2026-04-26T09:47:53Z</time></trkpt><trkpt lat="43.52307785963172" lon="11.449415689661235"><ele>493.0</ele><time>2026-04-26T09:47:54Z</time></trkpt><trkpt lat="43.523181591328594" lon="11.449436442013118"><ele>490.2</ele><time>2026-04-26T09:47:55Z</time></trkpt><trkpt lat="43.5232915020986" lon="11.44945566356457"><ele>487.4</ele><time>2026-04-26T09:47:56Z</time></trkpt><trkpt lat="43.523396755101885" lon="11.449466663650883"><ele>484.59999999999997</ele><time>2026-04-26T09:47:57Z</time></trkpt><trkpt lat="43.52348588877451" lon="11.449478482400743"><ele>481.79999999999995</ele><time>2026-04-26T09:47:58Z</time></trkpt><trkpt lat="43.523575986558534" lon="11.449498948693499"><ele>479.0</ele><time>2026-04-26T09:47:59Z</time></trkpt><trkpt lat="43.523667458854604" lon="11.449513051368456"><ele>476.3333333333333</ele><time>2026-04-26T09:48:00Z</time></trkpt><trkpt lat="43.52375459550253" lon="11.44952313877674"><ele>473.66666666666663</ele><time>2026-04-26T09:48:01Z</time></trkpt><trkpt lat="43.52382911054184" lon="11.449557004014364"><ele>471.0</ele><time>2026-04-26T09:48:02Z</time></trkpt><trkpt lat="43.52390417723657" lon="11.449578801204746"><ele>468.33333333333337</ele><time>2026-04-26T09:48:03Z</time></trkpt><trkpt lat="43.52397609119637" lon="11.449610251721602"><ele>465.6666666666667</ele><time>2026-04-26T09:48:04Z</time></trkpt><trkpt lat="43.524038852768136" lon="11.449644389348144"><ele>463.0</ele><time>2026-04-26T09:48:05Z</time></trkpt><trkpt lat="43.52410395447606" lon="11.449762439166447"><ele>463.00000000000006</ele><time>2026-04-26T09:48:07Z</time></trkpt><trkpt lat="43.52403652786497" lon="11.449912437007798"><ele>463.0</ele><time>2026-04-26T09:48:09Z</time></trkpt><trkpt lat="43.52396388129099" lon="11.449965217353084"><ele>463.0</ele><time>2026-04-26T09:48:10Z</time></trkpt><trkpt lat="43.52388134816603" lon="11.449971416768618"><ele>463.0</ele><time>2026-04-26T09:48:11Z</time></trkpt><trkpt lat="43.52380754466342" lon="11.450011298546615"><ele>463.00000000000006</ele><time>2026-04-26T09:48:12Z</time></trkpt><trkpt lat="43.523742595192765" lon="11.450054039710148"><ele>463.0</ele><time>2026-04-26T09:48:13Z</time></trkpt><trkpt lat="43.52365344326969" lon="11.450115295081636"><ele>461.59999999999997</ele><time>2026-04-26T09:48:14Z</time></trkpt><trkpt lat="43.52357119082341" lon="11.45017960901208"><ele>460.19999999999993</ele><time>2026-04-26T09:48:15Z</time></trkpt><trkpt lat="43.523492315335325" lon="11.450245215160555"><ele>458.8</ele><time>2026-04-26T09:48:16Z</time></trkpt><trkpt lat="43.52341213746435" lon="11.450312481626923"><ele>457.4</ele><time>2026-04-26T09:48:17Z</time></trkpt><trkpt lat="43.52333406825976" lon="11.450400190374998"><ele>456.0</ele><time>2026-04-26T09:48:18Z</time></trkpt><trkpt lat="43.52324554888553" lon="11.450466965318968"><ele>456.0</ele><time>2026-04-26T09:48:19Z</time></trkpt><trkpt lat="43.523166672655904" lon="11.450530870693575"><ele>456.0</ele><time>2026-04-26T09:48:20Z</time></trkpt><trkpt lat="43.52308908488162" lon="11.450621355044126"><ele>456.0</ele><time>2026-04-26T09:48:21Z</time></trkpt><trkpt lat="43.52301682098032" lon="11.45072882758341"><ele>456.0</ele><time>2026-04-26T09:48:22Z</time></trkpt><trkpt lat="43.52295196424247" lon="11.450829289955614"><ele>456.0</ele><time>2026-04-26T09:48:23Z</time></trkpt><trkpt lat="43.52289697129935" lon="11.450921678444777"><ele>456.5</ele><time>2026-04-26T09:48:24Z</time></trkpt><trkpt lat="43.52285747902818" lon="11.451012357829475"><ele>457.0</ele><time>2026-04-26T09:48:25Z</time></trkpt><trkpt lat="43.52283161508757" lon="11.451111914763722"><ele>457.5</ele><time>2026-04-26T09:48:26Z</time></trkpt><trkpt lat="43.522835813461256" lon="11.451229390762807"><ele>458.0</ele><time>2026-04-26T09:48:27Z</time></trkpt><trkpt lat="43.52285189308403" lon="11.45135190083139"><ele>458.5</ele><time>2026-04-26T09:48:28Z</time></trkpt><trkpt lat="43.52286020208913" lon="11.45147174482533"><ele>459.0</ele><time>2026-04-26T09:48:29Z</time></trkpt><trkpt lat="43.52286348415732" lon="11.451597374413133"><ele>459.0</ele><time>2026-04-26T09:48:30Z</time></trkpt><trkpt lat="43.52284727841338" lon="11.451716335916446"><ele>459.0</ele><time>2026-04-26T09:48:31Z</time></trkpt><trkpt lat="43.522829522386495" lon="11.451813547499404"><ele>459.0</ele><time>2026-04-26T09:48:32Z</time></trkpt><trkpt lat="43.522807488732845" lon="11.451899593938519"><ele>459.0</ele><time>2026-04-26T09:48:33Z</time></trkpt><trkpt lat="43.522745463694896" lon="11.451972034821402"><ele>459.0</ele><time>2026-04-26T09:48:34Z</time></trkpt><trkpt lat="43.52268318029836" lon="11.452056259006135"><ele>459.0</ele><time>2026-04-26T09:48:35Z</time></trkpt><trkpt lat="43.5226250672731" lon="11.452111221754834"><ele>456.3333333333333</ele><time>2026-04-26T09:48:36Z</time></trkpt><trkpt lat="43.522604894004076" lon="11.45219916147237"><ele>453.66666666666663</ele><time>2026-04-26T09:48:37Z</time></trkpt><trkpt lat="43.52262519608589" lon="11.452303582615135"><ele>451.0</ele><time>2026-04-26T09:48:38Z</time></trkpt><trkpt lat="43.52268687230076" lon="11.452393346523609"><ele>448.3333333333333</ele><time>2026-04-26T09:48:39Z</time></trkpt><trkpt lat="43.52274993025211" lon="11.452456687351368"><ele>445.66666666666663</ele><time>2026-04-26T09:48:40Z</time></trkpt><trkpt lat="43.52284434347398" lon="11.452417927869742"><ele>443.0</ele><time>2026-04-26T09:48:41Z</time></trkpt><trkpt lat="43.52291764168147" lon="11.452355714378243"><ele>442.99999999999994</ele><time>2026-04-26T09:48:42Z</time></trkpt><trkpt lat="43.5229953155028" lon="11.452313402677321"><ele>443.0</ele><time>2026-04-26T09:48:43Z</time></trkpt><trkpt lat="43.52306551880168" lon="11.4522549248145"><ele>443.0</ele><time>2026-04-26T09:48:44Z</time></trkpt><trkpt lat="43.52312695426297" lon="11.452194740380541"><ele>443.0</ele><time>2026-04-26T09:48:45Z</time></trkpt><trkpt lat="43.52320099585117" lon="11.452117122078912"><ele>442.99999999999994</ele><time>2026-04-26T09:48:46Z</time></trkpt><trkpt lat="43.52324477900004" lon="11.452036560915667"><ele>443.0</ele><time>2026-04-26T09:48:47Z</time></trkpt><trkpt lat="43.52328581414171" lon="11.451913220637374"><ele>442.99999999999994</ele><time>2026-04-26T09:48:49Z</time></trkpt><trkpt lat="43.52323902366703" lon="11.451832100782877"><ele>443.0</ele><time>2026-04-26T09:48:51Z</time></trkpt><trkpt lat="43.523237512651974" lon="11.451724273989745"><ele>443.0</ele><time>2026-04-26T09:48:53Z</time></trkpt><trkpt lat="43.52323891158425" lon="11.451565487571937"><ele>443.0</ele><time>2026-04-26T09:48:55Z</time></trkpt><trkpt lat="43.523279573839616" lon="11.451435350131481"><ele>442.99999999999994</ele><time>2026-04-26T09:48:57Z</time></trkpt><trkpt lat="43.52330240097991" lon="11.451347572752267"><ele>443.0</ele><time>2026-04-26T09:49:08Z</time></trkpt><trkpt lat="43.52335257641596" lon="11.451233761872595"><ele>442.0</ele><time>2026-04-26T09:49:11Z</time></trkpt><trkpt lat="43.52341155751998" lon="11.45112893189477"><ele>440.99999999999994</ele><time>2026-04-26T09:49:13Z</time></trkpt><trkpt lat="43.52351636806188" lon="11.451083863728412"><ele>439.99999999999994</ele><time>2026-04-26T09:49:15Z</time></trkpt><trkpt lat="43.52362420906043" lon="11.451046480787708"><ele>439.0</ele><time>2026-04-26T09:49:17Z</time></trkpt><trkpt lat="43.523744530005615" lon="11.451005487795905"><ele>438.0</ele><time>2026-04-26T09:49:19Z</time></trkpt><trkpt lat="43.52380710518395" lon="11.450981675160369"><ele>438.0</ele><time>2026-04-26T09:49:20Z</time></trkpt><trkpt lat="43.52387347224788" lon="11.450959703099024"><ele>438.0</ele><time>2026-04-26T09:49:21Z</time></trkpt><trkpt lat="43.52394285395245" lon="11.450935159892909"><ele>438.0</ele><time>2026-04-26T09:49:22Z</time></trkpt><trkpt lat="43.52401493033087" lon="11.450909323318006"><ele>438.0</ele><time>2026-04-26T09:49:23Z</time></trkpt><trkpt lat="43.52409005441089" lon="11.450886517990675"><ele>438.0</ele><time>2026-04-26T09:49:24Z</time></trkpt><trkpt lat="43.52416929811749" lon="11.450867438152672"><ele>438.0</ele><time>2026-04-26T09:49:25Z</time></trkpt><trkpt lat="43.524250654626506" lon="11.45085937807467"><ele>438.0</ele><time>2026-04-26T09:49:26Z</time></trkpt><trkpt lat="43.52433585537143" lon="11.45086033179643"><ele>437.99999999999994</ele><time>2026-04-26T09:49:27Z</time></trkpt><trkpt lat="43.52442562799436" lon="11.45086794537752"><ele>437.99999999999994</ele><time>2026-04-26T09:49:28Z</time></trkpt><trkpt lat="43.52451873226421" lon="11.450881484555577"><ele>438.0</ele><time>2026-04-26T09:49:29Z</time></trkpt><trkpt lat="43.52461649428634" lon="11.450902175132327"><ele>438.0</ele><time>2026-04-26T09:49:30Z</time></trkpt><trkpt lat="43.52471437603664" lon="11.450934201021282"><ele>436.2</ele><time>2026-04-26T09:49:31Z</time></trkpt><trkpt lat="43.52481190084997" lon="11.45098948014427"><ele>434.4</ele><time>2026-04-26T09:49:32Z</time></trkpt><trkpt lat="43.52491029520061" lon="11.451052561691288"><ele>432.59999999999997</ele><time>2026-04-26T09:49:33Z</time></trkpt><trkpt lat="43.52501457112545" lon="11.451107258100086"><ele>430.79999999999995</ele><time>2026-04-26T09:49:34Z</time></trkpt><trkpt lat="43.5251181456442" lon="11.451163677904278"><ele>429.0</ele><time>2026-04-26T09:49:35Z</time></trkpt><trkpt lat="43.52521737429466" lon="11.451218492031485"><ele>429.0</ele><time>2026-04-26T09:49:36Z</time></trkpt><trkpt lat="43.525309815642004" lon="11.45126216898945"><ele>429.0</ele><time>2026-04-26T09:49:37Z</time></trkpt><trkpt lat="43.525409549964714" lon="11.451284586552623"><ele>429.0</ele><time>2026-04-26T09:49:38Z</time></trkpt><trkpt lat="43.525515021112724" lon="11.451280276417606"><ele>429.0</ele><time>2026-04-26T09:49:39Z</time></trkpt><trkpt lat="43.525614697650944" lon="11.451265729920157"><ele>429.0</ele><time>2026-04-26T09:49:40Z</time></trkpt><trkpt lat="43.525710017213896" lon="11.451260179410612"><ele>426.0</ele><time>2026-04-26T09:49:41Z</time></trkpt><trkpt lat="43.52580511025916" lon="11.451274082293752"><ele>423.0</ele><time>2026-04-26T09:49:42Z</time></trkpt><trkpt lat="43.52590203671047" lon="11.45130243753383"><ele>420.0</ele><time>2026-04-26T09:49:43Z</time></trkpt><trkpt lat="43.52600085607259" lon="11.45135927913055"><ele>417.0</ele><time>2026-04-26T09:49:44Z</time></trkpt><trkpt lat="43.52610584283593" lon="11.451416432633787"><ele>414.0</ele><time>2026-04-26T09:49:45Z</time></trkpt><trkpt lat="43.52621298481394" lon="11.451476030298831"><ele>410.2</ele><time>2026-04-26T09:49:46Z</time></trkpt><trkpt lat="43.52631546412541" lon="11.451532600033735"><ele>406.4</ele><time>2026-04-26T09:49:47Z</time></trkpt><trkpt lat="43.5264099442607" lon="11.451587483529323"><ele>402.6</ele><time>2026-04-26T09:49:48Z</time></trkpt><trkpt lat="43.52649874704901" lon="11.451638896695131"><ele>398.8</ele><time>2026-04-26T09:49:49Z</time></trkpt><trkpt lat="43.52658682149254" lon="11.451685752490116"><ele>395.0</ele><time>2026-04-26T09:49:50Z</time></trkpt><trkpt lat="43.526675325563225" lon="11.451732435326111"><ele>394.99999999999994</ele><time>2026-04-26T09:49:51Z</time></trkpt><trkpt lat="43.52676039158474" lon="11.451781696452812"><ele>395.0</ele><time>2026-04-26T09:49:52Z</time></trkpt><trkpt lat="43.52684283818614" lon="11.45182629821782"><ele>395.0</ele><time>2026-04-26T09:49:53Z</time></trkpt><trkpt lat="43.52692632152565" lon="11.451864563191215"><ele>395.0</ele><time>2026-04-26T09:49:54Z</time></trkpt><trkpt lat="43.52701228446566" lon="11.451898767395473"><ele>394.99999999999994</ele><time>2026-04-26T09:49:55Z</time></trkpt><trkpt lat="43.52709799091874" lon="11.451932716110568"><ele>395.0</ele><time>2026-04-26T09:49:56Z</time></trkpt><trkpt lat="43.5271867723914" lon="11.45196192074253"><ele>392.6</ele><time>2026-04-26T09:49:57Z</time></trkpt><trkpt lat="43.52728137465481" lon="11.451992349869887"><ele>390.2</ele><time>2026-04-26T09:49:58Z</time></trkpt><trkpt lat="43.52737915068398" lon="11.452016544624305"><ele>387.79999999999995</ele><time>2026-04-26T09:49:59Z</time></trkpt><trkpt lat="43.52748031680046" lon="11.452032403649888"><ele>385.4</ele><time>2026-04-26T09:50:00Z</time></trkpt><trkpt lat="43.5275757734741" lon="11.452051498622064"><ele>383.0</ele><time>2026-04-26T09:50:01Z</time></trkpt><trkpt lat="43.52765658587886" lon="11.452072284268864"><ele>383.0</ele><time>2026-04-26T09:50:02Z</time></trkpt><trkpt lat="43.52772416425663" lon="11.452097318127995"><ele>383.0</ele><time>2026-04-26T09:50:03Z</time></trkpt><trkpt lat="43.52778068442811" lon="11.452147667127708"><ele>383.0</ele><time>2026-04-26T09:50:04Z</time></trkpt><trkpt lat="43.527848230618794" lon="11.452283597328766"><ele>383.0</ele><time>2026-04-26T09:50:06Z</time></trkpt><trkpt lat="43.52791711384183" lon="11.452378210864953"><ele>383.0</ele><time>2026-04-26T09:50:08Z</time></trkpt><trkpt lat="43.52799485564859" lon="11.45245187045835"><ele>383.0</ele><time>2026-04-26T09:50:10Z</time></trkpt><trkpt lat="43.52804440330735" lon="11.45253646448218"><ele>382.6666666666667</ele><time>2026-04-26T09:50:11Z</time></trkpt><trkpt lat="43.52810273910566" lon="11.452617750581684"><ele>382.33333333333337</ele><time>2026-04-26T09:50:12Z</time></trkpt><trkpt lat="43.5281619139613" lon="11.452703393814854"><ele>382.0</ele><time>2026-04-26T09:50:13Z</time></trkpt><trkpt lat="43.52822262033084" lon="11.45278755434996"><ele>381.6666666666667</ele><time>2026-04-26T09:50:14Z</time></trkpt><trkpt lat="43.5282850361291" lon="11.45286780586105"><ele>381.3333333333333</ele><time>2026-04-26T09:50:15Z</time></trkpt><trkpt lat="43.52835392096847" lon="11.452945115433836"><ele>381.0</ele><time>2026-04-26T09:50:16Z</time></trkpt><trkpt lat="43.52843090647315" lon="11.453008467008955"><ele>381.6666666666667</ele><time>2026-04-26T09:50:17Z</time></trkpt><trkpt lat="43.52851979748099" lon="11.453049200251694"><ele>382.33333333333337</ele><time>2026-04-26T09:50:18Z</time></trkpt><trkpt lat="43.528603259659775" lon="11.45307911659409"><ele>383.0</ele><time>2026-04-26T09:50:19Z</time></trkpt><trkpt lat="43.52867840992912" lon="11.453134908316772"><ele>383.6666666666667</ele><time>2026-04-26T09:50:20Z</time></trkpt><trkpt lat="43.52875187035318" lon="11.453203536775371"><ele>384.33333333333337</ele><time>2026-04-26T09:50:21Z</time></trkpt><trkpt lat="43.52883112227368" lon="11.453260262606452"><ele>385.0</ele><time>2026-04-26T09:50:22Z</time></trkpt><trkpt lat="43.528905684630146" lon="11.453304508085134"><ele>385.50000000000006</ele><time>2026-04-26T09:50:23Z</time></trkpt><trkpt lat="43.528983529588174" lon="11.453322010942468"><ele>386.0</ele><time>2026-04-26T09:50:24Z</time></trkpt><trkpt lat="43.52906847799964" lon="11.453304806104825"><ele>386.5</ele><time>2026-04-26T09:50:25Z</time></trkpt><trkpt lat="43.52915292936762" lon="11.45326974985501"><ele>387.0</ele><time>2026-04-26T09:50:26Z</time></trkpt><trkpt lat="43.529242825483664" lon="11.453233827986457"><ele>387.50000000000006</ele><time>2026-04-26T09:50:27Z</time></trkpt><trkpt lat="43.52931885861856" lon="11.453232232954349"><ele>388.0</ele><time>2026-04-26T09:50:28Z</time></trkpt><trkpt lat="43.529399120139495" lon="11.453229886803541"><ele>388.00000000000006</ele><time>2026-04-26T09:50:29Z</time></trkpt><trkpt lat="43.5294837933792" lon="11.453236711881669"><ele>388.0</ele><time>2026-04-26T09:50:30Z</time></trkpt><trkpt lat="43.52956842159613" lon="11.453242870480647"><ele>388.0</ele><time>2026-04-26T09:50:31Z</time></trkpt><trkpt lat="43.52965137845371" lon="11.45327044439639"><ele>388.0</ele><time>2026-04-26T09:50:32Z</time></trkpt><trkpt lat="43.52973463039499" lon="11.453307367933515"><ele>388.00000000000006</ele><time>2026-04-26T09:50:33Z</time></trkpt><trkpt lat="43.52981155538356" lon="11.453340917670554"><ele>388.0</ele><time>2026-04-26T09:50:34Z</time></trkpt><trkpt lat="43.529888282094184" lon="11.453371834067045"><ele>386.85714285714283</ele><time>2026-04-26T09:50:35Z</time></trkpt><trkpt lat="43.529960115463304" lon="11.453395539384529"><ele>385.7142857142857</ele><time>2026-04-26T09:50:36Z</time></trkpt><trkpt lat="43.53002714172045" lon="11.453416656890306"><ele>384.57142857142856</ele><time>2026-04-26T09:50:37Z</time></trkpt><trkpt lat="43.53009046099304" lon="11.453436069952982"><ele>383.42857142857144</ele><time>2026-04-26T09:50:38Z</time></trkpt><trkpt lat="43.53016221525486" lon="11.453459209976511"><ele>382.28571428571433</ele><time>2026-04-26T09:50:39Z</time></trkpt><trkpt lat="43.53023707142669" lon="11.453488040937962"><ele>381.14285714285717</ele><time>2026-04-26T09:50:40Z</time></trkpt><trkpt lat="43.53031575315358" lon="11.453512668531374"><ele>380.0</ele><time>2026-04-26T09:50:41Z</time></trkpt><trkpt lat="43.53039157461058" lon="11.453541197654166"><ele>379.5</ele><time>2026-04-26T09:50:42Z</time></trkpt><trkpt lat="43.53047442128673" lon="11.453592733572766"><ele>379.0</ele><time>2026-04-26T09:50:43Z</time></trkpt><trkpt lat="43.53055356352231" lon="11.453660303187144"><ele>378.5</ele><time>2026-04-26T09:50:44Z</time></trkpt><trkpt lat="43.530632574439544" lon="11.453724423360073"><ele>378.0</ele><time>2026-04-26T09:50:45Z</time></trkpt><trkpt lat="43.53070373885513" lon="11.453781584753148"><ele>377.5</ele><time>2026-04-26T09:50:46Z</time></trkpt><trkpt lat="43.53077527318318" lon="11.453836325540518"><ele>377.0</ele><time>2026-04-26T09:50:47Z</time></trkpt><trkpt lat="43.53084471484593" lon="11.453881280871025"><ele>377.0</ele><time>2026-04-26T09:50:48Z</time></trkpt><trkpt lat="43.53092215056791" lon="11.453898287379413"><ele>377.0</ele><time>2026-04-26T09:50:49Z</time></trkpt><trkpt lat="43.53100200226016" lon="11.453892507805715"><ele>377.0</ele><time>2026-04-26T09:50:50Z</time></trkpt><trkpt lat="43.53108148865442" lon="11.45387925931241"><ele>377.0</ele><time>2026-04-26T09:50:51Z</time></trkpt><trkpt lat="43.53115982553087" lon="11.453879739695038"><ele>377.0</ele><time>2026-04-26T09:50:52Z</time></trkpt><trkpt lat="43.5312304154181" lon="11.453903945310174"><ele>377.0</ele><time>2026-04-26T09:50:53Z</time></trkpt><trkpt lat="43.53128972415445" lon="11.4539587252802"><ele>375.6666666666667</ele><time>2026-04-26T09:50:54Z</time></trkpt><trkpt lat="43.531335006148176" lon="11.454039637717676"><ele>374.33333333333337</ele><time>2026-04-26T09:50:55Z</time></trkpt><trkpt lat="43.5313850076207" lon="11.454136325987044"><ele>373.0</ele><time>2026-04-26T09:50:56Z</time></trkpt><trkpt lat="43.531415918228966" lon="11.454249147915199"><ele>371.6666666666667</ele><time>2026-04-26T09:50:57Z</time></trkpt><trkpt lat="43.53143039135584" lon="11.454372815404424"><ele>370.3333333333333</ele><time>2026-04-26T09:50:58Z</time></trkpt><trkpt lat="43.531422570287965" lon="11.454500052105564"><ele>369.0</ele><time>2026-04-26T09:50:59Z</time></trkpt><trkpt lat="43.531398175376296" lon="11.454624480729505"><ele>367.3333333333333</ele><time>2026-04-26T09:51:00Z</time></trkpt><trkpt lat="43.53136454693978" lon="11.454741719991562"><ele>365.6666666666667</ele><time>2026-04-26T09:51:01Z</time></trkpt><trkpt lat="43.53133745067654" lon="11.454861317038244"><ele>364.0</ele><time>2026-04-26T09:51:02Z</time></trkpt><trkpt lat="43.53133126841401" lon="11.454975325154924"><ele>362.33333333333337</ele><time>2026-04-26T09:51:03Z</time></trkpt><trkpt lat="43.531350166947114" lon="11.455085419337264"><ele>360.6666666666667</ele><time>2026-04-26T09:51:04Z</time></trkpt><trkpt lat="43.53139101227196" lon="11.45519239975689"><ele>359.0</ele><time>2026-04-26T09:51:05Z</time></trkpt><trkpt lat="43.531442036969416" lon="11.455293134324688"><ele>359.0</ele><time>2026-04-26T09:51:06Z</time></trkpt><trkpt lat="43.53148092230226" lon="11.455409898616526"><ele>359.0</ele><time>2026-04-26T09:51:07Z</time></trkpt><trkpt lat="43.53151756982975" lon="11.455532659666567"><ele>359.0</ele><time>2026-04-26T09:51:08Z</time></trkpt><trkpt lat="43.531553419430274" lon="11.455657804337077"><ele>359.0</ele><time>2026-04-26T09:51:09Z</time></trkpt><trkpt lat="43.531591293858824" lon="11.455782247940446"><ele>359.0</ele><time>2026-04-26T09:51:10Z</time></trkpt><trkpt lat="43.53163307175572" lon="11.455908109617118"><ele>357.79999999999995</ele><time>2026-04-26T09:51:11Z</time></trkpt><trkpt lat="43.531676291562384" lon="11.456030945796755"><ele>356.59999999999997</ele><time>2026-04-26T09:51:12Z</time></trkpt><trkpt lat="43.53171598001147" lon="11.456153723897168"><ele>355.4</ele><time>2026-04-26T09:51:13Z</time></trkpt><trkpt lat="43.53174953485481" lon="11.456274780534466"><ele>354.2</ele><time>2026-04-26T09:51:14Z</time></trkpt><trkpt lat="43.531782778113424" lon="11.456393927338715"><ele>353.0</ele><time>2026-04-26T09:51:15Z</time></trkpt><trkpt lat="43.53181536194319" lon="11.456511569580588"><ele>351.83333333333337</ele><time>2026-04-26T09:51:16Z</time></trkpt><trkpt lat="43.53185243555782" lon="11.456622050988535"><ele>350.6666666666667</ele><time>2026-04-26T09:51:17Z</time></trkpt><trkpt lat="43.531908604733395" lon="11.456714261147"><ele>349.5</ele><time>2026-04-26T09:51:18Z</time></trkpt><trkpt lat="43.53197252779828" lon="11.456795631821832"><ele>348.3333333333333</ele><time>2026-04-26T09:51:19Z</time></trkpt><trkpt lat="43.532047374670164" lon="11.456871421480121"><ele>347.16666666666663</ele><time>2026-04-26T09:51:20Z</time></trkpt><trkpt lat="43.53211814023068" lon="11.456944952952174"><ele>346.0</ele><time>2026-04-26T09:51:21Z</time></trkpt><trkpt lat="43.532188441891364" lon="11.457028555953858"><ele>344.3333333333333</ele><time>2026-04-26T09:51:22Z</time></trkpt><trkpt lat="43.53226005544349" lon="11.457114287161597"><ele>342.66666666666663</ele><time>2026-04-26T09:51:23Z</time></trkpt><trkpt lat="43.53233435118913" lon="11.457203402004387"><ele>341.0</ele><time>2026-04-26T09:51:24Z</time></trkpt><trkpt lat="43.532403789356984" lon="11.457282513413812"><ele>339.3333333333333</ele><time>2026-04-26T09:51:25Z</time></trkpt><trkpt lat="43.532455404955805" lon="11.457359247953324"><ele>337.6666666666667</ele><time>2026-04-26T09:51:26Z</time></trkpt><trkpt lat="43.53249571113194" lon="11.45744011599272"><ele>336.0</ele><time>2026-04-26T09:51:27Z</time></trkpt><trkpt lat="43.532515695909545" lon="11.457534153519148"><ele>335.8333333333333</ele><time>2026-04-26T09:51:28Z</time></trkpt><trkpt lat="43.53250981789483" lon="11.457651438973704"><ele>335.6666666666667</ele><time>2026-04-26T09:51:29Z</time></trkpt><trkpt lat="43.53247245937138" lon="11.457758603905447"><ele>335.5</ele><time>2026-04-26T09:51:30Z</time></trkpt><trkpt lat="43.5324318393886" lon="11.457865870768199"><ele>335.33333333333337</ele><time>2026-04-26T09:51:31Z</time></trkpt><trkpt lat="43.53239236783631" lon="11.457971772424232"><ele>335.1666666666667</ele><time>2026-04-26T09:51:32Z</time></trkpt><trkpt lat="43.5323580421329" lon="11.458071404028557"><ele>335.0</ele><time>2026-04-26T09:51:33Z</time></trkpt><trkpt lat="43.53233348145693" lon="11.458170393648496"><ele>333.5</ele><time>2026-04-26T09:51:34Z</time></trkpt><trkpt lat="43.532337462583286" lon="11.458274769109602"><ele>332.0</ele><time>2026-04-26T09:51:35Z</time></trkpt><trkpt lat="43.532371901651814" lon="11.45837737893872"><ele>330.5</ele><time>2026-04-26T09:51:36Z</time></trkpt><trkpt lat="43.532443297499846" lon="11.458450912942343"><ele>329.0</ele><time>2026-04-26T09:51:37Z</time></trkpt><trkpt lat="43.532525093980546" lon="11.458508031326556"><ele>327.5</ele><time>2026-04-26T09:51:38Z</time></trkpt><trkpt lat="43.53260111012206" lon="11.458569770840239"><ele>326.0</ele><time>2026-04-26T09:51:39Z</time></trkpt><trkpt lat="43.53267447500609" lon="11.458635061318937"><ele>326.0</ele><time>2026-04-26T09:51:40Z</time></trkpt><trkpt lat="43.53274976141893" lon="11.458694321324256"><ele>326.0</ele><time>2026-04-26T09:51:41Z</time></trkpt><trkpt lat="43.532827579969776" lon="11.458751908987056"><ele>326.0</ele><time>2026-04-26T09:51:42Z</time></trkpt><trkpt lat="43.53290227701801" lon="11.458807963341792"><ele>326.0</ele><time>2026-04-26T09:51:43Z</time></trkpt><trkpt lat="43.532980900547884" lon="11.458853914869916"><ele>326.0</ele><time>2026-04-26T09:51:44Z</time></trkpt><trkpt lat="43.533056476561036" lon="11.458895300144443"><ele>326.0</ele><time>2026-04-26T09:51:45Z</time></trkpt><trkpt lat="43.53313281966856" lon="11.458932656651134"><ele>324.33333333333337</ele><time>2026-04-26T09:51:46Z</time></trkpt><trkpt lat="43.53320472524854" lon="11.458979181571067"><ele>322.6666666666667</ele><time>2026-04-26T09:51:47Z</time></trkpt><trkpt lat="43.53327216047039" lon="11.459047536891292"><ele>321.0</ele><time>2026-04-26T09:51:48Z</time></trkpt><trkpt lat="43.53332549521154" lon="11.45913843190328"><ele>319.3333333333333</ele><time>2026-04-26T09:51:49Z</time></trkpt><trkpt lat="43.53336791027786" lon="11.459238858894784"><ele>317.66666666666663</ele><time>2026-04-26T09:51:50Z</time></trkpt><trkpt lat="43.5333995057983" lon="11.459348470408955"><ele>316.0</ele><time>2026-04-26T09:51:51Z</time></trkpt><trkpt lat="43.5334269329035" lon="11.459467091787426"><ele>316.0</ele><time>2026-04-26T09:51:52Z</time></trkpt><trkpt lat="43.53345916426569" lon="11.45957902097849"><ele>316.0</ele><time>2026-04-26T09:51:53Z</time></trkpt><trkpt lat="43.53349432086442" lon="11.459688951388493"><ele>316.0</ele><time>2026-04-26T09:51:54Z</time></trkpt><trkpt lat="43.53354698881349" lon="11.459798024703796"><ele>316.0</ele><time>2026-04-26T09:51:55Z</time></trkpt><trkpt lat="43.53359916727322" lon="11.459898063738683"><ele>316.0</ele><time>2026-04-26T09:51:56Z</time></trkpt><trkpt lat="43.533651135396774" lon="11.459992917962138"><ele>316.0</ele><time>2026-04-26T09:51:57Z</time></trkpt><trkpt lat="43.53370454064744" lon="11.460083110248314"><ele>313.6</ele><time>2026-04-26T09:51:58Z</time></trkpt><trkpt lat="43.533766094232554" lon="11.460163837204192"><ele>311.20000000000005</ele><time>2026-04-26T09:51:59Z</time></trkpt><trkpt lat="43.533836930627714" lon="11.46024103557002"><ele>308.79999999999995</ele><time>2026-04-26T09:52:00Z</time></trkpt><trkpt lat="43.53391550218906" lon="11.460309261724934"><ele>306.4</ele><time>2026-04-26T09:52:01Z</time></trkpt><trkpt lat="43.53399680035766" lon="11.460369666679842"><ele>304.0</ele><time>2026-04-26T09:52:02Z</time></trkpt><trkpt lat="43.534075026273634" lon="11.460432888805133"><ele>303.66666666666663</ele><time>2026-04-26T09:52:03Z</time></trkpt><trkpt lat="43.534150685984606" lon="11.460489409610362"><ele>303.3333333333333</ele><time>2026-04-26T09:52:04Z</time></trkpt><trkpt lat="43.534225336821635" lon="11.460546276952972"><ele>303.0</ele><time>2026-04-26T09:52:05Z</time></trkpt><trkpt lat="43.53428835954183" lon="11.46062265642299"><ele>302.6666666666667</ele><time>2026-04-26T09:52:06Z</time></trkpt><trkpt lat="43.53434563068266" lon="11.460713940785746"><ele>302.33333333333337</ele><time>2026-04-26T09:52:07Z</time></trkpt><trkpt lat="43.53441077164758" lon="11.460804413939135"><ele>302.0</ele><time>2026-04-26T09:52:08Z</time></trkpt><trkpt lat="43.53446310834072" lon="11.460911012190122"><ele>302.0</ele><time>2026-04-26T09:52:09Z</time></trkpt><trkpt lat="43.53450495942236" lon="11.461020693810255"><ele>302.0</ele><time>2026-04-26T09:52:10Z</time></trkpt><trkpt lat="43.5345339442872" lon="11.461116768454712"><ele>302.0</ele><time>2026-04-26T09:52:11Z</time></trkpt><trkpt lat="43.53459040509826" lon="11.461260216321168"><ele>302.0</ele><time>2026-04-26T09:52:13Z</time></trkpt><trkpt lat="43.534640642005236" lon="11.461332555664644"><ele>302.0</ele><time>2026-04-26T09:52:14Z</time></trkpt><trkpt lat="43.53468871589911" lon="11.461416365097149"><ele>302.0</ele><time>2026-04-26T09:52:15Z</time></trkpt><trkpt lat="43.53472710478826" lon="11.461497607292872"><ele>300.1666666666667</ele><time>2026-04-26T09:52:16Z</time></trkpt><trkpt lat="43.53478716536811" lon="11.461594072580873"><ele>298.33333333333337</ele><time>2026-04-26T09:52:18Z</time></trkpt><trkpt lat="43.53483951629043" lon="11.461644646574753"><ele>296.5</ele><time>2026-04-26T09:52:22Z</time></trkpt><trkpt lat="43.53491652929364" lon="11.461620226919585"><ele>294.6666666666667</ele><time>2026-04-26T09:52:24Z</time></trkpt><trkpt lat="43.53496121929835" lon="11.461546006000049"><ele>292.8333333333333</ele><time>2026-04-26T09:52:25Z</time></trkpt><trkpt lat="43.53501082140078" lon="11.461447231487625"><ele>291.0</ele><time>2026-04-26T09:52:26Z</time></trkpt><trkpt lat="43.5350666135352" lon="11.461327792142654"><ele>291.6</ele><time>2026-04-26T09:52:27Z</time></trkpt><trkpt lat="43.535129173754655" lon="11.46121145909273"><ele>292.20000000000005</ele><time>2026-04-26T09:52:28Z</time></trkpt><trkpt lat="43.53518527210593" lon="11.461115180258265"><ele>292.79999999999995</ele><time>2026-04-26T09:52:29Z</time></trkpt><trkpt lat="43.53523576950277" lon="11.461025599887833"><ele>293.4</ele><time>2026-04-26T09:52:30Z</time></trkpt><trkpt lat="43.53528147783016" lon="11.460916456660096"><ele>294.0</ele><time>2026-04-26T09:52:31Z</time></trkpt><trkpt lat="43.53533775964973" lon="11.46078808369557"><ele>290.5</ele><time>2026-04-26T09:52:32Z</time></trkpt><trkpt lat="43.5354071802114" lon="11.460652445613489"><ele>287.0</ele><time>2026-04-26T09:52:33Z</time></trkpt><trkpt lat="43.53547808727715" lon="11.460510389939282"><ele>283.5</ele><time>2026-04-26T09:52:34Z</time></trkpt><trkpt lat="43.535555153808936" lon="11.460361739347348"><ele>280.0</ele><time>2026-04-26T09:52:35Z</time></trkpt><trkpt lat="43.53563197236454" lon="11.460205108219672"><ele>280.0</ele><time>2026-04-26T09:52:36Z</time></trkpt><trkpt lat="43.53569603810098" lon="11.460059646718857"><ele>280.0</ele><time>2026-04-26T09:52:37Z</time></trkpt><trkpt lat="43.53573873143768" lon="11.459915421531997"><ele>280.0</ele><time>2026-04-26T09:52:38Z</time></trkpt><trkpt lat="43.535764218483905" lon="11.459767369639176"><ele>280.0</ele><time>2026-04-26T09:52:39Z</time></trkpt><trkpt lat="43.53578064971677" lon="11.459621895752967"><ele>279.5</ele><time>2026-04-26T09:52:40Z</time></trkpt><trkpt lat="43.53577582802064" lon="11.459462471798684"><ele>279.0</ele><time>2026-04-26T09:52:41Z</time></trkpt><trkpt lat="43.53573595881526" lon="11.459297310412188"><ele>278.5</ele><time>2026-04-26T09:52:42Z</time></trkpt><trkpt lat="43.535665296965846" lon="11.45913506217754"><ele>278.0</ele><time>2026-04-26T09:52:43Z</time></trkpt><trkpt lat="43.53558010704413" lon="11.458980381202823"><ele>278.0</ele><time>2026-04-26T09:52:44Z</time></trkpt><trkpt lat="43.53549918520864" lon="11.458825487425253"><ele>278.0</ele><time>2026-04-26T09:52:45Z</time></trkpt><trkpt lat="43.535434231793516" lon="11.458669838708595"><ele>278.0</ele><time>2026-04-26T09:52:46Z</time></trkpt><trkpt lat="43.53540217202927" lon="11.45850374647089"><ele>278.0</ele><time>2026-04-26T09:52:47Z</time></trkpt><trkpt lat="43.535406571273654" lon="11.45833892589966"><ele>276.5</ele><time>2026-04-26T09:52:48Z</time></trkpt><trkpt lat="43.535427589007995" lon="11.458172486186884"><ele>275.0</ele><time>2026-04-26T09:52:49Z</time></trkpt><trkpt lat="43.535437146557655" lon="11.457998291377546"><ele>273.5</ele><time>2026-04-26T09:52:50Z</time></trkpt><trkpt lat="43.53545681156475" lon="11.457833566360353"><ele>272.0</ele><time>2026-04-26T09:52:51Z</time></trkpt><trkpt lat="43.53547183533178" lon="11.457675053543424"><ele>271.0</ele><time>2026-04-26T09:52:52Z</time></trkpt><trkpt lat="43.53548764032308" lon="11.457520376550683"><ele>270.0</ele><time>2026-04-26T09:52:53Z</time></trkpt><trkpt lat="43.535502255409035" lon="11.457380141467219"><ele>269.0</ele><time>2026-04-26T09:52:54Z</time></trkpt><trkpt lat="43.53551728042834" lon="11.457259907960884"><ele>268.0</ele><time>2026-04-26T09:52:55Z</time></trkpt><trkpt lat="43.53553857358429" lon="11.457153217875131"><ele>267.0</ele><time>2026-04-26T09:52:56Z</time></trkpt><trkpt lat="43.53558404829833" lon="11.45705961372227"><ele>269.6</ele><time>2026-04-26T09:52:57Z</time></trkpt><trkpt lat="43.535678598977626" lon="11.457017292197305"><ele>272.2</ele><time>2026-04-26T09:52:58Z</time></trkpt><trkpt lat="43.53577150189915" lon="11.456971010149454"><ele>274.8</ele><time>2026-04-26T09:52:59Z</time></trkpt><trkpt lat="43.53585651575108" lon="11.456903102720652"><ele>277.4</ele><time>2026-04-26T09:53:00Z</time></trkpt><trkpt lat="43.53593509995911" lon="11.456862533024307"><ele>280.0</ele><time>2026-04-26T09:53:01Z</time></trkpt><trkpt lat="43.53600684890227" lon="11.456816882136708"><ele>280.0</ele><time>2026-04-26T09:53:02Z</time></trkpt><trkpt lat="43.53608090824277" lon="11.456815008757756"><ele>280.0</ele><time>2026-04-26T09:53:03Z</time></trkpt><trkpt lat="43.53614765905174" lon="11.45687575362099"><ele>280.0</ele><time>2026-04-26T09:53:04Z</time></trkpt><trkpt lat="43.53620154100337" lon="11.45697695892345"><ele>280.0</ele><time>2026-04-26T09:53:05Z</time></trkpt><trkpt lat="43.53624896381443" lon="11.457075715176925"><ele>280.0</ele><time>2026-04-26T09:53:06Z</time></trkpt><trkpt lat="43.536298588653004" lon="11.457159148912828"><ele>280.0</ele><time>2026-04-26T09:53:07Z</time></trkpt><trkpt lat="43.53634855969506" lon="11.457237456144373"><ele>277.8333333333333</ele><time>2026-04-26T09:53:08Z</time></trkpt><trkpt lat="43.53639378723452" lon="11.457308071830093"><ele>275.66666666666663</ele><time>2026-04-26T09:53:09Z</time></trkpt><trkpt lat="43.53645627508808" lon="11.457406369202362"><ele>273.5</ele><time>2026-04-26T09:53:11Z</time></trkpt><trkpt lat="43.53651244148541" lon="11.457480272559689"><ele>271.3333333333333</ele><time>2026-04-26T09:55:14Z</time></trkpt><trkpt lat="43.536564821794066" lon="11.457536833834096"><ele>269.1666666666667</ele><time>2026-04-26T09:55:15Z</time></trkpt><trkpt lat="43.53662970944396" lon="11.457625166785169"><ele>267.0</ele><time>2026-04-26T09:55:16Z</time></trkpt><trkpt lat="43.53670809902148" lon="11.457717670150284"><ele>267.0</ele><time>2026-04-26T09:55:17Z</time></trkpt><trkpt lat="43.536807244024054" lon="11.457782032142733"><ele>267.0</ele><time>2026-04-26T09:55:18Z</time></trkpt><trkpt lat="43.53690933076963" lon="11.457817401540208"><ele>267.0</ele><time>2026-04-26T09:55:19Z</time></trkpt><trkpt lat="43.53700780066963" lon="11.457804235810045"><ele>267.0</ele><time>2026-04-26T09:55:20Z</time></trkpt><trkpt lat="43.53710283875854" lon="11.457743080768644"><ele>267.0</ele><time>2026-04-26T09:55:21Z</time></trkpt><trkpt lat="43.53718692326268" lon="11.457653347503573"><ele>267.75</ele><time>2026-04-26T09:55:22Z</time></trkpt><trkpt lat="43.53725992401268" lon="11.457539989847772"><ele>268.5</ele><time>2026-04-26T09:55:23Z</time></trkpt><trkpt lat="43.537314043373925" lon="11.457396555691512"><ele>269.25</ele><time>2026-04-26T09:55:24Z</time></trkpt><trkpt lat="43.53735441466753" lon="11.457226567649892"><ele>270.0</ele><time>2026-04-26T09:55:25Z</time></trkpt><trkpt lat="43.53739797200298" lon="11.457027897683593"><ele>274.3333333333333</ele><time>2026-04-26T09:55:26Z</time></trkpt><trkpt lat="43.537449934972706" lon="11.456813980388612"><ele>278.66666666666663</ele><time>2026-04-26T09:55:27Z</time></trkpt><trkpt lat="43.53750309850697" lon="11.456603600491635"><ele>283.0</ele><time>2026-04-26T09:55:28Z</time></trkpt><trkpt lat="43.53754568504085" lon="11.456403607275787"><ele>284.25</ele><time>2026-04-26T09:55:29Z</time></trkpt><trkpt lat="43.53755900829415" lon="11.456219265704046"><ele>285.5</ele><time>2026-04-26T09:55:30Z</time></trkpt><trkpt lat="43.53751765324776" lon="11.456041905768389"><ele>286.75</ele><time>2026-04-26T09:55:31Z</time></trkpt><trkpt lat="43.53745429391566" lon="11.455869824199173"><ele>288.0</ele><time>2026-04-26T09:55:32Z</time></trkpt><trkpt lat="43.53738137212437" lon="11.45569569450897"><ele>288.0</ele><time>2026-04-26T09:55:33Z</time></trkpt><trkpt lat="43.53733816383725" lon="11.455525555724474"><ele>288.0</ele><time>2026-04-26T09:55:34Z</time></trkpt><trkpt lat="43.53735361443934" lon="11.455363425563487"><ele>288.0</ele><time>2026-04-26T09:55:35Z</time></trkpt><trkpt lat="43.53736525515921" lon="11.455217011545665"><ele>288.0</ele><time>2026-04-26T09:55:36Z</time></trkpt><trkpt lat="43.53744574242099" lon="11.455106383750822"><ele>288.75</ele><time>2026-04-26T09:55:37Z</time></trkpt><trkpt lat="43.53752309853645" lon="11.454974179987735"><ele>289.5</ele><time>2026-04-26T09:55:38Z</time></trkpt><trkpt lat="43.53760844701358" lon="11.454847790819848"><ele>290.25</ele><time>2026-04-26T09:55:39Z</time></trkpt><trkpt lat="43.53766086304092" lon="11.454694305664772"><ele>291.0</ele><time>2026-04-26T09:55:40Z</time></trkpt><trkpt lat="43.537673527876144" lon="11.454527290511963"><ele>293.0</ele><time>2026-04-26T09:55:41Z</time></trkpt><trkpt lat="43.537650113365096" lon="11.454364245712176"><ele>295.0</ele><time>2026-04-26T09:55:42Z</time></trkpt><trkpt lat="43.53759289996525" lon="11.454214727603016"><ele>297.0</ele><time>2026-04-26T09:55:43Z</time></trkpt><trkpt lat="43.53751316369164" lon="11.454070435172703"><ele>299.0</ele><time>2026-04-26T09:55:44Z</time></trkpt><trkpt lat="43.53743687683258" lon="11.453908226139289"><ele>299.33333333333337</ele><time>2026-04-26T09:55:45Z</time></trkpt><trkpt lat="43.537365503855014" lon="11.453718972622815"><ele>299.6666666666667</ele><time>2026-04-26T09:55:46Z</time></trkpt><trkpt lat="43.537300640234676" lon="11.453513110343426"><ele>300.0</ele><time>2026-04-26T09:55:47Z</time></trkpt><trkpt lat="43.537246923193436" lon="11.453302535750012"><ele>300.0</ele><time>2026-04-26T09:55:48Z</time></trkpt><trkpt lat="43.53719654554414" lon="11.453103475006523"><ele>300.0</ele><time>2026-04-26T09:55:49Z</time></trkpt><trkpt lat="43.537161619524696" lon="11.452922558684302"><ele>300.0</ele><time>2026-04-26T09:55:50Z</time></trkpt><trkpt lat="43.5371367253238" lon="11.452768978294705"><ele>300.0</ele><time>2026-04-26T09:55:51Z</time></trkpt><trkpt lat="43.53711806906642" lon="11.45264397287326"><ele>300.6666666666667</ele><time>2026-04-26T09:55:52Z</time></trkpt><trkpt lat="43.53711559790649" lon="11.452535553580447"><ele>301.3333333333333</ele><time>2026-04-26T09:55:53Z</time></trkpt><trkpt lat="43.53716499543245" lon="11.452448599279494"><ele>302.0</ele><time>2026-04-26T09:55:54Z</time></trkpt><trkpt lat="43.537243669928664" lon="11.452387337881113"><ele>302.66666666666663</ele><time>2026-04-26T09:55:55Z</time></trkpt><trkpt lat="43.537335360956966" lon="11.452365514476867"><ele>303.3333333333333</ele><time>2026-04-26T09:55:56Z</time></trkpt><trkpt lat="43.537421823115345" lon="11.452406853294002"><ele>304.0</ele><time>2026-04-26T09:55:57Z</time></trkpt><trkpt lat="43.53749975126983" lon="11.452491166493132"><ele>304.0</ele><time>2026-04-26T09:55:58Z</time></trkpt><trkpt lat="43.53756617782599" lon="11.452624826505375"><ele>304.0</ele><time>2026-04-26T09:55:59Z</time></trkpt><trkpt lat="43.53763772403645" lon="11.452760067336412"><ele>304.0</ele><time>2026-04-26T09:56:00Z</time></trkpt><trkpt lat="43.53771424140233" lon="11.452905897560461"><ele>304.0</ele><time>2026-04-26T09:56:01Z</time></trkpt><trkpt lat="43.53779487986029" lon="11.453044624909673"><ele>303.25</ele><time>2026-04-26T09:56:02Z</time></trkpt><trkpt lat="43.537867058262755" lon="11.453180098356487"><ele>302.5</ele><time>2026-04-26T09:56:03Z</time></trkpt><trkpt lat="43.53794274621601" lon="11.453315985590896"><ele>301.75</ele><time>2026-04-26T09:56:04Z</time></trkpt><trkpt lat="43.538025355751344" lon="11.453452384053456"><ele>301.0</ele><time>2026-04-26T09:56:05Z</time></trkpt><trkpt lat="43.53812587870967" lon="11.45358370954838"><ele>301.0</ele><time>2026-04-26T09:56:06Z</time></trkpt><trkpt lat="43.5382519998033" lon="11.453692198775093"><ele>301.0</ele><time>2026-04-26T09:56:07Z</time></trkpt><trkpt lat="43.53839322317495" lon="11.453775385207488"><ele>301.0</ele><time>2026-04-26T09:56:08Z</time></trkpt><trkpt lat="43.53853659752382" lon="11.453856021399162"><ele>298.0</ele><time>2026-04-26T09:56:09Z</time></trkpt><trkpt lat="43.53868333603115" lon="11.453932678631578"><ele>295.0</ele><time>2026-04-26T09:56:10Z</time></trkpt><trkpt lat="43.53882951564919" lon="11.454005470696595"><ele>292.0</ele><time>2026-04-26T09:56:11Z</time></trkpt><trkpt lat="43.53896467631954" lon="11.454079162390796"><ele>292.0</ele><time>2026-04-26T09:56:12Z</time></trkpt><trkpt lat="43.539094115486044" lon="11.454149845523794"><ele>292.0</ele><time>2026-04-26T09:56:13Z</time></trkpt><trkpt lat="43.53921505054833" lon="11.454217237323203"><ele>292.0</ele><time>2026-04-26T09:56:14Z</time></trkpt><trkpt lat="43.53933672083602" lon="11.454259651996194"><ele>292.0</ele><time>2026-04-26T09:56:15Z</time></trkpt><trkpt lat="43.539469075282966" lon="11.454230519503929"><ele>291.5</ele><time>2026-04-26T09:56:16Z</time></trkpt><trkpt lat="43.539602646870165" lon="11.454167827067774"><ele>291.0</ele><time>2026-04-26T09:56:17Z</time></trkpt><trkpt lat="43.53973665773998" lon="11.454091195943414"><ele>290.5</ele><time>2026-04-26T09:56:18Z</time></trkpt><trkpt lat="43.539881182022114" lon="11.454013790015704"><ele>290.0</ele><time>2026-04-26T09:56:19Z</time></trkpt><trkpt lat="43.54002674299056" lon="11.453937125250155"><ele>290.0</ele><time>2026-04-26T09:56:20Z</time></trkpt><trkpt lat="43.54017046349861" lon="11.453852200183306"><ele>290.0</ele><time>2026-04-26T09:56:21Z</time></trkpt><trkpt lat="43.54031467465119" lon="11.453770641227218"><ele>290.0</ele><time>2026-04-26T09:56:22Z</time></trkpt><trkpt lat="43.540432954978115" lon="11.453645518827564"><ele>290.0</ele><time>2026-04-26T09:56:23Z</time></trkpt><trkpt lat="43.540545367352294" lon="11.453527561794083"><ele>290.0</ele><time>2026-04-26T09:56:24Z</time></trkpt><trkpt lat="43.5406649360885" lon="11.453422581372026"><ele>290.0</ele><time>2026-04-26T09:56:25Z</time></trkpt><trkpt lat="43.54078939801288" lon="11.453351519344634"><ele>290.0</ele><time>2026-04-26T09:56:26Z</time></trkpt><trkpt lat="43.5409129939519" lon="11.453307889922533"><ele>290.0</ele><time>2026-04-26T09:56:27Z</time></trkpt><trkpt lat="43.541044054921336" lon="11.453283061578926"><ele>290.0</ele><time>2026-04-26T09:56:28Z</time></trkpt><trkpt lat="43.54117317434608" lon="11.453288827034944"><ele>290.0</ele><time>2026-04-26T09:56:29Z</time></trkpt><trkpt lat="43.541300853132405" lon="11.453319084872591"><ele>290.0</ele><time>2026-04-26T09:56:30Z</time></trkpt><trkpt lat="43.5414283114705" lon="11.45335525918057"><ele>290.0</ele><time>2026-04-26T09:56:31Z</time></trkpt><trkpt lat="43.54154555952016" lon="11.453388945860876"><ele>290.0</ele><time>2026-04-26T09:56:32Z</time></trkpt><trkpt lat="43.54165847448205" lon="11.453421553477742"><ele>290.0</ele><time>2026-04-26T09:56:33Z</time></trkpt><trkpt lat="43.54177540990116" lon="11.453460090100576"><ele>290.0</ele><time>2026-04-26T09:56:34Z</time></trkpt><trkpt lat="43.54188822851328" lon="11.453484761245905"><ele>290.0</ele><time>2026-04-26T09:56:35Z</time></trkpt><trkpt lat="43.54200197672121" lon="11.453463173215066"><ele>290.0</ele><time>2026-04-26T09:56:36Z</time></trkpt><trkpt lat="43.542111732531566" lon="11.453407952551105"><ele>290.0</ele><time>2026-04-26T09:56:37Z</time></trkpt><trkpt lat="43.54221212958949" lon="11.453306894185475"><ele>290.0</ele><time>2026-04-26T09:56:38Z</time></trkpt><trkpt lat="43.54231315883783" lon="11.453190721703459"><ele>289.75</ele><time>2026-04-26T09:56:39Z</time></trkpt><trkpt lat="43.54242059906398" lon="11.45307075315879"><ele>289.5</ele><time>2026-04-26T09:56:40Z</time></trkpt><trkpt lat="43.54252892811428" lon="11.452948669118186"><ele>289.25</ele><time>2026-04-26T09:56:41Z</time></trkpt><trkpt lat="43.542636097982275" lon="11.452819510412496"><ele>289.0</ele><time>2026-04-26T09:56:42Z</time></trkpt><trkpt lat="43.54274154088798" lon="11.452677004623961"><ele>289.66666666666663</ele><time>2026-04-26T09:56:43Z</time></trkpt><trkpt lat="43.54284092118641" lon="11.452515757899828"><ele>290.3333333333333</ele><time>2026-04-26T09:56:44Z</time></trkpt><trkpt lat="43.542936640689604" lon="11.45235096138286"><ele>291.0</ele><time>2026-04-26T09:56:45Z</time></trkpt><trkpt lat="43.543044956130906" lon="11.452197171841883"><ele>285.6666666666667</ele><time>2026-04-26T09:56:46Z</time></trkpt><trkpt lat="43.54316937927253" lon="11.452058144396181"><ele>280.33333333333337</ele><time>2026-04-26T09:56:47Z</time></trkpt><trkpt lat="43.5433029410933" lon="11.451931748696492"><ele>275.0</ele><time>2026-04-26T09:56:48Z</time></trkpt><trkpt lat="43.54344470741289" lon="11.451817447901794"><ele>275.0</ele><time>2026-04-26T09:56:49Z</time></trkpt><trkpt lat="43.5435877352056" lon="11.45170882375013"><ele>275.0</ele><time>2026-04-26T09:56:50Z</time></trkpt><trkpt lat="43.543730288163154" lon="11.451592525956341"><ele>275.0</ele><time>2026-04-26T09:56:51Z</time></trkpt><trkpt lat="43.54388971916809" lon="11.451493430688581"><ele>270.33333333333337</ele><time>2026-04-26T09:56:52Z</time></trkpt><trkpt lat="43.54405760792911" lon="11.451365049385688"><ele>265.6666666666667</ele><time>2026-04-26T09:56:53Z</time></trkpt><trkpt lat="43.54423633818832" lon="11.451227061152572"><ele>261.0</ele><time>2026-04-26T09:56:54Z</time></trkpt><trkpt lat="43.54441417019209" lon="11.451089258611908"><ele>264.0</ele><time>2026-04-26T09:56:55Z</time></trkpt><trkpt lat="43.544572484142286" lon="11.450946901654506"><ele>267.0</ele><time>2026-04-26T09:56:56Z</time></trkpt><trkpt lat="43.54473109587923" lon="11.450830765028776"><ele>270.0</ele><time>2026-04-26T09:56:57Z</time></trkpt><trkpt lat="43.544874431544066" lon="11.450717848705782"><ele>270.0</ele><time>2026-04-26T09:56:58Z</time></trkpt><trkpt lat="43.54499738332183" lon="11.450580476177432"><ele>270.0</ele><time>2026-04-26T09:56:59Z</time></trkpt><trkpt lat="43.545098912885756" lon="11.450418409705161"><ele>270.0</ele><time>2026-04-26T09:57:00Z</time></trkpt><trkpt lat="43.54518076957414" lon="11.450230314954254"><ele>270.6666666666667</ele><time>2026-04-26T09:57:01Z</time></trkpt><trkpt lat="43.54526094108036" lon="11.450036537654054"><ele>271.33333333333337</ele><time>2026-04-26T09:57:02Z</time></trkpt><trkpt lat="43.545350936595185" lon="11.449864490742932"><ele>272.0</ele><time>2026-04-26T09:57:03Z</time></trkpt><trkpt lat="43.54540734782386" lon="11.449691995651534"><ele>271.5</ele><time>2026-04-26T09:57:04Z</time></trkpt><trkpt lat="43.54547888009964" lon="11.449557970924817"><ele>271.0</ele><time>2026-04-26T09:57:05Z</time></trkpt><trkpt lat="43.545560494229754" lon="11.449444866578242"><ele>270.5</ele><time>2026-04-26T09:57:06Z</time></trkpt><trkpt lat="43.545663826340814" lon="11.44936860991302"><ele>270.0</ele><time>2026-04-26T09:57:07Z</time></trkpt><trkpt lat="43.54577742539479" lon="11.449343529813795"><ele>270.0</ele><time>2026-04-26T09:57:08Z</time></trkpt><trkpt lat="43.54589062041595" lon="11.449356852756049"><ele>270.0</ele><time>2026-04-26T09:57:09Z</time></trkpt><trkpt lat="43.545995217470434" lon="11.449416124295501"><ele>270.0</ele><time>2026-04-26T09:57:10Z</time></trkpt><trkpt lat="43.54608923771372" lon="11.449516735933647"><ele>270.0</ele><time>2026-04-26T09:57:11Z</time></trkpt><trkpt lat="43.54617550211367" lon="11.44965633615407"><ele>264.3333333333333</ele><time>2026-04-26T09:57:12Z</time></trkpt><trkpt lat="43.54626882354241" lon="11.449808988594654"><ele>258.66666666666663</ele><time>2026-04-26T09:57:13Z</time></trkpt><trkpt lat="43.54638021066963" lon="11.449966921189358"><ele>253.0</ele><time>2026-04-26T09:57:14Z</time></trkpt><trkpt lat="43.54650161558965" lon="11.450111088862082"><ele>253.0</ele><time>2026-04-26T09:57:15Z</time></trkpt><trkpt lat="43.546625899864885" lon="11.450240681091072"><ele>253.0</ele><time>2026-04-26T09:57:16Z</time></trkpt><trkpt lat="43.54674812632919" lon="11.450364291124743"><ele>253.0</ele><time>2026-04-26T09:57:17Z</time></trkpt><trkpt lat="43.546861955960004" lon="11.45047205782924"><ele>253.0</ele><time>2026-04-26T09:57:18Z</time></trkpt><trkpt lat="43.546966099100885" lon="11.45061750097718"><ele>247.66666666666666</ele><time>2026-04-26T09:57:19Z</time></trkpt><trkpt lat="43.547050386964386" lon="11.450784484901028"><ele>242.33333333333331</ele><time>2026-04-26T09:57:20Z</time></trkpt><trkpt lat="43.54712653927149" lon="11.450967903762582"><ele>237.0</ele><time>2026-04-26T09:57:21Z</time></trkpt><trkpt lat="43.547198951690056" lon="11.451166262152437"><ele>238.0</ele><time>2026-04-26T09:57:22Z</time></trkpt><trkpt lat="43.54727713759238" lon="11.451352776085542"><ele>239.0</ele><time>2026-04-26T09:57:23Z</time></trkpt><trkpt lat="43.54736429238084" lon="11.451519581780417"><ele>240.0</ele><time>2026-04-26T09:57:24Z</time></trkpt><trkpt lat="43.54747002900856" lon="11.451654144974666"><ele>241.0</ele><time>2026-04-26T09:57:25Z</time></trkpt><trkpt lat="43.547593728982655" lon="11.451747097577659"><ele>241.0</ele><time>2026-04-26T09:57:26Z</time></trkpt><trkpt lat="43.54772217290704" lon="11.451801879079866"><ele>241.0</ele><time>2026-04-26T09:57:27Z</time></trkpt><trkpt lat="43.54786002151868" lon="11.451809606771429"><ele>241.0</ele><time>2026-04-26T09:57:28Z</time></trkpt><trkpt lat="43.548005259727645" lon="11.451786537032833"><ele>241.0</ele><time>2026-04-26T09:57:29Z</time></trkpt><trkpt lat="43.54815942256333" lon="11.451759006639723"><ele>238.0</ele><time>2026-04-26T09:57:30Z</time></trkpt><trkpt lat="43.54832597088285" lon="11.451722570262074"><ele>235.0</ele><time>2026-04-26T09:57:31Z</time></trkpt><trkpt lat="43.54850185572751" lon="11.451670228977274"><ele>232.0</ele><time>2026-04-26T09:57:32Z</time></trkpt><trkpt lat="43.548674117810386" lon="11.45161362642535"><ele>230.33333333333331</ele><time>2026-04-26T09:57:33Z</time></trkpt><trkpt lat="43.548835958950164" lon="11.451556394785829"><ele>228.66666666666669</ele><time>2026-04-26T09:57:34Z</time></trkpt><trkpt lat="43.548999277966836" lon="11.451504882699076"><ele>227.0</ele><time>2026-04-26T09:57:35Z</time></trkpt><trkpt lat="43.54916810798021" lon="11.451491310329793"><ele>227.0</ele><time>2026-04-26T09:57:36Z</time></trkpt><trkpt lat="43.54933151751541" lon="11.45151284841089"><ele>227.0</ele><time>2026-04-26T09:57:37Z</time></trkpt><trkpt lat="43.549491181197745" lon="11.451563312099172"><ele>227.0</ele><time>2026-04-26T09:57:38Z</time></trkpt><trkpt lat="43.5496508164618" lon="11.451640789824634"><ele>224.33333333333334</ele><time>2026-04-26T09:57:39Z</time></trkpt><trkpt lat="43.54981422388756" lon="11.451722252023607"><ele>221.66666666666669</ele><time>2026-04-26T09:57:40Z</time></trkpt><trkpt lat="43.54997949905668" lon="11.451797032279885"><ele>219.0</ele><time>2026-04-26T09:57:41Z</time></trkpt><trkpt lat="43.550145144261414" lon="11.451866833208777"><ele>219.0</ele><time>2026-04-26T09:57:42Z</time></trkpt><trkpt lat="43.55031381371761" lon="11.45193118145281"><ele>219.0</ele><time>2026-04-26T09:57:43Z</time></trkpt><trkpt lat="43.550482749770985" lon="11.451995363357836"><ele>219.0</ele><time>2026-04-26T09:57:44Z</time></trkpt><trkpt lat="43.55065149871733" lon="11.452058327423936"><ele>214.66666666666669</ele><time>2026-04-26T09:57:45Z</time></trkpt><trkpt lat="43.55081599481681" lon="11.452123820009557"><ele>210.33333333333334</ele><time>2026-04-26T09:57:46Z</time></trkpt><trkpt lat="43.550973508773374" lon="11.452191147413496"><ele>206.0</ele><time>2026-04-26T09:57:47Z</time></trkpt><trkpt lat="43.55113378925276" lon="11.452235299651608"><ele>204.66666666666669</ele><time>2026-04-26T09:57:48Z</time></trkpt><trkpt lat="43.551291971903346" lon="11.452229438690157"><ele>203.33333333333331</ele><time>2026-04-26T09:57:49Z</time></trkpt><trkpt lat="43.551453547346895" lon="11.452173799276059"><ele>202.0</ele><time>2026-04-26T09:57:50Z</time></trkpt><trkpt lat="43.551619685285544" lon="11.452100105053749"><ele>202.0</ele><time>2026-04-26T09:57:51Z</time></trkpt><trkpt lat="43.55178691754603" lon="11.45201850641111"><ele>202.0</ele><time>2026-04-26T09:57:52Z</time></trkpt><trkpt lat="43.55195327371852" lon="11.451922136607678"><ele>202.0</ele><time>2026-04-26T09:57:53Z</time></trkpt><trkpt lat="43.55210981922402" lon="11.451791321098625"><ele>200.66666666666666</ele><time>2026-04-26T09:57:54Z</time></trkpt><trkpt lat="43.552258510715546" lon="11.45163714050436"><ele>199.33333333333331</ele><time>2026-04-26T09:57:55Z</time></trkpt><trkpt lat="43.55240418663384" lon="11.451475919066244"><ele>198.0</ele><time>2026-04-26T09:57:56Z</time></trkpt><trkpt lat="43.5525511601165" lon="11.451315041624582"><ele>197.33333333333331</ele><time>2026-04-26T09:57:57Z</time></trkpt><trkpt lat="43.552695758526475" lon="11.45115833242394"><ele>196.66666666666666</ele><time>2026-04-26T09:57:58Z</time></trkpt><trkpt lat="43.55283843704721" lon="11.451006943170235"><ele>196.0</ele><time>2026-04-26T09:57:59Z</time></trkpt><trkpt lat="43.55298740031892" lon="11.450876152412663"><ele>196.0</ele><time>2026-04-26T09:58:00Z</time></trkpt><trkpt lat="43.553145945532535" lon="11.450781363381376"><ele>196.0</ele><time>2026-04-26T09:58:01Z</time></trkpt><trkpt lat="43.553313201658064" lon="11.450715531509282"><ele>196.0</ele><time>2026-04-26T09:58:02Z</time></trkpt><trkpt lat="43.55348579717361" lon="11.450675192266651"><ele>196.0</ele><time>2026-04-26T09:58:03Z</time></trkpt><trkpt lat="43.553662958817405" lon="11.450659291220896"><ele>196.0</ele><time>2026-04-26T09:58:04Z</time></trkpt><trkpt lat="43.553841755123976" lon="11.450665514038207"><ele>196.0</ele><time>2026-04-26T09:58:05Z</time></trkpt><trkpt lat="43.55401776978277" lon="11.45070418942049"><ele>194.33333333333331</ele><time>2026-04-26T09:58:06Z</time></trkpt><trkpt lat="43.554192583298814" lon="11.45077960357118"><ele>192.66666666666666</ele><time>2026-04-26T09:58:07Z</time></trkpt><trkpt lat="43.55436892337288" lon="11.450876108329382"><ele>191.0</ele><time>2026-04-26T09:58:08Z</time></trkpt><trkpt lat="43.554547201743105" lon="11.450982479380142"><ele>189.66666666666666</ele><time>2026-04-26T09:58:09Z</time></trkpt><trkpt lat="43.55472931194768" lon="11.451090878707648"><ele>188.33333333333334</ele><time>2026-04-26T09:58:10Z</time></trkpt><trkpt lat="43.5549142456857" lon="11.451204977678145"><ele>187.0</ele><time>2026-04-26T09:58:11Z</time></trkpt><trkpt lat="43.5551022002337" lon="11.4513230212189"><ele>187.0</ele><time>2026-04-26T09:58:12Z</time></trkpt><trkpt lat="43.555295213574304" lon="11.451441319266623"><ele>187.0</ele><time>2026-04-26T09:58:13Z</time></trkpt><trkpt lat="43.55548881949727" lon="11.451557437342435"><ele>187.0</ele><time>2026-04-26T09:58:14Z</time></trkpt><trkpt lat="43.5556814958809" lon="11.451672679565188"><ele>187.0</ele><time>2026-04-26T09:58:15Z</time></trkpt><trkpt lat="43.555870704383636" lon="11.451781451943498"><ele>187.0</ele><time>2026-04-26T09:58:16Z</time></trkpt><trkpt lat="43.55606073852791" lon="11.451869454334505"><ele>187.0</ele><time>2026-04-26T09:58:17Z</time></trkpt><trkpt lat="43.55625581639568" lon="11.451930346729863"><ele>187.33333333333334</ele><time>2026-04-26T09:58:18Z</time></trkpt><trkpt lat="43.556452684452324" lon="11.451963449156652"><ele>187.66666666666666</ele><time>2026-04-26T09:58:19Z</time></trkpt><trkpt lat="43.55665027480405" lon="11.451966295657451"><ele>188.0</ele><time>2026-04-26T09:58:20Z</time></trkpt><trkpt lat="43.55684478239825" lon="11.451940302109913"><ele>188.0</ele><time>2026-04-26T09:58:21Z</time></trkpt><trkpt lat="43.55703368292699" lon="11.451888584551313"><ele>188.0</ele><time>2026-04-26T09:58:22Z</time></trkpt><trkpt lat="43.557215201682105" lon="11.451832367781902"><ele>188.0</ele><time>2026-04-26T09:58:23Z</time></trkpt><trkpt lat="43.55738467272125" lon="11.451791876368512"><ele>188.0</ele><time>2026-04-26T09:58:24Z</time></trkpt><trkpt lat="43.55755324473845" lon="11.451788377152397"><ele>188.0</ele><time>2026-04-26T09:58:25Z</time></trkpt><trkpt lat="43.55772110291419" lon="11.451820830429133"><ele>188.0</ele><time>2026-04-26T09:58:26Z</time></trkpt><trkpt lat="43.557886774152855" lon="11.451871384315666"><ele>188.0</ele><time>2026-04-26T09:58:27Z</time></trkpt><trkpt lat="43.55804284257191" lon="11.451943224770172"><ele>188.0</ele><time>2026-04-26T09:58:28Z</time></trkpt><trkpt lat="43.55818663970424" lon="11.452045297659849"><ele>188.0</ele><time>2026-04-26T09:58:29Z</time></trkpt><trkpt lat="43.55831162280522" lon="11.452161927799525"><ele>188.66666666666666</ele><time>2026-04-26T09:58:30Z</time></trkpt><trkpt lat="43.55842720643517" lon="11.45229191249421"><ele>189.33333333333334</ele><time>2026-04-26T09:58:31Z</time></trkpt><trkpt lat="43.55854052130886" lon="11.452444325642947"><ele>190.0</ele><time>2026-04-26T09:58:32Z</time></trkpt><trkpt lat="43.55865269846236" lon="11.45261278136606"><ele>189.66666666666669</ele><time>2026-04-26T09:58:33Z</time></trkpt><trkpt lat="43.55876940258925" lon="11.45279250011199"><ele>189.33333333333334</ele><time>2026-04-26T09:58:34Z</time></trkpt><trkpt lat="43.55888682691294" lon="11.452977246637962"><ele>189.0</ele><time>2026-04-26T09:58:35Z</time></trkpt><trkpt lat="43.55900585944728" lon="11.453168260425661"><ele>188.33333333333334</ele><time>2026-04-26T09:58:36Z</time></trkpt><trkpt lat="43.55912755219771" lon="11.453362489772411"><ele>187.66666666666669</ele><time>2026-04-26T09:58:37Z</time></trkpt><trkpt lat="43.55925170960949" lon="11.453561515796169"><ele>187.0</ele><time>2026-04-26T09:58:38Z</time></trkpt><trkpt lat="43.55937354278207" lon="11.453760436893406"><ele>187.33333333333334</ele><time>2026-04-26T09:58:39Z</time></trkpt><trkpt lat="43.55949509351445" lon="11.453958255011843"><ele>187.66666666666666</ele><time>2026-04-26T09:58:40Z</time></trkpt><trkpt lat="43.55961302142594" lon="11.454155265402676"><ele>188.0</ele><time>2026-04-26T09:58:41Z</time></trkpt><trkpt lat="43.55972238878243" lon="11.454348823787274"><ele>188.0</ele><time>2026-04-26T09:58:42Z</time></trkpt><trkpt lat="43.55982129127439" lon="11.454551498497203"><ele>188.0</ele><time>2026-04-26T09:58:43Z</time></trkpt><trkpt lat="43.55990538742032" lon="11.454766157911102"><ele>188.0</ele><time>2026-04-26T09:58:44Z</time></trkpt><trkpt lat="43.559978449852665" lon="11.454989034276453"><ele>187.0</ele><time>2026-04-26T09:58:45Z</time></trkpt><trkpt lat="43.56004658804693" lon="11.455221811529968"><ele>186.0</ele><time>2026-04-26T09:58:46Z</time></trkpt><trkpt lat="43.5601076956895" lon="11.455466874933645"><ele>185.0</ele><time>2026-04-26T09:58:47Z</time></trkpt><trkpt lat="43.56016313898524" lon="11.455719252340408"><ele>183.66666666666666</ele><time>2026-04-26T09:58:48Z</time></trkpt><trkpt lat="43.56021686321085" lon="11.45597690627375"><ele>182.33333333333334</ele><time>2026-04-26T09:58:49Z</time></trkpt><trkpt lat="43.560272349575506" lon="11.456246334997676"><ele>181.0</ele><time>2026-04-26T09:58:50Z</time></trkpt><trkpt lat="43.56032577381278" lon="11.456523490064605"><ele>182.0</ele><time>2026-04-26T09:58:51Z</time></trkpt><trkpt lat="43.56037961275515" lon="11.45680570889539"><ele>183.0</ele><time>2026-04-26T09:58:52Z</time></trkpt><trkpt lat="43.560433917222596" lon="11.457089336987758"><ele>184.0</ele><time>2026-04-26T09:58:53Z</time></trkpt><trkpt lat="43.560488560057536" lon="11.45736947871278"><ele>184.0</ele><time>2026-04-26T09:58:54Z</time></trkpt><trkpt lat="43.56054198073736" lon="11.45764871814889"><ele>184.0</ele><time>2026-04-26T09:58:55Z</time></trkpt><trkpt lat="43.560594840137654" lon="11.45792523136638"><ele>184.0</ele><time>2026-04-26T09:58:56Z</time></trkpt><trkpt lat="43.560647958066006" lon="11.458197027835547"><ele>184.0</ele><time>2026-04-26T09:58:57Z</time></trkpt><trkpt lat="43.560702303701646" lon="11.458465100429198"><ele>184.0</ele><time>2026-04-26T09:58:58Z</time></trkpt><trkpt lat="43.56075756088291" lon="11.458734307505505"><ele>184.0</ele><time>2026-04-26T09:58:59Z</time></trkpt><trkpt lat="43.56081279376168" lon="11.459005415528896"><ele>184.0</ele><time>2026-04-26T09:59:00Z</time></trkpt><trkpt lat="43.56086641815465" lon="11.45928299016789"><ele>184.0</ele><time>2026-04-26T09:59:01Z</time></trkpt><trkpt lat="43.56092160382189" lon="11.459565591282752"><ele>184.0</ele><time>2026-04-26T09:59:02Z</time></trkpt><trkpt lat="43.56097907374175" lon="11.459851157930778"><ele>182.66666666666669</ele><time>2026-04-26T09:59:03Z</time></trkpt><trkpt lat="43.561038299583295" lon="11.460135264068647"><ele>181.33333333333334</ele><time>2026-04-26T09:59:04Z</time></trkpt><trkpt lat="43.56109163801861" lon="11.460402333852898"><ele>180.0</ele><time>2026-04-26T09:59:05Z</time></trkpt><trkpt lat="43.561144095989775" lon="11.46065699728291"><ele>179.66666666666666</ele><time>2026-04-26T09:59:06Z</time></trkpt><trkpt lat="43.56119550187767" lon="11.460911684969732"><ele>179.33333333333331</ele><time>2026-04-26T09:59:07Z</time></trkpt><trkpt lat="43.561245554798894" lon="11.461164875852832"><ele>179.0</ele><time>2026-04-26T09:59:08Z</time></trkpt><trkpt lat="43.56129417242319" lon="11.461413858047543"><ele>176.66666666666666</ele><time>2026-04-26T09:59:09Z</time></trkpt><trkpt lat="43.561342278629816" lon="11.461661305103906"><ele>174.33333333333334</ele><time>2026-04-26T09:59:10Z</time></trkpt><trkpt lat="43.561381307113315" lon="11.461910833372066"><ele>172.0</ele><time>2026-04-26T09:59:11Z</time></trkpt><trkpt lat="43.56140879730829" lon="11.462162651573998"><ele>171.0</ele><time>2026-04-26T09:59:12Z</time></trkpt><trkpt lat="43.561422120904496" lon="11.462416001110185"><ele>170.0</ele><time>2026-04-26T09:59:13Z</time></trkpt><trkpt lat="43.561422368056576" lon="11.462669743027705"><ele>169.0</ele><time>2026-04-26T09:59:14Z</time></trkpt><trkpt lat="43.561406444608416" lon="11.462923916072294"><ele>168.0</ele><time>2026-04-26T09:59:15Z</time></trkpt><trkpt lat="43.56138308535623" lon="11.463176088211576"><ele>167.0</ele><time>2026-04-26T09:59:16Z</time></trkpt><trkpt lat="43.56135787448663" lon="11.46342748020075"><ele>166.0</ele><time>2026-04-26T09:59:17Z</time></trkpt><trkpt lat="43.561330242269385" lon="11.463673727449375"><ele>165.33333333333334</ele><time>2026-04-26T09:59:18Z</time></trkpt><trkpt lat="43.561302962465476" lon="11.463917331222547"><ele>164.66666666666666</ele><time>2026-04-26T09:59:19Z</time></trkpt><trkpt lat="43.56127636502609" lon="11.464163092524716"><ele>164.0</ele><time>2026-04-26T09:59:20Z</time></trkpt><trkpt lat="43.5612499077654" lon="11.46440695492462"><ele>163.33333333333331</ele><time>2026-04-26T09:59:21Z</time></trkpt><trkpt lat="43.56122426309433" lon="11.46464989200508"><ele>162.66666666666666</ele><time>2026-04-26T09:59:22Z</time></trkpt><trkpt lat="43.56120024051021" lon="11.4648933813643"><ele>162.0</ele><time>2026-04-26T09:59:23Z</time></trkpt><trkpt lat="43.56117923065428" lon="11.465138125186952"><ele>162.0</ele><time>2026-04-26T09:59:24Z</time></trkpt><trkpt lat="43.561166032513775" lon="11.465380177743482"><ele>162.0</ele><time>2026-04-26T09:59:25Z</time></trkpt><trkpt lat="43.561164589124836" lon="11.46562339718644"><ele>162.0</ele><time>2026-04-26T09:59:26Z</time></trkpt><trkpt lat="43.56118027105228" lon="11.46586378574199"><ele>162.0</ele><time>2026-04-26T09:59:27Z</time></trkpt><trkpt lat="43.56120790171649" lon="11.466103776439795"><ele>162.0</ele><time>2026-04-26T09:59:28Z</time></trkpt><trkpt lat="43.56124962937151" lon="11.4663437405765"><ele>162.0</ele><time>2026-04-26T09:59:29Z</time></trkpt><trkpt lat="43.5613018282053" lon="11.466582230620398"><ele>162.0</ele><time>2026-04-26T09:59:30Z</time></trkpt><trkpt lat="43.561361800641386" lon="11.466820442482296"><ele>162.0</ele><time>2026-04-26T09:59:31Z</time></trkpt><trkpt lat="43.56142382917143" lon="11.467062049070107"><ele>162.0</ele><time>2026-04-26T09:59:32Z</time></trkpt><trkpt lat="43.56148278262699" lon="11.467308011510326"><ele>161.33333333333334</ele><time>2026-04-26T09:59:33Z</time></trkpt><trkpt lat="43.561537957535464" lon="11.467557807019384"><ele>160.66666666666669</ele><time>2026-04-26T09:59:34Z</time></trkpt><trkpt lat="43.56159181838312" lon="11.46781034865654"><ele>160.0</ele><time>2026-04-26T09:59:35Z</time></trkpt><trkpt lat="43.56164798050115" lon="11.468060496471088"><ele>159.66666666666669</ele><time>2026-04-26T09:59:36Z</time></trkpt><trkpt lat="43.561714195723006" lon="11.468308620132264"><ele>159.33333333333334</ele><time>2026-04-26T09:59:37Z</time></trkpt><trkpt lat="43.56179330804287" lon="11.468560110446568"><ele>159.0</ele><time>2026-04-26T09:59:38Z</time></trkpt><trkpt lat="43.56188278952145" lon="11.468812755103086"><ele>158.33333333333334</ele><time>2026-04-26T09:59:39Z</time></trkpt><trkpt lat="43.561981062811796" lon="11.469068700825446"><ele>157.66666666666669</ele><time>2026-04-26T09:59:40Z</time></trkpt><trkpt lat="43.56208198456619" lon="11.469332298799538"><ele>157.0</ele><time>2026-04-26T09:59:41Z</time></trkpt><trkpt lat="43.56218524386419" lon="11.469612387855468"><ele>156.5</ele><time>2026-04-26T09:59:42Z</time></trkpt><trkpt lat="43.56228854316847" lon="11.469907290638961"><ele>156.0</ele><time>2026-04-26T09:59:43Z</time></trkpt><trkpt lat="43.56238804876904" lon="11.470223409676427"><ele>155.0</ele><time>2026-04-26T09:59:44Z</time></trkpt><trkpt lat="43.56248335046792" lon="11.470551425519515"><ele>154.0</ele><time>2026-04-26T09:59:45Z</time></trkpt><trkpt lat="43.56257295177827" lon="11.470892499230878"><ele>154.0</ele><time>2026-04-26T09:59:46Z</time></trkpt><trkpt lat="43.56266649347892" lon="11.471223534912456"><ele>154.0</ele><time>2026-04-26T09:59:47Z</time></trkpt><trkpt lat="43.56274972702504" lon="11.47152324723077"><ele>154.0</ele><time>2026-04-26T09:59:48Z</time></trkpt><trkpt lat="43.56283102092733" lon="11.471806884322191"><ele>154.0</ele><time>2026-04-26T09:59:49Z</time></trkpt><trkpt lat="43.56290772002176" lon="11.47207452039969"><ele>154.0</ele><time>2026-04-26T09:59:50Z</time></trkpt><trkpt lat="43.562975602769015" lon="11.472326692849647"><ele>154.0</ele><time>2026-04-26T09:59:51Z</time></trkpt><trkpt lat="43.563039174277925" lon="11.472566871134623"><ele>154.0</ele><time>2026-04-26T09:59:52Z</time></trkpt><trkpt lat="43.563093747204334" lon="11.47279878773615"><ele>154.0</ele><time>2026-04-26T09:59:53Z</time></trkpt><trkpt lat="43.563135832903306" lon="11.473035943823362"><ele>153.33333333333334</ele><time>2026-04-26T09:59:54Z</time></trkpt><trkpt lat="43.56315224639919" lon="11.473277564678568"><ele>152.66666666666666</ele><time>2026-04-26T09:59:55Z</time></trkpt><trkpt lat="43.563145545790945" lon="11.473530799738816"><ele>152.0</ele><time>2026-04-26T09:59:56Z</time></trkpt><trkpt lat="43.5631292005569" lon="11.47378636879058"><ele>152.0</ele><time>2026-04-26T09:59:57Z</time></trkpt><trkpt lat="43.56310224048948" lon="11.474051018989107"><ele>152.0</ele><time>2026-04-26T09:59:58Z</time></trkpt><trkpt lat="43.56307153688712" lon="11.474320724197653"><ele>152.0</ele><time>2026-04-26T09:59:59Z</time></trkpt><trkpt lat="43.563041078666984" lon="11.4745938312514"><ele>151.0</ele><time>2026-04-26T10:00:00Z</time></trkpt><trkpt lat="43.56301040503142" lon="11.474875723751474"><ele>150.0</ele><time>2026-04-26T10:00:01Z</time></trkpt><trkpt lat="43.56297983702407" lon="11.475159800606042"><ele>149.0</ele><time>2026-04-26T10:00:02Z</time></trkpt><trkpt lat="43.56294572009241" lon="11.475446421765614"><ele>148.66666666666666</ele><time>2026-04-26T10:00:03Z</time></trkpt><trkpt lat="43.56291382485883" lon="11.475734128903738"><ele>148.33333333333334</ele><time>2026-04-26T10:00:04Z</time></trkpt><trkpt lat="43.56288164259397" lon="11.47602246758944"><ele>148.0</ele><time>2026-04-26T10:00:05Z</time></trkpt><trkpt lat="43.56284571558049" lon="11.476311391655415"><ele>148.66666666666669</ele><time>2026-04-26T10:00:06Z</time></trkpt><trkpt lat="43.56281067549205" lon="11.476600423620765"><ele>149.33333333333334</ele><time>2026-04-26T10:00:07Z</time></trkpt><trkpt lat="43.56277836577239" lon="11.476891323317362"><ele>150.0</ele><time>2026-04-26T10:00:08Z</time></trkpt><trkpt lat="43.56275808741698" lon="11.477170928137076"><ele>150.0</ele><time>2026-04-26T10:00:09Z</time></trkpt><trkpt lat="43.56275224542797" lon="11.47744000773752"><ele>150.0</ele><time>2026-04-26T10:00:10Z</time></trkpt><trkpt lat="43.56276298823133" lon="11.477707960892648"><ele>150.0</ele><time>2026-04-26T10:00:11Z</time></trkpt><trkpt lat="43.56279165855461" lon="11.477970930862183"><ele>150.0</ele><time>2026-04-26T10:00:12Z</time></trkpt><trkpt lat="43.56283341332373" lon="11.478232287674002"><ele>150.0</ele><time>2026-04-26T10:00:13Z</time></trkpt><trkpt lat="43.56289047926393" lon="11.478488265040063"><ele>150.0</ele><time>2026-04-26T10:00:14Z</time></trkpt><trkpt lat="43.56296210607693" lon="11.478737423093838"><ele>149.0</ele><time>2026-04-26T10:00:15Z</time></trkpt><trkpt lat="43.56304807974182" lon="11.478977923630874"><ele>148.0</ele><time>2026-04-26T10:00:16Z</time></trkpt><trkpt lat="43.56314312982744" lon="11.479215876094395"><ele>147.0</ele><time>2026-04-26T10:00:17Z</time></trkpt><trkpt lat="43.56323717167827" lon="11.479453295927472"><ele>146.66666666666666</ele><time>2026-04-26T10:00:18Z</time></trkpt><trkpt lat="43.56332678358696" lon="11.479681314905235"><ele>146.33333333333331</ele><time>2026-04-26T10:00:19Z</time></trkpt><trkpt lat="43.56341221378761" lon="11.479893140981149"><ele>146.0</ele><time>2026-04-26T10:00:20Z</time></trkpt><trkpt lat="43.56349543333184" lon="11.480105439895112"><ele>146.0</ele><time>2026-04-26T10:00:21Z</time></trkpt><trkpt lat="43.56357692048162" lon="11.480315666829139"><ele>146.0</ele><time>2026-04-26T10:00:22Z</time></trkpt><trkpt lat="43.56365837151881" lon="11.480504610912405"><ele>146.0</ele><time>2026-04-26T10:00:23Z</time></trkpt><trkpt lat="43.563747264367265" lon="11.480678999839624"><ele>145.75</ele><time>2026-04-26T10:00:24Z</time></trkpt><trkpt lat="43.56383907150677" lon="11.480834016190512"><ele>145.5</ele><time>2026-04-26T10:00:25Z</time></trkpt><trkpt lat="43.5639260641521" lon="11.48097298157119"><ele>145.25</ele><time>2026-04-26T10:00:26Z</time></trkpt><trkpt lat="43.563996511698754" lon="11.481089867941376"><ele>145.0</ele><time>2026-04-26T10:00:27Z</time></trkpt><trkpt lat="43.564047150466564" lon="11.481198682577345"><ele>145.2</ele><time>2026-04-26T10:00:28Z</time></trkpt><trkpt lat="43.564074235865704" lon="11.481313038544398"><ele>145.4</ele><time>2026-04-26T10:00:29Z</time></trkpt><trkpt lat="43.56402746311579" lon="11.481556916129996"><ele>145.6</ele><time>2026-04-26T10:00:31Z</time></trkpt><trkpt lat="43.56403768147883" lon="11.481668146067905"><ele>145.8</ele><time>2026-04-26T10:00:32Z</time></trkpt><trkpt lat="43.564081824422594" lon="11.481764286316862"><ele>146.0</ele><time>2026-04-26T10:00:33Z</time></trkpt><trkpt lat="43.564148676102846" lon="11.481820230336718"><ele>146.0</ele><time>2026-04-26T10:00:34Z</time></trkpt><trkpt lat="43.56422922528808" lon="11.48185779113057"><ele>146.0</ele><time>2026-04-26T10:00:35Z</time></trkpt><trkpt lat="43.56431965538269" lon="11.481788476719531"><ele>146.0</ele><time>2026-04-26T10:00:36Z</time></trkpt><trkpt lat="43.564410403994" lon="11.481750404171791"><ele>146.0</ele><time>2026-04-26T10:00:37Z</time></trkpt><trkpt lat="43.564501539511895" lon="11.481766747245034"><ele>146.0</ele><time>2026-04-26T10:00:38Z</time></trkpt><trkpt lat="43.56459118521088" lon="11.481834066493361"><ele>145.75</ele><time>2026-04-26T10:00:39Z</time></trkpt><trkpt lat="43.56467778896537" lon="11.481937671535974"><ele>145.5</ele><time>2026-04-26T10:00:40Z</time></trkpt><trkpt lat="43.56478255973887" lon="11.482050061429417"><ele>145.25</ele><time>2026-04-26T10:00:41Z</time></trkpt><trkpt lat="43.56490213528899" lon="11.482151568199786"><ele>145.0</ele><time>2026-04-26T10:00:42Z</time></trkpt><trkpt lat="43.5650339993095" lon="11.48224219351498"><ele>145.0</ele><time>2026-04-26T10:00:43Z</time></trkpt><trkpt lat="43.565184361528615" lon="11.482334144590105"><ele>145.0</ele><time>2026-04-26T10:00:44Z</time></trkpt><trkpt lat="43.565341092480075" lon="11.482434803355961"><ele>145.0</ele><time>2026-04-26T10:00:45Z</time></trkpt><trkpt lat="43.565491328444914" lon="11.482524735709276"><ele>144.66666666666669</ele><time>2026-04-26T10:00:46Z</time></trkpt><trkpt lat="43.56562667346414" lon="11.482626385703284"><ele>144.33333333333334</ele><time>2026-04-26T10:00:47Z</time></trkpt><trkpt lat="43.56575531393484" lon="11.482769012818054"><ele>144.0</ele><time>2026-04-26T10:00:48Z</time></trkpt><trkpt lat="43.565843448207936" lon="11.482976204329882"><ele>143.66666666666666</ele><time>2026-04-26T10:00:49Z</time></trkpt><trkpt lat="43.565926336683326" lon="11.483176073002166"><ele>143.33333333333331</ele><time>2026-04-26T10:00:50Z</time></trkpt><trkpt lat="43.566021386167264" lon="11.483371548020981"><ele>143.0</ele><time>2026-04-26T10:00:51Z</time></trkpt><trkpt lat="43.56610847447763" lon="11.483592126161533"><ele>143.33333333333331</ele><time>2026-04-26T10:00:52Z</time></trkpt><trkpt lat="43.56620027390748" lon="11.483806437048019"><ele>143.66666666666666</ele><time>2026-04-26T10:00:53Z</time></trkpt><trkpt lat="43.56629084724681" lon="11.484023195371881"><ele>144.0</ele><time>2026-04-26T10:00:54Z</time></trkpt><trkpt lat="43.566379903637845" lon="11.484244482622056"><ele>144.0</ele><time>2026-04-26T10:00:55Z</time></trkpt><trkpt lat="43.56647392042249" lon="11.48445771620476"><ele>144.0</ele><time>2026-04-26T10:00:56Z</time></trkpt><trkpt lat="43.566561973224985" lon="11.484671805291194"><ele>144.0</ele><time>2026-04-26T10:00:57Z</time></trkpt><trkpt lat="43.56664006631246" lon="11.484867034545399"><ele>144.0</ele><time>2026-04-26T10:00:58Z</time></trkpt><trkpt lat="43.566716244200784" lon="11.485044631502518"><ele>144.0</ele><time>2026-04-26T10:00:59Z</time></trkpt><trkpt lat="43.566799683151785" lon="11.485206706032772"><ele>144.0</ele><time>2026-04-26T10:01:00Z</time></trkpt><trkpt lat="43.56690208967831" lon="11.485353421832428"><ele>144.0</ele><time>2026-04-26T10:01:01Z</time></trkpt><trkpt lat="43.56702838547717" lon="11.48546594551187"><ele>143.33333333333334</ele><time>2026-04-26T10:01:02Z</time></trkpt><trkpt lat="43.56716943176169" lon="11.485542209844164"><ele>142.66666666666669</ele><time>2026-04-26T10:01:03Z</time></trkpt><trkpt lat="43.56731680126323" lon="11.485598777854516"><ele>142.0</ele><time>2026-04-26T10:01:04Z</time></trkpt><trkpt lat="43.56746788703296" lon="11.48563683127375"><ele>142.0</ele><time>2026-04-26T10:01:05Z</time></trkpt><trkpt lat="43.5676213547752" lon="11.485677610108443"><ele>142.0</ele><time>2026-04-26T10:01:06Z</time></trkpt><trkpt lat="43.567774458102285" lon="11.48571912022568"><ele>142.0</ele><time>2026-04-26T10:01:07Z</time></trkpt><trkpt lat="43.5679267047195" lon="11.48576901587033"><ele>142.0</ele><time>2026-04-26T10:01:08Z</time></trkpt><trkpt lat="43.56807176532502" lon="11.48583415677073"><ele>142.0</ele><time>2026-04-26T10:01:09Z</time></trkpt><trkpt lat="43.568195345354525" lon="11.485920377090352"><ele>142.0</ele><time>2026-04-26T10:01:10Z</time></trkpt><trkpt lat="43.56830044937435" lon="11.486015329172591"><ele>142.0</ele><time>2026-04-26T10:01:11Z</time></trkpt><trkpt lat="43.56839200320823" lon="11.486119560801573"><ele>142.0</ele><time>2026-04-26T10:01:12Z</time></trkpt><trkpt lat="43.56847024622598" lon="11.486221376011972"><ele>142.0</ele><time>2026-04-26T10:01:13Z</time></trkpt><trkpt lat="43.56853241111587" lon="11.486319401789986"><ele>142.0</ele><time>2026-04-26T10:01:14Z</time></trkpt><trkpt lat="43.56858666726489" lon="11.486406001380264"><ele>142.0</ele><time>2026-04-26T10:01:15Z</time></trkpt><trkpt lat="43.568636682290524" lon="11.486465007354857"><ele>142.0</ele><time>2026-04-26T10:01:16Z</time></trkpt><trkpt lat="43.56868596978973" lon="11.486565137497514"><ele>142.0</ele><time>2026-04-26T10:01:18Z</time></trkpt><trkpt lat="43.56882777957606" lon="11.486333779958306"><ele>142.4</ele><time>2026-04-26T10:01:20Z</time></trkpt><trkpt lat="43.56885249226622" lon="11.48622522412678"><ele>142.79999999999998</ele><time>2026-04-26T10:01:21Z</time></trkpt><trkpt lat="43.5688583126763" lon="11.486097625548721"><ele>143.2</ele><time>2026-04-26T10:01:22Z</time></trkpt><trkpt lat="43.56886297537743" lon="11.485972456281381"><ele>143.6</ele><time>2026-04-26T10:01:23Z</time></trkpt><trkpt lat="43.568860016250625" lon="11.485827829802446"><ele>144.0</ele><time>2026-04-26T10:01:24Z</time></trkpt><trkpt lat="43.568854900131434" lon="11.485658518878148"><ele>144.0</ele><time>2026-04-26T10:01:25Z</time></trkpt><trkpt lat="43.56884394311124" lon="11.48546635239568"><ele>144.0</ele><time>2026-04-26T10:01:26Z</time></trkpt><trkpt lat="43.568831045729056" lon="11.485260957091143"><ele>144.0</ele><time>2026-04-26T10:01:27Z</time></trkpt><trkpt lat="43.568822781629834" lon="11.48504390911611"><ele>144.0</ele><time>2026-04-26T10:01:28Z</time></trkpt><trkpt lat="43.568817372107624" lon="11.484819145645004"><ele>145.33333333333334</ele><time>2026-04-26T10:01:29Z</time></trkpt><trkpt lat="43.56882987291867" lon="11.484599095394339"><ele>146.66666666666669</ele><time>2026-04-26T10:01:30Z</time></trkpt><trkpt lat="43.568857642536216" lon="11.48437004465807"><ele>148.0</ele><time>2026-04-26T10:01:31Z</time></trkpt><trkpt lat="43.56889810010854" lon="11.48412757404163"><ele>149.66666666666669</ele><time>2026-04-26T10:01:32Z</time></trkpt><trkpt lat="43.56894278755" lon="11.48387516401865"><ele>151.33333333333334</ele><time>2026-04-26T10:01:33Z</time></trkpt><trkpt lat="43.568987055095654" lon="11.48362127359437"><ele>153.0</ele><time>2026-04-26T10:01:34Z</time></trkpt><trkpt lat="43.56902947528177" lon="11.483361035267045"><ele>153.33333333333334</ele><time>2026-04-26T10:01:35Z</time></trkpt><trkpt lat="43.569070406317636" lon="11.483094563166462"><ele>153.66666666666669</ele><time>2026-04-26T10:01:36Z</time></trkpt><trkpt lat="43.56911278786532" lon="11.482827773180581"><ele>154.0</ele><time>2026-04-26T10:01:37Z</time></trkpt><trkpt lat="43.56916327062428" lon="11.482566845889584"><ele>154.0</ele><time>2026-04-26T10:01:38Z</time></trkpt><trkpt lat="43.569225309849045" lon="11.482319952617358"><ele>154.0</ele><time>2026-04-26T10:01:39Z</time></trkpt><trkpt lat="43.569287484297945" lon="11.482101071719317"><ele>154.0</ele><time>2026-04-26T10:01:40Z</time></trkpt><trkpt lat="43.56935026692614" lon="11.481917860591352"><ele>153.8</ele><time>2026-04-26T10:01:41Z</time></trkpt><trkpt lat="43.569403168569174" lon="11.481753948131223"><ele>153.60000000000002</ele><time>2026-04-26T10:01:42Z</time></trkpt><trkpt lat="43.569445451085954" lon="11.481609340673822"><ele>153.4</ele><time>2026-04-26T10:01:43Z</time></trkpt><trkpt lat="43.569479832683534" lon="11.481493200468783"><ele>153.20000000000002</ele><time>2026-04-26T10:01:44Z</time></trkpt><trkpt lat="43.569500840844114" lon="11.48139954218181"><ele>153.0</ele><time>2026-04-26T10:01:45Z</time></trkpt><trkpt lat="43.56952767124532" lon="11.481305129214052"><ele>153.20000000000002</ele><time>2026-04-26T10:01:47Z</time></trkpt><trkpt lat="43.5693759775208" lon="11.481235646924958"><ele>153.4</ele><time>2026-04-26T10:01:48Z</time></trkpt><trkpt lat="43.56930485096047" lon="11.48120492177932"><ele>153.60000000000002</ele><time>2026-04-26T10:01:49Z</time></trkpt><trkpt lat="43.569236416025646" lon="11.481149956804707"><ele>153.8</ele><time>2026-04-26T10:01:50Z</time></trkpt><trkpt lat="43.56917999174844" lon="11.481077842744915"><ele>154.0</ele><time>2026-04-26T10:01:51Z</time></trkpt><trkpt lat="43.56912228952145" lon="11.481002349267444"><ele>154.0</ele><time>2026-04-26T10:01:52Z</time></trkpt><trkpt lat="43.56906550687666" lon="11.480937014172042"><ele>154.0</ele><time>2026-04-26T10:01:53Z</time></trkpt><trkpt lat="43.56901061158669" lon="11.480870242787677"><ele>154.0</ele><time>2026-04-26T10:01:54Z</time></trkpt><trkpt lat="43.56895738384967" lon="11.480800428265177"><ele>154.0</ele><time>2026-04-26T10:01:55Z</time></trkpt><trkpt lat="43.56890733546911" lon="11.480725315075196"><ele>154.0</ele><time>2026-04-26T10:01:56Z</time></trkpt><trkpt lat="43.56885728073586" lon="11.48065558353903"><ele>154.0</ele><time>2026-04-26T10:01:57Z</time></trkpt><trkpt lat="43.568799377331466" lon="11.480616219948544"><ele>154.0</ele><time>2026-04-26T10:01:58Z</time></trkpt><trkpt lat="43.568684063908236" lon="11.48070196298346"><ele>154.0</ele><time>2026-04-26T10:02:00Z</time></trkpt><trkpt lat="43.56864616419563" lon="11.480776128358174"><ele>154.0</ele><time>2026-04-26T10:02:01Z</time></trkpt><trkpt lat="43.56857916111599" lon="11.480889223517272"><ele>154.0</ele><time>2026-04-26T10:02:03Z</time></trkpt><trkpt lat="43.56853395709129" lon="11.48095424401369"><ele>154.0</ele><time>2026-04-26T10:02:05Z</time></trkpt><trkpt lat="43.568641884974795" lon="11.481117974879366"><ele>154.0</ele><time>2026-04-26T10:02:07Z</time></trkpt><trkpt lat="43.56873461856204" lon="11.481219587568354"><ele>154.0</ele><time>2026-04-26T10:02:09Z</time></trkpt><trkpt lat="43.56878795103651" lon="11.481291973613864"><ele>153.0</ele><time>2026-04-26T10:02:11Z</time></trkpt><trkpt lat="43.568877920202155" lon="11.481274318734366"><ele>153.0</ele><time>2026-04-26T10:02:41Z</time></trkpt></trkseg></trk></gpx>